<?xml version="1.0" encoding="UTF-8" standalone="no" ?>
<gpx xmlns="http://www.topografix.com/GPX/1/1" xmlns:xsi="http://www.w3.org/2001/XMLSchema-instance" xsi:schemaLocation="http://www.topografix.com/GPX/1/1 http://www.topografix.com/GPX/1/1/gpx.xsd" version="1.1" creator="VisuGPX - https://www.visugpx.com">
  <metadata>
    <name>Sarzeau-Port navalo par la côte N</name>
    <desc><![CDATA[Très belle balade. Du poussage et du portage (on passe par des chemins réservés aux piétons, mais c'est magnifique) Retour par la véloroute.]]></desc>
  </metadata>
  <trk>
    <name><![CDATA[Gravel Morbihan 3]]></name>
    <extensions>
      <line xmlns="http://www.topografix.com/GPX/gpx_style/0/2">
        <color>0000FF</color>
        <width>4</width>
      </line>
    </extensions>
    <trkseg>
      <trkpt lat="47.52628" lon="-2.76834">
        <ele>-12.4</ele>
        <time>2021-11-13T11:47:52Z</time>
      </trkpt>
      <trkpt lat="47.52638" lon="-2.76838">
        <ele>32.4</ele>
        <time>2021-11-13T11:47:57Z</time>
      </trkpt>
      <trkpt lat="47.52639" lon="-2.76851">
        <ele>32.6</ele>
        <time>2021-11-13T11:48:01Z</time>
      </trkpt>
      <trkpt lat="47.52638" lon="-2.76858">
        <ele>32.8</ele>
        <time>2021-11-13T11:48:03Z</time>
      </trkpt>
      <trkpt lat="47.52636" lon="-2.76878">
        <ele>33</ele>
        <time>2021-11-13T11:48:09Z</time>
      </trkpt>
      <trkpt lat="47.52636" lon="-2.76889">
        <ele>33.4</ele>
        <time>2021-11-13T11:48:12Z</time>
      </trkpt>
      <trkpt lat="47.52639" lon="-2.76895">
        <ele>33.8</ele>
        <time>2021-11-13T11:48:14Z</time>
      </trkpt>
      <trkpt lat="47.52642" lon="-2.76896">
        <ele>34</ele>
        <time>2021-11-13T11:48:15Z</time>
      </trkpt>
      <trkpt lat="47.52651" lon="-2.76902">
        <ele>35</ele>
        <time>2021-11-13T11:48:19Z</time>
      </trkpt>
      <trkpt lat="47.52653" lon="-2.76905">
        <ele>35.2</ele>
        <time>2021-11-13T11:48:20Z</time>
      </trkpt>
      <trkpt lat="47.52654" lon="-2.76908">
        <ele>35.4</ele>
        <time>2021-11-13T11:48:21Z</time>
      </trkpt>
      <trkpt lat="47.52655" lon="-2.76919">
        <ele>36</ele>
        <time>2021-11-13T11:48:24Z</time>
      </trkpt>
      <trkpt lat="47.52655" lon="-2.76923">
        <ele>36.6</ele>
        <time>2021-11-13T11:48:25Z</time>
      </trkpt>
      <trkpt lat="47.52652" lon="-2.76942">
        <ele>37.6</ele>
        <time>2021-11-13T11:48:30Z</time>
      </trkpt>
      <trkpt lat="47.52652" lon="-2.7695">
        <ele>37.8</ele>
        <time>2021-11-13T11:48:32Z</time>
      </trkpt>
      <trkpt lat="47.52655" lon="-2.76956">
        <ele>38.2</ele>
        <time>2021-11-13T11:48:34Z</time>
      </trkpt>
      <trkpt lat="47.52661" lon="-2.76962">
        <ele>38.6</ele>
        <time>2021-11-13T11:48:37Z</time>
      </trkpt>
      <trkpt lat="47.52667" lon="-2.76969">
        <ele>39.2</ele>
        <time>2021-11-13T11:48:41Z</time>
      </trkpt>
      <trkpt lat="47.52669" lon="-2.76969">
        <ele>39.4</ele>
        <time>2021-11-13T11:48:42Z</time>
      </trkpt>
      <trkpt lat="47.52672" lon="-2.76965">
        <ele>39.6</ele>
        <time>2021-11-13T11:48:44Z</time>
      </trkpt>
      <trkpt lat="47.52673" lon="-2.76963">
        <ele>39.6</ele>
        <time>2021-11-13T11:48:45Z</time>
      </trkpt>
      <trkpt lat="47.52674" lon="-2.7696">
        <ele>39.8</ele>
        <time>2021-11-13T11:48:46Z</time>
      </trkpt>
      <trkpt lat="47.52678" lon="-2.76955">
        <ele>40</ele>
        <time>2021-11-13T11:48:48Z</time>
      </trkpt>
      <trkpt lat="47.52691" lon="-2.76944">
        <ele>40.8</ele>
        <time>2021-11-13T11:48:54Z</time>
      </trkpt>
      <trkpt lat="47.52694" lon="-2.76941">
        <ele>41</ele>
        <time>2021-11-13T11:48:55Z</time>
      </trkpt>
      <trkpt lat="47.52707" lon="-2.76932">
        <ele>42</ele>
        <time>2021-11-13T11:49:00Z</time>
      </trkpt>
      <trkpt lat="47.52709" lon="-2.76932">
        <ele>42.2</ele>
        <time>2021-11-13T11:49:01Z</time>
      </trkpt>
      <trkpt lat="47.52716" lon="-2.76924">
        <ele>42.8</ele>
        <time>2021-11-13T11:49:05Z</time>
      </trkpt>
      <trkpt lat="47.52719" lon="-2.76914">
        <ele>43.2</ele>
        <time>2021-11-13T11:49:08Z</time>
      </trkpt>
      <trkpt lat="47.52722" lon="-2.76906">
        <ele>44.2</ele>
        <time>2021-11-13T11:49:11Z</time>
      </trkpt>
      <trkpt lat="47.52723" lon="-2.76903">
        <ele>44.4</ele>
        <time>2021-11-13T11:49:12Z</time>
      </trkpt>
      <trkpt lat="47.52725" lon="-2.7689">
        <ele>45.2</ele>
        <time>2021-11-13T11:49:16Z</time>
      </trkpt>
      <trkpt lat="47.52728" lon="-2.76884">
        <ele>45.4</ele>
        <time>2021-11-13T11:49:18Z</time>
      </trkpt>
      <trkpt lat="47.52734" lon="-2.76875">
        <ele>46.6</ele>
        <time>2021-11-13T11:49:23Z</time>
      </trkpt>
      <trkpt lat="47.52738" lon="-2.7687">
        <ele>48</ele>
        <time>2021-11-13T11:49:28Z</time>
      </trkpt>
      <trkpt lat="47.52744" lon="-2.76868">
        <ele>49</ele>
        <time>2021-11-13T11:49:32Z</time>
      </trkpt>
      <trkpt lat="47.52748" lon="-2.76869">
        <ele>49.6</ele>
        <time>2021-11-13T11:49:34Z</time>
      </trkpt>
      <trkpt lat="47.52755" lon="-2.76871">
        <ele>50.2</ele>
        <time>2021-11-13T11:49:37Z</time>
      </trkpt>
      <trkpt lat="47.52761" lon="-2.76873">
        <ele>50.6</ele>
        <time>2021-11-13T11:49:39Z</time>
      </trkpt>
      <trkpt lat="47.52773" lon="-2.76876">
        <ele>51.2</ele>
        <time>2021-11-13T11:49:44Z</time>
      </trkpt>
      <trkpt lat="47.52778" lon="-2.76876">
        <ele>51.6</ele>
        <time>2021-11-13T11:49:46Z</time>
      </trkpt>
      <trkpt lat="47.5278" lon="-2.76876">
        <ele>51.8</ele>
        <time>2021-11-13T11:49:47Z</time>
      </trkpt>
      <trkpt lat="47.52783" lon="-2.76875">
        <ele>52.2</ele>
        <time>2021-11-13T11:49:49Z</time>
      </trkpt>
      <trkpt lat="47.52785" lon="-2.76875">
        <ele>52.4</ele>
        <time>2021-11-13T11:49:50Z</time>
      </trkpt>
      <trkpt lat="47.52788" lon="-2.76874">
        <ele>53</ele>
        <time>2021-11-13T11:49:52Z</time>
      </trkpt>
      <trkpt lat="47.52789" lon="-2.76872">
        <ele>53</ele>
        <time>2021-11-13T11:49:53Z</time>
      </trkpt>
      <trkpt lat="47.52793" lon="-2.76867">
        <ele>53.2</ele>
        <time>2021-11-13T11:49:55Z</time>
      </trkpt>
      <trkpt lat="47.52797" lon="-2.76859">
        <ele>53.6</ele>
        <time>2021-11-13T11:49:57Z</time>
      </trkpt>
      <trkpt lat="47.52812" lon="-2.76845">
        <ele>54.8</ele>
        <time>2021-11-13T11:50:03Z</time>
      </trkpt>
      <trkpt lat="47.52818" lon="-2.76842">
        <ele>55.2</ele>
        <time>2021-11-13T11:50:05Z</time>
      </trkpt>
      <trkpt lat="47.52823" lon="-2.76846">
        <ele>55.8</ele>
        <time>2021-11-13T11:50:07Z</time>
      </trkpt>
      <trkpt lat="47.52824" lon="-2.7685">
        <ele>56.2</ele>
        <time>2021-11-13T11:50:08Z</time>
      </trkpt>
      <trkpt lat="47.52829" lon="-2.76861">
        <ele>56.8</ele>
        <time>2021-11-13T11:50:11Z</time>
      </trkpt>
      <trkpt lat="47.52831" lon="-2.76865">
        <ele>57</ele>
        <time>2021-11-13T11:50:12Z</time>
      </trkpt>
      <trkpt lat="47.52836" lon="-2.76869">
        <ele>57.2</ele>
        <time>2021-11-13T11:50:14Z</time>
      </trkpt>
      <trkpt lat="47.5284" lon="-2.76872">
        <ele>57.6</ele>
        <time>2021-11-13T11:50:16Z</time>
      </trkpt>
      <trkpt lat="47.52843" lon="-2.76877">
        <ele>58.4</ele>
        <time>2021-11-13T11:50:18Z</time>
      </trkpt>
      <trkpt lat="47.52844" lon="-2.7688">
        <ele>58.4</ele>
        <time>2021-11-13T11:50:19Z</time>
      </trkpt>
      <trkpt lat="47.52844" lon="-2.76887">
        <ele>58.8</ele>
        <time>2021-11-13T11:50:21Z</time>
      </trkpt>
      <trkpt lat="47.52841" lon="-2.76899">
        <ele>59.6</ele>
        <time>2021-11-13T11:50:24Z</time>
      </trkpt>
      <trkpt lat="47.52839" lon="-2.76908">
        <ele>60</ele>
        <time>2021-11-13T11:50:26Z</time>
      </trkpt>
      <trkpt lat="47.52835" lon="-2.76926">
        <ele>60.6</ele>
        <time>2021-11-13T11:50:30Z</time>
      </trkpt>
      <trkpt lat="47.52832" lon="-2.76935">
        <ele>60.8</ele>
        <time>2021-11-13T11:50:32Z</time>
      </trkpt>
      <trkpt lat="47.52823" lon="-2.76959">
        <ele>62</ele>
        <time>2021-11-13T11:50:37Z</time>
      </trkpt>
      <trkpt lat="47.52815" lon="-2.76979">
        <ele>62.2</ele>
        <time>2021-11-13T11:50:41Z</time>
      </trkpt>
      <trkpt lat="47.52806" lon="-2.77008">
        <ele>63.2</ele>
        <time>2021-11-13T11:50:46Z</time>
      </trkpt>
      <trkpt lat="47.52804" lon="-2.77015">
        <ele>63.4</ele>
        <time>2021-11-13T11:50:47Z</time>
      </trkpt>
      <trkpt lat="47.52801" lon="-2.77027">
        <ele>63.6</ele>
        <time>2021-11-13T11:50:49Z</time>
      </trkpt>
      <trkpt lat="47.52799" lon="-2.7704">
        <ele>64</ele>
        <time>2021-11-13T11:50:51Z</time>
      </trkpt>
      <trkpt lat="47.52798" lon="-2.77054">
        <ele>64.2</ele>
        <time>2021-11-13T11:50:53Z</time>
      </trkpt>
      <trkpt lat="47.52796" lon="-2.77067">
        <ele>64.2</ele>
        <time>2021-11-13T11:50:55Z</time>
      </trkpt>
      <trkpt lat="47.52795" lon="-2.77079">
        <ele>64.4</ele>
        <time>2021-11-13T11:50:57Z</time>
      </trkpt>
      <trkpt lat="47.52796" lon="-2.77097">
        <ele>65</ele>
        <time>2021-11-13T11:51:00Z</time>
      </trkpt>
      <trkpt lat="47.52797" lon="-2.77114">
        <ele>65.2</ele>
        <time>2021-11-13T11:51:03Z</time>
      </trkpt>
      <trkpt lat="47.52797" lon="-2.7713">
        <ele>65.4</ele>
        <time>2021-11-13T11:51:06Z</time>
      </trkpt>
      <trkpt lat="47.52796" lon="-2.77181">
        <ele>66.2</ele>
        <time>2021-11-13T11:51:15Z</time>
      </trkpt>
      <trkpt lat="47.5279" lon="-2.77202">
        <ele>66.8</ele>
        <time>2021-11-13T11:51:20Z</time>
      </trkpt>
      <trkpt lat="47.52789" lon="-2.77205">
        <ele>67</ele>
        <time>2021-11-13T11:51:21Z</time>
      </trkpt>
      <trkpt lat="47.52789" lon="-2.77209">
        <ele>67</ele>
        <time>2021-11-13T11:51:22Z</time>
      </trkpt>
      <trkpt lat="47.52791" lon="-2.77216">
        <ele>67</ele>
        <time>2021-11-13T11:51:24Z</time>
      </trkpt>
      <trkpt lat="47.52809" lon="-2.77224">
        <ele>67.4</ele>
        <time>2021-11-13T11:51:29Z</time>
      </trkpt>
      <trkpt lat="47.52832" lon="-2.77241">
        <ele>67.2</ele>
        <time>2021-11-13T11:51:34Z</time>
      </trkpt>
      <trkpt lat="47.52843" lon="-2.77247">
        <ele>67.2</ele>
        <time>2021-11-13T11:51:36Z</time>
      </trkpt>
      <trkpt lat="47.52854" lon="-2.77256">
        <ele>67.2</ele>
        <time>2021-11-13T11:51:38Z</time>
      </trkpt>
      <trkpt lat="47.52885" lon="-2.77278">
        <ele>67.2</ele>
        <time>2021-11-13T11:51:43Z</time>
      </trkpt>
      <trkpt lat="47.52898" lon="-2.77288">
        <ele>67</ele>
        <time>2021-11-13T11:51:45Z</time>
      </trkpt>
      <trkpt lat="47.52911" lon="-2.77299">
        <ele>66.8</ele>
        <time>2021-11-13T11:51:47Z</time>
      </trkpt>
      <trkpt lat="47.52952" lon="-2.77332">
        <ele>66.4</ele>
        <time>2021-11-13T11:51:53Z</time>
      </trkpt>
      <trkpt lat="47.52973" lon="-2.77352">
        <ele>66.2</ele>
        <time>2021-11-13T11:51:56Z</time>
      </trkpt>
      <trkpt lat="47.53" lon="-2.77381">
        <ele>65.8</ele>
        <time>2021-11-13T11:52:00Z</time>
      </trkpt>
      <trkpt lat="47.53013" lon="-2.77394">
        <ele>65.6</ele>
        <time>2021-11-13T11:52:02Z</time>
      </trkpt>
      <trkpt lat="47.5302" lon="-2.774">
        <ele>65.6</ele>
        <time>2021-11-13T11:52:03Z</time>
      </trkpt>
      <trkpt lat="47.53034" lon="-2.77411">
        <ele>65.6</ele>
        <time>2021-11-13T11:52:05Z</time>
      </trkpt>
      <trkpt lat="47.53066" lon="-2.77438">
        <ele>65</ele>
        <time>2021-11-13T11:52:10Z</time>
      </trkpt>
      <trkpt lat="47.53073" lon="-2.77444">
        <ele>64.8</ele>
        <time>2021-11-13T11:52:11Z</time>
      </trkpt>
      <trkpt lat="47.53113" lon="-2.77483">
        <ele>63.6</ele>
        <time>2021-11-13T11:52:18Z</time>
      </trkpt>
      <trkpt lat="47.53144" lon="-2.77534">
        <ele>63.2</ele>
        <time>2021-11-13T11:52:25Z</time>
      </trkpt>
      <trkpt lat="47.53152" lon="-2.77547">
        <ele>63</ele>
        <time>2021-11-13T11:52:27Z</time>
      </trkpt>
      <trkpt lat="47.53166" lon="-2.77565">
        <ele>62.6</ele>
        <time>2021-11-13T11:52:30Z</time>
      </trkpt>
      <trkpt lat="47.53171" lon="-2.77569">
        <ele>62.6</ele>
        <time>2021-11-13T11:52:31Z</time>
      </trkpt>
      <trkpt lat="47.53176" lon="-2.77573">
        <ele>62.4</ele>
        <time>2021-11-13T11:52:32Z</time>
      </trkpt>
      <trkpt lat="47.53186" lon="-2.7758">
        <ele>62.2</ele>
        <time>2021-11-13T11:52:34Z</time>
      </trkpt>
      <trkpt lat="47.53191" lon="-2.77583">
        <ele>62</ele>
        <time>2021-11-13T11:52:35Z</time>
      </trkpt>
      <trkpt lat="47.53227" lon="-2.77601">
        <ele>61.6</ele>
        <time>2021-11-13T11:52:42Z</time>
      </trkpt>
      <trkpt lat="47.53244" lon="-2.77608">
        <ele>61.2</ele>
        <time>2021-11-13T11:52:45Z</time>
      </trkpt>
      <trkpt lat="47.53266" lon="-2.77617">
        <ele>60.6</ele>
        <time>2021-11-13T11:52:49Z</time>
      </trkpt>
      <trkpt lat="47.53277" lon="-2.77622">
        <ele>60.4</ele>
        <time>2021-11-13T11:52:51Z</time>
      </trkpt>
      <trkpt lat="47.53304" lon="-2.77635">
        <ele>59.6</ele>
        <time>2021-11-13T11:52:56Z</time>
      </trkpt>
      <trkpt lat="47.5331" lon="-2.77637">
        <ele>59.4</ele>
        <time>2021-11-13T11:52:57Z</time>
      </trkpt>
      <trkpt lat="47.53315" lon="-2.77639">
        <ele>59.2</ele>
        <time>2021-11-13T11:52:58Z</time>
      </trkpt>
      <trkpt lat="47.53336" lon="-2.77649">
        <ele>58.6</ele>
        <time>2021-11-13T11:53:02Z</time>
      </trkpt>
      <trkpt lat="47.53342" lon="-2.77652">
        <ele>58.6</ele>
        <time>2021-11-13T11:53:03Z</time>
      </trkpt>
      <trkpt lat="47.53376" lon="-2.77665">
        <ele>58.2</ele>
        <time>2021-11-13T11:53:10Z</time>
      </trkpt>
      <trkpt lat="47.53384" lon="-2.77663">
        <ele>58.2</ele>
        <time>2021-11-13T11:53:12Z</time>
      </trkpt>
      <trkpt lat="47.53392" lon="-2.77656">
        <ele>58</ele>
        <time>2021-11-13T11:53:14Z</time>
      </trkpt>
      <trkpt lat="47.53397" lon="-2.77647">
        <ele>58</ele>
        <time>2021-11-13T11:53:16Z</time>
      </trkpt>
      <trkpt lat="47.53402" lon="-2.77637">
        <ele>58</ele>
        <time>2021-11-13T11:53:18Z</time>
      </trkpt>
      <trkpt lat="47.53405" lon="-2.77631">
        <ele>58</ele>
        <time>2021-11-13T11:53:19Z</time>
      </trkpt>
      <trkpt lat="47.53422" lon="-2.77593">
        <ele>57.8</ele>
        <time>2021-11-13T11:53:26Z</time>
      </trkpt>
      <trkpt lat="47.5343" lon="-2.77576">
        <ele>57.4</ele>
        <time>2021-11-13T11:53:29Z</time>
      </trkpt>
      <trkpt lat="47.5344" lon="-2.77551">
        <ele>57.2</ele>
        <time>2021-11-13T11:53:33Z</time>
      </trkpt>
      <trkpt lat="47.53448" lon="-2.77531">
        <ele>57.2</ele>
        <time>2021-11-13T11:53:36Z</time>
      </trkpt>
      <trkpt lat="47.53453" lon="-2.77509">
        <ele>57</ele>
        <time>2021-11-13T11:53:39Z</time>
      </trkpt>
      <trkpt lat="47.53459" lon="-2.77451">
        <ele>56.4</ele>
        <time>2021-11-13T11:53:46Z</time>
      </trkpt>
      <trkpt lat="47.53459" lon="-2.77443">
        <ele>56.4</ele>
        <time>2021-11-13T11:53:47Z</time>
      </trkpt>
      <trkpt lat="47.53462" lon="-2.7739">
        <ele>55.8</ele>
        <time>2021-11-13T11:53:53Z</time>
      </trkpt>
      <trkpt lat="47.53463" lon="-2.77382">
        <ele>55.6</ele>
        <time>2021-11-13T11:53:54Z</time>
      </trkpt>
      <trkpt lat="47.53463" lon="-2.77373">
        <ele>55.6</ele>
        <time>2021-11-13T11:53:55Z</time>
      </trkpt>
      <trkpt lat="47.53468" lon="-2.77302">
        <ele>54.6</ele>
        <time>2021-11-13T11:54:03Z</time>
      </trkpt>
      <trkpt lat="47.53473" lon="-2.77227">
        <ele>54.4</ele>
        <time>2021-11-13T11:54:11Z</time>
      </trkpt>
      <trkpt lat="47.53476" lon="-2.77191">
        <ele>54.2</ele>
        <time>2021-11-13T11:54:15Z</time>
      </trkpt>
      <trkpt lat="47.53477" lon="-2.77175">
        <ele>54.2</ele>
        <time>2021-11-13T11:54:17Z</time>
      </trkpt>
      <trkpt lat="47.53485" lon="-2.77124">
        <ele>54.2</ele>
        <time>2021-11-13T11:54:23Z</time>
      </trkpt>
      <trkpt lat="47.53489" lon="-2.77108">
        <ele>54.2</ele>
        <time>2021-11-13T11:54:25Z</time>
      </trkpt>
      <trkpt lat="47.53494" lon="-2.77094">
        <ele>54.2</ele>
        <time>2021-11-13T11:54:27Z</time>
      </trkpt>
      <trkpt lat="47.53502" lon="-2.77068">
        <ele>53.8</ele>
        <time>2021-11-13T11:54:31Z</time>
      </trkpt>
      <trkpt lat="47.53509" lon="-2.77043">
        <ele>53.2</ele>
        <time>2021-11-13T11:54:35Z</time>
      </trkpt>
      <trkpt lat="47.53511" lon="-2.77038">
        <ele>53</ele>
        <time>2021-11-13T11:54:36Z</time>
      </trkpt>
      <trkpt lat="47.53512" lon="-2.77034">
        <ele>53</ele>
        <time>2021-11-13T11:54:37Z</time>
      </trkpt>
      <trkpt lat="47.53514" lon="-2.77032">
        <ele>53</ele>
        <time>2021-11-13T11:54:38Z</time>
      </trkpt>
      <trkpt lat="47.53519" lon="-2.77033">
        <ele>52.6</ele>
        <time>2021-11-13T11:54:40Z</time>
      </trkpt>
      <trkpt lat="47.53527" lon="-2.77042">
        <ele>52.2</ele>
        <time>2021-11-13T11:54:44Z</time>
      </trkpt>
      <trkpt lat="47.53529" lon="-2.77043">
        <ele>52.2</ele>
        <time>2021-11-13T11:54:45Z</time>
      </trkpt>
      <trkpt lat="47.53544" lon="-2.77055">
        <ele>51.4</ele>
        <time>2021-11-13T11:54:52Z</time>
      </trkpt>
      <trkpt lat="47.53546" lon="-2.77057">
        <ele>51.4</ele>
        <time>2021-11-13T11:54:53Z</time>
      </trkpt>
      <trkpt lat="47.53556" lon="-2.77067">
        <ele>51</ele>
        <time>2021-11-13T11:54:58Z</time>
      </trkpt>
      <trkpt lat="47.53567" lon="-2.7707">
        <ele>50.8</ele>
        <time>2021-11-13T11:55:03Z</time>
      </trkpt>
      <trkpt lat="47.5357" lon="-2.77072">
        <ele>50.8</ele>
        <time>2021-11-13T11:55:04Z</time>
      </trkpt>
      <trkpt lat="47.53582" lon="-2.77093">
        <ele>50.4</ele>
        <time>2021-11-13T11:55:09Z</time>
      </trkpt>
      <trkpt lat="47.53595" lon="-2.77116">
        <ele>50</ele>
        <time>2021-11-13T11:55:13Z</time>
      </trkpt>
      <trkpt lat="47.53598" lon="-2.77121">
        <ele>49.8</ele>
        <time>2021-11-13T11:55:14Z</time>
      </trkpt>
      <trkpt lat="47.53601" lon="-2.77126">
        <ele>49.8</ele>
        <time>2021-11-13T11:55:15Z</time>
      </trkpt>
      <trkpt lat="47.53612" lon="-2.7715">
        <ele>49.6</ele>
        <time>2021-11-13T11:55:19Z</time>
      </trkpt>
      <trkpt lat="47.53624" lon="-2.7718">
        <ele>49.2</ele>
        <time>2021-11-13T11:55:24Z</time>
      </trkpt>
      <trkpt lat="47.53636" lon="-2.77212">
        <ele>49.2</ele>
        <time>2021-11-13T11:55:30Z</time>
      </trkpt>
      <trkpt lat="47.5364" lon="-2.77217">
        <ele>49</ele>
        <time>2021-11-13T11:55:31Z</time>
      </trkpt>
      <trkpt lat="47.53646" lon="-2.77224">
        <ele>49</ele>
        <time>2021-11-13T11:55:33Z</time>
      </trkpt>
      <trkpt lat="47.53648" lon="-2.77228">
        <ele>48.8</ele>
        <time>2021-11-13T11:55:34Z</time>
      </trkpt>
      <trkpt lat="47.53666" lon="-2.77248">
        <ele>48.8</ele>
        <time>2021-11-13T11:55:39Z</time>
      </trkpt>
      <trkpt lat="47.53668" lon="-2.77254">
        <ele>48.8</ele>
        <time>2021-11-13T11:55:40Z</time>
      </trkpt>
      <trkpt lat="47.53679" lon="-2.77281">
        <ele>48.6</ele>
        <time>2021-11-13T11:55:45Z</time>
      </trkpt>
      <trkpt lat="47.53687" lon="-2.77309">
        <ele>48.8</ele>
        <time>2021-11-13T11:55:50Z</time>
      </trkpt>
      <trkpt lat="47.53697" lon="-2.77327">
        <ele>49</ele>
        <time>2021-11-13T11:55:55Z</time>
      </trkpt>
      <trkpt lat="47.53699" lon="-2.77332">
        <ele>49.2</ele>
        <time>2021-11-13T11:55:57Z</time>
      </trkpt>
      <trkpt lat="47.537" lon="-2.77335">
        <ele>49.2</ele>
        <time>2021-11-13T11:55:59Z</time>
      </trkpt>
      <trkpt lat="47.53701" lon="-2.77339">
        <ele>49.2</ele>
        <time>2021-11-13T11:56:00Z</time>
      </trkpt>
      <trkpt lat="47.53704" lon="-2.77345">
        <ele>49.4</ele>
        <time>2021-11-13T11:56:02Z</time>
      </trkpt>
      <trkpt lat="47.53705" lon="-2.77349">
        <ele>49.4</ele>
        <time>2021-11-13T11:56:04Z</time>
      </trkpt>
      <trkpt lat="47.53706" lon="-2.7735">
        <ele>49.2</ele>
        <time>2021-11-13T11:56:05Z</time>
      </trkpt>
      <trkpt lat="47.53711" lon="-2.7736">
        <ele>49.2</ele>
        <time>2021-11-13T11:56:09Z</time>
      </trkpt>
      <trkpt lat="47.53712" lon="-2.77365">
        <ele>49.6</ele>
        <time>2021-11-13T11:56:12Z</time>
      </trkpt>
      <trkpt lat="47.53713" lon="-2.77369">
        <ele>49.6</ele>
        <time>2021-11-13T11:56:13Z</time>
      </trkpt>
      <trkpt lat="47.53718" lon="-2.77382">
        <ele>49.6</ele>
        <time>2021-11-13T11:56:17Z</time>
      </trkpt>
      <trkpt lat="47.53719" lon="-2.77384">
        <ele>49.8</ele>
        <time>2021-11-13T11:56:18Z</time>
      </trkpt>
      <trkpt lat="47.53714" lon="-2.77416">
        <ele>50.2</ele>
        <time>2021-11-13T11:56:24Z</time>
      </trkpt>
      <trkpt lat="47.53714" lon="-2.77417">
        <ele>50.2</ele>
        <time>2021-11-13T11:56:27Z</time>
      </trkpt>
      <trkpt lat="47.53714" lon="-2.77424">
        <ele>50.2</ele>
        <time>2021-11-13T11:56:37Z</time>
      </trkpt>
      <trkpt lat="47.53714" lon="-2.77426">
        <ele>50.2</ele>
        <time>2021-11-13T11:56:38Z</time>
      </trkpt>
      <trkpt lat="47.53723" lon="-2.77454">
        <ele>49.8</ele>
        <time>2021-11-13T11:56:45Z</time>
      </trkpt>
      <trkpt lat="47.53724" lon="-2.77466">
        <ele>50</ele>
        <time>2021-11-13T11:56:47Z</time>
      </trkpt>
      <trkpt lat="47.53726" lon="-2.77474">
        <ele>49.8</ele>
        <time>2021-11-13T11:56:49Z</time>
      </trkpt>
      <trkpt lat="47.53733" lon="-2.77495">
        <ele>49.2</ele>
        <time>2021-11-13T11:56:54Z</time>
      </trkpt>
      <trkpt lat="47.53738" lon="-2.77514">
        <ele>48.8</ele>
        <time>2021-11-13T11:56:58Z</time>
      </trkpt>
      <trkpt lat="47.53738" lon="-2.7752">
        <ele>48.8</ele>
        <time>2021-11-13T11:56:59Z</time>
      </trkpt>
      <trkpt lat="47.53743" lon="-2.77541">
        <ele>48.4</ele>
        <time>2021-11-13T11:57:03Z</time>
      </trkpt>
      <trkpt lat="47.53746" lon="-2.77545">
        <ele>48.4</ele>
        <time>2021-11-13T11:57:04Z</time>
      </trkpt>
      <trkpt lat="47.53757" lon="-2.77574">
        <ele>48.4</ele>
        <time>2021-11-13T11:57:10Z</time>
      </trkpt>
      <trkpt lat="47.53769" lon="-2.77617">
        <ele>48.2</ele>
        <time>2021-11-13T11:57:17Z</time>
      </trkpt>
      <trkpt lat="47.53782" lon="-2.77643">
        <ele>48.4</ele>
        <time>2021-11-13T11:57:23Z</time>
      </trkpt>
      <trkpt lat="47.53792" lon="-2.77675">
        <ele>48.2</ele>
        <time>2021-11-13T11:57:30Z</time>
      </trkpt>
      <trkpt lat="47.53807" lon="-2.77703">
        <ele>48</ele>
        <time>2021-11-13T11:57:37Z</time>
      </trkpt>
      <trkpt lat="47.53809" lon="-2.77708">
        <ele>47.8</ele>
        <time>2021-11-13T11:57:38Z</time>
      </trkpt>
      <trkpt lat="47.53822" lon="-2.77737">
        <ele>47</ele>
        <time>2021-11-13T11:57:44Z</time>
      </trkpt>
      <trkpt lat="47.5383" lon="-2.77753">
        <ele>46.8</ele>
        <time>2021-11-13T11:57:47Z</time>
      </trkpt>
      <trkpt lat="47.53832" lon="-2.77757">
        <ele>46.8</ele>
        <time>2021-11-13T11:57:48Z</time>
      </trkpt>
      <trkpt lat="47.53839" lon="-2.77771">
        <ele>46.4</ele>
        <time>2021-11-13T11:57:51Z</time>
      </trkpt>
      <trkpt lat="47.53852" lon="-2.77794">
        <ele>46</ele>
        <time>2021-11-13T11:57:56Z</time>
      </trkpt>
      <trkpt lat="47.53854" lon="-2.77799">
        <ele>45.8</ele>
        <time>2021-11-13T11:57:57Z</time>
      </trkpt>
      <trkpt lat="47.5387" lon="-2.77835">
        <ele>45.6</ele>
        <time>2021-11-13T11:58:03Z</time>
      </trkpt>
      <trkpt lat="47.53878" lon="-2.77853">
        <ele>45.2</ele>
        <time>2021-11-13T11:58:06Z</time>
      </trkpt>
      <trkpt lat="47.53883" lon="-2.77865">
        <ele>45.2</ele>
        <time>2021-11-13T11:58:08Z</time>
      </trkpt>
      <trkpt lat="47.53888" lon="-2.77878">
        <ele>45.2</ele>
        <time>2021-11-13T11:58:10Z</time>
      </trkpt>
      <trkpt lat="47.53899" lon="-2.77901">
        <ele>44.8</ele>
        <time>2021-11-13T11:58:14Z</time>
      </trkpt>
      <trkpt lat="47.53906" lon="-2.77913">
        <ele>44.6</ele>
        <time>2021-11-13T11:58:16Z</time>
      </trkpt>
      <trkpt lat="47.53914" lon="-2.77922">
        <ele>44.4</ele>
        <time>2021-11-13T11:58:18Z</time>
      </trkpt>
      <trkpt lat="47.53917" lon="-2.77926">
        <ele>44.4</ele>
        <time>2021-11-13T11:58:19Z</time>
      </trkpt>
      <trkpt lat="47.53935" lon="-2.77947">
        <ele>44.4</ele>
        <time>2021-11-13T11:58:23Z</time>
      </trkpt>
      <trkpt lat="47.53951" lon="-2.77969">
        <ele>44</ele>
        <time>2021-11-13T11:58:27Z</time>
      </trkpt>
      <trkpt lat="47.53962" lon="-2.78003">
        <ele>43.8</ele>
        <time>2021-11-13T11:58:32Z</time>
      </trkpt>
      <trkpt lat="47.53967" lon="-2.78016">
        <ele>43.6</ele>
        <time>2021-11-13T11:58:34Z</time>
      </trkpt>
      <trkpt lat="47.53971" lon="-2.78028">
        <ele>43.6</ele>
        <time>2021-11-13T11:58:36Z</time>
      </trkpt>
      <trkpt lat="47.53972" lon="-2.78035">
        <ele>43.6</ele>
        <time>2021-11-13T11:58:37Z</time>
      </trkpt>
      <trkpt lat="47.53975" lon="-2.78048">
        <ele>43.4</ele>
        <time>2021-11-13T11:58:39Z</time>
      </trkpt>
      <trkpt lat="47.53977" lon="-2.78067">
        <ele>43.4</ele>
        <time>2021-11-13T11:58:42Z</time>
      </trkpt>
      <trkpt lat="47.53978" lon="-2.78073">
        <ele>43.4</ele>
        <time>2021-11-13T11:58:43Z</time>
      </trkpt>
      <trkpt lat="47.53981" lon="-2.78078">
        <ele>43.4</ele>
        <time>2021-11-13T11:58:44Z</time>
      </trkpt>
      <trkpt lat="47.53988" lon="-2.78084">
        <ele>43.4</ele>
        <time>2021-11-13T11:58:46Z</time>
      </trkpt>
      <trkpt lat="47.53997" lon="-2.78088">
        <ele>43</ele>
        <time>2021-11-13T11:58:50Z</time>
      </trkpt>
      <trkpt lat="47.53998" lon="-2.78088">
        <ele>42.8</ele>
        <time>2021-11-13T11:58:53Z</time>
      </trkpt>
      <trkpt lat="47.53998" lon="-2.78088">
        <ele>42.6</ele>
        <time>2021-11-13T11:58:54Z</time>
      </trkpt>
      <trkpt lat="47.53998" lon="-2.78088">
        <ele>41.6</ele>
        <time>2021-11-13T11:59:00Z</time>
      </trkpt>
      <trkpt lat="47.53998" lon="-2.78088">
        <ele>40.4</ele>
        <time>2021-11-13T11:59:07Z</time>
      </trkpt>
      <trkpt lat="47.53998" lon="-2.78088">
        <ele>39.6</ele>
        <time>2021-11-13T11:59:15Z</time>
      </trkpt>
      <trkpt lat="47.53998" lon="-2.78088">
        <ele>38.6</ele>
        <time>2021-11-13T11:59:31Z</time>
      </trkpt>
      <trkpt lat="47.53998" lon="-2.78088">
        <ele>37.8</ele>
        <time>2021-11-13T11:59:40Z</time>
      </trkpt>
      <trkpt lat="47.53998" lon="-2.78088">
        <ele>37.2</ele>
        <time>2021-11-13T12:00:12Z</time>
      </trkpt>
      <trkpt lat="47.53998" lon="-2.78088">
        <ele>36.2</ele>
        <time>2021-11-13T12:00:25Z</time>
      </trkpt>
      <trkpt lat="47.53998" lon="-2.78088">
        <ele>35.2</ele>
        <time>2021-11-13T12:00:33Z</time>
      </trkpt>
      <trkpt lat="47.53998" lon="-2.78088">
        <ele>34.4</ele>
        <time>2021-11-13T12:00:42Z</time>
      </trkpt>
      <trkpt lat="47.53998" lon="-2.78088">
        <ele>33.6</ele>
        <time>2021-11-13T12:00:59Z</time>
      </trkpt>
      <trkpt lat="47.53998" lon="-2.78088">
        <ele>32.4</ele>
        <time>2021-11-13T12:01:09Z</time>
      </trkpt>
      <trkpt lat="47.53998" lon="-2.78088">
        <ele>32.4</ele>
        <time>2021-11-13T12:01:29Z</time>
      </trkpt>
      <trkpt lat="47.53998" lon="-2.78088">
        <ele>32.4</ele>
        <time>2021-11-13T12:01:30Z</time>
      </trkpt>
      <trkpt lat="47.54004" lon="-2.78094">
        <ele>32.2</ele>
        <time>2021-11-13T12:01:33Z</time>
      </trkpt>
      <trkpt lat="47.54024" lon="-2.78107">
        <ele>32</ele>
        <time>2021-11-13T12:01:39Z</time>
      </trkpt>
      <trkpt lat="47.54031" lon="-2.78112">
        <ele>31.8</ele>
        <time>2021-11-13T12:01:41Z</time>
      </trkpt>
      <trkpt lat="47.54053" lon="-2.78132">
        <ele>32.2</ele>
        <time>2021-11-13T12:01:47Z</time>
      </trkpt>
      <trkpt lat="47.5406" lon="-2.78136">
        <ele>32.2</ele>
        <time>2021-11-13T12:01:49Z</time>
      </trkpt>
      <trkpt lat="47.54064" lon="-2.78135">
        <ele>32.4</ele>
        <time>2021-11-13T12:01:50Z</time>
      </trkpt>
      <trkpt lat="47.54069" lon="-2.78127">
        <ele>32.4</ele>
        <time>2021-11-13T12:01:52Z</time>
      </trkpt>
      <trkpt lat="47.54072" lon="-2.78115">
        <ele>32.4</ele>
        <time>2021-11-13T12:01:54Z</time>
      </trkpt>
      <trkpt lat="47.54085" lon="-2.78063">
        <ele>32.4</ele>
        <time>2021-11-13T12:02:02Z</time>
      </trkpt>
      <trkpt lat="47.54087" lon="-2.78056">
        <ele>32.4</ele>
        <time>2021-11-13T12:02:03Z</time>
      </trkpt>
      <trkpt lat="47.54101" lon="-2.78024">
        <ele>32.4</ele>
        <time>2021-11-13T12:02:08Z</time>
      </trkpt>
      <trkpt lat="47.54107" lon="-2.78012">
        <ele>32.4</ele>
        <time>2021-11-13T12:02:10Z</time>
      </trkpt>
      <trkpt lat="47.54124" lon="-2.77992">
        <ele>32.8</ele>
        <time>2021-11-13T12:02:14Z</time>
      </trkpt>
      <trkpt lat="47.54132" lon="-2.77983">
        <ele>33</ele>
        <time>2021-11-13T12:02:16Z</time>
      </trkpt>
      <trkpt lat="47.54146" lon="-2.77973">
        <ele>33.4</ele>
        <time>2021-11-13T12:02:19Z</time>
      </trkpt>
      <trkpt lat="47.54151" lon="-2.77971">
        <ele>33.6</ele>
        <time>2021-11-13T12:02:20Z</time>
      </trkpt>
      <trkpt lat="47.54177" lon="-2.77962">
        <ele>34.4</ele>
        <time>2021-11-13T12:02:25Z</time>
      </trkpt>
      <trkpt lat="47.54182" lon="-2.77961">
        <ele>34.6</ele>
        <time>2021-11-13T12:02:26Z</time>
      </trkpt>
      <trkpt lat="47.54187" lon="-2.77961">
        <ele>34.8</ele>
        <time>2021-11-13T12:02:27Z</time>
      </trkpt>
      <trkpt lat="47.54218" lon="-2.77969">
        <ele>35.8</ele>
        <time>2021-11-13T12:02:33Z</time>
      </trkpt>
      <trkpt lat="47.54223" lon="-2.77972">
        <ele>36</ele>
        <time>2021-11-13T12:02:34Z</time>
      </trkpt>
      <trkpt lat="47.54254" lon="-2.77992">
        <ele>37</ele>
        <time>2021-11-13T12:02:41Z</time>
      </trkpt>
      <trkpt lat="47.54263" lon="-2.77996">
        <ele>37.6</ele>
        <time>2021-11-13T12:02:43Z</time>
      </trkpt>
      <trkpt lat="47.54273" lon="-2.77996">
        <ele>37.8</ele>
        <time>2021-11-13T12:02:45Z</time>
      </trkpt>
      <trkpt lat="47.54282" lon="-2.77992">
        <ele>38.2</ele>
        <time>2021-11-13T12:02:47Z</time>
      </trkpt>
      <trkpt lat="47.54299" lon="-2.77984">
        <ele>38.8</ele>
        <time>2021-11-13T12:02:51Z</time>
      </trkpt>
      <trkpt lat="47.54313" lon="-2.77976">
        <ele>39.4</ele>
        <time>2021-11-13T12:02:54Z</time>
      </trkpt>
      <trkpt lat="47.54355" lon="-2.77951">
        <ele>40.4</ele>
        <time>2021-11-13T12:03:03Z</time>
      </trkpt>
      <trkpt lat="47.5436" lon="-2.77948">
        <ele>40.6</ele>
        <time>2021-11-13T12:03:04Z</time>
      </trkpt>
      <trkpt lat="47.54369" lon="-2.77941">
        <ele>41</ele>
        <time>2021-11-13T12:03:06Z</time>
      </trkpt>
      <trkpt lat="47.54377" lon="-2.77931">
        <ele>41.2</ele>
        <time>2021-11-13T12:03:08Z</time>
      </trkpt>
      <trkpt lat="47.54381" lon="-2.77926">
        <ele>41.2</ele>
        <time>2021-11-13T12:03:09Z</time>
      </trkpt>
      <trkpt lat="47.54415" lon="-2.7787">
        <ele>41.4</ele>
        <time>2021-11-13T12:03:19Z</time>
      </trkpt>
      <trkpt lat="47.54428" lon="-2.77848">
        <ele>41.8</ele>
        <time>2021-11-13T12:03:23Z</time>
      </trkpt>
      <trkpt lat="47.54433" lon="-2.77836">
        <ele>42.2</ele>
        <time>2021-11-13T12:03:25Z</time>
      </trkpt>
      <trkpt lat="47.54434" lon="-2.7783">
        <ele>42.2</ele>
        <time>2021-11-13T12:03:26Z</time>
      </trkpt>
      <trkpt lat="47.54435" lon="-2.77823">
        <ele>42.4</ele>
        <time>2021-11-13T12:03:27Z</time>
      </trkpt>
      <trkpt lat="47.54439" lon="-2.7779">
        <ele>42.6</ele>
        <time>2021-11-13T12:03:32Z</time>
      </trkpt>
      <trkpt lat="47.54448" lon="-2.77732">
        <ele>42.8</ele>
        <time>2021-11-13T12:03:40Z</time>
      </trkpt>
      <trkpt lat="47.54451" lon="-2.7769">
        <ele>43</ele>
        <time>2021-11-13T12:03:46Z</time>
      </trkpt>
      <trkpt lat="47.54454" lon="-2.7768">
        <ele>43</ele>
        <time>2021-11-13T12:03:49Z</time>
      </trkpt>
      <trkpt lat="47.54461" lon="-2.77675">
        <ele>43</ele>
        <time>2021-11-13T12:03:50Z</time>
      </trkpt>
      <trkpt lat="47.54465" lon="-2.77675">
        <ele>43.2</ele>
        <time>2021-11-13T12:03:51Z</time>
      </trkpt>
      <trkpt lat="47.54489" lon="-2.77692">
        <ele>43.2</ele>
        <time>2021-11-13T12:03:57Z</time>
      </trkpt>
      <trkpt lat="47.54497" lon="-2.77698">
        <ele>43.2</ele>
        <time>2021-11-13T12:03:59Z</time>
      </trkpt>
      <trkpt lat="47.54505" lon="-2.77701">
        <ele>43</ele>
        <time>2021-11-13T12:04:01Z</time>
      </trkpt>
      <trkpt lat="47.5451" lon="-2.77702">
        <ele>43</ele>
        <time>2021-11-13T12:04:02Z</time>
      </trkpt>
      <trkpt lat="47.54541" lon="-2.77705">
        <ele>43</ele>
        <time>2021-11-13T12:04:09Z</time>
      </trkpt>
      <trkpt lat="47.54545" lon="-2.77704">
        <ele>43</ele>
        <time>2021-11-13T12:04:10Z</time>
      </trkpt>
      <trkpt lat="47.54549" lon="-2.77703">
        <ele>43</ele>
        <time>2021-11-13T12:04:11Z</time>
      </trkpt>
      <trkpt lat="47.54564" lon="-2.77694">
        <ele>43.2</ele>
        <time>2021-11-13T12:04:15Z</time>
      </trkpt>
      <trkpt lat="47.54571" lon="-2.77688">
        <ele>43.2</ele>
        <time>2021-11-13T12:04:17Z</time>
      </trkpt>
      <trkpt lat="47.54583" lon="-2.77675">
        <ele>43.2</ele>
        <time>2021-11-13T12:04:21Z</time>
      </trkpt>
      <trkpt lat="47.54606" lon="-2.77664">
        <ele>43.4</ele>
        <time>2021-11-13T12:04:27Z</time>
      </trkpt>
      <trkpt lat="47.54626" lon="-2.77651">
        <ele>43.2</ele>
        <time>2021-11-13T12:04:32Z</time>
      </trkpt>
      <trkpt lat="47.5463" lon="-2.77648">
        <ele>43.2</ele>
        <time>2021-11-13T12:04:33Z</time>
      </trkpt>
      <trkpt lat="47.54642" lon="-2.77639">
        <ele>43.2</ele>
        <time>2021-11-13T12:04:36Z</time>
      </trkpt>
      <trkpt lat="47.54655" lon="-2.77634">
        <ele>43.2</ele>
        <time>2021-11-13T12:04:39Z</time>
      </trkpt>
      <trkpt lat="47.54663" lon="-2.77632">
        <ele>43</ele>
        <time>2021-11-13T12:04:41Z</time>
      </trkpt>
      <trkpt lat="47.54673" lon="-2.77633">
        <ele>43.2</ele>
        <time>2021-11-13T12:04:43Z</time>
      </trkpt>
      <trkpt lat="47.54681" lon="-2.77636">
        <ele>43.2</ele>
        <time>2021-11-13T12:04:45Z</time>
      </trkpt>
      <trkpt lat="47.54698" lon="-2.77644">
        <ele>43.2</ele>
        <time>2021-11-13T12:04:50Z</time>
      </trkpt>
      <trkpt lat="47.54727" lon="-2.77662">
        <ele>43.2</ele>
        <time>2021-11-13T12:04:59Z</time>
      </trkpt>
      <trkpt lat="47.54751" lon="-2.77688">
        <ele>43.2</ele>
        <time>2021-11-13T12:05:06Z</time>
      </trkpt>
      <trkpt lat="47.54782" lon="-2.77716">
        <ele>43.4</ele>
        <time>2021-11-13T12:05:13Z</time>
      </trkpt>
      <trkpt lat="47.54791" lon="-2.77721">
        <ele>43.4</ele>
        <time>2021-11-13T12:05:15Z</time>
      </trkpt>
      <trkpt lat="47.548" lon="-2.77722">
        <ele>43.4</ele>
        <time>2021-11-13T12:05:17Z</time>
      </trkpt>
      <trkpt lat="47.54809" lon="-2.77723">
        <ele>43.4</ele>
        <time>2021-11-13T12:05:19Z</time>
      </trkpt>
      <trkpt lat="47.5482" lon="-2.77729">
        <ele>43.6</ele>
        <time>2021-11-13T12:05:22Z</time>
      </trkpt>
      <trkpt lat="47.54821" lon="-2.77743">
        <ele>43.8</ele>
        <time>2021-11-13T12:05:26Z</time>
      </trkpt>
      <trkpt lat="47.54821" lon="-2.77744">
        <ele>43.8</ele>
        <time>2021-11-13T12:05:29Z</time>
      </trkpt>
      <trkpt lat="47.54818" lon="-2.77745">
        <ele>43.8</ele>
        <time>2021-11-13T12:05:33Z</time>
      </trkpt>
      <trkpt lat="47.54818" lon="-2.77747">
        <ele>43.8</ele>
        <time>2021-11-13T12:05:34Z</time>
      </trkpt>
      <trkpt lat="47.54818" lon="-2.77761">
        <ele>42.6</ele>
        <time>2021-11-13T12:05:41Z</time>
      </trkpt>
      <trkpt lat="47.54817" lon="-2.77767">
        <ele>42.6</ele>
        <time>2021-11-13T12:05:42Z</time>
      </trkpt>
      <trkpt lat="47.54817" lon="-2.77779">
        <ele>42.2</ele>
        <time>2021-11-13T12:05:48Z</time>
      </trkpt>
      <trkpt lat="47.54816" lon="-2.77778">
        <ele>42.2</ele>
        <time>2021-11-13T12:05:52Z</time>
      </trkpt>
      <trkpt lat="47.54817" lon="-2.77774">
        <ele>42</ele>
        <time>2021-11-13T12:05:54Z</time>
      </trkpt>
      <trkpt lat="47.54817" lon="-2.77768">
        <ele>41.8</ele>
        <time>2021-11-13T12:05:57Z</time>
      </trkpt>
      <trkpt lat="47.54817" lon="-2.77762">
        <ele>41.6</ele>
        <time>2021-11-13T12:05:58Z</time>
      </trkpt>
      <trkpt lat="47.54818" lon="-2.77742">
        <ele>40.8</ele>
        <time>2021-11-13T12:06:05Z</time>
      </trkpt>
      <trkpt lat="47.5482" lon="-2.77741">
        <ele>40.4</ele>
        <time>2021-11-13T12:06:07Z</time>
      </trkpt>
      <trkpt lat="47.54821" lon="-2.77742">
        <ele>40.4</ele>
        <time>2021-11-13T12:06:08Z</time>
      </trkpt>
      <trkpt lat="47.54823" lon="-2.77747">
        <ele>39.8</ele>
        <time>2021-11-13T12:06:13Z</time>
      </trkpt>
      <trkpt lat="47.54824" lon="-2.77749">
        <ele>39</ele>
        <time>2021-11-13T12:06:20Z</time>
      </trkpt>
      <trkpt lat="47.54824" lon="-2.77749">
        <ele>38.8</ele>
        <time>2021-11-13T12:06:22Z</time>
      </trkpt>
      <trkpt lat="47.54824" lon="-2.77749">
        <ele>37.8</ele>
        <time>2021-11-13T12:06:30Z</time>
      </trkpt>
      <trkpt lat="47.54826" lon="-2.77749">
        <ele>37.8</ele>
        <time>2021-11-13T12:06:31Z</time>
      </trkpt>
      <trkpt lat="47.54837" lon="-2.77753">
        <ele>37</ele>
        <time>2021-11-13T12:06:37Z</time>
      </trkpt>
      <trkpt lat="47.54838" lon="-2.77753">
        <ele>37</ele>
        <time>2021-11-13T12:06:38Z</time>
      </trkpt>
      <trkpt lat="47.54845" lon="-2.77757">
        <ele>36.6</ele>
        <time>2021-11-13T12:06:45Z</time>
      </trkpt>
      <trkpt lat="47.54849" lon="-2.7776">
        <ele>36.2</ele>
        <time>2021-11-13T12:06:48Z</time>
      </trkpt>
      <trkpt lat="47.5485" lon="-2.77766">
        <ele>36</ele>
        <time>2021-11-13T12:06:51Z</time>
      </trkpt>
      <trkpt lat="47.54851" lon="-2.77767">
        <ele>36</ele>
        <time>2021-11-13T12:06:52Z</time>
      </trkpt>
      <trkpt lat="47.54852" lon="-2.77774">
        <ele>35.4</ele>
        <time>2021-11-13T12:06:56Z</time>
      </trkpt>
      <trkpt lat="47.54851" lon="-2.77775">
        <ele>35.2</ele>
        <time>2021-11-13T12:06:58Z</time>
      </trkpt>
      <trkpt lat="47.54851" lon="-2.77776">
        <ele>35</ele>
        <time>2021-11-13T12:07:01Z</time>
      </trkpt>
      <trkpt lat="47.54849" lon="-2.77777">
        <ele>34.8</ele>
        <time>2021-11-13T12:07:03Z</time>
      </trkpt>
      <trkpt lat="47.54847" lon="-2.77778">
        <ele>34.6</ele>
        <time>2021-11-13T12:07:04Z</time>
      </trkpt>
      <trkpt lat="47.54838" lon="-2.77787">
        <ele>34</ele>
        <time>2021-11-13T12:07:10Z</time>
      </trkpt>
      <trkpt lat="47.54837" lon="-2.77789">
        <ele>33.8</ele>
        <time>2021-11-13T12:07:11Z</time>
      </trkpt>
      <trkpt lat="47.54819" lon="-2.77812">
        <ele>33.2</ele>
        <time>2021-11-13T12:07:20Z</time>
      </trkpt>
      <trkpt lat="47.54815" lon="-2.77816">
        <ele>33.2</ele>
        <time>2021-11-13T12:07:22Z</time>
      </trkpt>
      <trkpt lat="47.54802" lon="-2.77829">
        <ele>33</ele>
        <time>2021-11-13T12:07:28Z</time>
      </trkpt>
      <trkpt lat="47.54789" lon="-2.77834">
        <ele>33</ele>
        <time>2021-11-13T12:07:33Z</time>
      </trkpt>
      <trkpt lat="47.54782" lon="-2.77837">
        <ele>33</ele>
        <time>2021-11-13T12:07:36Z</time>
      </trkpt>
      <trkpt lat="47.54777" lon="-2.77844">
        <ele>33.2</ele>
        <time>2021-11-13T12:07:39Z</time>
      </trkpt>
      <trkpt lat="47.54767" lon="-2.77848">
        <ele>33.4</ele>
        <time>2021-11-13T12:07:44Z</time>
      </trkpt>
      <trkpt lat="47.54749" lon="-2.77854">
        <ele>33.8</ele>
        <time>2021-11-13T12:07:50Z</time>
      </trkpt>
      <trkpt lat="47.54742" lon="-2.77859">
        <ele>34.2</ele>
        <time>2021-11-13T12:07:54Z</time>
      </trkpt>
      <trkpt lat="47.54742" lon="-2.7786">
        <ele>34.2</ele>
        <time>2021-11-13T12:07:55Z</time>
      </trkpt>
      <trkpt lat="47.54741" lon="-2.77861">
        <ele>34.4</ele>
        <time>2021-11-13T12:07:56Z</time>
      </trkpt>
      <trkpt lat="47.5474" lon="-2.77862">
        <ele>34.6</ele>
        <time>2021-11-13T12:07:59Z</time>
      </trkpt>
      <trkpt lat="47.54739" lon="-2.77864">
        <ele>35</ele>
        <time>2021-11-13T12:08:04Z</time>
      </trkpt>
      <trkpt lat="47.54732" lon="-2.77867">
        <ele>35.2</ele>
        <time>2021-11-13T12:08:09Z</time>
      </trkpt>
      <trkpt lat="47.54731" lon="-2.77868">
        <ele>35.2</ele>
        <time>2021-11-13T12:08:10Z</time>
      </trkpt>
      <trkpt lat="47.54721" lon="-2.77876">
        <ele>35.6</ele>
        <time>2021-11-13T12:08:17Z</time>
      </trkpt>
      <trkpt lat="47.5472" lon="-2.77879">
        <ele>35.6</ele>
        <time>2021-11-13T12:08:19Z</time>
      </trkpt>
      <trkpt lat="47.54718" lon="-2.77879">
        <ele>35.6</ele>
        <time>2021-11-13T12:08:23Z</time>
      </trkpt>
      <trkpt lat="47.54717" lon="-2.77879">
        <ele>35.6</ele>
        <time>2021-11-13T12:08:24Z</time>
      </trkpt>
      <trkpt lat="47.54714" lon="-2.7788">
        <ele>35.8</ele>
        <time>2021-11-13T12:08:29Z</time>
      </trkpt>
      <trkpt lat="47.54709" lon="-2.77882">
        <ele>36</ele>
        <time>2021-11-13T12:08:36Z</time>
      </trkpt>
      <trkpt lat="47.54707" lon="-2.77885">
        <ele>36.2</ele>
        <time>2021-11-13T12:08:41Z</time>
      </trkpt>
      <trkpt lat="47.54701" lon="-2.77888">
        <ele>36.4</ele>
        <time>2021-11-13T12:08:50Z</time>
      </trkpt>
      <trkpt lat="47.54699" lon="-2.77889">
        <ele>36.4</ele>
        <time>2021-11-13T12:08:51Z</time>
      </trkpt>
      <trkpt lat="47.54697" lon="-2.7789">
        <ele>36.4</ele>
        <time>2021-11-13T12:08:57Z</time>
      </trkpt>
      <trkpt lat="47.54695" lon="-2.77891">
        <ele>37</ele>
        <time>2021-11-13T12:09:09Z</time>
      </trkpt>
      <trkpt lat="47.54692" lon="-2.77893">
        <ele>37</ele>
        <time>2021-11-13T12:09:11Z</time>
      </trkpt>
      <trkpt lat="47.54686" lon="-2.77895">
        <ele>37.2</ele>
        <time>2021-11-13T12:09:16Z</time>
      </trkpt>
      <trkpt lat="47.54682" lon="-2.77899">
        <ele>37.2</ele>
        <time>2021-11-13T12:09:22Z</time>
      </trkpt>
      <trkpt lat="47.54675" lon="-2.77903">
        <ele>37.4</ele>
        <time>2021-11-13T12:09:28Z</time>
      </trkpt>
      <trkpt lat="47.54672" lon="-2.77906">
        <ele>38</ele>
        <time>2021-11-13T12:09:35Z</time>
      </trkpt>
      <trkpt lat="47.54668" lon="-2.77908">
        <ele>38.4</ele>
        <time>2021-11-13T12:09:42Z</time>
      </trkpt>
      <trkpt lat="47.54667" lon="-2.77909">
        <ele>38.4</ele>
        <time>2021-11-13T12:09:43Z</time>
      </trkpt>
      <trkpt lat="47.54662" lon="-2.7791">
        <ele>39.6</ele>
        <time>2021-11-13T12:09:55Z</time>
      </trkpt>
      <trkpt lat="47.54662" lon="-2.7791">
        <ele>39.6</ele>
        <time>2021-11-13T12:09:56Z</time>
      </trkpt>
      <trkpt lat="47.54661" lon="-2.77912">
        <ele>40.6</ele>
        <time>2021-11-13T12:10:04Z</time>
      </trkpt>
      <trkpt lat="47.5466" lon="-2.77914">
        <ele>40.8</ele>
        <time>2021-11-13T12:10:05Z</time>
      </trkpt>
      <trkpt lat="47.54657" lon="-2.77917">
        <ele>41</ele>
        <time>2021-11-13T12:10:07Z</time>
      </trkpt>
      <trkpt lat="47.54651" lon="-2.77922">
        <ele>41.4</ele>
        <time>2021-11-13T12:10:12Z</time>
      </trkpt>
      <trkpt lat="47.54649" lon="-2.77924">
        <ele>41.6</ele>
        <time>2021-11-13T12:10:14Z</time>
      </trkpt>
      <trkpt lat="47.54642" lon="-2.77931">
        <ele>41.8</ele>
        <time>2021-11-13T12:10:21Z</time>
      </trkpt>
      <trkpt lat="47.5464" lon="-2.77931">
        <ele>41.8</ele>
        <time>2021-11-13T12:10:22Z</time>
      </trkpt>
      <trkpt lat="47.5464" lon="-2.77934">
        <ele>41.8</ele>
        <time>2021-11-13T12:10:25Z</time>
      </trkpt>
      <trkpt lat="47.5464" lon="-2.77934">
        <ele>42</ele>
        <time>2021-11-13T12:10:27Z</time>
      </trkpt>
      <trkpt lat="47.54638" lon="-2.77938">
        <ele>42.4</ele>
        <time>2021-11-13T12:10:31Z</time>
      </trkpt>
      <trkpt lat="47.54636" lon="-2.77942">
        <ele>42.6</ele>
        <time>2021-11-13T12:10:34Z</time>
      </trkpt>
      <trkpt lat="47.54632" lon="-2.77948">
        <ele>42.6</ele>
        <time>2021-11-13T12:10:40Z</time>
      </trkpt>
      <trkpt lat="47.54631" lon="-2.7795">
        <ele>42.6</ele>
        <time>2021-11-13T12:10:41Z</time>
      </trkpt>
      <trkpt lat="47.54625" lon="-2.7796">
        <ele>42.6</ele>
        <time>2021-11-13T12:10:45Z</time>
      </trkpt>
      <trkpt lat="47.54623" lon="-2.77963">
        <ele>42.6</ele>
        <time>2021-11-13T12:10:47Z</time>
      </trkpt>
      <trkpt lat="47.54621" lon="-2.77972">
        <ele>42.6</ele>
        <time>2021-11-13T12:10:50Z</time>
      </trkpt>
      <trkpt lat="47.54613" lon="-2.77998">
        <ele>42.6</ele>
        <time>2021-11-13T12:10:55Z</time>
      </trkpt>
      <trkpt lat="47.54602" lon="-2.78032">
        <ele>42.6</ele>
        <time>2021-11-13T12:11:04Z</time>
      </trkpt>
      <trkpt lat="47.54598" lon="-2.78068">
        <ele>42.6</ele>
        <time>2021-11-13T12:11:13Z</time>
      </trkpt>
      <trkpt lat="47.54596" lon="-2.78099">
        <ele>42.8</ele>
        <time>2021-11-13T12:11:20Z</time>
      </trkpt>
      <trkpt lat="47.54595" lon="-2.78109">
        <ele>42.8</ele>
        <time>2021-11-13T12:11:25Z</time>
      </trkpt>
      <trkpt lat="47.54596" lon="-2.78111">
        <ele>42.8</ele>
        <time>2021-11-13T12:11:26Z</time>
      </trkpt>
      <trkpt lat="47.54598" lon="-2.78113">
        <ele>43.2</ele>
        <time>2021-11-13T12:11:28Z</time>
      </trkpt>
      <trkpt lat="47.54598" lon="-2.7812">
        <ele>43.4</ele>
        <time>2021-11-13T12:11:31Z</time>
      </trkpt>
      <trkpt lat="47.54596" lon="-2.78138">
        <ele>43.6</ele>
        <time>2021-11-13T12:11:36Z</time>
      </trkpt>
      <trkpt lat="47.54593" lon="-2.78169">
        <ele>43.4</ele>
        <time>2021-11-13T12:11:45Z</time>
      </trkpt>
      <trkpt lat="47.54589" lon="-2.78185">
        <ele>43.8</ele>
        <time>2021-11-13T12:11:49Z</time>
      </trkpt>
      <trkpt lat="47.54585" lon="-2.78201">
        <ele>44.2</ele>
        <time>2021-11-13T12:11:54Z</time>
      </trkpt>
      <trkpt lat="47.5458" lon="-2.78211">
        <ele>44.2</ele>
        <time>2021-11-13T12:11:59Z</time>
      </trkpt>
      <trkpt lat="47.5458" lon="-2.78213">
        <ele>43.6</ele>
        <time>2021-11-13T12:12:09Z</time>
      </trkpt>
      <trkpt lat="47.54579" lon="-2.78214">
        <ele>43</ele>
        <time>2021-11-13T12:12:14Z</time>
      </trkpt>
      <trkpt lat="47.54579" lon="-2.78215">
        <ele>42.6</ele>
        <time>2021-11-13T12:12:16Z</time>
      </trkpt>
      <trkpt lat="47.54579" lon="-2.78215">
        <ele>42</ele>
        <time>2021-11-13T12:12:19Z</time>
      </trkpt>
      <trkpt lat="47.54579" lon="-2.78215">
        <ele>41.2</ele>
        <time>2021-11-13T12:12:23Z</time>
      </trkpt>
      <trkpt lat="47.54578" lon="-2.78216">
        <ele>40</ele>
        <time>2021-11-13T12:12:30Z</time>
      </trkpt>
      <trkpt lat="47.54573" lon="-2.78219">
        <ele>39.8</ele>
        <time>2021-11-13T12:12:38Z</time>
      </trkpt>
      <trkpt lat="47.54567" lon="-2.7822">
        <ele>39.8</ele>
        <time>2021-11-13T12:12:45Z</time>
      </trkpt>
      <trkpt lat="47.54551" lon="-2.78222">
        <ele>39.4</ele>
        <time>2021-11-13T12:12:51Z</time>
      </trkpt>
      <trkpt lat="47.54533" lon="-2.78228">
        <ele>39.2</ele>
        <time>2021-11-13T12:12:58Z</time>
      </trkpt>
      <trkpt lat="47.54512" lon="-2.78238">
        <ele>39.6</ele>
        <time>2021-11-13T12:13:05Z</time>
      </trkpt>
      <trkpt lat="47.54506" lon="-2.7824">
        <ele>39.4</ele>
        <time>2021-11-13T12:13:07Z</time>
      </trkpt>
      <trkpt lat="47.54488" lon="-2.78247">
        <ele>39.4</ele>
        <time>2021-11-13T12:13:13Z</time>
      </trkpt>
      <trkpt lat="47.54463" lon="-2.78256">
        <ele>39.6</ele>
        <time>2021-11-13T12:13:22Z</time>
      </trkpt>
      <trkpt lat="47.54456" lon="-2.78256">
        <ele>39.6</ele>
        <time>2021-11-13T12:13:25Z</time>
      </trkpt>
      <trkpt lat="47.54454" lon="-2.78258">
        <ele>39.6</ele>
        <time>2021-11-13T12:13:26Z</time>
      </trkpt>
      <trkpt lat="47.54452" lon="-2.7826">
        <ele>39.6</ele>
        <time>2021-11-13T12:13:27Z</time>
      </trkpt>
      <trkpt lat="47.54447" lon="-2.78262">
        <ele>39.8</ele>
        <time>2021-11-13T12:13:30Z</time>
      </trkpt>
      <trkpt lat="47.54443" lon="-2.78263">
        <ele>39.6</ele>
        <time>2021-11-13T12:13:32Z</time>
      </trkpt>
      <trkpt lat="47.54442" lon="-2.78267">
        <ele>39.6</ele>
        <time>2021-11-13T12:13:34Z</time>
      </trkpt>
      <trkpt lat="47.5445" lon="-2.78285">
        <ele>38.8</ele>
        <time>2021-11-13T12:13:40Z</time>
      </trkpt>
      <trkpt lat="47.54453" lon="-2.78292">
        <ele>38.6</ele>
        <time>2021-11-13T12:13:42Z</time>
      </trkpt>
      <trkpt lat="47.54459" lon="-2.78308">
        <ele>38.2</ele>
        <time>2021-11-13T12:13:47Z</time>
      </trkpt>
      <trkpt lat="47.54464" lon="-2.78322">
        <ele>37.8</ele>
        <time>2021-11-13T12:13:53Z</time>
      </trkpt>
      <trkpt lat="47.54467" lon="-2.78328">
        <ele>37.8</ele>
        <time>2021-11-13T12:13:56Z</time>
      </trkpt>
      <trkpt lat="47.54469" lon="-2.7834">
        <ele>37.4</ele>
        <time>2021-11-13T12:14:01Z</time>
      </trkpt>
      <trkpt lat="47.54472" lon="-2.78355">
        <ele>36.8</ele>
        <time>2021-11-13T12:14:07Z</time>
      </trkpt>
      <trkpt lat="47.54473" lon="-2.78362">
        <ele>36.6</ele>
        <time>2021-11-13T12:14:10Z</time>
      </trkpt>
      <trkpt lat="47.54475" lon="-2.78381">
        <ele>36.2</ele>
        <time>2021-11-13T12:14:17Z</time>
      </trkpt>
      <trkpt lat="47.54477" lon="-2.78396">
        <ele>36</ele>
        <time>2021-11-13T12:14:23Z</time>
      </trkpt>
      <trkpt lat="47.54478" lon="-2.78414">
        <ele>35.8</ele>
        <time>2021-11-13T12:14:29Z</time>
      </trkpt>
      <trkpt lat="47.54478" lon="-2.78418">
        <ele>35.8</ele>
        <time>2021-11-13T12:14:30Z</time>
      </trkpt>
      <trkpt lat="47.54478" lon="-2.78425">
        <ele>35.6</ele>
        <time>2021-11-13T12:14:35Z</time>
      </trkpt>
      <trkpt lat="47.54478" lon="-2.78425">
        <ele>36.2</ele>
        <time>2021-11-13T12:14:46Z</time>
      </trkpt>
      <trkpt lat="47.54478" lon="-2.78425">
        <ele>36.6</ele>
        <time>2021-11-13T12:15:08Z</time>
      </trkpt>
      <trkpt lat="47.5448" lon="-2.78435">
        <ele>36.6</ele>
        <time>2021-11-13T12:15:11Z</time>
      </trkpt>
      <trkpt lat="47.54484" lon="-2.78461">
        <ele>36.4</ele>
        <time>2021-11-13T12:15:17Z</time>
      </trkpt>
      <trkpt lat="47.5449" lon="-2.7849">
        <ele>36.2</ele>
        <time>2021-11-13T12:15:24Z</time>
      </trkpt>
      <trkpt lat="47.54497" lon="-2.78529">
        <ele>36.6</ele>
        <time>2021-11-13T12:15:33Z</time>
      </trkpt>
      <trkpt lat="47.54498" lon="-2.78545">
        <ele>36.4</ele>
        <time>2021-11-13T12:15:37Z</time>
      </trkpt>
      <trkpt lat="47.54505" lon="-2.78573">
        <ele>36</ele>
        <time>2021-11-13T12:15:45Z</time>
      </trkpt>
      <trkpt lat="47.54512" lon="-2.78588">
        <ele>36</ele>
        <time>2021-11-13T12:15:51Z</time>
      </trkpt>
      <trkpt lat="47.54513" lon="-2.78591">
        <ele>36</ele>
        <time>2021-11-13T12:15:52Z</time>
      </trkpt>
      <trkpt lat="47.54514" lon="-2.78597">
        <ele>36</ele>
        <time>2021-11-13T12:15:54Z</time>
      </trkpt>
      <trkpt lat="47.54516" lon="-2.78601">
        <ele>36</ele>
        <time>2021-11-13T12:15:56Z</time>
      </trkpt>
      <trkpt lat="47.5452" lon="-2.78606">
        <ele>36</ele>
        <time>2021-11-13T12:15:58Z</time>
      </trkpt>
      <trkpt lat="47.54529" lon="-2.78609">
        <ele>35.6</ele>
        <time>2021-11-13T12:16:02Z</time>
      </trkpt>
      <trkpt lat="47.54538" lon="-2.78612">
        <ele>35.4</ele>
        <time>2021-11-13T12:16:05Z</time>
      </trkpt>
      <trkpt lat="47.54544" lon="-2.78614">
        <ele>35.2</ele>
        <time>2021-11-13T12:16:07Z</time>
      </trkpt>
      <trkpt lat="47.54565" lon="-2.7863">
        <ele>34.4</ele>
        <time>2021-11-13T12:16:13Z</time>
      </trkpt>
      <trkpt lat="47.54581" lon="-2.78659">
        <ele>34.2</ele>
        <time>2021-11-13T12:16:20Z</time>
      </trkpt>
      <trkpt lat="47.5459" lon="-2.78697">
        <ele>34.2</ele>
        <time>2021-11-13T12:16:27Z</time>
      </trkpt>
      <trkpt lat="47.54594" lon="-2.78729">
        <ele>34.2</ele>
        <time>2021-11-13T12:16:33Z</time>
      </trkpt>
      <trkpt lat="47.54609" lon="-2.78771">
        <ele>34.4</ele>
        <time>2021-11-13T12:16:41Z</time>
      </trkpt>
      <trkpt lat="47.54627" lon="-2.78788">
        <ele>34.8</ele>
        <time>2021-11-13T12:16:47Z</time>
      </trkpt>
      <trkpt lat="47.54649" lon="-2.78792">
        <ele>35</ele>
        <time>2021-11-13T12:16:54Z</time>
      </trkpt>
      <trkpt lat="47.54677" lon="-2.78787">
        <ele>35.8</ele>
        <time>2021-11-13T12:17:02Z</time>
      </trkpt>
      <trkpt lat="47.54707" lon="-2.7878">
        <ele>36.4</ele>
        <time>2021-11-13T12:17:10Z</time>
      </trkpt>
      <trkpt lat="47.54721" lon="-2.78777">
        <ele>36.8</ele>
        <time>2021-11-13T12:17:14Z</time>
      </trkpt>
      <trkpt lat="47.54745" lon="-2.78773">
        <ele>37</ele>
        <time>2021-11-13T12:17:20Z</time>
      </trkpt>
      <trkpt lat="47.54771" lon="-2.78778">
        <ele>37.6</ele>
        <time>2021-11-13T12:17:27Z</time>
      </trkpt>
      <trkpt lat="47.54779" lon="-2.7878">
        <ele>37.8</ele>
        <time>2021-11-13T12:17:29Z</time>
      </trkpt>
      <trkpt lat="47.54801" lon="-2.78787">
        <ele>38.2</ele>
        <time>2021-11-13T12:17:35Z</time>
      </trkpt>
      <trkpt lat="47.5483" lon="-2.7879">
        <ele>39</ele>
        <time>2021-11-13T12:17:42Z</time>
      </trkpt>
      <trkpt lat="47.54835" lon="-2.7879">
        <ele>39</ele>
        <time>2021-11-13T12:17:43Z</time>
      </trkpt>
      <trkpt lat="47.54873" lon="-2.78788">
        <ele>39.4</ele>
        <time>2021-11-13T12:17:51Z</time>
      </trkpt>
      <trkpt lat="47.54878" lon="-2.78788">
        <ele>39.6</ele>
        <time>2021-11-13T12:17:52Z</time>
      </trkpt>
      <trkpt lat="47.54895" lon="-2.78784">
        <ele>39.6</ele>
        <time>2021-11-13T12:17:56Z</time>
      </trkpt>
      <trkpt lat="47.54919" lon="-2.78773">
        <ele>39.8</ele>
        <time>2021-11-13T12:18:01Z</time>
      </trkpt>
      <trkpt lat="47.54922" lon="-2.7877">
        <ele>40</ele>
        <time>2021-11-13T12:18:02Z</time>
      </trkpt>
      <trkpt lat="47.54927" lon="-2.78765">
        <ele>40</ele>
        <time>2021-11-13T12:18:03Z</time>
      </trkpt>
      <trkpt lat="47.54937" lon="-2.78753">
        <ele>40.2</ele>
        <time>2021-11-13T12:18:06Z</time>
      </trkpt>
      <trkpt lat="47.54946" lon="-2.78742">
        <ele>40.4</ele>
        <time>2021-11-13T12:18:08Z</time>
      </trkpt>
      <trkpt lat="47.54964" lon="-2.78721">
        <ele>40.4</ele>
        <time>2021-11-13T12:18:13Z</time>
      </trkpt>
      <trkpt lat="47.54973" lon="-2.78717">
        <ele>40.6</ele>
        <time>2021-11-13T12:18:15Z</time>
      </trkpt>
      <trkpt lat="47.55027" lon="-2.78699">
        <ele>41.2</ele>
        <time>2021-11-13T12:18:27Z</time>
      </trkpt>
      <trkpt lat="47.55032" lon="-2.78698">
        <ele>41.2</ele>
        <time>2021-11-13T12:18:28Z</time>
      </trkpt>
      <trkpt lat="47.55067" lon="-2.78694">
        <ele>42</ele>
        <time>2021-11-13T12:18:36Z</time>
      </trkpt>
      <trkpt lat="47.55092" lon="-2.78695">
        <ele>42.8</ele>
        <time>2021-11-13T12:18:42Z</time>
      </trkpt>
      <trkpt lat="47.55101" lon="-2.78696">
        <ele>43.2</ele>
        <time>2021-11-13T12:18:44Z</time>
      </trkpt>
      <trkpt lat="47.55115" lon="-2.78698">
        <ele>43.8</ele>
        <time>2021-11-13T12:18:47Z</time>
      </trkpt>
      <trkpt lat="47.55132" lon="-2.78699">
        <ele>44.6</ele>
        <time>2021-11-13T12:18:51Z</time>
      </trkpt>
      <trkpt lat="47.55147" lon="-2.78702">
        <ele>44.8</ele>
        <time>2021-11-13T12:18:54Z</time>
      </trkpt>
      <trkpt lat="47.5516" lon="-2.78702">
        <ele>45</ele>
        <time>2021-11-13T12:18:57Z</time>
      </trkpt>
      <trkpt lat="47.5517" lon="-2.787">
        <ele>45.4</ele>
        <time>2021-11-13T12:18:59Z</time>
      </trkpt>
      <trkpt lat="47.55184" lon="-2.7869">
        <ele>45.6</ele>
        <time>2021-11-13T12:19:02Z</time>
      </trkpt>
      <trkpt lat="47.55187" lon="-2.78686">
        <ele>45.6</ele>
        <time>2021-11-13T12:19:03Z</time>
      </trkpt>
      <trkpt lat="47.55196" lon="-2.78671">
        <ele>45.8</ele>
        <time>2021-11-13T12:19:06Z</time>
      </trkpt>
      <trkpt lat="47.55204" lon="-2.78654">
        <ele>45.8</ele>
        <time>2021-11-13T12:19:09Z</time>
      </trkpt>
      <trkpt lat="47.55218" lon="-2.78623">
        <ele>46</ele>
        <time>2021-11-13T12:19:14Z</time>
      </trkpt>
      <trkpt lat="47.5522" lon="-2.78617">
        <ele>46</ele>
        <time>2021-11-13T12:19:15Z</time>
      </trkpt>
      <trkpt lat="47.55227" lon="-2.78601">
        <ele>46</ele>
        <time>2021-11-13T12:19:18Z</time>
      </trkpt>
      <trkpt lat="47.55232" lon="-2.78591">
        <ele>46</ele>
        <time>2021-11-13T12:19:20Z</time>
      </trkpt>
      <trkpt lat="47.55233" lon="-2.78585">
        <ele>46</ele>
        <time>2021-11-13T12:19:21Z</time>
      </trkpt>
      <trkpt lat="47.55234" lon="-2.7858">
        <ele>46</ele>
        <time>2021-11-13T12:19:22Z</time>
      </trkpt>
      <trkpt lat="47.55233" lon="-2.78557">
        <ele>46</ele>
        <time>2021-11-13T12:19:26Z</time>
      </trkpt>
      <trkpt lat="47.55232" lon="-2.78537">
        <ele>45.8</ele>
        <time>2021-11-13T12:19:30Z</time>
      </trkpt>
      <trkpt lat="47.55238" lon="-2.7852">
        <ele>45.6</ele>
        <time>2021-11-13T12:19:34Z</time>
      </trkpt>
      <trkpt lat="47.55241" lon="-2.78519">
        <ele>45.4</ele>
        <time>2021-11-13T12:19:35Z</time>
      </trkpt>
      <trkpt lat="47.55247" lon="-2.78517">
        <ele>45.2</ele>
        <time>2021-11-13T12:19:40Z</time>
      </trkpt>
      <trkpt lat="47.55247" lon="-2.78517">
        <ele>44.2</ele>
        <time>2021-11-13T12:19:46Z</time>
      </trkpt>
      <trkpt lat="47.55247" lon="-2.78517">
        <ele>43.2</ele>
        <time>2021-11-13T12:19:54Z</time>
      </trkpt>
      <trkpt lat="47.55247" lon="-2.78517">
        <ele>42.4</ele>
        <time>2021-11-13T12:20:04Z</time>
      </trkpt>
      <trkpt lat="47.55247" lon="-2.78517">
        <ele>42.4</ele>
        <time>2021-11-13T12:20:08Z</time>
      </trkpt>
      <trkpt lat="47.55247" lon="-2.78517">
        <ele>42.2</ele>
        <time>2021-11-13T12:20:35Z</time>
      </trkpt>
      <trkpt lat="47.55244" lon="-2.78511">
        <ele>42.2</ele>
        <time>2021-11-13T12:20:38Z</time>
      </trkpt>
      <trkpt lat="47.55239" lon="-2.78513">
        <ele>42.2</ele>
        <time>2021-11-13T12:20:40Z</time>
      </trkpt>
      <trkpt lat="47.55236" lon="-2.78518">
        <ele>42.2</ele>
        <time>2021-11-13T12:20:42Z</time>
      </trkpt>
      <trkpt lat="47.55235" lon="-2.78535">
        <ele>42</ele>
        <time>2021-11-13T12:20:46Z</time>
      </trkpt>
      <trkpt lat="47.5524" lon="-2.7856">
        <ele>42</ele>
        <time>2021-11-13T12:20:52Z</time>
      </trkpt>
      <trkpt lat="47.5524" lon="-2.78583">
        <ele>41.8</ele>
        <time>2021-11-13T12:20:57Z</time>
      </trkpt>
      <trkpt lat="47.55234" lon="-2.78598">
        <ele>41.8</ele>
        <time>2021-11-13T12:21:01Z</time>
      </trkpt>
      <trkpt lat="47.55232" lon="-2.78603">
        <ele>41.8</ele>
        <time>2021-11-13T12:21:02Z</time>
      </trkpt>
      <trkpt lat="47.55223" lon="-2.78623">
        <ele>41.8</ele>
        <time>2021-11-13T12:21:07Z</time>
      </trkpt>
      <trkpt lat="47.55212" lon="-2.78648">
        <ele>41.8</ele>
        <time>2021-11-13T12:21:13Z</time>
      </trkpt>
      <trkpt lat="47.55191" lon="-2.78685">
        <ele>41.8</ele>
        <time>2021-11-13T12:21:22Z</time>
      </trkpt>
      <trkpt lat="47.55173" lon="-2.78701">
        <ele>42.2</ele>
        <time>2021-11-13T12:21:28Z</time>
      </trkpt>
      <trkpt lat="47.55152" lon="-2.78704">
        <ele>42.2</ele>
        <time>2021-11-13T12:21:34Z</time>
      </trkpt>
      <trkpt lat="47.55132" lon="-2.78701">
        <ele>42.2</ele>
        <time>2021-11-13T12:21:40Z</time>
      </trkpt>
      <trkpt lat="47.55108" lon="-2.78699">
        <ele>42.4</ele>
        <time>2021-11-13T12:21:46Z</time>
      </trkpt>
      <trkpt lat="47.55081" lon="-2.78695">
        <ele>42.4</ele>
        <time>2021-11-13T12:21:52Z</time>
      </trkpt>
      <trkpt lat="47.55045" lon="-2.78696">
        <ele>42.2</ele>
        <time>2021-11-13T12:22:00Z</time>
      </trkpt>
      <trkpt lat="47.55007" lon="-2.78706">
        <ele>42.4</ele>
        <time>2021-11-13T12:22:08Z</time>
      </trkpt>
      <trkpt lat="47.54977" lon="-2.78716">
        <ele>42.6</ele>
        <time>2021-11-13T12:22:14Z</time>
      </trkpt>
      <trkpt lat="47.54966" lon="-2.78723">
        <ele>42.8</ele>
        <time>2021-11-13T12:22:16Z</time>
      </trkpt>
      <trkpt lat="47.54958" lon="-2.78731">
        <ele>43</ele>
        <time>2021-11-13T12:22:18Z</time>
      </trkpt>
      <trkpt lat="47.54954" lon="-2.78736">
        <ele>43.2</ele>
        <time>2021-11-13T12:22:19Z</time>
      </trkpt>
      <trkpt lat="47.54924" lon="-2.78769">
        <ele>43.8</ele>
        <time>2021-11-13T12:22:26Z</time>
      </trkpt>
      <trkpt lat="47.5492" lon="-2.78772">
        <ele>44</ele>
        <time>2021-11-13T12:22:27Z</time>
      </trkpt>
      <trkpt lat="47.54899" lon="-2.78783">
        <ele>44.2</ele>
        <time>2021-11-13T12:22:31Z</time>
      </trkpt>
      <trkpt lat="47.54895" lon="-2.78784">
        <ele>44.2</ele>
        <time>2021-11-13T12:22:32Z</time>
      </trkpt>
      <trkpt lat="47.5489" lon="-2.78786">
        <ele>44.2</ele>
        <time>2021-11-13T12:22:33Z</time>
      </trkpt>
      <trkpt lat="47.54855" lon="-2.7879">
        <ele>44.6</ele>
        <time>2021-11-13T12:22:40Z</time>
      </trkpt>
      <trkpt lat="47.54819" lon="-2.78792">
        <ele>44.8</ele>
        <time>2021-11-13T12:22:48Z</time>
      </trkpt>
      <trkpt lat="47.54789" lon="-2.78785">
        <ele>45.2</ele>
        <time>2021-11-13T12:22:55Z</time>
      </trkpt>
      <trkpt lat="47.54786" lon="-2.78785">
        <ele>45.2</ele>
        <time>2021-11-13T12:22:56Z</time>
      </trkpt>
      <trkpt lat="47.54782" lon="-2.78788">
        <ele>45.2</ele>
        <time>2021-11-13T12:22:57Z</time>
      </trkpt>
      <trkpt lat="47.54779" lon="-2.78798">
        <ele>45.2</ele>
        <time>2021-11-13T12:22:59Z</time>
      </trkpt>
      <trkpt lat="47.54783" lon="-2.78819">
        <ele>45.4</ele>
        <time>2021-11-13T12:23:03Z</time>
      </trkpt>
      <trkpt lat="47.54791" lon="-2.78851">
        <ele>45.2</ele>
        <time>2021-11-13T12:23:09Z</time>
      </trkpt>
      <trkpt lat="47.54802" lon="-2.78903">
        <ele>45.4</ele>
        <time>2021-11-13T12:23:19Z</time>
      </trkpt>
      <trkpt lat="47.54809" lon="-2.78934">
        <ele>45.6</ele>
        <time>2021-11-13T12:23:25Z</time>
      </trkpt>
      <trkpt lat="47.54811" lon="-2.78939">
        <ele>45.6</ele>
        <time>2021-11-13T12:23:26Z</time>
      </trkpt>
      <trkpt lat="47.54821" lon="-2.78961">
        <ele>46</ele>
        <time>2021-11-13T12:23:31Z</time>
      </trkpt>
      <trkpt lat="47.54842" lon="-2.78988">
        <ele>46.2</ele>
        <time>2021-11-13T12:23:39Z</time>
      </trkpt>
      <trkpt lat="47.54864" lon="-2.79004">
        <ele>46.6</ele>
        <time>2021-11-13T12:23:46Z</time>
      </trkpt>
      <trkpt lat="47.54872" lon="-2.79017">
        <ele>46.6</ele>
        <time>2021-11-13T12:23:49Z</time>
      </trkpt>
      <trkpt lat="47.54876" lon="-2.79027">
        <ele>46.8</ele>
        <time>2021-11-13T12:23:51Z</time>
      </trkpt>
      <trkpt lat="47.54877" lon="-2.7906">
        <ele>46.8</ele>
        <time>2021-11-13T12:23:56Z</time>
      </trkpt>
      <trkpt lat="47.54877" lon="-2.79072">
        <ele>47</ele>
        <time>2021-11-13T12:23:58Z</time>
      </trkpt>
      <trkpt lat="47.54877" lon="-2.79078">
        <ele>46.8</ele>
        <time>2021-11-13T12:23:59Z</time>
      </trkpt>
      <trkpt lat="47.54878" lon="-2.79099">
        <ele>46.8</ele>
        <time>2021-11-13T12:24:03Z</time>
      </trkpt>
      <trkpt lat="47.54878" lon="-2.79112">
        <ele>46.8</ele>
        <time>2021-11-13T12:24:06Z</time>
      </trkpt>
      <trkpt lat="47.5488" lon="-2.79115">
        <ele>46.8</ele>
        <time>2021-11-13T12:24:07Z</time>
      </trkpt>
      <trkpt lat="47.54894" lon="-2.79122">
        <ele>46.8</ele>
        <time>2021-11-13T12:24:11Z</time>
      </trkpt>
      <trkpt lat="47.54916" lon="-2.79131">
        <ele>46.4</ele>
        <time>2021-11-13T12:24:17Z</time>
      </trkpt>
      <trkpt lat="47.54929" lon="-2.79137">
        <ele>46.2</ele>
        <time>2021-11-13T12:24:22Z</time>
      </trkpt>
      <trkpt lat="47.54933" lon="-2.79141">
        <ele>46.2</ele>
        <time>2021-11-13T12:24:24Z</time>
      </trkpt>
      <trkpt lat="47.54937" lon="-2.79142">
        <ele>46.4</ele>
        <time>2021-11-13T12:24:26Z</time>
      </trkpt>
      <trkpt lat="47.54939" lon="-2.79142">
        <ele>46.2</ele>
        <time>2021-11-13T12:24:27Z</time>
      </trkpt>
      <trkpt lat="47.54954" lon="-2.79147">
        <ele>46.4</ele>
        <time>2021-11-13T12:24:33Z</time>
      </trkpt>
      <trkpt lat="47.54973" lon="-2.79154">
        <ele>46</ele>
        <time>2021-11-13T12:24:39Z</time>
      </trkpt>
      <trkpt lat="47.54998" lon="-2.7916">
        <ele>45.4</ele>
        <time>2021-11-13T12:24:46Z</time>
      </trkpt>
      <trkpt lat="47.55008" lon="-2.79162">
        <ele>45.2</ele>
        <time>2021-11-13T12:24:50Z</time>
      </trkpt>
      <trkpt lat="47.55012" lon="-2.79163">
        <ele>45</ele>
        <time>2021-11-13T12:24:52Z</time>
      </trkpt>
      <trkpt lat="47.55014" lon="-2.79163">
        <ele>44.6</ele>
        <time>2021-11-13T12:24:57Z</time>
      </trkpt>
      <trkpt lat="47.55016" lon="-2.79165">
        <ele>44</ele>
        <time>2021-11-13T12:25:01Z</time>
      </trkpt>
      <trkpt lat="47.55016" lon="-2.79165">
        <ele>43.8</ele>
        <time>2021-11-13T12:25:03Z</time>
      </trkpt>
      <trkpt lat="47.55016" lon="-2.79166">
        <ele>43</ele>
        <time>2021-11-13T12:25:08Z</time>
      </trkpt>
      <trkpt lat="47.55016" lon="-2.79166">
        <ele>42.6</ele>
        <time>2021-11-13T12:25:11Z</time>
      </trkpt>
      <trkpt lat="47.55016" lon="-2.79166">
        <ele>42</ele>
        <time>2021-11-13T12:25:15Z</time>
      </trkpt>
      <trkpt lat="47.55016" lon="-2.79166">
        <ele>41.6</ele>
        <time>2021-11-13T12:25:23Z</time>
      </trkpt>
      <trkpt lat="47.55016" lon="-2.79166">
        <ele>41.2</ele>
        <time>2021-11-13T12:25:26Z</time>
      </trkpt>
      <trkpt lat="47.55015" lon="-2.79169">
        <ele>41</ele>
        <time>2021-11-13T12:25:28Z</time>
      </trkpt>
      <trkpt lat="47.55015" lon="-2.79174">
        <ele>41</ele>
        <time>2021-11-13T12:25:30Z</time>
      </trkpt>
      <trkpt lat="47.55012" lon="-2.79179">
        <ele>40.8</ele>
        <time>2021-11-13T12:25:32Z</time>
      </trkpt>
      <trkpt lat="47.5501" lon="-2.79183">
        <ele>40.8</ele>
        <time>2021-11-13T12:25:34Z</time>
      </trkpt>
      <trkpt lat="47.55009" lon="-2.79188">
        <ele>40.8</ele>
        <time>2021-11-13T12:25:36Z</time>
      </trkpt>
      <trkpt lat="47.55007" lon="-2.79203">
        <ele>41</ele>
        <time>2021-11-13T12:25:43Z</time>
      </trkpt>
      <trkpt lat="47.55007" lon="-2.79206">
        <ele>41</ele>
        <time>2021-11-13T12:25:45Z</time>
      </trkpt>
      <trkpt lat="47.55006" lon="-2.79222">
        <ele>40.8</ele>
        <time>2021-11-13T12:25:53Z</time>
      </trkpt>
      <trkpt lat="47.55006" lon="-2.79224">
        <ele>40.4</ele>
        <time>2021-11-13T12:25:59Z</time>
      </trkpt>
      <trkpt lat="47.55006" lon="-2.79224">
        <ele>40.4</ele>
        <time>2021-11-13T12:26:01Z</time>
      </trkpt>
      <trkpt lat="47.55007" lon="-2.79228">
        <ele>40.4</ele>
        <time>2021-11-13T12:26:08Z</time>
      </trkpt>
      <trkpt lat="47.55007" lon="-2.79233">
        <ele>40.8</ele>
        <time>2021-11-13T12:26:10Z</time>
      </trkpt>
      <trkpt lat="47.55005" lon="-2.7925">
        <ele>40.8</ele>
        <time>2021-11-13T12:26:19Z</time>
      </trkpt>
      <trkpt lat="47.55005" lon="-2.7925">
        <ele>40.6</ele>
        <time>2021-11-13T12:26:23Z</time>
      </trkpt>
      <trkpt lat="47.55007" lon="-2.79253">
        <ele>40.4</ele>
        <time>2021-11-13T12:26:27Z</time>
      </trkpt>
      <trkpt lat="47.55008" lon="-2.79254">
        <ele>40.4</ele>
        <time>2021-11-13T12:26:28Z</time>
      </trkpt>
      <trkpt lat="47.5501" lon="-2.7926">
        <ele>40.2</ele>
        <time>2021-11-13T12:26:35Z</time>
      </trkpt>
      <trkpt lat="47.55009" lon="-2.79264">
        <ele>40</ele>
        <time>2021-11-13T12:26:37Z</time>
      </trkpt>
      <trkpt lat="47.55008" lon="-2.79271">
        <ele>39.6</ele>
        <time>2021-11-13T12:26:41Z</time>
      </trkpt>
      <trkpt lat="47.55007" lon="-2.79273">
        <ele>39.4</ele>
        <time>2021-11-13T12:26:42Z</time>
      </trkpt>
      <trkpt lat="47.55005" lon="-2.7929">
        <ele>39.2</ele>
        <time>2021-11-13T12:26:52Z</time>
      </trkpt>
      <trkpt lat="47.55005" lon="-2.79293">
        <ele>39.2</ele>
        <time>2021-11-13T12:26:56Z</time>
      </trkpt>
      <trkpt lat="47.55005" lon="-2.79299">
        <ele>39.2</ele>
        <time>2021-11-13T12:27:00Z</time>
      </trkpt>
      <trkpt lat="47.55006" lon="-2.79304">
        <ele>39</ele>
        <time>2021-11-13T12:27:04Z</time>
      </trkpt>
      <trkpt lat="47.55005" lon="-2.79315">
        <ele>38.8</ele>
        <time>2021-11-13T12:27:11Z</time>
      </trkpt>
      <trkpt lat="47.55004" lon="-2.79316">
        <ele>38.8</ele>
        <time>2021-11-13T12:27:12Z</time>
      </trkpt>
      <trkpt lat="47.55002" lon="-2.79317">
        <ele>39</ele>
        <time>2021-11-13T12:27:15Z</time>
      </trkpt>
      <trkpt lat="47.55002" lon="-2.7932">
        <ele>39</ele>
        <time>2021-11-13T12:27:17Z</time>
      </trkpt>
      <trkpt lat="47.55002" lon="-2.79321">
        <ele>39</ele>
        <time>2021-11-13T12:27:18Z</time>
      </trkpt>
      <trkpt lat="47.55004" lon="-2.79324">
        <ele>38.8</ele>
        <time>2021-11-13T12:27:20Z</time>
      </trkpt>
      <trkpt lat="47.55006" lon="-2.79332">
        <ele>38.6</ele>
        <time>2021-11-13T12:27:25Z</time>
      </trkpt>
      <trkpt lat="47.55009" lon="-2.79347">
        <ele>38.4</ele>
        <time>2021-11-13T12:27:34Z</time>
      </trkpt>
      <trkpt lat="47.55009" lon="-2.79352">
        <ele>38.2</ele>
        <time>2021-11-13T12:27:40Z</time>
      </trkpt>
      <trkpt lat="47.55008" lon="-2.79355">
        <ele>38</ele>
        <time>2021-11-13T12:27:42Z</time>
      </trkpt>
      <trkpt lat="47.55009" lon="-2.79356">
        <ele>38</ele>
        <time>2021-11-13T12:27:43Z</time>
      </trkpt>
      <trkpt lat="47.55009" lon="-2.79358">
        <ele>38</ele>
        <time>2021-11-13T12:27:44Z</time>
      </trkpt>
      <trkpt lat="47.5501" lon="-2.79364">
        <ele>37.6</ele>
        <time>2021-11-13T12:27:47Z</time>
      </trkpt>
      <trkpt lat="47.5501" lon="-2.7937">
        <ele>37.4</ele>
        <time>2021-11-13T12:27:50Z</time>
      </trkpt>
      <trkpt lat="47.5501" lon="-2.7937">
        <ele>37.2</ele>
        <time>2021-11-13T12:27:53Z</time>
      </trkpt>
      <trkpt lat="47.5501" lon="-2.7937">
        <ele>36.8</ele>
        <time>2021-11-13T12:27:57Z</time>
      </trkpt>
      <trkpt lat="47.55011" lon="-2.79374">
        <ele>36.8</ele>
        <time>2021-11-13T12:28:03Z</time>
      </trkpt>
      <trkpt lat="47.55011" lon="-2.79377">
        <ele>36.6</ele>
        <time>2021-11-13T12:28:05Z</time>
      </trkpt>
      <trkpt lat="47.55009" lon="-2.79385">
        <ele>36.4</ele>
        <time>2021-11-13T12:28:10Z</time>
      </trkpt>
      <trkpt lat="47.55011" lon="-2.79389">
        <ele>36.2</ele>
        <time>2021-11-13T12:28:12Z</time>
      </trkpt>
      <trkpt lat="47.55012" lon="-2.79391">
        <ele>36.2</ele>
        <time>2021-11-13T12:28:13Z</time>
      </trkpt>
      <trkpt lat="47.55012" lon="-2.79394">
        <ele>36</ele>
        <time>2021-11-13T12:28:15Z</time>
      </trkpt>
      <trkpt lat="47.55012" lon="-2.79396">
        <ele>35.8</ele>
        <time>2021-11-13T12:28:16Z</time>
      </trkpt>
      <trkpt lat="47.55011" lon="-2.79399">
        <ele>35.6</ele>
        <time>2021-11-13T12:28:18Z</time>
      </trkpt>
      <trkpt lat="47.5501" lon="-2.79401">
        <ele>35.4</ele>
        <time>2021-11-13T12:28:22Z</time>
      </trkpt>
      <trkpt lat="47.5501" lon="-2.79403">
        <ele>34.8</ele>
        <time>2021-11-13T12:28:24Z</time>
      </trkpt>
      <trkpt lat="47.55007" lon="-2.79411">
        <ele>34.6</ele>
        <time>2021-11-13T12:28:27Z</time>
      </trkpt>
      <trkpt lat="47.55001" lon="-2.79422">
        <ele>34.6</ele>
        <time>2021-11-13T12:28:31Z</time>
      </trkpt>
      <trkpt lat="47.54999" lon="-2.79428">
        <ele>34.6</ele>
        <time>2021-11-13T12:28:33Z</time>
      </trkpt>
      <trkpt lat="47.54995" lon="-2.79435">
        <ele>34.4</ele>
        <time>2021-11-13T12:28:37Z</time>
      </trkpt>
      <trkpt lat="47.54993" lon="-2.79437">
        <ele>34.4</ele>
        <time>2021-11-13T12:28:39Z</time>
      </trkpt>
      <trkpt lat="47.54984" lon="-2.79451">
        <ele>34.6</ele>
        <time>2021-11-13T12:28:46Z</time>
      </trkpt>
      <trkpt lat="47.54974" lon="-2.79462">
        <ele>34.8</ele>
        <time>2021-11-13T12:28:52Z</time>
      </trkpt>
      <trkpt lat="47.54972" lon="-2.79464">
        <ele>34.8</ele>
        <time>2021-11-13T12:28:53Z</time>
      </trkpt>
      <trkpt lat="47.54968" lon="-2.79469">
        <ele>35.2</ele>
        <time>2021-11-13T12:28:56Z</time>
      </trkpt>
      <trkpt lat="47.5496" lon="-2.79481">
        <ele>35.6</ele>
        <time>2021-11-13T12:29:02Z</time>
      </trkpt>
      <trkpt lat="47.54953" lon="-2.7949">
        <ele>36</ele>
        <time>2021-11-13T12:29:08Z</time>
      </trkpt>
      <trkpt lat="47.54953" lon="-2.79491">
        <ele>36.2</ele>
        <time>2021-11-13T12:29:11Z</time>
      </trkpt>
      <trkpt lat="47.54948" lon="-2.7949">
        <ele>36.4</ele>
        <time>2021-11-13T12:29:17Z</time>
      </trkpt>
      <trkpt lat="47.54947" lon="-2.79487">
        <ele>36.6</ele>
        <time>2021-11-13T12:29:23Z</time>
      </trkpt>
      <trkpt lat="47.54943" lon="-2.79488">
        <ele>36.8</ele>
        <time>2021-11-13T12:29:27Z</time>
      </trkpt>
      <trkpt lat="47.54941" lon="-2.79486">
        <ele>37</ele>
        <time>2021-11-13T12:29:29Z</time>
      </trkpt>
      <trkpt lat="47.54933" lon="-2.79476">
        <ele>37.2</ele>
        <time>2021-11-13T12:29:38Z</time>
      </trkpt>
      <trkpt lat="47.54924" lon="-2.79462">
        <ele>36.8</ele>
        <time>2021-11-13T12:29:48Z</time>
      </trkpt>
      <trkpt lat="47.54923" lon="-2.79462">
        <ele>37</ele>
        <time>2021-11-13T12:29:49Z</time>
      </trkpt>
      <trkpt lat="47.54919" lon="-2.79464">
        <ele>36.8</ele>
        <time>2021-11-13T12:29:56Z</time>
      </trkpt>
      <trkpt lat="47.54918" lon="-2.79465">
        <ele>36.6</ele>
        <time>2021-11-13T12:30:12Z</time>
      </trkpt>
      <trkpt lat="47.54905" lon="-2.79478">
        <ele>37</ele>
        <time>2021-11-13T12:30:21Z</time>
      </trkpt>
      <trkpt lat="47.54901" lon="-2.79483">
        <ele>37.4</ele>
        <time>2021-11-13T12:30:27Z</time>
      </trkpt>
      <trkpt lat="47.549" lon="-2.79484">
        <ele>37.4</ele>
        <time>2021-11-13T12:30:28Z</time>
      </trkpt>
      <trkpt lat="47.549" lon="-2.79485">
        <ele>37.6</ele>
        <time>2021-11-13T12:30:29Z</time>
      </trkpt>
      <trkpt lat="47.549" lon="-2.79487">
        <ele>37.8</ele>
        <time>2021-11-13T12:30:32Z</time>
      </trkpt>
      <trkpt lat="47.54903" lon="-2.79493">
        <ele>38</ele>
        <time>2021-11-13T12:30:37Z</time>
      </trkpt>
      <trkpt lat="47.54904" lon="-2.79496">
        <ele>38</ele>
        <time>2021-11-13T12:30:38Z</time>
      </trkpt>
      <trkpt lat="47.5491" lon="-2.79505">
        <ele>38</ele>
        <time>2021-11-13T12:30:44Z</time>
      </trkpt>
      <trkpt lat="47.5491" lon="-2.79507">
        <ele>38</ele>
        <time>2021-11-13T12:30:45Z</time>
      </trkpt>
      <trkpt lat="47.5491" lon="-2.79509">
        <ele>37.8</ele>
        <time>2021-11-13T12:30:46Z</time>
      </trkpt>
      <trkpt lat="47.5491" lon="-2.7951">
        <ele>37.8</ele>
        <time>2021-11-13T12:30:48Z</time>
      </trkpt>
      <trkpt lat="47.54913" lon="-2.79515">
        <ele>37.8</ele>
        <time>2021-11-13T12:30:53Z</time>
      </trkpt>
      <trkpt lat="47.54916" lon="-2.79518">
        <ele>37.8</ele>
        <time>2021-11-13T12:30:55Z</time>
      </trkpt>
      <trkpt lat="47.5492" lon="-2.79529">
        <ele>37.6</ele>
        <time>2021-11-13T12:31:01Z</time>
      </trkpt>
      <trkpt lat="47.54922" lon="-2.79531">
        <ele>37.6</ele>
        <time>2021-11-13T12:31:03Z</time>
      </trkpt>
      <trkpt lat="47.54922" lon="-2.79535">
        <ele>37.4</ele>
        <time>2021-11-13T12:31:05Z</time>
      </trkpt>
      <trkpt lat="47.54921" lon="-2.79536">
        <ele>37.4</ele>
        <time>2021-11-13T12:31:06Z</time>
      </trkpt>
      <trkpt lat="47.54917" lon="-2.7954">
        <ele>37.4</ele>
        <time>2021-11-13T12:31:12Z</time>
      </trkpt>
      <trkpt lat="47.54915" lon="-2.79544">
        <ele>36.8</ele>
        <time>2021-11-13T12:31:20Z</time>
      </trkpt>
      <trkpt lat="47.54912" lon="-2.79549">
        <ele>36.8</ele>
        <time>2021-11-13T12:31:23Z</time>
      </trkpt>
      <trkpt lat="47.5491" lon="-2.79552">
        <ele>36.6</ele>
        <time>2021-11-13T12:31:25Z</time>
      </trkpt>
      <trkpt lat="47.54904" lon="-2.79557">
        <ele>36.8</ele>
        <time>2021-11-13T12:31:31Z</time>
      </trkpt>
      <trkpt lat="47.54902" lon="-2.79558">
        <ele>36.8</ele>
        <time>2021-11-13T12:31:36Z</time>
      </trkpt>
      <trkpt lat="47.54899" lon="-2.79561">
        <ele>37</ele>
        <time>2021-11-13T12:31:41Z</time>
      </trkpt>
      <trkpt lat="47.54898" lon="-2.79563">
        <ele>36.8</ele>
        <time>2021-11-13T12:31:44Z</time>
      </trkpt>
      <trkpt lat="47.54896" lon="-2.7957">
        <ele>36.8</ele>
        <time>2021-11-13T12:31:49Z</time>
      </trkpt>
      <trkpt lat="47.54896" lon="-2.79576">
        <ele>36.6</ele>
        <time>2021-11-13T12:31:52Z</time>
      </trkpt>
      <trkpt lat="47.54895" lon="-2.79581">
        <ele>36.6</ele>
        <time>2021-11-13T12:31:55Z</time>
      </trkpt>
      <trkpt lat="47.54893" lon="-2.79585">
        <ele>36.6</ele>
        <time>2021-11-13T12:31:59Z</time>
      </trkpt>
      <trkpt lat="47.54885" lon="-2.79593">
        <ele>36.6</ele>
        <time>2021-11-13T12:32:09Z</time>
      </trkpt>
      <trkpt lat="47.54876" lon="-2.79599">
        <ele>36.6</ele>
        <time>2021-11-13T12:32:17Z</time>
      </trkpt>
      <trkpt lat="47.54874" lon="-2.79601">
        <ele>36.6</ele>
        <time>2021-11-13T12:32:24Z</time>
      </trkpt>
      <trkpt lat="47.54872" lon="-2.79603">
        <ele>36.6</ele>
        <time>2021-11-13T12:32:32Z</time>
      </trkpt>
      <trkpt lat="47.54868" lon="-2.7961">
        <ele>36.6</ele>
        <time>2021-11-13T12:32:36Z</time>
      </trkpt>
      <trkpt lat="47.54858" lon="-2.79623">
        <ele>36.6</ele>
        <time>2021-11-13T12:32:42Z</time>
      </trkpt>
      <trkpt lat="47.54841" lon="-2.79645">
        <ele>36.6</ele>
        <time>2021-11-13T12:32:50Z</time>
      </trkpt>
      <trkpt lat="47.54832" lon="-2.7966">
        <ele>36.8</ele>
        <time>2021-11-13T12:32:56Z</time>
      </trkpt>
      <trkpt lat="47.54822" lon="-2.79696">
        <ele>37</ele>
        <time>2021-11-13T12:33:05Z</time>
      </trkpt>
      <trkpt lat="47.54817" lon="-2.79725">
        <ele>37</ele>
        <time>2021-11-13T12:33:12Z</time>
      </trkpt>
      <trkpt lat="47.54811" lon="-2.79761">
        <ele>37.6</ele>
        <time>2021-11-13T12:33:21Z</time>
      </trkpt>
      <trkpt lat="47.54813" lon="-2.79768">
        <ele>37.6</ele>
        <time>2021-11-13T12:33:24Z</time>
      </trkpt>
      <trkpt lat="47.54814" lon="-2.79771">
        <ele>37.6</ele>
        <time>2021-11-13T12:33:25Z</time>
      </trkpt>
      <trkpt lat="47.54817" lon="-2.79786">
        <ele>37.6</ele>
        <time>2021-11-13T12:33:30Z</time>
      </trkpt>
      <trkpt lat="47.54808" lon="-2.79792">
        <ele>37.4</ele>
        <time>2021-11-13T12:33:35Z</time>
      </trkpt>
      <trkpt lat="47.54797" lon="-2.79812">
        <ele>36.8</ele>
        <time>2021-11-13T12:33:42Z</time>
      </trkpt>
      <trkpt lat="47.54786" lon="-2.79842">
        <ele>36.4</ele>
        <time>2021-11-13T12:33:50Z</time>
      </trkpt>
      <trkpt lat="47.54777" lon="-2.79877">
        <ele>36.6</ele>
        <time>2021-11-13T12:33:59Z</time>
      </trkpt>
      <trkpt lat="47.54776" lon="-2.79907">
        <ele>37</ele>
        <time>2021-11-13T12:34:06Z</time>
      </trkpt>
      <trkpt lat="47.54775" lon="-2.79926">
        <ele>37.4</ele>
        <time>2021-11-13T12:34:12Z</time>
      </trkpt>
      <trkpt lat="47.54774" lon="-2.79944">
        <ele>37.4</ele>
        <time>2021-11-13T12:34:18Z</time>
      </trkpt>
      <trkpt lat="47.54771" lon="-2.79959">
        <ele>37.4</ele>
        <time>2021-11-13T12:34:23Z</time>
      </trkpt>
      <trkpt lat="47.54761" lon="-2.79966">
        <ele>37.6</ele>
        <time>2021-11-13T12:34:28Z</time>
      </trkpt>
      <trkpt lat="47.54739" lon="-2.79966">
        <ele>37.4</ele>
        <time>2021-11-13T12:34:38Z</time>
      </trkpt>
      <trkpt lat="47.54722" lon="-2.79971">
        <ele>37.2</ele>
        <time>2021-11-13T12:34:45Z</time>
      </trkpt>
      <trkpt lat="47.54703" lon="-2.79975">
        <ele>37.2</ele>
        <time>2021-11-13T12:34:53Z</time>
      </trkpt>
      <trkpt lat="47.5469" lon="-2.79971">
        <ele>37.6</ele>
        <time>2021-11-13T12:34:59Z</time>
      </trkpt>
      <trkpt lat="47.54688" lon="-2.79956">
        <ele>37.8</ele>
        <time>2021-11-13T12:35:04Z</time>
      </trkpt>
      <trkpt lat="47.54688" lon="-2.79952">
        <ele>37.8</ele>
        <time>2021-11-13T12:35:06Z</time>
      </trkpt>
      <trkpt lat="47.54686" lon="-2.79949">
        <ele>37.8</ele>
        <time>2021-11-13T12:35:08Z</time>
      </trkpt>
      <trkpt lat="47.5468" lon="-2.79946">
        <ele>38</ele>
        <time>2021-11-13T12:35:12Z</time>
      </trkpt>
      <trkpt lat="47.54676" lon="-2.79942">
        <ele>38</ele>
        <time>2021-11-13T12:35:14Z</time>
      </trkpt>
      <trkpt lat="47.54663" lon="-2.79927">
        <ele>37.8</ele>
        <time>2021-11-13T12:35:20Z</time>
      </trkpt>
      <trkpt lat="47.54648" lon="-2.79911">
        <ele>37.8</ele>
        <time>2021-11-13T12:35:27Z</time>
      </trkpt>
      <trkpt lat="47.5463" lon="-2.79898">
        <ele>38.2</ele>
        <time>2021-11-13T12:35:34Z</time>
      </trkpt>
      <trkpt lat="47.54604" lon="-2.79883">
        <ele>38.4</ele>
        <time>2021-11-13T12:35:44Z</time>
      </trkpt>
      <trkpt lat="47.54579" lon="-2.7987">
        <ele>38.8</ele>
        <time>2021-11-13T12:35:53Z</time>
      </trkpt>
      <trkpt lat="47.54573" lon="-2.79867">
        <ele>39</ele>
        <time>2021-11-13T12:35:55Z</time>
      </trkpt>
      <trkpt lat="47.5456" lon="-2.79861">
        <ele>39</ele>
        <time>2021-11-13T12:36:00Z</time>
      </trkpt>
      <trkpt lat="47.54544" lon="-2.79851">
        <ele>39.4</ele>
        <time>2021-11-13T12:36:07Z</time>
      </trkpt>
      <trkpt lat="47.54523" lon="-2.79846">
        <ele>39.8</ele>
        <time>2021-11-13T12:36:15Z</time>
      </trkpt>
      <trkpt lat="47.54518" lon="-2.79844">
        <ele>40</ele>
        <time>2021-11-13T12:36:17Z</time>
      </trkpt>
      <trkpt lat="47.54516" lon="-2.79843">
        <ele>40</ele>
        <time>2021-11-13T12:36:18Z</time>
      </trkpt>
      <trkpt lat="47.54504" lon="-2.79837">
        <ele>40</ele>
        <time>2021-11-13T12:36:23Z</time>
      </trkpt>
      <trkpt lat="47.54489" lon="-2.79837">
        <ele>40.2</ele>
        <time>2021-11-13T12:36:30Z</time>
      </trkpt>
      <trkpt lat="47.54469" lon="-2.79829">
        <ele>40.8</ele>
        <time>2021-11-13T12:36:38Z</time>
      </trkpt>
      <trkpt lat="47.54453" lon="-2.79815">
        <ele>40.6</ele>
        <time>2021-11-13T12:36:45Z</time>
      </trkpt>
      <trkpt lat="47.54445" lon="-2.79797">
        <ele>40.8</ele>
        <time>2021-11-13T12:36:51Z</time>
      </trkpt>
      <trkpt lat="47.54443" lon="-2.79783">
        <ele>40.8</ele>
        <time>2021-11-13T12:36:56Z</time>
      </trkpt>
      <trkpt lat="47.5443" lon="-2.79769">
        <ele>40.4</ele>
        <time>2021-11-13T12:37:02Z</time>
      </trkpt>
      <trkpt lat="47.54415" lon="-2.79751">
        <ele>40.4</ele>
        <time>2021-11-13T12:37:09Z</time>
      </trkpt>
      <trkpt lat="47.54409" lon="-2.79736">
        <ele>40.4</ele>
        <time>2021-11-13T12:37:14Z</time>
      </trkpt>
      <trkpt lat="47.54395" lon="-2.79716">
        <ele>40.2</ele>
        <time>2021-11-13T12:37:21Z</time>
      </trkpt>
      <trkpt lat="47.54391" lon="-2.79705">
        <ele>40.2</ele>
        <time>2021-11-13T12:37:26Z</time>
      </trkpt>
      <trkpt lat="47.5439" lon="-2.79704">
        <ele>40.2</ele>
        <time>2021-11-13T12:37:32Z</time>
      </trkpt>
      <trkpt lat="47.54388" lon="-2.79701">
        <ele>40</ele>
        <time>2021-11-13T12:37:38Z</time>
      </trkpt>
      <trkpt lat="47.54387" lon="-2.797">
        <ele>39.2</ele>
        <time>2021-11-13T12:37:42Z</time>
      </trkpt>
      <trkpt lat="47.54387" lon="-2.797">
        <ele>38.8</ele>
        <time>2021-11-13T12:37:45Z</time>
      </trkpt>
      <trkpt lat="47.54386" lon="-2.797">
        <ele>38.6</ele>
        <time>2021-11-13T12:37:50Z</time>
      </trkpt>
      <trkpt lat="47.54385" lon="-2.79699">
        <ele>38.2</ele>
        <time>2021-11-13T12:38:01Z</time>
      </trkpt>
      <trkpt lat="47.54384" lon="-2.79698">
        <ele>38.2</ele>
        <time>2021-11-13T12:38:16Z</time>
      </trkpt>
      <trkpt lat="47.54383" lon="-2.79691">
        <ele>38</ele>
        <time>2021-11-13T12:38:19Z</time>
      </trkpt>
      <trkpt lat="47.54379" lon="-2.79674">
        <ele>37.8</ele>
        <time>2021-11-13T12:38:26Z</time>
      </trkpt>
      <trkpt lat="47.54378" lon="-2.79668">
        <ele>37.4</ele>
        <time>2021-11-13T12:38:29Z</time>
      </trkpt>
      <trkpt lat="47.54376" lon="-2.79659">
        <ele>37</ele>
        <time>2021-11-13T12:38:34Z</time>
      </trkpt>
      <trkpt lat="47.54374" lon="-2.79654">
        <ele>36.8</ele>
        <time>2021-11-13T12:38:40Z</time>
      </trkpt>
      <trkpt lat="47.54372" lon="-2.79651">
        <ele>36.4</ele>
        <time>2021-11-13T12:38:45Z</time>
      </trkpt>
      <trkpt lat="47.54372" lon="-2.79649">
        <ele>36.2</ele>
        <time>2021-11-13T12:38:46Z</time>
      </trkpt>
      <trkpt lat="47.5437" lon="-2.79646">
        <ele>36.2</ele>
        <time>2021-11-13T12:38:47Z</time>
      </trkpt>
      <trkpt lat="47.5436" lon="-2.79626">
        <ele>35.2</ele>
        <time>2021-11-13T12:38:54Z</time>
      </trkpt>
      <trkpt lat="47.5435" lon="-2.79605">
        <ele>35.2</ele>
        <time>2021-11-13T12:39:01Z</time>
      </trkpt>
      <trkpt lat="47.54338" lon="-2.79575">
        <ele>35</ele>
        <time>2021-11-13T12:39:10Z</time>
      </trkpt>
      <trkpt lat="47.54328" lon="-2.7954">
        <ele>35.2</ele>
        <time>2021-11-13T12:39:19Z</time>
      </trkpt>
      <trkpt lat="47.54322" lon="-2.79514">
        <ele>35.4</ele>
        <time>2021-11-13T12:39:27Z</time>
      </trkpt>
      <trkpt lat="47.54313" lon="-2.79501">
        <ele>35.4</ele>
        <time>2021-11-13T12:39:33Z</time>
      </trkpt>
      <trkpt lat="47.54307" lon="-2.79494">
        <ele>35.6</ele>
        <time>2021-11-13T12:39:40Z</time>
      </trkpt>
      <trkpt lat="47.54307" lon="-2.79494">
        <ele>35.2</ele>
        <time>2021-11-13T12:39:46Z</time>
      </trkpt>
      <trkpt lat="47.54301" lon="-2.7949">
        <ele>35</ele>
        <time>2021-11-13T12:39:51Z</time>
      </trkpt>
      <trkpt lat="47.54286" lon="-2.79479">
        <ele>34.6</ele>
        <time>2021-11-13T12:39:57Z</time>
      </trkpt>
      <trkpt lat="47.54264" lon="-2.79474">
        <ele>34</ele>
        <time>2021-11-13T12:40:04Z</time>
      </trkpt>
      <trkpt lat="47.54238" lon="-2.79474">
        <ele>33.2</ele>
        <time>2021-11-13T12:40:12Z</time>
      </trkpt>
      <trkpt lat="47.54223" lon="-2.79457">
        <ele>33</ele>
        <time>2021-11-13T12:40:18Z</time>
      </trkpt>
      <trkpt lat="47.54218" lon="-2.79449">
        <ele>33</ele>
        <time>2021-11-13T12:40:20Z</time>
      </trkpt>
      <trkpt lat="47.542" lon="-2.79426">
        <ele>32.8</ele>
        <time>2021-11-13T12:40:27Z</time>
      </trkpt>
      <trkpt lat="47.54183" lon="-2.79416">
        <ele>33.2</ele>
        <time>2021-11-13T12:40:34Z</time>
      </trkpt>
      <trkpt lat="47.54183" lon="-2.79416">
        <ele>33.6</ele>
        <time>2021-11-13T12:40:39Z</time>
      </trkpt>
      <trkpt lat="47.54186" lon="-2.79419">
        <ele>34</ele>
        <time>2021-11-13T12:40:47Z</time>
      </trkpt>
      <trkpt lat="47.54186" lon="-2.79422">
        <ele>34.4</ele>
        <time>2021-11-13T12:40:53Z</time>
      </trkpt>
      <trkpt lat="47.54186" lon="-2.79422">
        <ele>34.2</ele>
        <time>2021-11-13T12:41:01Z</time>
      </trkpt>
      <trkpt lat="47.54187" lon="-2.79425">
        <ele>33.8</ele>
        <time>2021-11-13T12:41:05Z</time>
      </trkpt>
      <trkpt lat="47.54188" lon="-2.79428">
        <ele>33.8</ele>
        <time>2021-11-13T12:41:07Z</time>
      </trkpt>
      <trkpt lat="47.54189" lon="-2.79436">
        <ele>33.6</ele>
        <time>2021-11-13T12:41:10Z</time>
      </trkpt>
      <trkpt lat="47.5419" lon="-2.79439">
        <ele>33.4</ele>
        <time>2021-11-13T12:41:11Z</time>
      </trkpt>
      <trkpt lat="47.54191" lon="-2.7945">
        <ele>33.4</ele>
        <time>2021-11-13T12:41:14Z</time>
      </trkpt>
      <trkpt lat="47.54195" lon="-2.79466">
        <ele>33.2</ele>
        <time>2021-11-13T12:41:19Z</time>
      </trkpt>
      <trkpt lat="47.54195" lon="-2.79468">
        <ele>33</ele>
        <time>2021-11-13T12:41:20Z</time>
      </trkpt>
      <trkpt lat="47.54194" lon="-2.79471">
        <ele>33</ele>
        <time>2021-11-13T12:41:21Z</time>
      </trkpt>
      <trkpt lat="47.54193" lon="-2.79475">
        <ele>33</ele>
        <time>2021-11-13T12:41:22Z</time>
      </trkpt>
      <trkpt lat="47.54193" lon="-2.79478">
        <ele>32.8</ele>
        <time>2021-11-13T12:41:23Z</time>
      </trkpt>
      <trkpt lat="47.54193" lon="-2.79503">
        <ele>32.6</ele>
        <time>2021-11-13T12:41:29Z</time>
      </trkpt>
      <trkpt lat="47.54192" lon="-2.79529">
        <ele>32.4</ele>
        <time>2021-11-13T12:41:34Z</time>
      </trkpt>
      <trkpt lat="47.54194" lon="-2.79552">
        <ele>32.8</ele>
        <time>2021-11-13T12:41:38Z</time>
      </trkpt>
      <trkpt lat="47.54191" lon="-2.79581">
        <ele>33.2</ele>
        <time>2021-11-13T12:41:43Z</time>
      </trkpt>
      <trkpt lat="47.54186" lon="-2.79596">
        <ele>33.6</ele>
        <time>2021-11-13T12:41:47Z</time>
      </trkpt>
      <trkpt lat="47.54184" lon="-2.79602">
        <ele>33.6</ele>
        <time>2021-11-13T12:41:49Z</time>
      </trkpt>
      <trkpt lat="47.54183" lon="-2.79609">
        <ele>33.8</ele>
        <time>2021-11-13T12:41:51Z</time>
      </trkpt>
      <trkpt lat="47.54181" lon="-2.79625">
        <ele>34</ele>
        <time>2021-11-13T12:41:55Z</time>
      </trkpt>
      <trkpt lat="47.54179" lon="-2.7963">
        <ele>34.2</ele>
        <time>2021-11-13T12:41:57Z</time>
      </trkpt>
      <trkpt lat="47.54164" lon="-2.79637">
        <ele>34.4</ele>
        <time>2021-11-13T12:42:03Z</time>
      </trkpt>
      <trkpt lat="47.54157" lon="-2.79639">
        <ele>34.6</ele>
        <time>2021-11-13T12:42:08Z</time>
      </trkpt>
      <trkpt lat="47.54145" lon="-2.79643">
        <ele>34.8</ele>
        <time>2021-11-13T12:42:14Z</time>
      </trkpt>
      <trkpt lat="47.5414" lon="-2.79646">
        <ele>34.8</ele>
        <time>2021-11-13T12:42:17Z</time>
      </trkpt>
      <trkpt lat="47.5414" lon="-2.7965">
        <ele>34.8</ele>
        <time>2021-11-13T12:42:19Z</time>
      </trkpt>
      <trkpt lat="47.54141" lon="-2.79653">
        <ele>34.8</ele>
        <time>2021-11-13T12:42:21Z</time>
      </trkpt>
      <trkpt lat="47.54146" lon="-2.79659">
        <ele>34.8</ele>
        <time>2021-11-13T12:42:24Z</time>
      </trkpt>
      <trkpt lat="47.54152" lon="-2.79673">
        <ele>35</ele>
        <time>2021-11-13T12:42:29Z</time>
      </trkpt>
      <trkpt lat="47.54154" lon="-2.79677">
        <ele>35</ele>
        <time>2021-11-13T12:42:31Z</time>
      </trkpt>
      <trkpt lat="47.54159" lon="-2.79685">
        <ele>34.8</ele>
        <time>2021-11-13T12:42:34Z</time>
      </trkpt>
      <trkpt lat="47.54171" lon="-2.79706">
        <ele>34.6</ele>
        <time>2021-11-13T12:42:42Z</time>
      </trkpt>
      <trkpt lat="47.54185" lon="-2.79731">
        <ele>34.6</ele>
        <time>2021-11-13T12:42:48Z</time>
      </trkpt>
      <trkpt lat="47.54193" lon="-2.79745">
        <ele>34.4</ele>
        <time>2021-11-13T12:42:54Z</time>
      </trkpt>
      <trkpt lat="47.54192" lon="-2.7975">
        <ele>34.4</ele>
        <time>2021-11-13T12:43:00Z</time>
      </trkpt>
      <trkpt lat="47.5419" lon="-2.79753">
        <ele>33.8</ele>
        <time>2021-11-13T12:43:07Z</time>
      </trkpt>
      <trkpt lat="47.54188" lon="-2.79757">
        <ele>33.8</ele>
        <time>2021-11-13T12:43:15Z</time>
      </trkpt>
      <trkpt lat="47.54179" lon="-2.79773">
        <ele>33.6</ele>
        <time>2021-11-13T12:43:21Z</time>
      </trkpt>
      <trkpt lat="47.54164" lon="-2.79789">
        <ele>33.6</ele>
        <time>2021-11-13T12:43:29Z</time>
      </trkpt>
      <trkpt lat="47.54148" lon="-2.79804">
        <ele>33.8</ele>
        <time>2021-11-13T12:43:37Z</time>
      </trkpt>
      <trkpt lat="47.54134" lon="-2.79821">
        <ele>34</ele>
        <time>2021-11-13T12:43:44Z</time>
      </trkpt>
      <trkpt lat="47.54121" lon="-2.7983">
        <ele>34.4</ele>
        <time>2021-11-13T12:43:50Z</time>
      </trkpt>
      <trkpt lat="47.54112" lon="-2.79849">
        <ele>34.6</ele>
        <time>2021-11-13T12:43:56Z</time>
      </trkpt>
      <trkpt lat="47.54103" lon="-2.79867">
        <ele>35</ele>
        <time>2021-11-13T12:44:03Z</time>
      </trkpt>
      <trkpt lat="47.54088" lon="-2.79873">
        <ele>35.2</ele>
        <time>2021-11-13T12:44:09Z</time>
      </trkpt>
      <trkpt lat="47.54083" lon="-2.79873">
        <ele>35.2</ele>
        <time>2021-11-13T12:44:11Z</time>
      </trkpt>
      <trkpt lat="47.54069" lon="-2.79869">
        <ele>35.4</ele>
        <time>2021-11-13T12:44:17Z</time>
      </trkpt>
      <trkpt lat="47.54061" lon="-2.79856">
        <ele>35.6</ele>
        <time>2021-11-13T12:44:22Z</time>
      </trkpt>
      <trkpt lat="47.54049" lon="-2.79837">
        <ele>35.8</ele>
        <time>2021-11-13T12:44:29Z</time>
      </trkpt>
      <trkpt lat="47.5403" lon="-2.79823">
        <ele>36</ele>
        <time>2021-11-13T12:44:38Z</time>
      </trkpt>
      <trkpt lat="47.54009" lon="-2.79822">
        <ele>36.2</ele>
        <time>2021-11-13T12:44:47Z</time>
      </trkpt>
      <trkpt lat="47.53998" lon="-2.79824">
        <ele>36.2</ele>
        <time>2021-11-13T12:44:51Z</time>
      </trkpt>
      <trkpt lat="47.53989" lon="-2.79824">
        <ele>36.6</ele>
        <time>2021-11-13T12:44:55Z</time>
      </trkpt>
      <trkpt lat="47.53966" lon="-2.79823">
        <ele>37.2</ele>
        <time>2021-11-13T12:45:04Z</time>
      </trkpt>
      <trkpt lat="47.53951" lon="-2.79821">
        <ele>37.4</ele>
        <time>2021-11-13T12:45:10Z</time>
      </trkpt>
      <trkpt lat="47.53948" lon="-2.79821">
        <ele>37.4</ele>
        <time>2021-11-13T12:45:11Z</time>
      </trkpt>
      <trkpt lat="47.53946" lon="-2.79821">
        <ele>37.6</ele>
        <time>2021-11-13T12:45:12Z</time>
      </trkpt>
      <trkpt lat="47.53933" lon="-2.79826">
        <ele>37.8</ele>
        <time>2021-11-13T12:45:18Z</time>
      </trkpt>
      <trkpt lat="47.5391" lon="-2.79823">
        <ele>38</ele>
        <time>2021-11-13T12:45:27Z</time>
      </trkpt>
      <trkpt lat="47.53896" lon="-2.79822">
        <ele>38</ele>
        <time>2021-11-13T12:45:33Z</time>
      </trkpt>
      <trkpt lat="47.53878" lon="-2.79817">
        <ele>38.2</ele>
        <time>2021-11-13T12:45:40Z</time>
      </trkpt>
      <trkpt lat="47.53857" lon="-2.79814">
        <ele>38.2</ele>
        <time>2021-11-13T12:45:48Z</time>
      </trkpt>
      <trkpt lat="47.53833" lon="-2.79811">
        <ele>38.4</ele>
        <time>2021-11-13T12:45:58Z</time>
      </trkpt>
      <trkpt lat="47.53814" lon="-2.79814">
        <ele>38.4</ele>
        <time>2021-11-13T12:46:05Z</time>
      </trkpt>
      <trkpt lat="47.53793" lon="-2.79821">
        <ele>38.4</ele>
        <time>2021-11-13T12:46:13Z</time>
      </trkpt>
      <trkpt lat="47.53781" lon="-2.79823">
        <ele>38.8</ele>
        <time>2021-11-13T12:46:18Z</time>
      </trkpt>
      <trkpt lat="47.53778" lon="-2.79824">
        <ele>38.8</ele>
        <time>2021-11-13T12:46:19Z</time>
      </trkpt>
      <trkpt lat="47.53773" lon="-2.79827">
        <ele>38.8</ele>
        <time>2021-11-13T12:46:23Z</time>
      </trkpt>
      <trkpt lat="47.5377" lon="-2.79827">
        <ele>38.8</ele>
        <time>2021-11-13T12:46:25Z</time>
      </trkpt>
      <trkpt lat="47.53767" lon="-2.7983">
        <ele>38.8</ele>
        <time>2021-11-13T12:46:29Z</time>
      </trkpt>
      <trkpt lat="47.53758" lon="-2.79831">
        <ele>38.8</ele>
        <time>2021-11-13T12:46:33Z</time>
      </trkpt>
      <trkpt lat="47.53748" lon="-2.79828">
        <ele>38.6</ele>
        <time>2021-11-13T12:46:38Z</time>
      </trkpt>
      <trkpt lat="47.53734" lon="-2.79826">
        <ele>38.2</ele>
        <time>2021-11-13T12:46:45Z</time>
      </trkpt>
      <trkpt lat="47.53731" lon="-2.79824">
        <ele>37.8</ele>
        <time>2021-11-13T12:46:47Z</time>
      </trkpt>
      <trkpt lat="47.53726" lon="-2.79827">
        <ele>37.6</ele>
        <time>2021-11-13T12:46:50Z</time>
      </trkpt>
      <trkpt lat="47.53722" lon="-2.79829">
        <ele>37.4</ele>
        <time>2021-11-13T12:46:52Z</time>
      </trkpt>
      <trkpt lat="47.53719" lon="-2.79847">
        <ele>36.8</ele>
        <time>2021-11-13T12:46:57Z</time>
      </trkpt>
      <trkpt lat="47.53716" lon="-2.79877">
        <ele>36.2</ele>
        <time>2021-11-13T12:47:03Z</time>
      </trkpt>
      <trkpt lat="47.53709" lon="-2.79923">
        <ele>36</ele>
        <time>2021-11-13T12:47:11Z</time>
      </trkpt>
      <trkpt lat="47.5371" lon="-2.79958">
        <ele>36</ele>
        <time>2021-11-13T12:47:17Z</time>
      </trkpt>
      <trkpt lat="47.53721" lon="-2.79973">
        <ele>36.6</ele>
        <time>2021-11-13T12:47:21Z</time>
      </trkpt>
      <trkpt lat="47.53741" lon="-2.79995">
        <ele>37.6</ele>
        <time>2021-11-13T12:47:29Z</time>
      </trkpt>
      <trkpt lat="47.53749" lon="-2.80012">
        <ele>37.8</ele>
        <time>2021-11-13T12:47:32Z</time>
      </trkpt>
      <trkpt lat="47.53755" lon="-2.80024">
        <ele>38.2</ele>
        <time>2021-11-13T12:47:35Z</time>
      </trkpt>
      <trkpt lat="47.5376" lon="-2.80039">
        <ele>38.6</ele>
        <time>2021-11-13T12:47:38Z</time>
      </trkpt>
      <trkpt lat="47.53765" lon="-2.80054">
        <ele>38.8</ele>
        <time>2021-11-13T12:47:41Z</time>
      </trkpt>
      <trkpt lat="47.53776" lon="-2.80085">
        <ele>38.6</ele>
        <time>2021-11-13T12:47:47Z</time>
      </trkpt>
      <trkpt lat="47.53792" lon="-2.80134">
        <ele>38.2</ele>
        <time>2021-11-13T12:47:56Z</time>
      </trkpt>
      <trkpt lat="47.53806" lon="-2.80174">
        <ele>37.8</ele>
        <time>2021-11-13T12:48:04Z</time>
      </trkpt>
      <trkpt lat="47.53815" lon="-2.80206">
        <ele>37.8</ele>
        <time>2021-11-13T12:48:11Z</time>
      </trkpt>
      <trkpt lat="47.53823" lon="-2.80241">
        <ele>38</ele>
        <time>2021-11-13T12:48:18Z</time>
      </trkpt>
      <trkpt lat="47.53828" lon="-2.80274">
        <ele>38.4</ele>
        <time>2021-11-13T12:48:24Z</time>
      </trkpt>
      <trkpt lat="47.53836" lon="-2.80314">
        <ele>38.6</ele>
        <time>2021-11-13T12:48:30Z</time>
      </trkpt>
      <trkpt lat="47.53838" lon="-2.80322">
        <ele>38.6</ele>
        <time>2021-11-13T12:48:31Z</time>
      </trkpt>
      <trkpt lat="47.53843" lon="-2.80358">
        <ele>38.8</ele>
        <time>2021-11-13T12:48:36Z</time>
      </trkpt>
      <trkpt lat="47.53847" lon="-2.80374">
        <ele>39</ele>
        <time>2021-11-13T12:48:38Z</time>
      </trkpt>
      <trkpt lat="47.53854" lon="-2.80399">
        <ele>39</ele>
        <time>2021-11-13T12:48:41Z</time>
      </trkpt>
      <trkpt lat="47.53861" lon="-2.80416">
        <ele>39</ele>
        <time>2021-11-13T12:48:43Z</time>
      </trkpt>
      <trkpt lat="47.53869" lon="-2.80433">
        <ele>39.2</ele>
        <time>2021-11-13T12:48:45Z</time>
      </trkpt>
      <trkpt lat="47.53874" lon="-2.80441">
        <ele>39.2</ele>
        <time>2021-11-13T12:48:46Z</time>
      </trkpt>
      <trkpt lat="47.53884" lon="-2.80457">
        <ele>39.2</ele>
        <time>2021-11-13T12:48:48Z</time>
      </trkpt>
      <trkpt lat="47.53896" lon="-2.80469">
        <ele>39.2</ele>
        <time>2021-11-13T12:48:50Z</time>
      </trkpt>
      <trkpt lat="47.53932" lon="-2.80497">
        <ele>39.2</ele>
        <time>2021-11-13T12:48:56Z</time>
      </trkpt>
      <trkpt lat="47.53947" lon="-2.80517">
        <ele>39.4</ele>
        <time>2021-11-13T12:48:59Z</time>
      </trkpt>
      <trkpt lat="47.53951" lon="-2.80523">
        <ele>39.4</ele>
        <time>2021-11-13T12:49:00Z</time>
      </trkpt>
      <trkpt lat="47.53973" lon="-2.8056">
        <ele>39.4</ele>
        <time>2021-11-13T12:49:05Z</time>
      </trkpt>
      <trkpt lat="47.53986" lon="-2.80583">
        <ele>39.4</ele>
        <time>2021-11-13T12:49:08Z</time>
      </trkpt>
      <trkpt lat="47.54018" lon="-2.80629">
        <ele>39.4</ele>
        <time>2021-11-13T12:49:15Z</time>
      </trkpt>
      <trkpt lat="47.54046" lon="-2.80671">
        <ele>39.2</ele>
        <time>2021-11-13T12:49:22Z</time>
      </trkpt>
      <trkpt lat="47.54063" lon="-2.80702">
        <ele>39</ele>
        <time>2021-11-13T12:49:27Z</time>
      </trkpt>
      <trkpt lat="47.54065" lon="-2.80707">
        <ele>39</ele>
        <time>2021-11-13T12:49:28Z</time>
      </trkpt>
      <trkpt lat="47.54079" lon="-2.80752">
        <ele>38.8</ele>
        <time>2021-11-13T12:49:35Z</time>
      </trkpt>
      <trkpt lat="47.54081" lon="-2.80758">
        <ele>38.8</ele>
        <time>2021-11-13T12:49:36Z</time>
      </trkpt>
      <trkpt lat="47.54087" lon="-2.8077">
        <ele>38.6</ele>
        <time>2021-11-13T12:49:39Z</time>
      </trkpt>
      <trkpt lat="47.54098" lon="-2.80769">
        <ele>38.4</ele>
        <time>2021-11-13T12:49:42Z</time>
      </trkpt>
      <trkpt lat="47.54108" lon="-2.80762">
        <ele>38</ele>
        <time>2021-11-13T12:49:45Z</time>
      </trkpt>
      <trkpt lat="47.54123" lon="-2.80753">
        <ele>37.6</ele>
        <time>2021-11-13T12:49:50Z</time>
      </trkpt>
      <trkpt lat="47.5413" lon="-2.80763">
        <ele>37.6</ele>
        <time>2021-11-13T12:49:53Z</time>
      </trkpt>
      <trkpt lat="47.54143" lon="-2.80782">
        <ele>38</ele>
        <time>2021-11-13T12:49:58Z</time>
      </trkpt>
      <trkpt lat="47.54166" lon="-2.80803">
        <ele>38.2</ele>
        <time>2021-11-13T12:50:05Z</time>
      </trkpt>
      <trkpt lat="47.5419" lon="-2.80823">
        <ele>39</ele>
        <time>2021-11-13T12:50:12Z</time>
      </trkpt>
      <trkpt lat="47.54213" lon="-2.80845">
        <ele>40.4</ele>
        <time>2021-11-13T12:50:19Z</time>
      </trkpt>
      <trkpt lat="47.54216" lon="-2.80848">
        <ele>40.4</ele>
        <time>2021-11-13T12:50:20Z</time>
      </trkpt>
      <trkpt lat="47.54239" lon="-2.80861">
        <ele>41.4</ele>
        <time>2021-11-13T12:50:27Z</time>
      </trkpt>
      <trkpt lat="47.54242" lon="-2.80862">
        <ele>41.6</ele>
        <time>2021-11-13T12:50:28Z</time>
      </trkpt>
      <trkpt lat="47.54264" lon="-2.80877">
        <ele>42.4</ele>
        <time>2021-11-13T12:50:35Z</time>
      </trkpt>
      <trkpt lat="47.54267" lon="-2.80879">
        <ele>42.4</ele>
        <time>2021-11-13T12:50:36Z</time>
      </trkpt>
      <trkpt lat="47.5428" lon="-2.80889">
        <ele>42.8</ele>
        <time>2021-11-13T12:50:41Z</time>
      </trkpt>
      <trkpt lat="47.54294" lon="-2.80893">
        <ele>42.8</ele>
        <time>2021-11-13T12:50:46Z</time>
      </trkpt>
      <trkpt lat="47.54317" lon="-2.80907">
        <ele>42.8</ele>
        <time>2021-11-13T12:50:54Z</time>
      </trkpt>
      <trkpt lat="47.54333" lon="-2.80926">
        <ele>42.4</ele>
        <time>2021-11-13T12:51:01Z</time>
      </trkpt>
      <trkpt lat="47.54344" lon="-2.80948">
        <ele>41.8</ele>
        <time>2021-11-13T12:51:07Z</time>
      </trkpt>
      <trkpt lat="47.54345" lon="-2.80952">
        <ele>41.8</ele>
        <time>2021-11-13T12:51:08Z</time>
      </trkpt>
      <trkpt lat="47.54347" lon="-2.80963">
        <ele>41.6</ele>
        <time>2021-11-13T12:51:11Z</time>
      </trkpt>
      <trkpt lat="47.54349" lon="-2.80981">
        <ele>41.6</ele>
        <time>2021-11-13T12:51:16Z</time>
      </trkpt>
      <trkpt lat="47.5435" lon="-2.8099">
        <ele>41.4</ele>
        <time>2021-11-13T12:51:18Z</time>
      </trkpt>
      <trkpt lat="47.54351" lon="-2.81007">
        <ele>41.2</ele>
        <time>2021-11-13T12:51:22Z</time>
      </trkpt>
      <trkpt lat="47.54352" lon="-2.81014">
        <ele>41.2</ele>
        <time>2021-11-13T12:51:24Z</time>
      </trkpt>
      <trkpt lat="47.54348" lon="-2.81021">
        <ele>41</ele>
        <time>2021-11-13T12:51:26Z</time>
      </trkpt>
      <trkpt lat="47.54332" lon="-2.81031">
        <ele>40.8</ele>
        <time>2021-11-13T12:51:32Z</time>
      </trkpt>
      <trkpt lat="47.54325" lon="-2.81036">
        <ele>40.6</ele>
        <time>2021-11-13T12:51:35Z</time>
      </trkpt>
      <trkpt lat="47.54318" lon="-2.81038">
        <ele>40.6</ele>
        <time>2021-11-13T12:51:39Z</time>
      </trkpt>
      <trkpt lat="47.5432" lon="-2.81037">
        <ele>40.6</ele>
        <time>2021-11-13T12:51:42Z</time>
      </trkpt>
      <trkpt lat="47.54321" lon="-2.81036">
        <ele>40.6</ele>
        <time>2021-11-13T12:51:43Z</time>
      </trkpt>
      <trkpt lat="47.54333" lon="-2.81031">
        <ele>40.8</ele>
        <time>2021-11-13T12:51:48Z</time>
      </trkpt>
      <trkpt lat="47.54352" lon="-2.81019">
        <ele>40.8</ele>
        <time>2021-11-13T12:51:54Z</time>
      </trkpt>
      <trkpt lat="47.54377" lon="-2.81002">
        <ele>40.6</ele>
        <time>2021-11-13T12:52:00Z</time>
      </trkpt>
      <trkpt lat="47.54399" lon="-2.80988">
        <ele>40.6</ele>
        <time>2021-11-13T12:52:05Z</time>
      </trkpt>
      <trkpt lat="47.54403" lon="-2.80985">
        <ele>40.6</ele>
        <time>2021-11-13T12:52:06Z</time>
      </trkpt>
      <trkpt lat="47.54449" lon="-2.8096">
        <ele>40.6</ele>
        <time>2021-11-13T12:52:15Z</time>
      </trkpt>
      <trkpt lat="47.54488" lon="-2.80953">
        <ele>40.6</ele>
        <time>2021-11-13T12:52:22Z</time>
      </trkpt>
      <trkpt lat="47.54522" lon="-2.80951">
        <ele>40.6</ele>
        <time>2021-11-13T12:52:29Z</time>
      </trkpt>
      <trkpt lat="47.54552" lon="-2.80948">
        <ele>40.6</ele>
        <time>2021-11-13T12:52:36Z</time>
      </trkpt>
      <trkpt lat="47.54567" lon="-2.80949">
        <ele>40.6</ele>
        <time>2021-11-13T12:52:40Z</time>
      </trkpt>
      <trkpt lat="47.54581" lon="-2.80948">
        <ele>40.6</ele>
        <time>2021-11-13T12:52:43Z</time>
      </trkpt>
      <trkpt lat="47.54594" lon="-2.80949">
        <ele>40.6</ele>
        <time>2021-11-13T12:52:46Z</time>
      </trkpt>
      <trkpt lat="47.54607" lon="-2.80948">
        <ele>40.6</ele>
        <time>2021-11-13T12:52:49Z</time>
      </trkpt>
      <trkpt lat="47.5464" lon="-2.80949">
        <ele>40.6</ele>
        <time>2021-11-13T12:52:57Z</time>
      </trkpt>
      <trkpt lat="47.54661" lon="-2.80949">
        <ele>40.6</ele>
        <time>2021-11-13T12:53:02Z</time>
      </trkpt>
      <trkpt lat="47.54674" lon="-2.80949">
        <ele>40.6</ele>
        <time>2021-11-13T12:53:05Z</time>
      </trkpt>
      <trkpt lat="47.54708" lon="-2.80949">
        <ele>40.6</ele>
        <time>2021-11-13T12:53:13Z</time>
      </trkpt>
      <trkpt lat="47.54738" lon="-2.80949">
        <ele>40.8</ele>
        <time>2021-11-13T12:53:21Z</time>
      </trkpt>
      <trkpt lat="47.54771" lon="-2.80948">
        <ele>41.6</ele>
        <time>2021-11-13T12:53:29Z</time>
      </trkpt>
      <trkpt lat="47.54795" lon="-2.80947">
        <ele>42</ele>
        <time>2021-11-13T12:53:35Z</time>
      </trkpt>
      <trkpt lat="47.54807" lon="-2.80947">
        <ele>42.2</ele>
        <time>2021-11-13T12:53:38Z</time>
      </trkpt>
      <trkpt lat="47.54848" lon="-2.80947">
        <ele>42.6</ele>
        <time>2021-11-13T12:53:48Z</time>
      </trkpt>
      <trkpt lat="47.54878" lon="-2.80947">
        <ele>43.2</ele>
        <time>2021-11-13T12:53:55Z</time>
      </trkpt>
      <trkpt lat="47.54887" lon="-2.80947">
        <ele>43.4</ele>
        <time>2021-11-13T12:53:57Z</time>
      </trkpt>
      <trkpt lat="47.54918" lon="-2.80946">
        <ele>44</ele>
        <time>2021-11-13T12:54:04Z</time>
      </trkpt>
      <trkpt lat="47.54953" lon="-2.80945">
        <ele>44.2</ele>
        <time>2021-11-13T12:54:12Z</time>
      </trkpt>
      <trkpt lat="47.54957" lon="-2.80945">
        <ele>44.4</ele>
        <time>2021-11-13T12:54:13Z</time>
      </trkpt>
      <trkpt lat="47.54997" lon="-2.80943">
        <ele>44.4</ele>
        <time>2021-11-13T12:54:22Z</time>
      </trkpt>
      <trkpt lat="47.55021" lon="-2.80942">
        <ele>44.6</ele>
        <time>2021-11-13T12:54:27Z</time>
      </trkpt>
      <trkpt lat="47.55025" lon="-2.80942">
        <ele>44.6</ele>
        <time>2021-11-13T12:54:28Z</time>
      </trkpt>
      <trkpt lat="47.55066" lon="-2.80937">
        <ele>45</ele>
        <time>2021-11-13T12:54:37Z</time>
      </trkpt>
      <trkpt lat="47.55085" lon="-2.80934">
        <ele>45</ele>
        <time>2021-11-13T12:54:42Z</time>
      </trkpt>
      <trkpt lat="47.55095" lon="-2.80928">
        <ele>45</ele>
        <time>2021-11-13T12:54:46Z</time>
      </trkpt>
      <trkpt lat="47.55096" lon="-2.80904">
        <ele>44.8</ele>
        <time>2021-11-13T12:54:51Z</time>
      </trkpt>
      <trkpt lat="47.55095" lon="-2.80875">
        <ele>44.6</ele>
        <time>2021-11-13T12:54:56Z</time>
      </trkpt>
      <trkpt lat="47.55095" lon="-2.80839">
        <ele>44.2</ele>
        <time>2021-11-13T12:55:02Z</time>
      </trkpt>
      <trkpt lat="47.55097" lon="-2.80824">
        <ele>44</ele>
        <time>2021-11-13T12:55:05Z</time>
      </trkpt>
      <trkpt lat="47.55096" lon="-2.80817">
        <ele>43.8</ele>
        <time>2021-11-13T12:55:06Z</time>
      </trkpt>
      <trkpt lat="47.55097" lon="-2.80788">
        <ele>43.6</ele>
        <time>2021-11-13T12:55:11Z</time>
      </trkpt>
      <trkpt lat="47.55098" lon="-2.80773">
        <ele>43.6</ele>
        <time>2021-11-13T12:55:13Z</time>
      </trkpt>
      <trkpt lat="47.55098" lon="-2.80758">
        <ele>43.6</ele>
        <time>2021-11-13T12:55:15Z</time>
      </trkpt>
      <trkpt lat="47.55097" lon="-2.80738">
        <ele>43.2</ele>
        <time>2021-11-13T12:55:19Z</time>
      </trkpt>
      <trkpt lat="47.55099" lon="-2.80711">
        <ele>42.8</ele>
        <time>2021-11-13T12:55:24Z</time>
      </trkpt>
      <trkpt lat="47.55099" lon="-2.80698">
        <ele>42.2</ele>
        <time>2021-11-13T12:55:29Z</time>
      </trkpt>
      <trkpt lat="47.55099" lon="-2.80698">
        <ele>42.2</ele>
        <time>2021-11-13T12:55:30Z</time>
      </trkpt>
      <trkpt lat="47.55099" lon="-2.80695">
        <ele>41.8</ele>
        <time>2021-11-13T12:55:34Z</time>
      </trkpt>
      <trkpt lat="47.55099" lon="-2.80688">
        <ele>41</ele>
        <time>2021-11-13T12:55:39Z</time>
      </trkpt>
      <trkpt lat="47.55099" lon="-2.80688">
        <ele>40.8</ele>
        <time>2021-11-13T12:55:42Z</time>
      </trkpt>
      <trkpt lat="47.55102" lon="-2.80687">
        <ele>40.2</ele>
        <time>2021-11-13T12:55:46Z</time>
      </trkpt>
      <trkpt lat="47.55103" lon="-2.80687">
        <ele>39.6</ele>
        <time>2021-11-13T12:55:49Z</time>
      </trkpt>
      <trkpt lat="47.55103" lon="-2.80687">
        <ele>39</ele>
        <time>2021-11-13T12:55:53Z</time>
      </trkpt>
      <trkpt lat="47.55103" lon="-2.80687">
        <ele>38</ele>
        <time>2021-11-13T12:56:01Z</time>
      </trkpt>
      <trkpt lat="47.55103" lon="-2.80687">
        <ele>37</ele>
        <time>2021-11-13T12:56:10Z</time>
      </trkpt>
      <trkpt lat="47.55103" lon="-2.80687">
        <ele>36</ele>
        <time>2021-11-13T12:56:19Z</time>
      </trkpt>
      <trkpt lat="47.55103" lon="-2.80687">
        <ele>34.8</ele>
        <time>2021-11-13T12:56:27Z</time>
      </trkpt>
      <trkpt lat="47.55103" lon="-2.80687">
        <ele>33.8</ele>
        <time>2021-11-13T12:56:34Z</time>
      </trkpt>
      <trkpt lat="47.55103" lon="-2.80687">
        <ele>32.6</ele>
        <time>2021-11-13T12:56:44Z</time>
      </trkpt>
      <trkpt lat="47.55103" lon="-2.80687">
        <ele>31.6</ele>
        <time>2021-11-13T12:56:49Z</time>
      </trkpt>
      <trkpt lat="47.55103" lon="-2.80687">
        <ele>30.4</ele>
        <time>2021-11-13T12:56:57Z</time>
      </trkpt>
      <trkpt lat="47.55102" lon="-2.80686">
        <ele>29.2</ele>
        <time>2021-11-13T12:57:21Z</time>
      </trkpt>
      <trkpt lat="47.55102" lon="-2.80686">
        <ele>28.2</ele>
        <time>2021-11-13T12:57:46Z</time>
      </trkpt>
      <trkpt lat="47.55102" lon="-2.80686">
        <ele>27.4</ele>
        <time>2021-11-13T12:58:00Z</time>
      </trkpt>
      <trkpt lat="47.55102" lon="-2.80686">
        <ele>27.2</ele>
        <time>2021-11-13T12:58:08Z</time>
      </trkpt>
      <trkpt lat="47.55102" lon="-2.80686">
        <ele>25.8</ele>
        <time>2021-11-13T12:58:39Z</time>
      </trkpt>
      <trkpt lat="47.55102" lon="-2.80686">
        <ele>25.4</ele>
        <time>2021-11-13T12:59:00Z</time>
      </trkpt>
      <trkpt lat="47.55102" lon="-2.80687">
        <ele>24.8</ele>
        <time>2021-11-13T12:59:29Z</time>
      </trkpt>
      <trkpt lat="47.55101" lon="-2.8069">
        <ele>24.6</ele>
        <time>2021-11-13T12:59:31Z</time>
      </trkpt>
      <trkpt lat="47.55101" lon="-2.80691">
        <ele>24.6</ele>
        <time>2021-11-13T12:59:32Z</time>
      </trkpt>
      <trkpt lat="47.55099" lon="-2.80698">
        <ele>24.4</ele>
        <time>2021-11-13T12:59:40Z</time>
      </trkpt>
      <trkpt lat="47.55099" lon="-2.80702">
        <ele>24.4</ele>
        <time>2021-11-13T12:59:42Z</time>
      </trkpt>
      <trkpt lat="47.55098" lon="-2.80708">
        <ele>24.4</ele>
        <time>2021-11-13T12:59:44Z</time>
      </trkpt>
      <trkpt lat="47.55097" lon="-2.80717">
        <ele>24.4</ele>
        <time>2021-11-13T12:59:47Z</time>
      </trkpt>
      <trkpt lat="47.55097" lon="-2.80727">
        <ele>24</ele>
        <time>2021-11-13T12:59:50Z</time>
      </trkpt>
      <trkpt lat="47.55099" lon="-2.8075">
        <ele>24</ele>
        <time>2021-11-13T12:59:55Z</time>
      </trkpt>
      <trkpt lat="47.55097" lon="-2.80778">
        <ele>24.4</ele>
        <time>2021-11-13T13:00:01Z</time>
      </trkpt>
      <trkpt lat="47.55095" lon="-2.80802">
        <ele>25</ele>
        <time>2021-11-13T13:00:07Z</time>
      </trkpt>
      <trkpt lat="47.55096" lon="-2.80811">
        <ele>25.4</ele>
        <time>2021-11-13T13:00:09Z</time>
      </trkpt>
      <trkpt lat="47.55095" lon="-2.80828">
        <ele>26</ele>
        <time>2021-11-13T13:00:13Z</time>
      </trkpt>
      <trkpt lat="47.55096" lon="-2.80841">
        <ele>26.6</ele>
        <time>2021-11-13T13:00:16Z</time>
      </trkpt>
      <trkpt lat="47.55097" lon="-2.80861">
        <ele>27.4</ele>
        <time>2021-11-13T13:00:21Z</time>
      </trkpt>
      <trkpt lat="47.55097" lon="-2.80866">
        <ele>27.6</ele>
        <time>2021-11-13T13:00:22Z</time>
      </trkpt>
      <trkpt lat="47.55097" lon="-2.80892">
        <ele>28.4</ele>
        <time>2021-11-13T13:00:27Z</time>
      </trkpt>
      <trkpt lat="47.55097" lon="-2.80903">
        <ele>28.6</ele>
        <time>2021-11-13T13:00:29Z</time>
      </trkpt>
      <trkpt lat="47.55095" lon="-2.80918">
        <ele>29.4</ele>
        <time>2021-11-13T13:00:33Z</time>
      </trkpt>
      <trkpt lat="47.55095" lon="-2.80922">
        <ele>29.8</ele>
        <time>2021-11-13T13:00:34Z</time>
      </trkpt>
      <trkpt lat="47.55097" lon="-2.80925">
        <ele>30</ele>
        <time>2021-11-13T13:00:35Z</time>
      </trkpt>
      <trkpt lat="47.55102" lon="-2.80928">
        <ele>30.4</ele>
        <time>2021-11-13T13:00:37Z</time>
      </trkpt>
      <trkpt lat="47.55112" lon="-2.80928">
        <ele>30.8</ele>
        <time>2021-11-13T13:00:40Z</time>
      </trkpt>
      <trkpt lat="47.5512" lon="-2.80926">
        <ele>31.2</ele>
        <time>2021-11-13T13:00:42Z</time>
      </trkpt>
      <trkpt lat="47.55136" lon="-2.80926">
        <ele>31.8</ele>
        <time>2021-11-13T13:00:46Z</time>
      </trkpt>
      <trkpt lat="47.55151" lon="-2.80927">
        <ele>32</ele>
        <time>2021-11-13T13:00:50Z</time>
      </trkpt>
      <trkpt lat="47.55171" lon="-2.80927">
        <ele>32.8</ele>
        <time>2021-11-13T13:00:55Z</time>
      </trkpt>
      <trkpt lat="47.55175" lon="-2.80928">
        <ele>33.2</ele>
        <time>2021-11-13T13:00:56Z</time>
      </trkpt>
      <trkpt lat="47.55189" lon="-2.80929">
        <ele>33.8</ele>
        <time>2021-11-13T13:01:00Z</time>
      </trkpt>
      <trkpt lat="47.55198" lon="-2.80929">
        <ele>34.2</ele>
        <time>2021-11-13T13:01:02Z</time>
      </trkpt>
      <trkpt lat="47.55219" lon="-2.80927">
        <ele>35</ele>
        <time>2021-11-13T13:01:07Z</time>
      </trkpt>
      <trkpt lat="47.55229" lon="-2.80925">
        <ele>35.2</ele>
        <time>2021-11-13T13:01:09Z</time>
      </trkpt>
      <trkpt lat="47.5525" lon="-2.80921">
        <ele>36</ele>
        <time>2021-11-13T13:01:14Z</time>
      </trkpt>
      <trkpt lat="47.55253" lon="-2.80922">
        <ele>36.2</ele>
        <time>2021-11-13T13:01:15Z</time>
      </trkpt>
      <trkpt lat="47.55266" lon="-2.80931">
        <ele>37</ele>
        <time>2021-11-13T13:01:19Z</time>
      </trkpt>
      <trkpt lat="47.55268" lon="-2.80937">
        <ele>37.2</ele>
        <time>2021-11-13T13:01:20Z</time>
      </trkpt>
      <trkpt lat="47.55274" lon="-2.80953">
        <ele>37.4</ele>
        <time>2021-11-13T13:01:22Z</time>
      </trkpt>
      <trkpt lat="47.55277" lon="-2.80961">
        <ele>37.4</ele>
        <time>2021-11-13T13:01:23Z</time>
      </trkpt>
      <trkpt lat="47.55296" lon="-2.81009">
        <ele>37.8</ele>
        <time>2021-11-13T13:01:28Z</time>
      </trkpt>
      <trkpt lat="47.55305" lon="-2.81038">
        <ele>38</ele>
        <time>2021-11-13T13:01:31Z</time>
      </trkpt>
      <trkpt lat="47.5531" lon="-2.81058">
        <ele>38</ele>
        <time>2021-11-13T13:01:33Z</time>
      </trkpt>
      <trkpt lat="47.55315" lon="-2.81097">
        <ele>38.2</ele>
        <time>2021-11-13T13:01:37Z</time>
      </trkpt>
      <trkpt lat="47.55316" lon="-2.81106">
        <ele>38.2</ele>
        <time>2021-11-13T13:01:38Z</time>
      </trkpt>
      <trkpt lat="47.55316" lon="-2.81115">
        <ele>38.2</ele>
        <time>2021-11-13T13:01:39Z</time>
      </trkpt>
      <trkpt lat="47.55317" lon="-2.81132">
        <ele>38.4</ele>
        <time>2021-11-13T13:01:41Z</time>
      </trkpt>
      <trkpt lat="47.55319" lon="-2.81147">
        <ele>38.4</ele>
        <time>2021-11-13T13:01:43Z</time>
      </trkpt>
      <trkpt lat="47.55324" lon="-2.81198">
        <ele>38.6</ele>
        <time>2021-11-13T13:01:50Z</time>
      </trkpt>
      <trkpt lat="47.55327" lon="-2.81218">
        <ele>38.6</ele>
        <time>2021-11-13T13:01:53Z</time>
      </trkpt>
      <trkpt lat="47.55328" lon="-2.81246">
        <ele>38.8</ele>
        <time>2021-11-13T13:01:57Z</time>
      </trkpt>
      <trkpt lat="47.55328" lon="-2.81253">
        <ele>38.8</ele>
        <time>2021-11-13T13:01:58Z</time>
      </trkpt>
      <trkpt lat="47.55323" lon="-2.81289">
        <ele>39.2</ele>
        <time>2021-11-13T13:02:03Z</time>
      </trkpt>
      <trkpt lat="47.55321" lon="-2.81304">
        <ele>39.2</ele>
        <time>2021-11-13T13:02:05Z</time>
      </trkpt>
      <trkpt lat="47.55317" lon="-2.81338">
        <ele>39.4</ele>
        <time>2021-11-13T13:02:10Z</time>
      </trkpt>
      <trkpt lat="47.55316" lon="-2.81352">
        <ele>39.6</ele>
        <time>2021-11-13T13:02:12Z</time>
      </trkpt>
      <trkpt lat="47.5532" lon="-2.81371">
        <ele>40</ele>
        <time>2021-11-13T13:02:15Z</time>
      </trkpt>
      <trkpt lat="47.55325" lon="-2.8139">
        <ele>40.4</ele>
        <time>2021-11-13T13:02:18Z</time>
      </trkpt>
      <trkpt lat="47.55331" lon="-2.81401">
        <ele>40.6</ele>
        <time>2021-11-13T13:02:20Z</time>
      </trkpt>
      <trkpt lat="47.55334" lon="-2.81406">
        <ele>40.8</ele>
        <time>2021-11-13T13:02:21Z</time>
      </trkpt>
      <trkpt lat="47.55345" lon="-2.81417">
        <ele>41</ele>
        <time>2021-11-13T13:02:24Z</time>
      </trkpt>
      <trkpt lat="47.5535" lon="-2.81427">
        <ele>41</ele>
        <time>2021-11-13T13:02:26Z</time>
      </trkpt>
      <trkpt lat="47.55359" lon="-2.81462">
        <ele>41.2</ele>
        <time>2021-11-13T13:02:32Z</time>
      </trkpt>
      <trkpt lat="47.55364" lon="-2.8149">
        <ele>41.4</ele>
        <time>2021-11-13T13:02:37Z</time>
      </trkpt>
      <trkpt lat="47.55367" lon="-2.81501">
        <ele>41.6</ele>
        <time>2021-11-13T13:02:39Z</time>
      </trkpt>
      <trkpt lat="47.55375" lon="-2.81536">
        <ele>42.2</ele>
        <time>2021-11-13T13:02:45Z</time>
      </trkpt>
      <trkpt lat="47.55377" lon="-2.81541">
        <ele>42.2</ele>
        <time>2021-11-13T13:02:46Z</time>
      </trkpt>
      <trkpt lat="47.55379" lon="-2.81546">
        <ele>42.4</ele>
        <time>2021-11-13T13:02:47Z</time>
      </trkpt>
      <trkpt lat="47.55384" lon="-2.81556">
        <ele>42.8</ele>
        <time>2021-11-13T13:02:49Z</time>
      </trkpt>
      <trkpt lat="47.55387" lon="-2.81561">
        <ele>42.8</ele>
        <time>2021-11-13T13:02:50Z</time>
      </trkpt>
      <trkpt lat="47.5539" lon="-2.81571">
        <ele>43.2</ele>
        <time>2021-11-13T13:02:52Z</time>
      </trkpt>
      <trkpt lat="47.55404" lon="-2.81595">
        <ele>43.8</ele>
        <time>2021-11-13T13:02:58Z</time>
      </trkpt>
      <trkpt lat="47.55421" lon="-2.81603">
        <ele>44.4</ele>
        <time>2021-11-13T13:03:03Z</time>
      </trkpt>
      <trkpt lat="47.55449" lon="-2.81612">
        <ele>44.8</ele>
        <time>2021-11-13T13:03:10Z</time>
      </trkpt>
      <trkpt lat="47.55457" lon="-2.81615">
        <ele>44.8</ele>
        <time>2021-11-13T13:03:12Z</time>
      </trkpt>
      <trkpt lat="47.55466" lon="-2.81619">
        <ele>45</ele>
        <time>2021-11-13T13:03:15Z</time>
      </trkpt>
      <trkpt lat="47.55479" lon="-2.81625">
        <ele>45.6</ele>
        <time>2021-11-13T13:03:21Z</time>
      </trkpt>
      <trkpt lat="47.55481" lon="-2.81624">
        <ele>45.6</ele>
        <time>2021-11-13T13:03:22Z</time>
      </trkpt>
      <trkpt lat="47.55489" lon="-2.81618">
        <ele>45.6</ele>
        <time>2021-11-13T13:03:26Z</time>
      </trkpt>
      <trkpt lat="47.55507" lon="-2.81621">
        <ele>45.6</ele>
        <time>2021-11-13T13:03:32Z</time>
      </trkpt>
      <trkpt lat="47.55507" lon="-2.81623">
        <ele>45.6</ele>
        <time>2021-11-13T13:03:33Z</time>
      </trkpt>
      <trkpt lat="47.55506" lon="-2.81638">
        <ele>45.6</ele>
        <time>2021-11-13T13:03:38Z</time>
      </trkpt>
      <trkpt lat="47.55503" lon="-2.81655">
        <ele>45.4</ele>
        <time>2021-11-13T13:03:43Z</time>
      </trkpt>
      <trkpt lat="47.55499" lon="-2.81674">
        <ele>45</ele>
        <time>2021-11-13T13:03:49Z</time>
      </trkpt>
      <trkpt lat="47.55499" lon="-2.81683">
        <ele>44.8</ele>
        <time>2021-11-13T13:03:53Z</time>
      </trkpt>
      <trkpt lat="47.55499" lon="-2.81684">
        <ele>44.6</ele>
        <time>2021-11-13T13:03:54Z</time>
      </trkpt>
      <trkpt lat="47.55502" lon="-2.81684">
        <ele>44.6</ele>
        <time>2021-11-13T13:03:59Z</time>
      </trkpt>
      <trkpt lat="47.55503" lon="-2.81684">
        <ele>44.8</ele>
        <time>2021-11-13T13:04:00Z</time>
      </trkpt>
      <trkpt lat="47.55507" lon="-2.81685">
        <ele>44.4</ele>
        <time>2021-11-13T13:04:05Z</time>
      </trkpt>
      <trkpt lat="47.55508" lon="-2.81685">
        <ele>44.4</ele>
        <time>2021-11-13T13:04:06Z</time>
      </trkpt>
      <trkpt lat="47.5551" lon="-2.81685">
        <ele>44.2</ele>
        <time>2021-11-13T13:04:07Z</time>
      </trkpt>
      <trkpt lat="47.55511" lon="-2.81685">
        <ele>44.2</ele>
        <time>2021-11-13T13:04:08Z</time>
      </trkpt>
      <trkpt lat="47.55525" lon="-2.81688">
        <ele>43.8</ele>
        <time>2021-11-13T13:04:13Z</time>
      </trkpt>
      <trkpt lat="47.55526" lon="-2.81689">
        <ele>43.8</ele>
        <time>2021-11-13T13:04:14Z</time>
      </trkpt>
      <trkpt lat="47.55542" lon="-2.81696">
        <ele>43.8</ele>
        <time>2021-11-13T13:04:20Z</time>
      </trkpt>
      <trkpt lat="47.55549" lon="-2.81698">
        <ele>43.8</ele>
        <time>2021-11-13T13:04:22Z</time>
      </trkpt>
      <trkpt lat="47.55555" lon="-2.81703">
        <ele>43.8</ele>
        <time>2021-11-13T13:04:24Z</time>
      </trkpt>
      <trkpt lat="47.55554" lon="-2.81725">
        <ele>43.8</ele>
        <time>2021-11-13T13:04:30Z</time>
      </trkpt>
      <trkpt lat="47.55552" lon="-2.8175">
        <ele>44</ele>
        <time>2021-11-13T13:04:37Z</time>
      </trkpt>
      <trkpt lat="47.5555" lon="-2.81776">
        <ele>44.2</ele>
        <time>2021-11-13T13:04:42Z</time>
      </trkpt>
      <trkpt lat="47.55549" lon="-2.81783">
        <ele>44.2</ele>
        <time>2021-11-13T13:04:43Z</time>
      </trkpt>
      <trkpt lat="47.55546" lon="-2.8181">
        <ele>44</ele>
        <time>2021-11-13T13:04:47Z</time>
      </trkpt>
      <trkpt lat="47.55546" lon="-2.81817">
        <ele>44</ele>
        <time>2021-11-13T13:04:48Z</time>
      </trkpt>
      <trkpt lat="47.5554" lon="-2.81853">
        <ele>43.6</ele>
        <time>2021-11-13T13:04:53Z</time>
      </trkpt>
      <trkpt lat="47.55539" lon="-2.81874">
        <ele>43.8</ele>
        <time>2021-11-13T13:04:56Z</time>
      </trkpt>
      <trkpt lat="47.5554" lon="-2.81886">
        <ele>43.8</ele>
        <time>2021-11-13T13:04:58Z</time>
      </trkpt>
      <trkpt lat="47.55542" lon="-2.81891">
        <ele>44</ele>
        <time>2021-11-13T13:04:59Z</time>
      </trkpt>
      <trkpt lat="47.55544" lon="-2.81894">
        <ele>44.2</ele>
        <time>2021-11-13T13:05:00Z</time>
      </trkpt>
      <trkpt lat="47.5555" lon="-2.81898">
        <ele>44.2</ele>
        <time>2021-11-13T13:05:02Z</time>
      </trkpt>
      <trkpt lat="47.55566" lon="-2.81899">
        <ele>44</ele>
        <time>2021-11-13T13:05:07Z</time>
      </trkpt>
      <trkpt lat="47.55568" lon="-2.81902">
        <ele>44</ele>
        <time>2021-11-13T13:05:08Z</time>
      </trkpt>
      <trkpt lat="47.55571" lon="-2.8191">
        <ele>43.8</ele>
        <time>2021-11-13T13:05:10Z</time>
      </trkpt>
      <trkpt lat="47.5557" lon="-2.81929">
        <ele>43.6</ele>
        <time>2021-11-13T13:05:13Z</time>
      </trkpt>
      <trkpt lat="47.5557" lon="-2.81936">
        <ele>43.6</ele>
        <time>2021-11-13T13:05:14Z</time>
      </trkpt>
      <trkpt lat="47.5557" lon="-2.81956">
        <ele>43.4</ele>
        <time>2021-11-13T13:05:17Z</time>
      </trkpt>
      <trkpt lat="47.5557" lon="-2.81963">
        <ele>43.4</ele>
        <time>2021-11-13T13:05:18Z</time>
      </trkpt>
      <trkpt lat="47.55571" lon="-2.81977">
        <ele>43.2</ele>
        <time>2021-11-13T13:05:20Z</time>
      </trkpt>
      <trkpt lat="47.55572" lon="-2.81984">
        <ele>43.2</ele>
        <time>2021-11-13T13:05:21Z</time>
      </trkpt>
      <trkpt lat="47.55572" lon="-2.82004">
        <ele>43.4</ele>
        <time>2021-11-13T13:05:24Z</time>
      </trkpt>
      <trkpt lat="47.55571" lon="-2.82016">
        <ele>43.4</ele>
        <time>2021-11-13T13:05:26Z</time>
      </trkpt>
      <trkpt lat="47.5557" lon="-2.82028">
        <ele>44</ele>
        <time>2021-11-13T13:05:28Z</time>
      </trkpt>
      <trkpt lat="47.55572" lon="-2.82039">
        <ele>44</ele>
        <time>2021-11-13T13:05:30Z</time>
      </trkpt>
      <trkpt lat="47.55584" lon="-2.82065">
        <ele>44.4</ele>
        <time>2021-11-13T13:05:35Z</time>
      </trkpt>
      <trkpt lat="47.55587" lon="-2.8207">
        <ele>44.4</ele>
        <time>2021-11-13T13:05:36Z</time>
      </trkpt>
      <trkpt lat="47.55596" lon="-2.8209">
        <ele>44.6</ele>
        <time>2021-11-13T13:05:40Z</time>
      </trkpt>
      <trkpt lat="47.55599" lon="-2.82094">
        <ele>44.6</ele>
        <time>2021-11-13T13:05:41Z</time>
      </trkpt>
      <trkpt lat="47.55601" lon="-2.82099">
        <ele>44.6</ele>
        <time>2021-11-13T13:05:42Z</time>
      </trkpt>
      <trkpt lat="47.5561" lon="-2.82123">
        <ele>44.8</ele>
        <time>2021-11-13T13:05:47Z</time>
      </trkpt>
      <trkpt lat="47.55622" lon="-2.82145">
        <ele>45</ele>
        <time>2021-11-13T13:05:53Z</time>
      </trkpt>
      <trkpt lat="47.55634" lon="-2.82161">
        <ele>45</ele>
        <time>2021-11-13T13:05:59Z</time>
      </trkpt>
      <trkpt lat="47.55636" lon="-2.82172">
        <ele>45</ele>
        <time>2021-11-13T13:06:02Z</time>
      </trkpt>
      <trkpt lat="47.55635" lon="-2.8218">
        <ele>45</ele>
        <time>2021-11-13T13:06:04Z</time>
      </trkpt>
      <trkpt lat="47.55635" lon="-2.822">
        <ele>44.6</ele>
        <time>2021-11-13T13:06:09Z</time>
      </trkpt>
      <trkpt lat="47.55633" lon="-2.82231">
        <ele>44.2</ele>
        <time>2021-11-13T13:06:15Z</time>
      </trkpt>
      <trkpt lat="47.5563" lon="-2.82261">
        <ele>44</ele>
        <time>2021-11-13T13:06:20Z</time>
      </trkpt>
      <trkpt lat="47.55629" lon="-2.82266">
        <ele>44</ele>
        <time>2021-11-13T13:06:21Z</time>
      </trkpt>
      <trkpt lat="47.55625" lon="-2.8227">
        <ele>44</ele>
        <time>2021-11-13T13:06:23Z</time>
      </trkpt>
      <trkpt lat="47.55614" lon="-2.82272">
        <ele>44</ele>
        <time>2021-11-13T13:06:27Z</time>
      </trkpt>
      <trkpt lat="47.55611" lon="-2.82274">
        <ele>44</ele>
        <time>2021-11-13T13:06:28Z</time>
      </trkpt>
      <trkpt lat="47.55603" lon="-2.82289">
        <ele>44.2</ele>
        <time>2021-11-13T13:06:31Z</time>
      </trkpt>
      <trkpt lat="47.55599" lon="-2.82321">
        <ele>44.2</ele>
        <time>2021-11-13T13:06:36Z</time>
      </trkpt>
      <trkpt lat="47.55589" lon="-2.82366">
        <ele>44</ele>
        <time>2021-11-13T13:06:44Z</time>
      </trkpt>
      <trkpt lat="47.55579" lon="-2.82387">
        <ele>44</ele>
        <time>2021-11-13T13:06:49Z</time>
      </trkpt>
      <trkpt lat="47.55562" lon="-2.82419">
        <ele>44.2</ele>
        <time>2021-11-13T13:06:56Z</time>
      </trkpt>
      <trkpt lat="47.55557" lon="-2.82436">
        <ele>44.2</ele>
        <time>2021-11-13T13:06:59Z</time>
      </trkpt>
      <trkpt lat="47.55557" lon="-2.82443">
        <ele>44.2</ele>
        <time>2021-11-13T13:07:00Z</time>
      </trkpt>
      <trkpt lat="47.55557" lon="-2.82478">
        <ele>44.2</ele>
        <time>2021-11-13T13:07:05Z</time>
      </trkpt>
      <trkpt lat="47.55553" lon="-2.82492">
        <ele>44</ele>
        <time>2021-11-13T13:07:08Z</time>
      </trkpt>
      <trkpt lat="47.5555" lon="-2.82495">
        <ele>44</ele>
        <time>2021-11-13T13:07:09Z</time>
      </trkpt>
      <trkpt lat="47.55541" lon="-2.82506">
        <ele>43.6</ele>
        <time>2021-11-13T13:07:13Z</time>
      </trkpt>
      <trkpt lat="47.55532" lon="-2.82517">
        <ele>43.4</ele>
        <time>2021-11-13T13:07:19Z</time>
      </trkpt>
      <trkpt lat="47.55531" lon="-2.82518">
        <ele>43.4</ele>
        <time>2021-11-13T13:07:20Z</time>
      </trkpt>
      <trkpt lat="47.55526" lon="-2.82516">
        <ele>43</ele>
        <time>2021-11-13T13:07:24Z</time>
      </trkpt>
      <trkpt lat="47.55526" lon="-2.82516">
        <ele>42.8</ele>
        <time>2021-11-13T13:07:25Z</time>
      </trkpt>
      <trkpt lat="47.55526" lon="-2.82516">
        <ele>42.6</ele>
        <time>2021-11-13T13:07:28Z</time>
      </trkpt>
      <trkpt lat="47.55523" lon="-2.82517">
        <ele>42</ele>
        <time>2021-11-13T13:07:34Z</time>
      </trkpt>
      <trkpt lat="47.55522" lon="-2.82515">
        <ele>41.8</ele>
        <time>2021-11-13T13:07:36Z</time>
      </trkpt>
      <trkpt lat="47.55521" lon="-2.82514">
        <ele>41.6</ele>
        <time>2021-11-13T13:07:43Z</time>
      </trkpt>
      <trkpt lat="47.5551" lon="-2.82504">
        <ele>41.6</ele>
        <time>2021-11-13T13:07:48Z</time>
      </trkpt>
      <trkpt lat="47.55498" lon="-2.82483">
        <ele>41.4</ele>
        <time>2021-11-13T13:07:54Z</time>
      </trkpt>
      <trkpt lat="47.55488" lon="-2.82467">
        <ele>41.2</ele>
        <time>2021-11-13T13:08:00Z</time>
      </trkpt>
      <trkpt lat="47.55481" lon="-2.82458">
        <ele>41</ele>
        <time>2021-11-13T13:08:04Z</time>
      </trkpt>
      <trkpt lat="47.55475" lon="-2.82452">
        <ele>40.8</ele>
        <time>2021-11-13T13:08:07Z</time>
      </trkpt>
      <trkpt lat="47.55462" lon="-2.82444">
        <ele>40.2</ele>
        <time>2021-11-13T13:08:12Z</time>
      </trkpt>
      <trkpt lat="47.55453" lon="-2.8244">
        <ele>39.8</ele>
        <time>2021-11-13T13:08:15Z</time>
      </trkpt>
      <trkpt lat="47.55446" lon="-2.82434">
        <ele>39.4</ele>
        <time>2021-11-13T13:08:18Z</time>
      </trkpt>
      <trkpt lat="47.55436" lon="-2.82432">
        <ele>39.2</ele>
        <time>2021-11-13T13:08:23Z</time>
      </trkpt>
      <trkpt lat="47.55425" lon="-2.82429">
        <ele>38.8</ele>
        <time>2021-11-13T13:08:27Z</time>
      </trkpt>
      <trkpt lat="47.5542" lon="-2.82427">
        <ele>38.6</ele>
        <time>2021-11-13T13:08:29Z</time>
      </trkpt>
      <trkpt lat="47.55403" lon="-2.82421">
        <ele>38.6</ele>
        <time>2021-11-13T13:08:36Z</time>
      </trkpt>
      <trkpt lat="47.55384" lon="-2.82415">
        <ele>38.8</ele>
        <time>2021-11-13T13:08:43Z</time>
      </trkpt>
      <trkpt lat="47.55369" lon="-2.82419">
        <ele>38.8</ele>
        <time>2021-11-13T13:08:49Z</time>
      </trkpt>
      <trkpt lat="47.55349" lon="-2.82412">
        <ele>38.8</ele>
        <time>2021-11-13T13:08:57Z</time>
      </trkpt>
      <trkpt lat="47.55326" lon="-2.824">
        <ele>39.4</ele>
        <time>2021-11-13T13:09:06Z</time>
      </trkpt>
      <trkpt lat="47.55312" lon="-2.824">
        <ele>39.8</ele>
        <time>2021-11-13T13:09:12Z</time>
      </trkpt>
      <trkpt lat="47.55299" lon="-2.82406">
        <ele>40.2</ele>
        <time>2021-11-13T13:09:16Z</time>
      </trkpt>
      <trkpt lat="47.55275" lon="-2.82409">
        <ele>40.6</ele>
        <time>2021-11-13T13:09:23Z</time>
      </trkpt>
      <trkpt lat="47.55269" lon="-2.82409">
        <ele>40.8</ele>
        <time>2021-11-13T13:09:25Z</time>
      </trkpt>
      <trkpt lat="47.55248" lon="-2.82406">
        <ele>41.2</ele>
        <time>2021-11-13T13:09:31Z</time>
      </trkpt>
      <trkpt lat="47.55228" lon="-2.82399">
        <ele>41.8</ele>
        <time>2021-11-13T13:09:37Z</time>
      </trkpt>
      <trkpt lat="47.55222" lon="-2.82396">
        <ele>42</ele>
        <time>2021-11-13T13:09:39Z</time>
      </trkpt>
      <trkpt lat="47.55211" lon="-2.82391">
        <ele>42.4</ele>
        <time>2021-11-13T13:09:43Z</time>
      </trkpt>
      <trkpt lat="47.55196" lon="-2.82389">
        <ele>42.6</ele>
        <time>2021-11-13T13:09:49Z</time>
      </trkpt>
      <trkpt lat="47.55181" lon="-2.82393">
        <ele>42.6</ele>
        <time>2021-11-13T13:09:55Z</time>
      </trkpt>
      <trkpt lat="47.55165" lon="-2.82388">
        <ele>42.4</ele>
        <time>2021-11-13T13:10:01Z</time>
      </trkpt>
      <trkpt lat="47.55156" lon="-2.82381">
        <ele>42.2</ele>
        <time>2021-11-13T13:10:05Z</time>
      </trkpt>
      <trkpt lat="47.55157" lon="-2.82368">
        <ele>41.8</ele>
        <time>2021-11-13T13:10:09Z</time>
      </trkpt>
      <trkpt lat="47.55162" lon="-2.82357">
        <ele>41.6</ele>
        <time>2021-11-13T13:10:13Z</time>
      </trkpt>
      <trkpt lat="47.55165" lon="-2.82348">
        <ele>41.6</ele>
        <time>2021-11-13T13:10:17Z</time>
      </trkpt>
      <trkpt lat="47.55166" lon="-2.82344">
        <ele>41.6</ele>
        <time>2021-11-13T13:10:19Z</time>
      </trkpt>
      <trkpt lat="47.55172" lon="-2.82331">
        <ele>41.6</ele>
        <time>2021-11-13T13:10:24Z</time>
      </trkpt>
      <trkpt lat="47.55173" lon="-2.82328">
        <ele>41.6</ele>
        <time>2021-11-13T13:10:25Z</time>
      </trkpt>
      <trkpt lat="47.55175" lon="-2.8231">
        <ele>41.4</ele>
        <time>2021-11-13T13:10:30Z</time>
      </trkpt>
      <trkpt lat="47.55176" lon="-2.82308">
        <ele>41.2</ele>
        <time>2021-11-13T13:10:31Z</time>
      </trkpt>
      <trkpt lat="47.55177" lon="-2.82306">
        <ele>41.4</ele>
        <time>2021-11-13T13:10:34Z</time>
      </trkpt>
      <trkpt lat="47.55178" lon="-2.82302">
        <ele>41.2</ele>
        <time>2021-11-13T13:10:37Z</time>
      </trkpt>
      <trkpt lat="47.55178" lon="-2.823">
        <ele>41.2</ele>
        <time>2021-11-13T13:10:38Z</time>
      </trkpt>
      <trkpt lat="47.55181" lon="-2.82291">
        <ele>41</ele>
        <time>2021-11-13T13:10:41Z</time>
      </trkpt>
      <trkpt lat="47.55186" lon="-2.82269">
        <ele>40.4</ele>
        <time>2021-11-13T13:10:46Z</time>
      </trkpt>
      <trkpt lat="47.55194" lon="-2.82247">
        <ele>40.2</ele>
        <time>2021-11-13T13:10:51Z</time>
      </trkpt>
      <trkpt lat="47.55197" lon="-2.82238">
        <ele>40.2</ele>
        <time>2021-11-13T13:10:53Z</time>
      </trkpt>
      <trkpt lat="47.55202" lon="-2.8222">
        <ele>40.2</ele>
        <time>2021-11-13T13:10:57Z</time>
      </trkpt>
      <trkpt lat="47.55207" lon="-2.82191">
        <ele>40.4</ele>
        <time>2021-11-13T13:11:04Z</time>
      </trkpt>
      <trkpt lat="47.55216" lon="-2.82155">
        <ele>40.8</ele>
        <time>2021-11-13T13:11:12Z</time>
      </trkpt>
      <trkpt lat="47.55223" lon="-2.82136">
        <ele>41</ele>
        <time>2021-11-13T13:11:17Z</time>
      </trkpt>
      <trkpt lat="47.55234" lon="-2.82129">
        <ele>41.4</ele>
        <time>2021-11-13T13:11:21Z</time>
      </trkpt>
      <trkpt lat="47.55237" lon="-2.82128">
        <ele>41.6</ele>
        <time>2021-11-13T13:11:22Z</time>
      </trkpt>
      <trkpt lat="47.55259" lon="-2.8213">
        <ele>42</ele>
        <time>2021-11-13T13:11:29Z</time>
      </trkpt>
      <trkpt lat="47.55275" lon="-2.82128">
        <ele>42.6</ele>
        <time>2021-11-13T13:11:34Z</time>
      </trkpt>
      <trkpt lat="47.55282" lon="-2.82124">
        <ele>42.6</ele>
        <time>2021-11-13T13:11:36Z</time>
      </trkpt>
      <trkpt lat="47.55306" lon="-2.82099">
        <ele>43.4</ele>
        <time>2021-11-13T13:11:43Z</time>
      </trkpt>
      <trkpt lat="47.5532" lon="-2.8208">
        <ele>43.6</ele>
        <time>2021-11-13T13:11:48Z</time>
      </trkpt>
      <trkpt lat="47.55329" lon="-2.82067">
        <ele>43.8</ele>
        <time>2021-11-13T13:11:51Z</time>
      </trkpt>
      <trkpt lat="47.55343" lon="-2.8204">
        <ele>44</ele>
        <time>2021-11-13T13:11:56Z</time>
      </trkpt>
      <trkpt lat="47.55348" lon="-2.82029">
        <ele>44</ele>
        <time>2021-11-13T13:11:58Z</time>
      </trkpt>
      <trkpt lat="47.55368" lon="-2.81989">
        <ele>43.8</ele>
        <time>2021-11-13T13:12:05Z</time>
      </trkpt>
      <trkpt lat="47.5538" lon="-2.81962">
        <ele>43.4</ele>
        <time>2021-11-13T13:12:11Z</time>
      </trkpt>
      <trkpt lat="47.5538" lon="-2.81958">
        <ele>43.4</ele>
        <time>2021-11-13T13:12:12Z</time>
      </trkpt>
      <trkpt lat="47.55377" lon="-2.81952">
        <ele>43.4</ele>
        <time>2021-11-13T13:12:14Z</time>
      </trkpt>
      <trkpt lat="47.55361" lon="-2.81928">
        <ele>43.4</ele>
        <time>2021-11-13T13:12:20Z</time>
      </trkpt>
      <trkpt lat="47.55345" lon="-2.81901">
        <ele>43.4</ele>
        <time>2021-11-13T13:12:27Z</time>
      </trkpt>
      <trkpt lat="47.55323" lon="-2.8188">
        <ele>43.6</ele>
        <time>2021-11-13T13:12:34Z</time>
      </trkpt>
      <trkpt lat="47.55298" lon="-2.81861">
        <ele>43.8</ele>
        <time>2021-11-13T13:12:42Z</time>
      </trkpt>
      <trkpt lat="47.55276" lon="-2.81845">
        <ele>44</ele>
        <time>2021-11-13T13:12:49Z</time>
      </trkpt>
      <trkpt lat="47.55246" lon="-2.81823">
        <ele>44</ele>
        <time>2021-11-13T13:12:57Z</time>
      </trkpt>
      <trkpt lat="47.55233" lon="-2.81812">
        <ele>44.2</ele>
        <time>2021-11-13T13:13:00Z</time>
      </trkpt>
      <trkpt lat="47.55224" lon="-2.81805">
        <ele>44.2</ele>
        <time>2021-11-13T13:13:02Z</time>
      </trkpt>
      <trkpt lat="47.55219" lon="-2.81802">
        <ele>44.2</ele>
        <time>2021-11-13T13:13:03Z</time>
      </trkpt>
      <trkpt lat="47.55192" lon="-2.81785">
        <ele>44.2</ele>
        <time>2021-11-13T13:13:08Z</time>
      </trkpt>
      <trkpt lat="47.55154" lon="-2.81773">
        <ele>44.2</ele>
        <time>2021-11-13T13:13:14Z</time>
      </trkpt>
      <trkpt lat="47.55111" lon="-2.81763">
        <ele>44.6</ele>
        <time>2021-11-13T13:13:21Z</time>
      </trkpt>
      <trkpt lat="47.55093" lon="-2.81753">
        <ele>44.8</ele>
        <time>2021-11-13T13:13:24Z</time>
      </trkpt>
      <trkpt lat="47.55081" lon="-2.81744">
        <ele>45</ele>
        <time>2021-11-13T13:13:26Z</time>
      </trkpt>
      <trkpt lat="47.55045" lon="-2.81711">
        <ele>45.2</ele>
        <time>2021-11-13T13:13:32Z</time>
      </trkpt>
      <trkpt lat="47.54995" lon="-2.81665">
        <ele>45.8</ele>
        <time>2021-11-13T13:13:40Z</time>
      </trkpt>
      <trkpt lat="47.54989" lon="-2.81659">
        <ele>46</ele>
        <time>2021-11-13T13:13:41Z</time>
      </trkpt>
      <trkpt lat="47.54957" lon="-2.81625">
        <ele>46</ele>
        <time>2021-11-13T13:13:46Z</time>
      </trkpt>
      <trkpt lat="47.54917" lon="-2.81576">
        <ele>45.8</ele>
        <time>2021-11-13T13:13:53Z</time>
      </trkpt>
      <trkpt lat="47.54882" lon="-2.81546">
        <ele>46.2</ele>
        <time>2021-11-13T13:13:59Z</time>
      </trkpt>
      <trkpt lat="47.54848" lon="-2.81522">
        <ele>46.2</ele>
        <time>2021-11-13T13:14:05Z</time>
      </trkpt>
      <trkpt lat="47.54812" lon="-2.81505">
        <ele>46.4</ele>
        <time>2021-11-13T13:14:11Z</time>
      </trkpt>
      <trkpt lat="47.54763" lon="-2.81501">
        <ele>46.4</ele>
        <time>2021-11-13T13:14:19Z</time>
      </trkpt>
      <trkpt lat="47.54706" lon="-2.81497">
        <ele>46.4</ele>
        <time>2021-11-13T13:14:29Z</time>
      </trkpt>
      <trkpt lat="47.54695" lon="-2.81494">
        <ele>46.4</ele>
        <time>2021-11-13T13:14:31Z</time>
      </trkpt>
      <trkpt lat="47.54684" lon="-2.81489">
        <ele>46.4</ele>
        <time>2021-11-13T13:14:33Z</time>
      </trkpt>
      <trkpt lat="47.54679" lon="-2.81487">
        <ele>46.4</ele>
        <time>2021-11-13T13:14:34Z</time>
      </trkpt>
      <trkpt lat="47.54675" lon="-2.81484">
        <ele>46.4</ele>
        <time>2021-11-13T13:14:35Z</time>
      </trkpt>
      <trkpt lat="47.5466" lon="-2.81471">
        <ele>46.6</ele>
        <time>2021-11-13T13:14:38Z</time>
      </trkpt>
      <trkpt lat="47.54655" lon="-2.81467">
        <ele>46.6</ele>
        <time>2021-11-13T13:14:39Z</time>
      </trkpt>
      <trkpt lat="47.54645" lon="-2.81456">
        <ele>46.8</ele>
        <time>2021-11-13T13:14:41Z</time>
      </trkpt>
      <trkpt lat="47.54636" lon="-2.81443">
        <ele>46.8</ele>
        <time>2021-11-13T13:14:43Z</time>
      </trkpt>
      <trkpt lat="47.54633" lon="-2.81435">
        <ele>46.8</ele>
        <time>2021-11-13T13:14:44Z</time>
      </trkpt>
      <trkpt lat="47.54626" lon="-2.81416">
        <ele>46.6</ele>
        <time>2021-11-13T13:14:46Z</time>
      </trkpt>
      <trkpt lat="47.54622" lon="-2.81398">
        <ele>46.8</ele>
        <time>2021-11-13T13:14:48Z</time>
      </trkpt>
      <trkpt lat="47.5462" lon="-2.8139">
        <ele>46.6</ele>
        <time>2021-11-13T13:14:49Z</time>
      </trkpt>
      <trkpt lat="47.54616" lon="-2.8138">
        <ele>46.6</ele>
        <time>2021-11-13T13:14:50Z</time>
      </trkpt>
      <trkpt lat="47.54604" lon="-2.8136">
        <ele>46.4</ele>
        <time>2021-11-13T13:14:53Z</time>
      </trkpt>
      <trkpt lat="47.54595" lon="-2.81352">
        <ele>46.2</ele>
        <time>2021-11-13T13:14:55Z</time>
      </trkpt>
      <trkpt lat="47.54584" lon="-2.81347">
        <ele>46.2</ele>
        <time>2021-11-13T13:14:57Z</time>
      </trkpt>
      <trkpt lat="47.54566" lon="-2.81346">
        <ele>46</ele>
        <time>2021-11-13T13:15:00Z</time>
      </trkpt>
      <trkpt lat="47.54555" lon="-2.81348">
        <ele>45.8</ele>
        <time>2021-11-13T13:15:02Z</time>
      </trkpt>
      <trkpt lat="47.54515" lon="-2.81356">
        <ele>45.2</ele>
        <time>2021-11-13T13:15:09Z</time>
      </trkpt>
      <trkpt lat="47.54462" lon="-2.81367">
        <ele>44.6</ele>
        <time>2021-11-13T13:15:18Z</time>
      </trkpt>
      <trkpt lat="47.54451" lon="-2.81368">
        <ele>44.6</ele>
        <time>2021-11-13T13:15:20Z</time>
      </trkpt>
      <trkpt lat="47.54434" lon="-2.81373">
        <ele>44.4</ele>
        <time>2021-11-13T13:15:23Z</time>
      </trkpt>
      <trkpt lat="47.54429" lon="-2.81374">
        <ele>44.4</ele>
        <time>2021-11-13T13:15:24Z</time>
      </trkpt>
      <trkpt lat="47.54391" lon="-2.81379">
        <ele>44.2</ele>
        <time>2021-11-13T13:15:32Z</time>
      </trkpt>
      <trkpt lat="47.54359" lon="-2.81379">
        <ele>44.2</ele>
        <time>2021-11-13T13:15:38Z</time>
      </trkpt>
      <trkpt lat="47.54336" lon="-2.81368">
        <ele>44.4</ele>
        <time>2021-11-13T13:15:43Z</time>
      </trkpt>
      <trkpt lat="47.54328" lon="-2.81362">
        <ele>44.4</ele>
        <time>2021-11-13T13:15:45Z</time>
      </trkpt>
      <trkpt lat="47.5432" lon="-2.81356">
        <ele>44.8</ele>
        <time>2021-11-13T13:15:47Z</time>
      </trkpt>
      <trkpt lat="47.54316" lon="-2.81352">
        <ele>44.8</ele>
        <time>2021-11-13T13:15:48Z</time>
      </trkpt>
      <trkpt lat="47.54289" lon="-2.81327">
        <ele>45.2</ele>
        <time>2021-11-13T13:15:55Z</time>
      </trkpt>
      <trkpt lat="47.54265" lon="-2.81307">
        <ele>45</ele>
        <time>2021-11-13T13:16:01Z</time>
      </trkpt>
      <trkpt lat="47.54253" lon="-2.81298">
        <ele>44.8</ele>
        <time>2021-11-13T13:16:04Z</time>
      </trkpt>
      <trkpt lat="47.54244" lon="-2.81293">
        <ele>45</ele>
        <time>2021-11-13T13:16:06Z</time>
      </trkpt>
      <trkpt lat="47.54239" lon="-2.8129">
        <ele>45</ele>
        <time>2021-11-13T13:16:07Z</time>
      </trkpt>
      <trkpt lat="47.54235" lon="-2.81288">
        <ele>45</ele>
        <time>2021-11-13T13:16:08Z</time>
      </trkpt>
      <trkpt lat="47.54213" lon="-2.81281">
        <ele>44.6</ele>
        <time>2021-11-13T13:16:13Z</time>
      </trkpt>
      <trkpt lat="47.54198" lon="-2.81284">
        <ele>44.4</ele>
        <time>2021-11-13T13:16:17Z</time>
      </trkpt>
      <trkpt lat="47.54193" lon="-2.81296">
        <ele>44.2</ele>
        <time>2021-11-13T13:16:20Z</time>
      </trkpt>
      <trkpt lat="47.54194" lon="-2.81301">
        <ele>44.2</ele>
        <time>2021-11-13T13:16:21Z</time>
      </trkpt>
      <trkpt lat="47.54201" lon="-2.8134">
        <ele>44.2</ele>
        <time>2021-11-13T13:16:28Z</time>
      </trkpt>
      <trkpt lat="47.5421" lon="-2.81393">
        <ele>44.2</ele>
        <time>2021-11-13T13:16:36Z</time>
      </trkpt>
      <trkpt lat="47.54211" lon="-2.81399">
        <ele>44.2</ele>
        <time>2021-11-13T13:16:37Z</time>
      </trkpt>
      <trkpt lat="47.54211" lon="-2.81419">
        <ele>44.4</ele>
        <time>2021-11-13T13:16:40Z</time>
      </trkpt>
      <trkpt lat="47.54211" lon="-2.81425">
        <ele>44.4</ele>
        <time>2021-11-13T13:16:41Z</time>
      </trkpt>
      <trkpt lat="47.5421" lon="-2.81431">
        <ele>44.4</ele>
        <time>2021-11-13T13:16:42Z</time>
      </trkpt>
      <trkpt lat="47.54203" lon="-2.8145">
        <ele>44.6</ele>
        <time>2021-11-13T13:16:45Z</time>
      </trkpt>
      <trkpt lat="47.54201" lon="-2.81456">
        <ele>44.6</ele>
        <time>2021-11-13T13:16:46Z</time>
      </trkpt>
      <trkpt lat="47.54181" lon="-2.81494">
        <ele>44.8</ele>
        <time>2021-11-13T13:16:53Z</time>
      </trkpt>
      <trkpt lat="47.54179" lon="-2.81499">
        <ele>44.8</ele>
        <time>2021-11-13T13:16:54Z</time>
      </trkpt>
      <trkpt lat="47.54176" lon="-2.8151">
        <ele>44.8</ele>
        <time>2021-11-13T13:16:56Z</time>
      </trkpt>
      <trkpt lat="47.5417" lon="-2.81533">
        <ele>45</ele>
        <time>2021-11-13T13:17:00Z</time>
      </trkpt>
      <trkpt lat="47.54156" lon="-2.81577">
        <ele>45</ele>
        <time>2021-11-13T13:17:07Z</time>
      </trkpt>
      <trkpt lat="47.54136" lon="-2.81625">
        <ele>44.6</ele>
        <time>2021-11-13T13:17:14Z</time>
      </trkpt>
      <trkpt lat="47.54133" lon="-2.8164">
        <ele>44.6</ele>
        <time>2021-11-13T13:17:16Z</time>
      </trkpt>
      <trkpt lat="47.54132" lon="-2.81663">
        <ele>44.4</ele>
        <time>2021-11-13T13:17:19Z</time>
      </trkpt>
      <trkpt lat="47.54132" lon="-2.81671">
        <ele>44.4</ele>
        <time>2021-11-13T13:17:20Z</time>
      </trkpt>
      <trkpt lat="47.54132" lon="-2.81686">
        <ele>44.4</ele>
        <time>2021-11-13T13:17:22Z</time>
      </trkpt>
      <trkpt lat="47.54131" lon="-2.817">
        <ele>44.4</ele>
        <time>2021-11-13T13:17:24Z</time>
      </trkpt>
      <trkpt lat="47.54131" lon="-2.81739">
        <ele>44.2</ele>
        <time>2021-11-13T13:17:29Z</time>
      </trkpt>
      <trkpt lat="47.54133" lon="-2.81756">
        <ele>44.2</ele>
        <time>2021-11-13T13:17:31Z</time>
      </trkpt>
      <trkpt lat="47.54148" lon="-2.81811">
        <ele>44</ele>
        <time>2021-11-13T13:17:38Z</time>
      </trkpt>
      <trkpt lat="47.5417" lon="-2.81872">
        <ele>44</ele>
        <time>2021-11-13T13:17:46Z</time>
      </trkpt>
      <trkpt lat="47.5419" lon="-2.81926">
        <ele>43.8</ele>
        <time>2021-11-13T13:17:53Z</time>
      </trkpt>
      <trkpt lat="47.54211" lon="-2.81975">
        <ele>43.4</ele>
        <time>2021-11-13T13:18:00Z</time>
      </trkpt>
      <trkpt lat="47.54231" lon="-2.82011">
        <ele>43.2</ele>
        <time>2021-11-13T13:18:06Z</time>
      </trkpt>
      <trkpt lat="47.54239" lon="-2.82028">
        <ele>43</ele>
        <time>2021-11-13T13:18:09Z</time>
      </trkpt>
      <trkpt lat="47.54242" lon="-2.82039">
        <ele>43</ele>
        <time>2021-11-13T13:18:11Z</time>
      </trkpt>
      <trkpt lat="47.54245" lon="-2.8205">
        <ele>42.8</ele>
        <time>2021-11-13T13:18:13Z</time>
      </trkpt>
      <trkpt lat="47.54247" lon="-2.82061">
        <ele>42.8</ele>
        <time>2021-11-13T13:18:15Z</time>
      </trkpt>
      <trkpt lat="47.54248" lon="-2.82067">
        <ele>42.8</ele>
        <time>2021-11-13T13:18:16Z</time>
      </trkpt>
      <trkpt lat="47.54252" lon="-2.82106">
        <ele>42.6</ele>
        <time>2021-11-13T13:18:23Z</time>
      </trkpt>
      <trkpt lat="47.54251" lon="-2.82143">
        <ele>42.4</ele>
        <time>2021-11-13T13:18:29Z</time>
      </trkpt>
      <trkpt lat="47.5425" lon="-2.82149">
        <ele>42.4</ele>
        <time>2021-11-13T13:18:30Z</time>
      </trkpt>
      <trkpt lat="47.54241" lon="-2.82208">
        <ele>42.6</ele>
        <time>2021-11-13T13:18:39Z</time>
      </trkpt>
      <trkpt lat="47.54231" lon="-2.8227">
        <ele>43</ele>
        <time>2021-11-13T13:18:48Z</time>
      </trkpt>
      <trkpt lat="47.54228" lon="-2.82305">
        <ele>43.2</ele>
        <time>2021-11-13T13:18:53Z</time>
      </trkpt>
      <trkpt lat="47.54227" lon="-2.82327">
        <ele>43.4</ele>
        <time>2021-11-13T13:18:56Z</time>
      </trkpt>
      <trkpt lat="47.54226" lon="-2.82378">
        <ele>43.6</ele>
        <time>2021-11-13T13:19:03Z</time>
      </trkpt>
      <trkpt lat="47.54224" lon="-2.8244">
        <ele>43.8</ele>
        <time>2021-11-13T13:19:11Z</time>
      </trkpt>
      <trkpt lat="47.54223" lon="-2.82472">
        <ele>44</ele>
        <time>2021-11-13T13:19:15Z</time>
      </trkpt>
      <trkpt lat="47.54223" lon="-2.82497">
        <ele>44</ele>
        <time>2021-11-13T13:19:18Z</time>
      </trkpt>
      <trkpt lat="47.54222" lon="-2.82512">
        <ele>44</ele>
        <time>2021-11-13T13:19:20Z</time>
      </trkpt>
      <trkpt lat="47.54221" lon="-2.82542">
        <ele>44</ele>
        <time>2021-11-13T13:19:24Z</time>
      </trkpt>
      <trkpt lat="47.5422" lon="-2.82549">
        <ele>44</ele>
        <time>2021-11-13T13:19:25Z</time>
      </trkpt>
      <trkpt lat="47.54215" lon="-2.82577">
        <ele>44</ele>
        <time>2021-11-13T13:19:29Z</time>
      </trkpt>
      <trkpt lat="47.54213" lon="-2.82583">
        <ele>43.8</ele>
        <time>2021-11-13T13:19:30Z</time>
      </trkpt>
      <trkpt lat="47.54199" lon="-2.82632">
        <ele>44</ele>
        <time>2021-11-13T13:19:38Z</time>
      </trkpt>
      <trkpt lat="47.54197" lon="-2.82644">
        <ele>44.2</ele>
        <time>2021-11-13T13:19:40Z</time>
      </trkpt>
      <trkpt lat="47.54196" lon="-2.82663">
        <ele>44.4</ele>
        <time>2021-11-13T13:19:43Z</time>
      </trkpt>
      <trkpt lat="47.54197" lon="-2.8267">
        <ele>44.4</ele>
        <time>2021-11-13T13:19:44Z</time>
      </trkpt>
      <trkpt lat="47.542" lon="-2.82695">
        <ele>44.4</ele>
        <time>2021-11-13T13:19:48Z</time>
      </trkpt>
      <trkpt lat="47.54201" lon="-2.82701">
        <ele>44.4</ele>
        <time>2021-11-13T13:19:49Z</time>
      </trkpt>
      <trkpt lat="47.54203" lon="-2.82725">
        <ele>44.4</ele>
        <time>2021-11-13T13:19:53Z</time>
      </trkpt>
      <trkpt lat="47.54203" lon="-2.8273">
        <ele>44.4</ele>
        <time>2021-11-13T13:19:54Z</time>
      </trkpt>
      <trkpt lat="47.54199" lon="-2.82753">
        <ele>44.4</ele>
        <time>2021-11-13T13:19:59Z</time>
      </trkpt>
      <trkpt lat="47.54199" lon="-2.82757">
        <ele>44.4</ele>
        <time>2021-11-13T13:20:00Z</time>
      </trkpt>
      <trkpt lat="47.54202" lon="-2.82764">
        <ele>44.4</ele>
        <time>2021-11-13T13:20:02Z</time>
      </trkpt>
      <trkpt lat="47.54211" lon="-2.82768">
        <ele>44.2</ele>
        <time>2021-11-13T13:20:07Z</time>
      </trkpt>
      <trkpt lat="47.54213" lon="-2.82769">
        <ele>43.6</ele>
        <time>2021-11-13T13:20:11Z</time>
      </trkpt>
      <trkpt lat="47.54214" lon="-2.8277">
        <ele>43.2</ele>
        <time>2021-11-13T13:20:13Z</time>
      </trkpt>
      <trkpt lat="47.54214" lon="-2.8277">
        <ele>43</ele>
        <time>2021-11-13T13:20:14Z</time>
      </trkpt>
      <trkpt lat="47.54217" lon="-2.82772">
        <ele>42.2</ele>
        <time>2021-11-13T13:20:20Z</time>
      </trkpt>
      <trkpt lat="47.54219" lon="-2.82773">
        <ele>42</ele>
        <time>2021-11-13T13:20:22Z</time>
      </trkpt>
      <trkpt lat="47.54224" lon="-2.82776">
        <ele>41</ele>
        <time>2021-11-13T13:20:27Z</time>
      </trkpt>
      <trkpt lat="47.54233" lon="-2.82784">
        <ele>40</ele>
        <time>2021-11-13T13:20:37Z</time>
      </trkpt>
      <trkpt lat="47.54233" lon="-2.82784">
        <ele>40</ele>
        <time>2021-11-13T13:20:38Z</time>
      </trkpt>
      <trkpt lat="47.54234" lon="-2.82784">
        <ele>39.2</ele>
        <time>2021-11-13T13:21:02Z</time>
      </trkpt>
      <trkpt lat="47.54238" lon="-2.8279">
        <ele>39</ele>
        <time>2021-11-13T13:21:06Z</time>
      </trkpt>
      <trkpt lat="47.5424" lon="-2.82792">
        <ele>38.8</ele>
        <time>2021-11-13T13:21:08Z</time>
      </trkpt>
      <trkpt lat="47.54248" lon="-2.82804">
        <ele>37.8</ele>
        <time>2021-11-13T13:21:16Z</time>
      </trkpt>
      <trkpt lat="47.54249" lon="-2.82805">
        <ele>37.8</ele>
        <time>2021-11-13T13:21:17Z</time>
      </trkpt>
      <trkpt lat="47.54251" lon="-2.82811">
        <ele>38.2</ele>
        <time>2021-11-13T13:21:22Z</time>
      </trkpt>
      <trkpt lat="47.54254" lon="-2.82823">
        <ele>37.8</ele>
        <time>2021-11-13T13:21:29Z</time>
      </trkpt>
      <trkpt lat="47.54261" lon="-2.82837">
        <ele>37.4</ele>
        <time>2021-11-13T13:21:39Z</time>
      </trkpt>
      <trkpt lat="47.54262" lon="-2.82841">
        <ele>37</ele>
        <time>2021-11-13T13:21:45Z</time>
      </trkpt>
      <trkpt lat="47.54262" lon="-2.82843">
        <ele>36.8</ele>
        <time>2021-11-13T13:21:46Z</time>
      </trkpt>
      <trkpt lat="47.54263" lon="-2.82845">
        <ele>36.6</ele>
        <time>2021-11-13T13:21:48Z</time>
      </trkpt>
      <trkpt lat="47.54267" lon="-2.82854">
        <ele>36</ele>
        <time>2021-11-13T13:21:54Z</time>
      </trkpt>
      <trkpt lat="47.54269" lon="-2.82857">
        <ele>35.8</ele>
        <time>2021-11-13T13:21:58Z</time>
      </trkpt>
      <trkpt lat="47.54271" lon="-2.8286">
        <ele>35.4</ele>
        <time>2021-11-13T13:22:02Z</time>
      </trkpt>
      <trkpt lat="47.54272" lon="-2.82863">
        <ele>35</ele>
        <time>2021-11-13T13:22:08Z</time>
      </trkpt>
      <trkpt lat="47.54272" lon="-2.82863">
        <ele>34.6</ele>
        <time>2021-11-13T13:22:09Z</time>
      </trkpt>
      <trkpt lat="47.54276" lon="-2.8287">
        <ele>33.6</ele>
        <time>2021-11-13T13:22:16Z</time>
      </trkpt>
      <trkpt lat="47.54277" lon="-2.82872">
        <ele>33.4</ele>
        <time>2021-11-13T13:22:17Z</time>
      </trkpt>
      <trkpt lat="47.54279" lon="-2.82875">
        <ele>33</ele>
        <time>2021-11-13T13:22:20Z</time>
      </trkpt>
      <trkpt lat="47.54279" lon="-2.82878">
        <ele>32.8</ele>
        <time>2021-11-13T13:22:22Z</time>
      </trkpt>
      <trkpt lat="47.54283" lon="-2.82884">
        <ele>32.4</ele>
        <time>2021-11-13T13:22:29Z</time>
      </trkpt>
      <trkpt lat="47.54285" lon="-2.82888">
        <ele>32</ele>
        <time>2021-11-13T13:22:35Z</time>
      </trkpt>
      <trkpt lat="47.54288" lon="-2.82893">
        <ele>31.8</ele>
        <time>2021-11-13T13:22:41Z</time>
      </trkpt>
      <trkpt lat="47.54291" lon="-2.82897">
        <ele>31.6</ele>
        <time>2021-11-13T13:22:47Z</time>
      </trkpt>
      <trkpt lat="47.54293" lon="-2.82901">
        <ele>31.6</ele>
        <time>2021-11-13T13:22:50Z</time>
      </trkpt>
      <trkpt lat="47.54295" lon="-2.82904">
        <ele>31.4</ele>
        <time>2021-11-13T13:22:53Z</time>
      </trkpt>
      <trkpt lat="47.54297" lon="-2.82907">
        <ele>31.2</ele>
        <time>2021-11-13T13:22:55Z</time>
      </trkpt>
      <trkpt lat="47.54306" lon="-2.8292">
        <ele>31</ele>
        <time>2021-11-13T13:23:06Z</time>
      </trkpt>
      <trkpt lat="47.5431" lon="-2.82927">
        <ele>30.8</ele>
        <time>2021-11-13T13:23:12Z</time>
      </trkpt>
      <trkpt lat="47.5431" lon="-2.82928">
        <ele>30.8</ele>
        <time>2021-11-13T13:23:15Z</time>
      </trkpt>
      <trkpt lat="47.54311" lon="-2.8293">
        <ele>30.6</ele>
        <time>2021-11-13T13:23:23Z</time>
      </trkpt>
      <trkpt lat="47.54312" lon="-2.8293">
        <ele>30.2</ele>
        <time>2021-11-13T13:23:29Z</time>
      </trkpt>
      <trkpt lat="47.54312" lon="-2.8293">
        <ele>30</ele>
        <time>2021-11-13T13:23:31Z</time>
      </trkpt>
      <trkpt lat="47.54314" lon="-2.82931">
        <ele>29.4</ele>
        <time>2021-11-13T13:23:39Z</time>
      </trkpt>
      <trkpt lat="47.54317" lon="-2.82931">
        <ele>29.2</ele>
        <time>2021-11-13T13:23:41Z</time>
      </trkpt>
      <trkpt lat="47.54319" lon="-2.82932">
        <ele>29</ele>
        <time>2021-11-13T13:23:42Z</time>
      </trkpt>
      <trkpt lat="47.54323" lon="-2.82933">
        <ele>28.8</ele>
        <time>2021-11-13T13:23:45Z</time>
      </trkpt>
      <trkpt lat="47.54328" lon="-2.82937">
        <ele>28.2</ele>
        <time>2021-11-13T13:23:49Z</time>
      </trkpt>
      <trkpt lat="47.5433" lon="-2.82938">
        <ele>28</ele>
        <time>2021-11-13T13:23:51Z</time>
      </trkpt>
      <trkpt lat="47.5433" lon="-2.82938">
        <ele>27.6</ele>
        <time>2021-11-13T13:23:56Z</time>
      </trkpt>
      <trkpt lat="47.5433" lon="-2.82938">
        <ele>28.6</ele>
        <time>2021-11-13T13:24:52Z</time>
      </trkpt>
      <trkpt lat="47.5433" lon="-2.82938">
        <ele>28.6</ele>
        <time>2021-11-13T13:24:53Z</time>
      </trkpt>
      <trkpt lat="47.54335" lon="-2.82944">
        <ele>28.6</ele>
        <time>2021-11-13T13:24:57Z</time>
      </trkpt>
      <trkpt lat="47.54347" lon="-2.82952">
        <ele>28.4</ele>
        <time>2021-11-13T13:25:06Z</time>
      </trkpt>
      <trkpt lat="47.54348" lon="-2.82953">
        <ele>28.4</ele>
        <time>2021-11-13T13:25:07Z</time>
      </trkpt>
      <trkpt lat="47.54347" lon="-2.82956">
        <ele>28.4</ele>
        <time>2021-11-13T13:25:09Z</time>
      </trkpt>
      <trkpt lat="47.54347" lon="-2.82957">
        <ele>28.2</ele>
        <time>2021-11-13T13:25:10Z</time>
      </trkpt>
      <trkpt lat="47.54349" lon="-2.82959">
        <ele>28.2</ele>
        <time>2021-11-13T13:25:12Z</time>
      </trkpt>
      <trkpt lat="47.5435" lon="-2.82959">
        <ele>28</ele>
        <time>2021-11-13T13:25:15Z</time>
      </trkpt>
      <trkpt lat="47.54351" lon="-2.8296">
        <ele>28.4</ele>
        <time>2021-11-13T13:25:28Z</time>
      </trkpt>
      <trkpt lat="47.54353" lon="-2.82961">
        <ele>28.6</ele>
        <time>2021-11-13T13:25:29Z</time>
      </trkpt>
      <trkpt lat="47.54355" lon="-2.82963">
        <ele>28.8</ele>
        <time>2021-11-13T13:25:31Z</time>
      </trkpt>
      <trkpt lat="47.54359" lon="-2.82966">
        <ele>29.4</ele>
        <time>2021-11-13T13:25:37Z</time>
      </trkpt>
      <trkpt lat="47.5436" lon="-2.82967">
        <ele>29.4</ele>
        <time>2021-11-13T13:25:39Z</time>
      </trkpt>
      <trkpt lat="47.5436" lon="-2.82968">
        <ele>29.6</ele>
        <time>2021-11-13T13:25:40Z</time>
      </trkpt>
      <trkpt lat="47.54361" lon="-2.82968">
        <ele>30</ele>
        <time>2021-11-13T13:25:44Z</time>
      </trkpt>
      <trkpt lat="47.54363" lon="-2.8297">
        <ele>30.2</ele>
        <time>2021-11-13T13:25:49Z</time>
      </trkpt>
      <trkpt lat="47.54369" lon="-2.82972">
        <ele>30.2</ele>
        <time>2021-11-13T13:25:52Z</time>
      </trkpt>
      <trkpt lat="47.54382" lon="-2.82977">
        <ele>30.2</ele>
        <time>2021-11-13T13:25:57Z</time>
      </trkpt>
      <trkpt lat="47.54397" lon="-2.82987">
        <ele>30.4</ele>
        <time>2021-11-13T13:26:03Z</time>
      </trkpt>
      <trkpt lat="47.54403" lon="-2.82989">
        <ele>30.8</ele>
        <time>2021-11-13T13:26:05Z</time>
      </trkpt>
      <trkpt lat="47.5441" lon="-2.8299">
        <ele>30.8</ele>
        <time>2021-11-13T13:26:08Z</time>
      </trkpt>
      <trkpt lat="47.54425" lon="-2.83001">
        <ele>31.4</ele>
        <time>2021-11-13T13:26:14Z</time>
      </trkpt>
      <trkpt lat="47.54427" lon="-2.83013">
        <ele>31.6</ele>
        <time>2021-11-13T13:26:17Z</time>
      </trkpt>
      <trkpt lat="47.54429" lon="-2.83021">
        <ele>31.6</ele>
        <time>2021-11-13T13:26:19Z</time>
      </trkpt>
      <trkpt lat="47.54441" lon="-2.83029">
        <ele>32</ele>
        <time>2021-11-13T13:26:24Z</time>
      </trkpt>
      <trkpt lat="47.54457" lon="-2.83035">
        <ele>32.2</ele>
        <time>2021-11-13T13:26:29Z</time>
      </trkpt>
      <trkpt lat="47.54482" lon="-2.83048">
        <ele>32.6</ele>
        <time>2021-11-13T13:26:37Z</time>
      </trkpt>
      <trkpt lat="47.54487" lon="-2.83049">
        <ele>32.6</ele>
        <time>2021-11-13T13:26:38Z</time>
      </trkpt>
      <trkpt lat="47.54493" lon="-2.8305">
        <ele>32.6</ele>
        <time>2021-11-13T13:26:39Z</time>
      </trkpt>
      <trkpt lat="47.54503" lon="-2.83052">
        <ele>32.8</ele>
        <time>2021-11-13T13:26:41Z</time>
      </trkpt>
      <trkpt lat="47.54542" lon="-2.83059">
        <ele>33.6</ele>
        <time>2021-11-13T13:26:48Z</time>
      </trkpt>
      <trkpt lat="47.54579" lon="-2.83063">
        <ele>35</ele>
        <time>2021-11-13T13:26:55Z</time>
      </trkpt>
      <trkpt lat="47.54589" lon="-2.83062">
        <ele>35.2</ele>
        <time>2021-11-13T13:26:57Z</time>
      </trkpt>
      <trkpt lat="47.54605" lon="-2.83058">
        <ele>36</ele>
        <time>2021-11-13T13:27:00Z</time>
      </trkpt>
      <trkpt lat="47.5461" lon="-2.83057">
        <ele>36.4</ele>
        <time>2021-11-13T13:27:01Z</time>
      </trkpt>
      <trkpt lat="47.54622" lon="-2.83051">
        <ele>36.8</ele>
        <time>2021-11-13T13:27:03Z</time>
      </trkpt>
      <trkpt lat="47.54627" lon="-2.83048">
        <ele>37.2</ele>
        <time>2021-11-13T13:27:04Z</time>
      </trkpt>
      <trkpt lat="47.54631" lon="-2.83045">
        <ele>37.2</ele>
        <time>2021-11-13T13:27:05Z</time>
      </trkpt>
      <trkpt lat="47.54649" lon="-2.8303">
        <ele>38</ele>
        <time>2021-11-13T13:27:09Z</time>
      </trkpt>
      <trkpt lat="47.54653" lon="-2.83026">
        <ele>38.2</ele>
        <time>2021-11-13T13:27:10Z</time>
      </trkpt>
      <trkpt lat="47.54666" lon="-2.83014">
        <ele>38.6</ele>
        <time>2021-11-13T13:27:13Z</time>
      </trkpt>
      <trkpt lat="47.54675" lon="-2.83006">
        <ele>38.8</ele>
        <time>2021-11-13T13:27:15Z</time>
      </trkpt>
      <trkpt lat="47.54686" lon="-2.82994">
        <ele>39.4</ele>
        <time>2021-11-13T13:27:18Z</time>
      </trkpt>
      <trkpt lat="47.5469" lon="-2.8299">
        <ele>39.4</ele>
        <time>2021-11-13T13:27:19Z</time>
      </trkpt>
      <trkpt lat="47.54699" lon="-2.82971">
        <ele>40</ele>
        <time>2021-11-13T13:27:22Z</time>
      </trkpt>
      <trkpt lat="47.54705" lon="-2.8296">
        <ele>40.4</ele>
        <time>2021-11-13T13:27:24Z</time>
      </trkpt>
      <trkpt lat="47.54711" lon="-2.82952">
        <ele>40.6</ele>
        <time>2021-11-13T13:27:26Z</time>
      </trkpt>
      <trkpt lat="47.54714" lon="-2.82949">
        <ele>40.8</ele>
        <time>2021-11-13T13:27:27Z</time>
      </trkpt>
      <trkpt lat="47.54724" lon="-2.8294">
        <ele>41.2</ele>
        <time>2021-11-13T13:27:31Z</time>
      </trkpt>
      <trkpt lat="47.54726" lon="-2.82937">
        <ele>41.4</ele>
        <time>2021-11-13T13:27:32Z</time>
      </trkpt>
      <trkpt lat="47.54738" lon="-2.82925">
        <ele>41.6</ele>
        <time>2021-11-13T13:27:36Z</time>
      </trkpt>
      <trkpt lat="47.54759" lon="-2.82913">
        <ele>42.8</ele>
        <time>2021-11-13T13:27:42Z</time>
      </trkpt>
      <trkpt lat="47.54763" lon="-2.82911">
        <ele>42.8</ele>
        <time>2021-11-13T13:27:43Z</time>
      </trkpt>
      <trkpt lat="47.54791" lon="-2.82901">
        <ele>43.8</ele>
        <time>2021-11-13T13:27:49Z</time>
      </trkpt>
      <trkpt lat="47.54811" lon="-2.82883">
        <ele>44.2</ele>
        <time>2021-11-13T13:27:55Z</time>
      </trkpt>
      <trkpt lat="47.54821" lon="-2.82865">
        <ele>44.8</ele>
        <time>2021-11-13T13:28:00Z</time>
      </trkpt>
      <trkpt lat="47.54832" lon="-2.82844">
        <ele>45.4</ele>
        <time>2021-11-13T13:28:06Z</time>
      </trkpt>
      <trkpt lat="47.54834" lon="-2.8284">
        <ele>45.4</ele>
        <time>2021-11-13T13:28:07Z</time>
      </trkpt>
      <trkpt lat="47.54837" lon="-2.82834">
        <ele>45.6</ele>
        <time>2021-11-13T13:28:09Z</time>
      </trkpt>
      <trkpt lat="47.54843" lon="-2.82824">
        <ele>45.8</ele>
        <time>2021-11-13T13:28:12Z</time>
      </trkpt>
      <trkpt lat="47.54854" lon="-2.82804">
        <ele>46.2</ele>
        <time>2021-11-13T13:28:17Z</time>
      </trkpt>
      <trkpt lat="47.54862" lon="-2.82777">
        <ele>46.6</ele>
        <time>2021-11-13T13:28:23Z</time>
      </trkpt>
      <trkpt lat="47.54864" lon="-2.82772">
        <ele>46.8</ele>
        <time>2021-11-13T13:28:24Z</time>
      </trkpt>
      <trkpt lat="47.54867" lon="-2.82767">
        <ele>47</ele>
        <time>2021-11-13T13:28:25Z</time>
      </trkpt>
      <trkpt lat="47.54868" lon="-2.82758">
        <ele>47.2</ele>
        <time>2021-11-13T13:28:27Z</time>
      </trkpt>
      <trkpt lat="47.54867" lon="-2.82754">
        <ele>47.2</ele>
        <time>2021-11-13T13:28:28Z</time>
      </trkpt>
      <trkpt lat="47.54871" lon="-2.82745">
        <ele>47.4</ele>
        <time>2021-11-13T13:28:30Z</time>
      </trkpt>
      <trkpt lat="47.54876" lon="-2.82735">
        <ele>47.6</ele>
        <time>2021-11-13T13:28:32Z</time>
      </trkpt>
      <trkpt lat="47.54893" lon="-2.82713">
        <ele>47.6</ele>
        <time>2021-11-13T13:28:37Z</time>
      </trkpt>
      <trkpt lat="47.54901" lon="-2.82705">
        <ele>47.8</ele>
        <time>2021-11-13T13:28:39Z</time>
      </trkpt>
      <trkpt lat="47.54902" lon="-2.82702">
        <ele>47.8</ele>
        <time>2021-11-13T13:28:40Z</time>
      </trkpt>
      <trkpt lat="47.54902" lon="-2.82698">
        <ele>48</ele>
        <time>2021-11-13T13:28:42Z</time>
      </trkpt>
      <trkpt lat="47.54904" lon="-2.82697">
        <ele>48.2</ele>
        <time>2021-11-13T13:28:44Z</time>
      </trkpt>
      <trkpt lat="47.54907" lon="-2.827">
        <ele>48.4</ele>
        <time>2021-11-13T13:28:49Z</time>
      </trkpt>
      <trkpt lat="47.54907" lon="-2.827">
        <ele>48.6</ele>
        <time>2021-11-13T13:28:57Z</time>
      </trkpt>
      <trkpt lat="47.54902" lon="-2.827">
        <ele>49</ele>
        <time>2021-11-13T13:29:01Z</time>
      </trkpt>
      <trkpt lat="47.549" lon="-2.82701">
        <ele>49</ele>
        <time>2021-11-13T13:29:02Z</time>
      </trkpt>
      <trkpt lat="47.54894" lon="-2.82711">
        <ele>49.2</ele>
        <time>2021-11-13T13:29:08Z</time>
      </trkpt>
      <trkpt lat="47.54885" lon="-2.82723">
        <ele>48.8</ele>
        <time>2021-11-13T13:29:14Z</time>
      </trkpt>
      <trkpt lat="47.54876" lon="-2.82737">
        <ele>48.8</ele>
        <time>2021-11-13T13:29:20Z</time>
      </trkpt>
      <trkpt lat="47.54869" lon="-2.8276">
        <ele>49</ele>
        <time>2021-11-13T13:29:25Z</time>
      </trkpt>
      <trkpt lat="47.54861" lon="-2.8279">
        <ele>49</ele>
        <time>2021-11-13T13:29:31Z</time>
      </trkpt>
      <trkpt lat="47.54849" lon="-2.82819">
        <ele>49.2</ele>
        <time>2021-11-13T13:29:36Z</time>
      </trkpt>
      <trkpt lat="47.5483" lon="-2.8286">
        <ele>49.4</ele>
        <time>2021-11-13T13:29:42Z</time>
      </trkpt>
      <trkpt lat="47.54826" lon="-2.82869">
        <ele>49.6</ele>
        <time>2021-11-13T13:29:43Z</time>
      </trkpt>
      <trkpt lat="47.54814" lon="-2.82888">
        <ele>50</ele>
        <time>2021-11-13T13:29:46Z</time>
      </trkpt>
      <trkpt lat="47.54797" lon="-2.82901">
        <ele>50</ele>
        <time>2021-11-13T13:29:49Z</time>
      </trkpt>
      <trkpt lat="47.54792" lon="-2.82903">
        <ele>50</ele>
        <time>2021-11-13T13:29:50Z</time>
      </trkpt>
      <trkpt lat="47.54774" lon="-2.8291">
        <ele>50</ele>
        <time>2021-11-13T13:29:53Z</time>
      </trkpt>
      <trkpt lat="47.54758" lon="-2.82915">
        <ele>50.2</ele>
        <time>2021-11-13T13:29:56Z</time>
      </trkpt>
      <trkpt lat="47.54747" lon="-2.8292">
        <ele>50.2</ele>
        <time>2021-11-13T13:29:58Z</time>
      </trkpt>
      <trkpt lat="47.54735" lon="-2.82929">
        <ele>50.2</ele>
        <time>2021-11-13T13:30:01Z</time>
      </trkpt>
      <trkpt lat="47.5472" lon="-2.82943">
        <ele>50.2</ele>
        <time>2021-11-13T13:30:04Z</time>
      </trkpt>
      <trkpt lat="47.54714" lon="-2.82949">
        <ele>50.2</ele>
        <time>2021-11-13T13:30:06Z</time>
      </trkpt>
      <trkpt lat="47.54706" lon="-2.8296">
        <ele>50.2</ele>
        <time>2021-11-13T13:30:09Z</time>
      </trkpt>
      <trkpt lat="47.54706" lon="-2.82965">
        <ele>50.2</ele>
        <time>2021-11-13T13:30:10Z</time>
      </trkpt>
      <trkpt lat="47.54712" lon="-2.82978">
        <ele>50.2</ele>
        <time>2021-11-13T13:30:13Z</time>
      </trkpt>
      <trkpt lat="47.5472" lon="-2.82984">
        <ele>50</ele>
        <time>2021-11-13T13:30:16Z</time>
      </trkpt>
      <trkpt lat="47.54722" lon="-2.82987">
        <ele>50</ele>
        <time>2021-11-13T13:30:17Z</time>
      </trkpt>
      <trkpt lat="47.54728" lon="-2.83002">
        <ele>49.8</ele>
        <time>2021-11-13T13:30:22Z</time>
      </trkpt>
      <trkpt lat="47.54728" lon="-2.83009">
        <ele>50</ele>
        <time>2021-11-13T13:30:27Z</time>
      </trkpt>
      <trkpt lat="47.54728" lon="-2.83011">
        <ele>50</ele>
        <time>2021-11-13T13:30:28Z</time>
      </trkpt>
      <trkpt lat="47.54728" lon="-2.83014">
        <ele>50</ele>
        <time>2021-11-13T13:30:30Z</time>
      </trkpt>
      <trkpt lat="47.54728" lon="-2.83015">
        <ele>50</ele>
        <time>2021-11-13T13:30:32Z</time>
      </trkpt>
      <trkpt lat="47.54727" lon="-2.83016">
        <ele>49.8</ele>
        <time>2021-11-13T13:30:39Z</time>
      </trkpt>
      <trkpt lat="47.54726" lon="-2.83019">
        <ele>49.4</ele>
        <time>2021-11-13T13:30:46Z</time>
      </trkpt>
      <trkpt lat="47.54726" lon="-2.8302">
        <ele>49.2</ele>
        <time>2021-11-13T13:30:47Z</time>
      </trkpt>
      <trkpt lat="47.54724" lon="-2.83023">
        <ele>48.8</ele>
        <time>2021-11-13T13:30:52Z</time>
      </trkpt>
      <trkpt lat="47.54721" lon="-2.83034">
        <ele>48.4</ele>
        <time>2021-11-13T13:30:55Z</time>
      </trkpt>
      <trkpt lat="47.54721" lon="-2.83048">
        <ele>48.2</ele>
        <time>2021-11-13T13:30:58Z</time>
      </trkpt>
      <trkpt lat="47.5472" lon="-2.83068">
        <ele>47.6</ele>
        <time>2021-11-13T13:31:03Z</time>
      </trkpt>
      <trkpt lat="47.54719" lon="-2.83076">
        <ele>47.6</ele>
        <time>2021-11-13T13:31:05Z</time>
      </trkpt>
      <trkpt lat="47.54716" lon="-2.83086">
        <ele>47.4</ele>
        <time>2021-11-13T13:31:08Z</time>
      </trkpt>
      <trkpt lat="47.5471" lon="-2.83092">
        <ele>47.2</ele>
        <time>2021-11-13T13:31:11Z</time>
      </trkpt>
      <trkpt lat="47.547" lon="-2.83105">
        <ele>47</ele>
        <time>2021-11-13T13:31:17Z</time>
      </trkpt>
      <trkpt lat="47.54699" lon="-2.83106">
        <ele>47</ele>
        <time>2021-11-13T13:31:18Z</time>
      </trkpt>
      <trkpt lat="47.54694" lon="-2.8311">
        <ele>47</ele>
        <time>2021-11-13T13:31:21Z</time>
      </trkpt>
      <trkpt lat="47.54693" lon="-2.83111">
        <ele>46.8</ele>
        <time>2021-11-13T13:31:22Z</time>
      </trkpt>
      <trkpt lat="47.54692" lon="-2.83112">
        <ele>46.8</ele>
        <time>2021-11-13T13:31:23Z</time>
      </trkpt>
      <trkpt lat="47.5469" lon="-2.83112">
        <ele>46.6</ele>
        <time>2021-11-13T13:31:26Z</time>
      </trkpt>
      <trkpt lat="47.5469" lon="-2.83112">
        <ele>46.4</ele>
        <time>2021-11-13T13:31:28Z</time>
      </trkpt>
      <trkpt lat="47.54689" lon="-2.83114">
        <ele>45.8</ele>
        <time>2021-11-13T13:31:35Z</time>
      </trkpt>
      <trkpt lat="47.54688" lon="-2.83117">
        <ele>45.4</ele>
        <time>2021-11-13T13:31:39Z</time>
      </trkpt>
      <trkpt lat="47.54686" lon="-2.8312">
        <ele>45</ele>
        <time>2021-11-13T13:31:42Z</time>
      </trkpt>
      <trkpt lat="47.54678" lon="-2.83132">
        <ele>44.6</ele>
        <time>2021-11-13T13:31:52Z</time>
      </trkpt>
      <trkpt lat="47.54678" lon="-2.83133">
        <ele>44.6</ele>
        <time>2021-11-13T13:31:53Z</time>
      </trkpt>
      <trkpt lat="47.54666" lon="-2.83147">
        <ele>45</ele>
        <time>2021-11-13T13:32:05Z</time>
      </trkpt>
      <trkpt lat="47.5466" lon="-2.83156">
        <ele>45.2</ele>
        <time>2021-11-13T13:32:13Z</time>
      </trkpt>
      <trkpt lat="47.54653" lon="-2.83163">
        <ele>45</ele>
        <time>2021-11-13T13:32:22Z</time>
      </trkpt>
      <trkpt lat="47.54651" lon="-2.83162">
        <ele>45</ele>
        <time>2021-11-13T13:32:26Z</time>
      </trkpt>
      <trkpt lat="47.5465" lon="-2.83163">
        <ele>45</ele>
        <time>2021-11-13T13:32:27Z</time>
      </trkpt>
      <trkpt lat="47.54644" lon="-2.8317">
        <ele>44.4</ele>
        <time>2021-11-13T13:32:35Z</time>
      </trkpt>
      <trkpt lat="47.54642" lon="-2.83173">
        <ele>43.8</ele>
        <time>2021-11-13T13:32:39Z</time>
      </trkpt>
      <trkpt lat="47.54642" lon="-2.83173">
        <ele>43.6</ele>
        <time>2021-11-13T13:32:43Z</time>
      </trkpt>
      <trkpt lat="47.54641" lon="-2.83175">
        <ele>43.6</ele>
        <time>2021-11-13T13:32:47Z</time>
      </trkpt>
      <trkpt lat="47.54639" lon="-2.83178">
        <ele>43.6</ele>
        <time>2021-11-13T13:32:50Z</time>
      </trkpt>
      <trkpt lat="47.54638" lon="-2.83181">
        <ele>43.2</ele>
        <time>2021-11-13T13:32:58Z</time>
      </trkpt>
      <trkpt lat="47.54637" lon="-2.83182">
        <ele>43.2</ele>
        <time>2021-11-13T13:32:59Z</time>
      </trkpt>
      <trkpt lat="47.54637" lon="-2.83182">
        <ele>43.2</ele>
        <time>2021-11-13T13:33:03Z</time>
      </trkpt>
      <trkpt lat="47.54637" lon="-2.83183">
        <ele>43.2</ele>
        <time>2021-11-13T13:33:07Z</time>
      </trkpt>
      <trkpt lat="47.54633" lon="-2.83188">
        <ele>43.4</ele>
        <time>2021-11-13T13:33:11Z</time>
      </trkpt>
      <trkpt lat="47.54631" lon="-2.8319">
        <ele>43.4</ele>
        <time>2021-11-13T13:33:13Z</time>
      </trkpt>
      <trkpt lat="47.54626" lon="-2.83196">
        <ele>43.4</ele>
        <time>2021-11-13T13:33:18Z</time>
      </trkpt>
      <trkpt lat="47.54625" lon="-2.83197">
        <ele>43.4</ele>
        <time>2021-11-13T13:33:23Z</time>
      </trkpt>
      <trkpt lat="47.54623" lon="-2.83198">
        <ele>43.8</ele>
        <time>2021-11-13T13:33:31Z</time>
      </trkpt>
      <trkpt lat="47.54623" lon="-2.83198">
        <ele>43.8</ele>
        <time>2021-11-13T13:33:34Z</time>
      </trkpt>
      <trkpt lat="47.54622" lon="-2.83199">
        <ele>43.6</ele>
        <time>2021-11-13T13:33:38Z</time>
      </trkpt>
      <trkpt lat="47.54622" lon="-2.83199">
        <ele>43.4</ele>
        <time>2021-11-13T13:33:40Z</time>
      </trkpt>
      <trkpt lat="47.54618" lon="-2.83203">
        <ele>43</ele>
        <time>2021-11-13T13:33:43Z</time>
      </trkpt>
      <trkpt lat="47.54616" lon="-2.83205">
        <ele>43</ele>
        <time>2021-11-13T13:33:44Z</time>
      </trkpt>
      <trkpt lat="47.54608" lon="-2.83216">
        <ele>42.6</ele>
        <time>2021-11-13T13:33:49Z</time>
      </trkpt>
      <trkpt lat="47.54602" lon="-2.8323">
        <ele>42</ele>
        <time>2021-11-13T13:33:56Z</time>
      </trkpt>
      <trkpt lat="47.54601" lon="-2.83232">
        <ele>41.8</ele>
        <time>2021-11-13T13:33:57Z</time>
      </trkpt>
      <trkpt lat="47.54597" lon="-2.8324">
        <ele>41.6</ele>
        <time>2021-11-13T13:34:02Z</time>
      </trkpt>
      <trkpt lat="47.54594" lon="-2.83244">
        <ele>41.4</ele>
        <time>2021-11-13T13:34:05Z</time>
      </trkpt>
      <trkpt lat="47.54593" lon="-2.83247">
        <ele>41.6</ele>
        <time>2021-11-13T13:34:07Z</time>
      </trkpt>
      <trkpt lat="47.5459" lon="-2.83253">
        <ele>41.4</ele>
        <time>2021-11-13T13:34:11Z</time>
      </trkpt>
      <trkpt lat="47.54588" lon="-2.83256">
        <ele>41</ele>
        <time>2021-11-13T13:34:16Z</time>
      </trkpt>
      <trkpt lat="47.54586" lon="-2.83258">
        <ele>41</ele>
        <time>2021-11-13T13:34:18Z</time>
      </trkpt>
      <trkpt lat="47.54585" lon="-2.83262">
        <ele>40.8</ele>
        <time>2021-11-13T13:34:20Z</time>
      </trkpt>
      <trkpt lat="47.5458" lon="-2.83267">
        <ele>40.8</ele>
        <time>2021-11-13T13:34:25Z</time>
      </trkpt>
      <trkpt lat="47.54576" lon="-2.83276">
        <ele>40.8</ele>
        <time>2021-11-13T13:34:32Z</time>
      </trkpt>
      <trkpt lat="47.54574" lon="-2.8328">
        <ele>41</ele>
        <time>2021-11-13T13:34:38Z</time>
      </trkpt>
      <trkpt lat="47.54572" lon="-2.83284">
        <ele>41</ele>
        <time>2021-11-13T13:34:39Z</time>
      </trkpt>
      <trkpt lat="47.54563" lon="-2.83308">
        <ele>41.2</ele>
        <time>2021-11-13T13:34:45Z</time>
      </trkpt>
      <trkpt lat="47.54561" lon="-2.83312">
        <ele>41.2</ele>
        <time>2021-11-13T13:34:47Z</time>
      </trkpt>
      <trkpt lat="47.54561" lon="-2.83316">
        <ele>41.2</ele>
        <time>2021-11-13T13:34:49Z</time>
      </trkpt>
      <trkpt lat="47.54561" lon="-2.83319">
        <ele>41.2</ele>
        <time>2021-11-13T13:34:50Z</time>
      </trkpt>
      <trkpt lat="47.54559" lon="-2.83333">
        <ele>41.2</ele>
        <time>2021-11-13T13:34:54Z</time>
      </trkpt>
      <trkpt lat="47.54558" lon="-2.83339">
        <ele>41.2</ele>
        <time>2021-11-13T13:34:56Z</time>
      </trkpt>
      <trkpt lat="47.54559" lon="-2.83345">
        <ele>40.8</ele>
        <time>2021-11-13T13:34:58Z</time>
      </trkpt>
      <trkpt lat="47.54557" lon="-2.83358">
        <ele>40.6</ele>
        <time>2021-11-13T13:35:02Z</time>
      </trkpt>
      <trkpt lat="47.54557" lon="-2.83362">
        <ele>40.6</ele>
        <time>2021-11-13T13:35:03Z</time>
      </trkpt>
      <trkpt lat="47.54558" lon="-2.83375">
        <ele>40.4</ele>
        <time>2021-11-13T13:35:07Z</time>
      </trkpt>
      <trkpt lat="47.54555" lon="-2.83383">
        <ele>40.4</ele>
        <time>2021-11-13T13:35:10Z</time>
      </trkpt>
      <trkpt lat="47.54556" lon="-2.83387">
        <ele>40.2</ele>
        <time>2021-11-13T13:35:12Z</time>
      </trkpt>
      <trkpt lat="47.54558" lon="-2.83393">
        <ele>40.2</ele>
        <time>2021-11-13T13:35:14Z</time>
      </trkpt>
      <trkpt lat="47.54559" lon="-2.83398">
        <ele>40</ele>
        <time>2021-11-13T13:35:16Z</time>
      </trkpt>
      <trkpt lat="47.54561" lon="-2.83408">
        <ele>39.8</ele>
        <time>2021-11-13T13:35:18Z</time>
      </trkpt>
      <trkpt lat="47.54562" lon="-2.8342">
        <ele>39.6</ele>
        <time>2021-11-13T13:35:21Z</time>
      </trkpt>
      <trkpt lat="47.5457" lon="-2.8345">
        <ele>39.4</ele>
        <time>2021-11-13T13:35:28Z</time>
      </trkpt>
      <trkpt lat="47.54571" lon="-2.83456">
        <ele>39.4</ele>
        <time>2021-11-13T13:35:30Z</time>
      </trkpt>
      <trkpt lat="47.54572" lon="-2.83462">
        <ele>39.6</ele>
        <time>2021-11-13T13:35:32Z</time>
      </trkpt>
      <trkpt lat="47.54578" lon="-2.83479">
        <ele>39.8</ele>
        <time>2021-11-13T13:35:38Z</time>
      </trkpt>
      <trkpt lat="47.54586" lon="-2.83495">
        <ele>40</ele>
        <time>2021-11-13T13:35:45Z</time>
      </trkpt>
      <trkpt lat="47.54589" lon="-2.835">
        <ele>40</ele>
        <time>2021-11-13T13:35:47Z</time>
      </trkpt>
      <trkpt lat="47.54592" lon="-2.83506">
        <ele>40</ele>
        <time>2021-11-13T13:35:50Z</time>
      </trkpt>
      <trkpt lat="47.54593" lon="-2.83507">
        <ele>40</ele>
        <time>2021-11-13T13:35:51Z</time>
      </trkpt>
      <trkpt lat="47.54597" lon="-2.8351">
        <ele>39.8</ele>
        <time>2021-11-13T13:35:54Z</time>
      </trkpt>
      <trkpt lat="47.54603" lon="-2.83514">
        <ele>39.6</ele>
        <time>2021-11-13T13:35:58Z</time>
      </trkpt>
      <trkpt lat="47.54603" lon="-2.83518">
        <ele>39.6</ele>
        <time>2021-11-13T13:36:00Z</time>
      </trkpt>
      <trkpt lat="47.54599" lon="-2.83522">
        <ele>39.4</ele>
        <time>2021-11-13T13:36:06Z</time>
      </trkpt>
      <trkpt lat="47.54596" lon="-2.83533">
        <ele>39.2</ele>
        <time>2021-11-13T13:36:14Z</time>
      </trkpt>
      <trkpt lat="47.54594" lon="-2.83537">
        <ele>38.8</ele>
        <time>2021-11-13T13:36:17Z</time>
      </trkpt>
      <trkpt lat="47.54594" lon="-2.83538">
        <ele>38.8</ele>
        <time>2021-11-13T13:36:18Z</time>
      </trkpt>
      <trkpt lat="47.54591" lon="-2.83541">
        <ele>38.6</ele>
        <time>2021-11-13T13:36:22Z</time>
      </trkpt>
      <trkpt lat="47.54588" lon="-2.8354">
        <ele>38.4</ele>
        <time>2021-11-13T13:36:29Z</time>
      </trkpt>
      <trkpt lat="47.54583" lon="-2.83541">
        <ele>38.2</ele>
        <time>2021-11-13T13:36:35Z</time>
      </trkpt>
      <trkpt lat="47.54582" lon="-2.83541">
        <ele>38</ele>
        <time>2021-11-13T13:36:36Z</time>
      </trkpt>
      <trkpt lat="47.54574" lon="-2.83541">
        <ele>37.6</ele>
        <time>2021-11-13T13:36:43Z</time>
      </trkpt>
      <trkpt lat="47.54573" lon="-2.83542">
        <ele>37.6</ele>
        <time>2021-11-13T13:36:47Z</time>
      </trkpt>
      <trkpt lat="47.54573" lon="-2.83542">
        <ele>37.6</ele>
        <time>2021-11-13T13:36:48Z</time>
      </trkpt>
      <trkpt lat="47.54573" lon="-2.83542">
        <ele>37.6</ele>
        <time>2021-11-13T13:36:55Z</time>
      </trkpt>
      <trkpt lat="47.54573" lon="-2.83542">
        <ele>39</ele>
        <time>2021-11-13T13:37:10Z</time>
      </trkpt>
      <trkpt lat="47.54568" lon="-2.83546">
        <ele>40</ele>
        <time>2021-11-13T13:37:27Z</time>
      </trkpt>
      <trkpt lat="47.54562" lon="-2.83552">
        <ele>40</ele>
        <time>2021-11-13T13:37:33Z</time>
      </trkpt>
      <trkpt lat="47.54555" lon="-2.83555">
        <ele>40</ele>
        <time>2021-11-13T13:37:40Z</time>
      </trkpt>
      <trkpt lat="47.54553" lon="-2.83557">
        <ele>40</ele>
        <time>2021-11-13T13:37:42Z</time>
      </trkpt>
      <trkpt lat="47.54552" lon="-2.83558">
        <ele>40</ele>
        <time>2021-11-13T13:37:43Z</time>
      </trkpt>
      <trkpt lat="47.54551" lon="-2.8356">
        <ele>40.2</ele>
        <time>2021-11-13T13:37:45Z</time>
      </trkpt>
      <trkpt lat="47.54547" lon="-2.83565">
        <ele>40.2</ele>
        <time>2021-11-13T13:37:49Z</time>
      </trkpt>
      <trkpt lat="47.54541" lon="-2.83572">
        <ele>40.2</ele>
        <time>2021-11-13T13:37:56Z</time>
      </trkpt>
      <trkpt lat="47.5454" lon="-2.83572">
        <ele>40.2</ele>
        <time>2021-11-13T13:37:57Z</time>
      </trkpt>
      <trkpt lat="47.54539" lon="-2.83572">
        <ele>40.2</ele>
        <time>2021-11-13T13:37:58Z</time>
      </trkpt>
      <trkpt lat="47.54536" lon="-2.83575">
        <ele>40.2</ele>
        <time>2021-11-13T13:38:03Z</time>
      </trkpt>
      <trkpt lat="47.54535" lon="-2.83575">
        <ele>39.6</ele>
        <time>2021-11-13T13:38:11Z</time>
      </trkpt>
      <trkpt lat="47.54534" lon="-2.83575">
        <ele>39.4</ele>
        <time>2021-11-13T13:38:18Z</time>
      </trkpt>
      <trkpt lat="47.54532" lon="-2.83579">
        <ele>39.4</ele>
        <time>2021-11-13T13:38:20Z</time>
      </trkpt>
      <trkpt lat="47.54522" lon="-2.83597">
        <ele>40</ele>
        <time>2021-11-13T13:38:26Z</time>
      </trkpt>
      <trkpt lat="47.54511" lon="-2.83615">
        <ele>40.4</ele>
        <time>2021-11-13T13:38:33Z</time>
      </trkpt>
      <trkpt lat="47.54493" lon="-2.83621">
        <ele>40.6</ele>
        <time>2021-11-13T13:38:41Z</time>
      </trkpt>
      <trkpt lat="47.54481" lon="-2.83617">
        <ele>40.8</ele>
        <time>2021-11-13T13:38:47Z</time>
      </trkpt>
      <trkpt lat="47.54462" lon="-2.83613">
        <ele>40.4</ele>
        <time>2021-11-13T13:38:55Z</time>
      </trkpt>
      <trkpt lat="47.54447" lon="-2.83611">
        <ele>40.2</ele>
        <time>2021-11-13T13:39:01Z</time>
      </trkpt>
      <trkpt lat="47.54423" lon="-2.83594">
        <ele>40.4</ele>
        <time>2021-11-13T13:39:09Z</time>
      </trkpt>
      <trkpt lat="47.54401" lon="-2.83584">
        <ele>40.6</ele>
        <time>2021-11-13T13:39:17Z</time>
      </trkpt>
      <trkpt lat="47.54368" lon="-2.83573">
        <ele>40.4</ele>
        <time>2021-11-13T13:39:28Z</time>
      </trkpt>
      <trkpt lat="47.54349" lon="-2.83567">
        <ele>40.2</ele>
        <time>2021-11-13T13:39:34Z</time>
      </trkpt>
      <trkpt lat="47.54327" lon="-2.83559">
        <ele>39.8</ele>
        <time>2021-11-13T13:39:41Z</time>
      </trkpt>
      <trkpt lat="47.54296" lon="-2.83547">
        <ele>39.2</ele>
        <time>2021-11-13T13:39:49Z</time>
      </trkpt>
      <trkpt lat="47.54282" lon="-2.83541">
        <ele>38.8</ele>
        <time>2021-11-13T13:39:53Z</time>
      </trkpt>
      <trkpt lat="47.5427" lon="-2.83536">
        <ele>38.6</ele>
        <time>2021-11-13T13:39:56Z</time>
      </trkpt>
      <trkpt lat="47.54243" lon="-2.83526">
        <ele>37.8</ele>
        <time>2021-11-13T13:40:03Z</time>
      </trkpt>
      <trkpt lat="47.54238" lon="-2.83525">
        <ele>37.8</ele>
        <time>2021-11-13T13:40:04Z</time>
      </trkpt>
      <trkpt lat="47.54226" lon="-2.83518">
        <ele>37.2</ele>
        <time>2021-11-13T13:40:07Z</time>
      </trkpt>
      <trkpt lat="47.5422" lon="-2.83513">
        <ele>37</ele>
        <time>2021-11-13T13:40:09Z</time>
      </trkpt>
      <trkpt lat="47.54213" lon="-2.83507">
        <ele>36.8</ele>
        <time>2021-11-13T13:40:11Z</time>
      </trkpt>
      <trkpt lat="47.5421" lon="-2.83504">
        <ele>36.8</ele>
        <time>2021-11-13T13:40:12Z</time>
      </trkpt>
      <trkpt lat="47.54206" lon="-2.83502">
        <ele>36.6</ele>
        <time>2021-11-13T13:40:13Z</time>
      </trkpt>
      <trkpt lat="47.54201" lon="-2.83504">
        <ele>36.2</ele>
        <time>2021-11-13T13:40:15Z</time>
      </trkpt>
      <trkpt lat="47.542" lon="-2.83505">
        <ele>36</ele>
        <time>2021-11-13T13:40:16Z</time>
      </trkpt>
      <trkpt lat="47.542" lon="-2.83509">
        <ele>35.6</ele>
        <time>2021-11-13T13:40:17Z</time>
      </trkpt>
      <trkpt lat="47.54201" lon="-2.83513">
        <ele>35.6</ele>
        <time>2021-11-13T13:40:18Z</time>
      </trkpt>
      <trkpt lat="47.54212" lon="-2.83538">
        <ele>34.4</ele>
        <time>2021-11-13T13:40:24Z</time>
      </trkpt>
      <trkpt lat="47.54223" lon="-2.83568">
        <ele>34</ele>
        <time>2021-11-13T13:40:30Z</time>
      </trkpt>
      <trkpt lat="47.54235" lon="-2.83601">
        <ele>33.8</ele>
        <time>2021-11-13T13:40:37Z</time>
      </trkpt>
      <trkpt lat="47.54242" lon="-2.83624">
        <ele>34</ele>
        <time>2021-11-13T13:40:42Z</time>
      </trkpt>
      <trkpt lat="47.54244" lon="-2.83667">
        <ele>34.6</ele>
        <time>2021-11-13T13:40:50Z</time>
      </trkpt>
      <trkpt lat="47.54244" lon="-2.83673">
        <ele>34.6</ele>
        <time>2021-11-13T13:40:51Z</time>
      </trkpt>
      <trkpt lat="47.54239" lon="-2.83715">
        <ele>34.6</ele>
        <time>2021-11-13T13:40:58Z</time>
      </trkpt>
      <trkpt lat="47.54232" lon="-2.83756">
        <ele>34.8</ele>
        <time>2021-11-13T13:41:05Z</time>
      </trkpt>
      <trkpt lat="47.54227" lon="-2.83778">
        <ele>35.4</ele>
        <time>2021-11-13T13:41:09Z</time>
      </trkpt>
      <trkpt lat="47.54224" lon="-2.83789">
        <ele>35.4</ele>
        <time>2021-11-13T13:41:11Z</time>
      </trkpt>
      <trkpt lat="47.5421" lon="-2.8384">
        <ele>36.2</ele>
        <time>2021-11-13T13:41:19Z</time>
      </trkpt>
      <trkpt lat="47.54205" lon="-2.83861">
        <ele>36.2</ele>
        <time>2021-11-13T13:41:22Z</time>
      </trkpt>
      <trkpt lat="47.54202" lon="-2.83875">
        <ele>36.4</ele>
        <time>2021-11-13T13:41:24Z</time>
      </trkpt>
      <trkpt lat="47.54202" lon="-2.83888">
        <ele>36.6</ele>
        <time>2021-11-13T13:41:26Z</time>
      </trkpt>
      <trkpt lat="47.54206" lon="-2.83907">
        <ele>37</ele>
        <time>2021-11-13T13:41:29Z</time>
      </trkpt>
      <trkpt lat="47.54207" lon="-2.83913">
        <ele>37.2</ele>
        <time>2021-11-13T13:41:30Z</time>
      </trkpt>
      <trkpt lat="47.54219" lon="-2.83953">
        <ele>37.8</ele>
        <time>2021-11-13T13:41:37Z</time>
      </trkpt>
      <trkpt lat="47.5422" lon="-2.83961">
        <ele>37.8</ele>
        <time>2021-11-13T13:41:38Z</time>
      </trkpt>
      <trkpt lat="47.54225" lon="-2.83997">
        <ele>38.2</ele>
        <time>2021-11-13T13:41:43Z</time>
      </trkpt>
      <trkpt lat="47.54227" lon="-2.84019">
        <ele>38.6</ele>
        <time>2021-11-13T13:41:46Z</time>
      </trkpt>
      <trkpt lat="47.54232" lon="-2.84059">
        <ele>39</ele>
        <time>2021-11-13T13:41:51Z</time>
      </trkpt>
      <trkpt lat="47.54233" lon="-2.84074">
        <ele>39.2</ele>
        <time>2021-11-13T13:41:53Z</time>
      </trkpt>
      <trkpt lat="47.54234" lon="-2.84081">
        <ele>39.2</ele>
        <time>2021-11-13T13:41:54Z</time>
      </trkpt>
      <trkpt lat="47.54238" lon="-2.84109">
        <ele>39.8</ele>
        <time>2021-11-13T13:41:58Z</time>
      </trkpt>
      <trkpt lat="47.54241" lon="-2.84122">
        <ele>39.8</ele>
        <time>2021-11-13T13:42:00Z</time>
      </trkpt>
      <trkpt lat="47.54248" lon="-2.84157">
        <ele>40.4</ele>
        <time>2021-11-13T13:42:05Z</time>
      </trkpt>
      <trkpt lat="47.54255" lon="-2.84196">
        <ele>40.8</ele>
        <time>2021-11-13T13:42:10Z</time>
      </trkpt>
      <trkpt lat="47.54257" lon="-2.84205">
        <ele>41</ele>
        <time>2021-11-13T13:42:11Z</time>
      </trkpt>
      <trkpt lat="47.54266" lon="-2.84243">
        <ele>41</ele>
        <time>2021-11-13T13:42:16Z</time>
      </trkpt>
      <trkpt lat="47.54269" lon="-2.84258">
        <ele>41.2</ele>
        <time>2021-11-13T13:42:18Z</time>
      </trkpt>
      <trkpt lat="47.54271" lon="-2.84266">
        <ele>41.2</ele>
        <time>2021-11-13T13:42:19Z</time>
      </trkpt>
      <trkpt lat="47.54272" lon="-2.84283">
        <ele>41.2</ele>
        <time>2021-11-13T13:42:21Z</time>
      </trkpt>
      <trkpt lat="47.54278" lon="-2.84352">
        <ele>42</ele>
        <time>2021-11-13T13:42:30Z</time>
      </trkpt>
      <trkpt lat="47.54279" lon="-2.84407">
        <ele>42</ele>
        <time>2021-11-13T13:42:38Z</time>
      </trkpt>
      <trkpt lat="47.54279" lon="-2.84421">
        <ele>42.2</ele>
        <time>2021-11-13T13:42:40Z</time>
      </trkpt>
      <trkpt lat="47.54281" lon="-2.84432">
        <ele>42.2</ele>
        <time>2021-11-13T13:42:42Z</time>
      </trkpt>
      <trkpt lat="47.54284" lon="-2.84438">
        <ele>42.2</ele>
        <time>2021-11-13T13:42:43Z</time>
      </trkpt>
      <trkpt lat="47.54287" lon="-2.8444">
        <ele>42.2</ele>
        <time>2021-11-13T13:42:44Z</time>
      </trkpt>
      <trkpt lat="47.54295" lon="-2.84443">
        <ele>42.4</ele>
        <time>2021-11-13T13:42:46Z</time>
      </trkpt>
      <trkpt lat="47.54301" lon="-2.84445">
        <ele>42.4</ele>
        <time>2021-11-13T13:42:47Z</time>
      </trkpt>
      <trkpt lat="47.54326" lon="-2.84453">
        <ele>42.6</ele>
        <time>2021-11-13T13:42:52Z</time>
      </trkpt>
      <trkpt lat="47.54356" lon="-2.84463">
        <ele>42.6</ele>
        <time>2021-11-13T13:42:58Z</time>
      </trkpt>
      <trkpt lat="47.5436" lon="-2.84466">
        <ele>42.6</ele>
        <time>2021-11-13T13:42:59Z</time>
      </trkpt>
      <trkpt lat="47.5437" lon="-2.8447">
        <ele>42.6</ele>
        <time>2021-11-13T13:43:01Z</time>
      </trkpt>
      <trkpt lat="47.54384" lon="-2.84479">
        <ele>42.8</ele>
        <time>2021-11-13T13:43:04Z</time>
      </trkpt>
      <trkpt lat="47.54414" lon="-2.84489">
        <ele>43</ele>
        <time>2021-11-13T13:43:10Z</time>
      </trkpt>
      <trkpt lat="47.54419" lon="-2.8449">
        <ele>43</ele>
        <time>2021-11-13T13:43:11Z</time>
      </trkpt>
      <trkpt lat="47.54433" lon="-2.84492">
        <ele>43</ele>
        <time>2021-11-13T13:43:14Z</time>
      </trkpt>
      <trkpt lat="47.54439" lon="-2.84493">
        <ele>43</ele>
        <time>2021-11-13T13:43:15Z</time>
      </trkpt>
      <trkpt lat="47.54471" lon="-2.84496">
        <ele>43.2</ele>
        <time>2021-11-13T13:43:21Z</time>
      </trkpt>
      <trkpt lat="47.5448" lon="-2.84496">
        <ele>43.2</ele>
        <time>2021-11-13T13:43:23Z</time>
      </trkpt>
      <trkpt lat="47.54492" lon="-2.84496">
        <ele>43.2</ele>
        <time>2021-11-13T13:43:25Z</time>
      </trkpt>
      <trkpt lat="47.54516" lon="-2.84497">
        <ele>43.2</ele>
        <time>2021-11-13T13:43:30Z</time>
      </trkpt>
      <trkpt lat="47.5452" lon="-2.84499">
        <ele>43.2</ele>
        <time>2021-11-13T13:43:31Z</time>
      </trkpt>
      <trkpt lat="47.54525" lon="-2.84502">
        <ele>43.2</ele>
        <time>2021-11-13T13:43:32Z</time>
      </trkpt>
      <trkpt lat="47.54535" lon="-2.84516">
        <ele>43.2</ele>
        <time>2021-11-13T13:43:35Z</time>
      </trkpt>
      <trkpt lat="47.54541" lon="-2.84526">
        <ele>43</ele>
        <time>2021-11-13T13:43:37Z</time>
      </trkpt>
      <trkpt lat="47.54554" lon="-2.84553">
        <ele>43.2</ele>
        <time>2021-11-13T13:43:42Z</time>
      </trkpt>
      <trkpt lat="47.54575" lon="-2.84579">
        <ele>43.2</ele>
        <time>2021-11-13T13:43:48Z</time>
      </trkpt>
      <trkpt lat="47.54597" lon="-2.84606">
        <ele>43</ele>
        <time>2021-11-13T13:43:54Z</time>
      </trkpt>
      <trkpt lat="47.54603" lon="-2.84613">
        <ele>42.8</ele>
        <time>2021-11-13T13:43:56Z</time>
      </trkpt>
      <trkpt lat="47.54607" lon="-2.84617">
        <ele>42.8</ele>
        <time>2021-11-13T13:43:57Z</time>
      </trkpt>
      <trkpt lat="47.54624" lon="-2.84629">
        <ele>42.6</ele>
        <time>2021-11-13T13:44:01Z</time>
      </trkpt>
      <trkpt lat="47.54629" lon="-2.8463">
        <ele>42.6</ele>
        <time>2021-11-13T13:44:02Z</time>
      </trkpt>
      <trkpt lat="47.54638" lon="-2.8463">
        <ele>42.6</ele>
        <time>2021-11-13T13:44:04Z</time>
      </trkpt>
      <trkpt lat="47.54652" lon="-2.84625">
        <ele>42.8</ele>
        <time>2021-11-13T13:44:07Z</time>
      </trkpt>
      <trkpt lat="47.5466" lon="-2.84622">
        <ele>42.8</ele>
        <time>2021-11-13T13:44:09Z</time>
      </trkpt>
      <trkpt lat="47.54668" lon="-2.84618">
        <ele>42.8</ele>
        <time>2021-11-13T13:44:11Z</time>
      </trkpt>
      <trkpt lat="47.54672" lon="-2.84616">
        <ele>42.8</ele>
        <time>2021-11-13T13:44:12Z</time>
      </trkpt>
      <trkpt lat="47.54678" lon="-2.84609">
        <ele>43</ele>
        <time>2021-11-13T13:44:14Z</time>
      </trkpt>
      <trkpt lat="47.54689" lon="-2.84602">
        <ele>43</ele>
        <time>2021-11-13T13:44:17Z</time>
      </trkpt>
      <trkpt lat="47.54704" lon="-2.84594">
        <ele>43.2</ele>
        <time>2021-11-13T13:44:21Z</time>
      </trkpt>
      <trkpt lat="47.54707" lon="-2.84591">
        <ele>43.2</ele>
        <time>2021-11-13T13:44:22Z</time>
      </trkpt>
      <trkpt lat="47.5472" lon="-2.84585">
        <ele>43.4</ele>
        <time>2021-11-13T13:44:27Z</time>
      </trkpt>
      <trkpt lat="47.54727" lon="-2.84592">
        <ele>43.4</ele>
        <time>2021-11-13T13:44:31Z</time>
      </trkpt>
      <trkpt lat="47.54729" lon="-2.84594">
        <ele>43.4</ele>
        <time>2021-11-13T13:44:32Z</time>
      </trkpt>
      <trkpt lat="47.54741" lon="-2.84601">
        <ele>43.4</ele>
        <time>2021-11-13T13:44:37Z</time>
      </trkpt>
      <trkpt lat="47.54756" lon="-2.84613">
        <ele>43.2</ele>
        <time>2021-11-13T13:44:44Z</time>
      </trkpt>
      <trkpt lat="47.54757" lon="-2.84614">
        <ele>43.4</ele>
        <time>2021-11-13T13:44:49Z</time>
      </trkpt>
      <trkpt lat="47.54757" lon="-2.84614">
        <ele>44.2</ele>
        <time>2021-11-13T13:44:58Z</time>
      </trkpt>
      <trkpt lat="47.54757" lon="-2.84614">
        <ele>44.6</ele>
        <time>2021-11-13T13:45:07Z</time>
      </trkpt>
      <trkpt lat="47.54757" lon="-2.84614">
        <ele>45.6</ele>
        <time>2021-11-13T13:45:16Z</time>
      </trkpt>
      <trkpt lat="47.54757" lon="-2.84614">
        <ele>46.8</ele>
        <time>2021-11-13T13:45:29Z</time>
      </trkpt>
      <trkpt lat="47.54757" lon="-2.84614">
        <ele>47.8</ele>
        <time>2021-11-13T13:45:44Z</time>
      </trkpt>
      <trkpt lat="47.54757" lon="-2.84614">
        <ele>47.2</ele>
        <time>2021-11-13T13:47:00Z</time>
      </trkpt>
      <trkpt lat="47.54757" lon="-2.84614">
        <ele>47</ele>
        <time>2021-11-13T13:47:12Z</time>
      </trkpt>
      <trkpt lat="47.54757" lon="-2.84614">
        <ele>46.4</ele>
        <time>2021-11-13T13:47:25Z</time>
      </trkpt>
      <trkpt lat="47.54757" lon="-2.84614">
        <ele>45.6</ele>
        <time>2021-11-13T13:47:43Z</time>
      </trkpt>
      <trkpt lat="47.54757" lon="-2.84614">
        <ele>44.8</ele>
        <time>2021-11-13T13:48:14Z</time>
      </trkpt>
      <trkpt lat="47.54757" lon="-2.84614">
        <ele>43.8</ele>
        <time>2021-11-13T13:48:53Z</time>
      </trkpt>
      <trkpt lat="47.54757" lon="-2.84614">
        <ele>43</ele>
        <time>2021-11-13T13:49:16Z</time>
      </trkpt>
      <trkpt lat="47.54757" lon="-2.84614">
        <ele>42.6</ele>
        <time>2021-11-13T13:49:53Z</time>
      </trkpt>
      <trkpt lat="47.54757" lon="-2.84614">
        <ele>42</ele>
        <time>2021-11-13T13:50:01Z</time>
      </trkpt>
      <trkpt lat="47.54757" lon="-2.84614">
        <ele>41</ele>
        <time>2021-11-13T13:50:26Z</time>
      </trkpt>
      <trkpt lat="47.54757" lon="-2.84614">
        <ele>40</ele>
        <time>2021-11-13T13:50:56Z</time>
      </trkpt>
      <trkpt lat="47.54757" lon="-2.84614">
        <ele>39</ele>
        <time>2021-11-13T13:51:58Z</time>
      </trkpt>
      <trkpt lat="47.54751" lon="-2.84609">
        <ele>38.6</ele>
        <time>2021-11-13T13:52:02Z</time>
      </trkpt>
      <trkpt lat="47.54741" lon="-2.846">
        <ele>38</ele>
        <time>2021-11-13T13:52:07Z</time>
      </trkpt>
      <trkpt lat="47.54738" lon="-2.84598">
        <ele>37.8</ele>
        <time>2021-11-13T13:52:08Z</time>
      </trkpt>
      <trkpt lat="47.54722" lon="-2.84595">
        <ele>37.2</ele>
        <time>2021-11-13T13:52:14Z</time>
      </trkpt>
      <trkpt lat="47.54716" lon="-2.84599">
        <ele>37</ele>
        <time>2021-11-13T13:52:16Z</time>
      </trkpt>
      <trkpt lat="47.54702" lon="-2.84606">
        <ele>36</ele>
        <time>2021-11-13T13:52:20Z</time>
      </trkpt>
      <trkpt lat="47.54699" lon="-2.84607">
        <ele>35.8</ele>
        <time>2021-11-13T13:52:21Z</time>
      </trkpt>
      <trkpt lat="47.54678" lon="-2.84615">
        <ele>34.8</ele>
        <time>2021-11-13T13:52:27Z</time>
      </trkpt>
      <trkpt lat="47.54671" lon="-2.84618">
        <ele>34.6</ele>
        <time>2021-11-13T13:52:29Z</time>
      </trkpt>
      <trkpt lat="47.54638" lon="-2.84632">
        <ele>33.6</ele>
        <time>2021-11-13T13:52:38Z</time>
      </trkpt>
      <trkpt lat="47.54618" lon="-2.84629">
        <ele>33.4</ele>
        <time>2021-11-13T13:52:43Z</time>
      </trkpt>
      <trkpt lat="47.54602" lon="-2.84616">
        <ele>33.2</ele>
        <time>2021-11-13T13:52:47Z</time>
      </trkpt>
      <trkpt lat="47.54583" lon="-2.84592">
        <ele>33</ele>
        <time>2021-11-13T13:52:53Z</time>
      </trkpt>
      <trkpt lat="47.54571" lon="-2.84579">
        <ele>32.8</ele>
        <time>2021-11-13T13:52:57Z</time>
      </trkpt>
      <trkpt lat="47.54562" lon="-2.84566">
        <ele>32.6</ele>
        <time>2021-11-13T13:53:00Z</time>
      </trkpt>
      <trkpt lat="47.54556" lon="-2.8456">
        <ele>32.6</ele>
        <time>2021-11-13T13:53:02Z</time>
      </trkpt>
      <trkpt lat="47.54542" lon="-2.84535">
        <ele>32.6</ele>
        <time>2021-11-13T13:53:07Z</time>
      </trkpt>
      <trkpt lat="47.54537" lon="-2.84524">
        <ele>32.6</ele>
        <time>2021-11-13T13:53:09Z</time>
      </trkpt>
      <trkpt lat="47.54529" lon="-2.8451">
        <ele>32.4</ele>
        <time>2021-11-13T13:53:12Z</time>
      </trkpt>
      <trkpt lat="47.5452" lon="-2.84503">
        <ele>32.4</ele>
        <time>2021-11-13T13:53:14Z</time>
      </trkpt>
      <trkpt lat="47.54516" lon="-2.845">
        <ele>32.4</ele>
        <time>2021-11-13T13:53:15Z</time>
      </trkpt>
      <trkpt lat="47.54508" lon="-2.84499">
        <ele>32.2</ele>
        <time>2021-11-13T13:53:17Z</time>
      </trkpt>
      <trkpt lat="47.54504" lon="-2.845">
        <ele>32.2</ele>
        <time>2021-11-13T13:53:18Z</time>
      </trkpt>
      <trkpt lat="47.54479" lon="-2.84499">
        <ele>32.2</ele>
        <time>2021-11-13T13:53:25Z</time>
      </trkpt>
      <trkpt lat="47.5445" lon="-2.84497">
        <ele>32.2</ele>
        <time>2021-11-13T13:53:32Z</time>
      </trkpt>
      <trkpt lat="47.54426" lon="-2.84495">
        <ele>32.6</ele>
        <time>2021-11-13T13:53:38Z</time>
      </trkpt>
      <trkpt lat="47.5439" lon="-2.84485">
        <ele>33.2</ele>
        <time>2021-11-13T13:53:47Z</time>
      </trkpt>
      <trkpt lat="47.54383" lon="-2.84482">
        <ele>33.4</ele>
        <time>2021-11-13T13:53:49Z</time>
      </trkpt>
      <trkpt lat="47.54361" lon="-2.8447">
        <ele>34.2</ele>
        <time>2021-11-13T13:53:55Z</time>
      </trkpt>
      <trkpt lat="47.54346" lon="-2.84465">
        <ele>34.6</ele>
        <time>2021-11-13T13:53:59Z</time>
      </trkpt>
      <trkpt lat="47.54334" lon="-2.84461">
        <ele>34.8</ele>
        <time>2021-11-13T13:54:02Z</time>
      </trkpt>
      <trkpt lat="47.54313" lon="-2.84455">
        <ele>35.6</ele>
        <time>2021-11-13T13:54:07Z</time>
      </trkpt>
      <trkpt lat="47.54304" lon="-2.84452">
        <ele>35.4</ele>
        <time>2021-11-13T13:54:09Z</time>
      </trkpt>
      <trkpt lat="47.543" lon="-2.8445">
        <ele>35.6</ele>
        <time>2021-11-13T13:54:10Z</time>
      </trkpt>
      <trkpt lat="47.54287" lon="-2.84445">
        <ele>36.2</ele>
        <time>2021-11-13T13:54:14Z</time>
      </trkpt>
      <trkpt lat="47.54284" lon="-2.84442">
        <ele>36.4</ele>
        <time>2021-11-13T13:54:15Z</time>
      </trkpt>
      <trkpt lat="47.54278" lon="-2.84437">
        <ele>36.6</ele>
        <time>2021-11-13T13:54:17Z</time>
      </trkpt>
      <trkpt lat="47.5427" lon="-2.84438">
        <ele>36.6</ele>
        <time>2021-11-13T13:54:19Z</time>
      </trkpt>
      <trkpt lat="47.5424" lon="-2.84445">
        <ele>37.2</ele>
        <time>2021-11-13T13:54:26Z</time>
      </trkpt>
      <trkpt lat="47.54231" lon="-2.84446">
        <ele>37.4</ele>
        <time>2021-11-13T13:54:28Z</time>
      </trkpt>
      <trkpt lat="47.54198" lon="-2.84449">
        <ele>37.8</ele>
        <time>2021-11-13T13:54:35Z</time>
      </trkpt>
      <trkpt lat="47.54174" lon="-2.84452">
        <ele>38.2</ele>
        <time>2021-11-13T13:54:40Z</time>
      </trkpt>
      <trkpt lat="47.54159" lon="-2.84455">
        <ele>38.2</ele>
        <time>2021-11-13T13:54:43Z</time>
      </trkpt>
      <trkpt lat="47.54144" lon="-2.84459">
        <ele>38.6</ele>
        <time>2021-11-13T13:54:46Z</time>
      </trkpt>
      <trkpt lat="47.54133" lon="-2.84465">
        <ele>38.8</ele>
        <time>2021-11-13T13:54:48Z</time>
      </trkpt>
      <trkpt lat="47.54117" lon="-2.8448">
        <ele>39</ele>
        <time>2021-11-13T13:54:51Z</time>
      </trkpt>
      <trkpt lat="47.54107" lon="-2.84491">
        <ele>39.4</ele>
        <time>2021-11-13T13:54:53Z</time>
      </trkpt>
      <trkpt lat="47.54095" lon="-2.845">
        <ele>39.4</ele>
        <time>2021-11-13T13:54:55Z</time>
      </trkpt>
      <trkpt lat="47.54083" lon="-2.84503">
        <ele>39.6</ele>
        <time>2021-11-13T13:54:57Z</time>
      </trkpt>
      <trkpt lat="47.54072" lon="-2.84501">
        <ele>39.6</ele>
        <time>2021-11-13T13:54:59Z</time>
      </trkpt>
      <trkpt lat="47.54061" lon="-2.84496">
        <ele>39.8</ele>
        <time>2021-11-13T13:55:01Z</time>
      </trkpt>
      <trkpt lat="47.5403" lon="-2.84478">
        <ele>40.6</ele>
        <time>2021-11-13T13:55:07Z</time>
      </trkpt>
      <trkpt lat="47.53999" lon="-2.84464">
        <ele>41.4</ele>
        <time>2021-11-13T13:55:13Z</time>
      </trkpt>
      <trkpt lat="47.53978" lon="-2.84463">
        <ele>41.6</ele>
        <time>2021-11-13T13:55:17Z</time>
      </trkpt>
      <trkpt lat="47.53966" lon="-2.84464">
        <ele>42</ele>
        <time>2021-11-13T13:55:19Z</time>
      </trkpt>
      <trkpt lat="47.53942" lon="-2.84467">
        <ele>42.2</ele>
        <time>2021-11-13T13:55:23Z</time>
      </trkpt>
      <trkpt lat="47.5393" lon="-2.84467">
        <ele>42.4</ele>
        <time>2021-11-13T13:55:25Z</time>
      </trkpt>
      <trkpt lat="47.53924" lon="-2.84466">
        <ele>42.4</ele>
        <time>2021-11-13T13:55:26Z</time>
      </trkpt>
      <trkpt lat="47.53911" lon="-2.84463">
        <ele>42.4</ele>
        <time>2021-11-13T13:55:28Z</time>
      </trkpt>
      <trkpt lat="47.53892" lon="-2.84454">
        <ele>42.6</ele>
        <time>2021-11-13T13:55:31Z</time>
      </trkpt>
      <trkpt lat="47.53867" lon="-2.84442">
        <ele>42.6</ele>
        <time>2021-11-13T13:55:35Z</time>
      </trkpt>
      <trkpt lat="47.5385" lon="-2.84433">
        <ele>42.8</ele>
        <time>2021-11-13T13:55:38Z</time>
      </trkpt>
      <trkpt lat="47.53834" lon="-2.84427">
        <ele>42.8</ele>
        <time>2021-11-13T13:55:41Z</time>
      </trkpt>
      <trkpt lat="47.53824" lon="-2.84426">
        <ele>42.8</ele>
        <time>2021-11-13T13:55:43Z</time>
      </trkpt>
      <trkpt lat="47.53814" lon="-2.84428">
        <ele>43</ele>
        <time>2021-11-13T13:55:45Z</time>
      </trkpt>
      <trkpt lat="47.53805" lon="-2.84432">
        <ele>43</ele>
        <time>2021-11-13T13:55:47Z</time>
      </trkpt>
      <trkpt lat="47.53801" lon="-2.84436">
        <ele>43</ele>
        <time>2021-11-13T13:55:48Z</time>
      </trkpt>
      <trkpt lat="47.53797" lon="-2.8444">
        <ele>43</ele>
        <time>2021-11-13T13:55:49Z</time>
      </trkpt>
      <trkpt lat="47.53792" lon="-2.8445">
        <ele>43.2</ele>
        <time>2021-11-13T13:55:51Z</time>
      </trkpt>
      <trkpt lat="47.5379" lon="-2.84456">
        <ele>43.2</ele>
        <time>2021-11-13T13:55:52Z</time>
      </trkpt>
      <trkpt lat="47.53785" lon="-2.84476">
        <ele>43.2</ele>
        <time>2021-11-13T13:55:55Z</time>
      </trkpt>
      <trkpt lat="47.53784" lon="-2.84491">
        <ele>43.4</ele>
        <time>2021-11-13T13:55:57Z</time>
      </trkpt>
      <trkpt lat="47.53783" lon="-2.84498">
        <ele>43.4</ele>
        <time>2021-11-13T13:55:58Z</time>
      </trkpt>
      <trkpt lat="47.53781" lon="-2.84552">
        <ele>43.6</ele>
        <time>2021-11-13T13:56:06Z</time>
      </trkpt>
      <trkpt lat="47.53781" lon="-2.84558">
        <ele>43.8</ele>
        <time>2021-11-13T13:56:07Z</time>
      </trkpt>
      <trkpt lat="47.53779" lon="-2.84597">
        <ele>44.2</ele>
        <time>2021-11-13T13:56:13Z</time>
      </trkpt>
      <trkpt lat="47.53775" lon="-2.84656">
        <ele>44.6</ele>
        <time>2021-11-13T13:56:22Z</time>
      </trkpt>
      <trkpt lat="47.53774" lon="-2.84669">
        <ele>44.6</ele>
        <time>2021-11-13T13:56:24Z</time>
      </trkpt>
      <trkpt lat="47.53774" lon="-2.84688">
        <ele>44.8</ele>
        <time>2021-11-13T13:56:27Z</time>
      </trkpt>
      <trkpt lat="47.53773" lon="-2.84705">
        <ele>45.2</ele>
        <time>2021-11-13T13:56:30Z</time>
      </trkpt>
      <trkpt lat="47.53774" lon="-2.84751">
        <ele>45.8</ele>
        <time>2021-11-13T13:56:38Z</time>
      </trkpt>
      <trkpt lat="47.53771" lon="-2.84794">
        <ele>46</ele>
        <time>2021-11-13T13:56:45Z</time>
      </trkpt>
      <trkpt lat="47.5377" lon="-2.848">
        <ele>46</ele>
        <time>2021-11-13T13:56:46Z</time>
      </trkpt>
      <trkpt lat="47.53768" lon="-2.84831">
        <ele>46.2</ele>
        <time>2021-11-13T13:56:51Z</time>
      </trkpt>
      <trkpt lat="47.53767" lon="-2.84849">
        <ele>46.4</ele>
        <time>2021-11-13T13:56:54Z</time>
      </trkpt>
      <trkpt lat="47.53764" lon="-2.84892">
        <ele>46.6</ele>
        <time>2021-11-13T13:57:01Z</time>
      </trkpt>
      <trkpt lat="47.53764" lon="-2.84898">
        <ele>46.8</ele>
        <time>2021-11-13T13:57:02Z</time>
      </trkpt>
      <trkpt lat="47.53757" lon="-2.84927">
        <ele>46.8</ele>
        <time>2021-11-13T13:57:07Z</time>
      </trkpt>
      <trkpt lat="47.5375" lon="-2.84941">
        <ele>47</ele>
        <time>2021-11-13T13:57:10Z</time>
      </trkpt>
      <trkpt lat="47.53741" lon="-2.84955">
        <ele>47.2</ele>
        <time>2021-11-13T13:57:13Z</time>
      </trkpt>
      <trkpt lat="47.53722" lon="-2.84969">
        <ele>47.4</ele>
        <time>2021-11-13T13:57:18Z</time>
      </trkpt>
      <trkpt lat="47.53718" lon="-2.84971">
        <ele>47.4</ele>
        <time>2021-11-13T13:57:19Z</time>
      </trkpt>
      <trkpt lat="47.53697" lon="-2.84979">
        <ele>47.4</ele>
        <time>2021-11-13T13:57:24Z</time>
      </trkpt>
      <trkpt lat="47.53693" lon="-2.84981">
        <ele>47.4</ele>
        <time>2021-11-13T13:57:25Z</time>
      </trkpt>
      <trkpt lat="47.53667" lon="-2.84986">
        <ele>47.6</ele>
        <time>2021-11-13T13:57:31Z</time>
      </trkpt>
      <trkpt lat="47.53663" lon="-2.84987">
        <ele>47.6</ele>
        <time>2021-11-13T13:57:32Z</time>
      </trkpt>
      <trkpt lat="47.5365" lon="-2.84988">
        <ele>47.8</ele>
        <time>2021-11-13T13:57:35Z</time>
      </trkpt>
      <trkpt lat="47.53637" lon="-2.84985">
        <ele>48</ele>
        <time>2021-11-13T13:57:38Z</time>
      </trkpt>
      <trkpt lat="47.53632" lon="-2.84986">
        <ele>48</ele>
        <time>2021-11-13T13:57:39Z</time>
      </trkpt>
      <trkpt lat="47.53604" lon="-2.84984">
        <ele>48</ele>
        <time>2021-11-13T13:57:45Z</time>
      </trkpt>
      <trkpt lat="47.53584" lon="-2.84982">
        <ele>48</ele>
        <time>2021-11-13T13:57:49Z</time>
      </trkpt>
      <trkpt lat="47.53574" lon="-2.84981">
        <ele>47.8</ele>
        <time>2021-11-13T13:57:51Z</time>
      </trkpt>
      <trkpt lat="47.5357" lon="-2.8498">
        <ele>47.8</ele>
        <time>2021-11-13T13:57:52Z</time>
      </trkpt>
      <trkpt lat="47.53539" lon="-2.84976">
        <ele>47.4</ele>
        <time>2021-11-13T13:57:59Z</time>
      </trkpt>
      <trkpt lat="47.53535" lon="-2.84975">
        <ele>47.4</ele>
        <time>2021-11-13T13:58:00Z</time>
      </trkpt>
      <trkpt lat="47.53531" lon="-2.84975">
        <ele>47.2</ele>
        <time>2021-11-13T13:58:01Z</time>
      </trkpt>
      <trkpt lat="47.53517" lon="-2.84973">
        <ele>47.2</ele>
        <time>2021-11-13T13:58:05Z</time>
      </trkpt>
      <trkpt lat="47.53507" lon="-2.84972">
        <ele>47.4</ele>
        <time>2021-11-13T13:58:08Z</time>
      </trkpt>
      <trkpt lat="47.53494" lon="-2.84971">
        <ele>47.6</ele>
        <time>2021-11-13T13:58:12Z</time>
      </trkpt>
      <trkpt lat="47.53492" lon="-2.84973">
        <ele>47.8</ele>
        <time>2021-11-13T13:58:13Z</time>
      </trkpt>
      <trkpt lat="47.5349" lon="-2.84977">
        <ele>47.8</ele>
        <time>2021-11-13T13:58:14Z</time>
      </trkpt>
      <trkpt lat="47.53489" lon="-2.84987">
        <ele>47.8</ele>
        <time>2021-11-13T13:58:16Z</time>
      </trkpt>
      <trkpt lat="47.53492" lon="-2.85018">
        <ele>47.8</ele>
        <time>2021-11-13T13:58:21Z</time>
      </trkpt>
      <trkpt lat="47.53493" lon="-2.85032">
        <ele>47.8</ele>
        <time>2021-11-13T13:58:23Z</time>
      </trkpt>
      <trkpt lat="47.53494" lon="-2.85046">
        <ele>47.8</ele>
        <time>2021-11-13T13:58:25Z</time>
      </trkpt>
      <trkpt lat="47.53494" lon="-2.85053">
        <ele>48</ele>
        <time>2021-11-13T13:58:26Z</time>
      </trkpt>
      <trkpt lat="47.5349" lon="-2.85108">
        <ele>48.2</ele>
        <time>2021-11-13T13:58:33Z</time>
      </trkpt>
      <trkpt lat="47.53489" lon="-2.85116">
        <ele>48.2</ele>
        <time>2021-11-13T13:58:34Z</time>
      </trkpt>
      <trkpt lat="47.53486" lon="-2.85131">
        <ele>48.2</ele>
        <time>2021-11-13T13:58:36Z</time>
      </trkpt>
      <trkpt lat="47.53485" lon="-2.8514">
        <ele>48.2</ele>
        <time>2021-11-13T13:58:37Z</time>
      </trkpt>
      <trkpt lat="47.53481" lon="-2.8517">
        <ele>48.2</ele>
        <time>2021-11-13T13:58:41Z</time>
      </trkpt>
      <trkpt lat="47.53478" lon="-2.85185">
        <ele>48.2</ele>
        <time>2021-11-13T13:58:43Z</time>
      </trkpt>
      <trkpt lat="47.53474" lon="-2.852">
        <ele>48.2</ele>
        <time>2021-11-13T13:58:45Z</time>
      </trkpt>
      <trkpt lat="47.53471" lon="-2.85211">
        <ele>48.2</ele>
        <time>2021-11-13T13:58:47Z</time>
      </trkpt>
      <trkpt lat="47.53471" lon="-2.85216">
        <ele>48.2</ele>
        <time>2021-11-13T13:58:48Z</time>
      </trkpt>
      <trkpt lat="47.53473" lon="-2.8522">
        <ele>48.4</ele>
        <time>2021-11-13T13:58:49Z</time>
      </trkpt>
      <trkpt lat="47.53479" lon="-2.85224">
        <ele>48.4</ele>
        <time>2021-11-13T13:58:51Z</time>
      </trkpt>
      <trkpt lat="47.53501" lon="-2.85232">
        <ele>48.4</ele>
        <time>2021-11-13T13:58:57Z</time>
      </trkpt>
      <trkpt lat="47.53519" lon="-2.85247">
        <ele>48</ele>
        <time>2021-11-13T13:59:03Z</time>
      </trkpt>
      <trkpt lat="47.53536" lon="-2.85252">
        <ele>47.8</ele>
        <time>2021-11-13T13:59:08Z</time>
      </trkpt>
      <trkpt lat="47.53554" lon="-2.85254">
        <ele>47.8</ele>
        <time>2021-11-13T13:59:14Z</time>
      </trkpt>
      <trkpt lat="47.53555" lon="-2.85255">
        <ele>47.6</ele>
        <time>2021-11-13T13:59:15Z</time>
      </trkpt>
      <trkpt lat="47.53559" lon="-2.85265">
        <ele>47.6</ele>
        <time>2021-11-13T13:59:18Z</time>
      </trkpt>
      <trkpt lat="47.53564" lon="-2.85285">
        <ele>47.2</ele>
        <time>2021-11-13T13:59:23Z</time>
      </trkpt>
      <trkpt lat="47.53565" lon="-2.85301">
        <ele>47</ele>
        <time>2021-11-13T13:59:26Z</time>
      </trkpt>
      <trkpt lat="47.53565" lon="-2.85305">
        <ele>47</ele>
        <time>2021-11-13T13:59:27Z</time>
      </trkpt>
      <trkpt lat="47.5357" lon="-2.85318">
        <ele>47.2</ele>
        <time>2021-11-13T13:59:30Z</time>
      </trkpt>
      <trkpt lat="47.53582" lon="-2.85334">
        <ele>46.8</ele>
        <time>2021-11-13T13:59:34Z</time>
      </trkpt>
      <trkpt lat="47.53596" lon="-2.85342">
        <ele>46.4</ele>
        <time>2021-11-13T13:59:38Z</time>
      </trkpt>
      <trkpt lat="47.536" lon="-2.85346">
        <ele>46.2</ele>
        <time>2021-11-13T13:59:39Z</time>
      </trkpt>
      <trkpt lat="47.53622" lon="-2.85368">
        <ele>45.6</ele>
        <time>2021-11-13T13:59:45Z</time>
      </trkpt>
      <trkpt lat="47.53635" lon="-2.85375">
        <ele>45.6</ele>
        <time>2021-11-13T13:59:49Z</time>
      </trkpt>
      <trkpt lat="47.53637" lon="-2.85375">
        <ele>45.6</ele>
        <time>2021-11-13T13:59:50Z</time>
      </trkpt>
      <trkpt lat="47.53639" lon="-2.85377">
        <ele>45.4</ele>
        <time>2021-11-13T13:59:51Z</time>
      </trkpt>
      <trkpt lat="47.53641" lon="-2.85379">
        <ele>45.4</ele>
        <time>2021-11-13T13:59:52Z</time>
      </trkpt>
      <trkpt lat="47.53646" lon="-2.85386">
        <ele>45.2</ele>
        <time>2021-11-13T13:59:54Z</time>
      </trkpt>
      <trkpt lat="47.53662" lon="-2.85408">
        <ele>44.4</ele>
        <time>2021-11-13T14:00:00Z</time>
      </trkpt>
      <trkpt lat="47.53669" lon="-2.85415">
        <ele>44</ele>
        <time>2021-11-13T14:00:02Z</time>
      </trkpt>
      <trkpt lat="47.53698" lon="-2.85442">
        <ele>43.4</ele>
        <time>2021-11-13T14:00:10Z</time>
      </trkpt>
      <trkpt lat="47.53702" lon="-2.85445">
        <ele>43.2</ele>
        <time>2021-11-13T14:00:11Z</time>
      </trkpt>
      <trkpt lat="47.53707" lon="-2.85448">
        <ele>43</ele>
        <time>2021-11-13T14:00:12Z</time>
      </trkpt>
      <trkpt lat="47.53723" lon="-2.85457">
        <ele>42.6</ele>
        <time>2021-11-13T14:00:16Z</time>
      </trkpt>
      <trkpt lat="47.53727" lon="-2.8546">
        <ele>42.8</ele>
        <time>2021-11-13T14:00:17Z</time>
      </trkpt>
      <trkpt lat="47.53738" lon="-2.85465">
        <ele>42.4</ele>
        <time>2021-11-13T14:00:20Z</time>
      </trkpt>
      <trkpt lat="47.53746" lon="-2.85469">
        <ele>42.4</ele>
        <time>2021-11-13T14:00:22Z</time>
      </trkpt>
      <trkpt lat="47.53754" lon="-2.85473">
        <ele>42.2</ele>
        <time>2021-11-13T14:00:24Z</time>
      </trkpt>
      <trkpt lat="47.53771" lon="-2.85482">
        <ele>42</ele>
        <time>2021-11-13T14:00:29Z</time>
      </trkpt>
      <trkpt lat="47.53779" lon="-2.85488">
        <ele>42</ele>
        <time>2021-11-13T14:00:31Z</time>
      </trkpt>
      <trkpt lat="47.53799" lon="-2.855">
        <ele>42</ele>
        <time>2021-11-13T14:00:36Z</time>
      </trkpt>
      <trkpt lat="47.53806" lon="-2.85505">
        <ele>42</ele>
        <time>2021-11-13T14:00:38Z</time>
      </trkpt>
      <trkpt lat="47.53821" lon="-2.85518">
        <ele>42</ele>
        <time>2021-11-13T14:00:42Z</time>
      </trkpt>
      <trkpt lat="47.53847" lon="-2.85548">
        <ele>42</ele>
        <time>2021-11-13T14:00:49Z</time>
      </trkpt>
      <trkpt lat="47.53856" lon="-2.85561">
        <ele>42.4</ele>
        <time>2021-11-13T14:00:52Z</time>
      </trkpt>
      <trkpt lat="47.53868" lon="-2.85582">
        <ele>42.6</ele>
        <time>2021-11-13T14:00:56Z</time>
      </trkpt>
      <trkpt lat="47.53889" lon="-2.85626">
        <ele>42.8</ele>
        <time>2021-11-13T14:01:04Z</time>
      </trkpt>
      <trkpt lat="47.53898" lon="-2.85661">
        <ele>43.2</ele>
        <time>2021-11-13T14:01:10Z</time>
      </trkpt>
      <trkpt lat="47.53902" lon="-2.8568">
        <ele>43.4</ele>
        <time>2021-11-13T14:01:15Z</time>
      </trkpt>
      <trkpt lat="47.53903" lon="-2.85692">
        <ele>43.4</ele>
        <time>2021-11-13T14:01:18Z</time>
      </trkpt>
      <trkpt lat="47.53904" lon="-2.85701">
        <ele>43.6</ele>
        <time>2021-11-13T14:01:20Z</time>
      </trkpt>
      <trkpt lat="47.53906" lon="-2.85739">
        <ele>43.6</ele>
        <time>2021-11-13T14:01:26Z</time>
      </trkpt>
      <trkpt lat="47.53905" lon="-2.85768">
        <ele>43.8</ele>
        <time>2021-11-13T14:01:30Z</time>
      </trkpt>
      <trkpt lat="47.53905" lon="-2.85784">
        <ele>43.8</ele>
        <time>2021-11-13T14:01:32Z</time>
      </trkpt>
      <trkpt lat="47.53905" lon="-2.85834">
        <ele>43.8</ele>
        <time>2021-11-13T14:01:39Z</time>
      </trkpt>
      <trkpt lat="47.53905" lon="-2.85891">
        <ele>43.8</ele>
        <time>2021-11-13T14:01:47Z</time>
      </trkpt>
      <trkpt lat="47.53905" lon="-2.85914">
        <ele>43.8</ele>
        <time>2021-11-13T14:01:50Z</time>
      </trkpt>
      <trkpt lat="47.53905" lon="-2.85929">
        <ele>43.8</ele>
        <time>2021-11-13T14:01:52Z</time>
      </trkpt>
      <trkpt lat="47.53904" lon="-2.85934">
        <ele>43.8</ele>
        <time>2021-11-13T14:01:53Z</time>
      </trkpt>
      <trkpt lat="47.53905" lon="-2.85989">
        <ele>43.8</ele>
        <time>2021-11-13T14:02:00Z</time>
      </trkpt>
      <trkpt lat="47.53904" lon="-2.86036">
        <ele>43.8</ele>
        <time>2021-11-13T14:02:06Z</time>
      </trkpt>
      <trkpt lat="47.53904" lon="-2.86056">
        <ele>43.8</ele>
        <time>2021-11-13T14:02:09Z</time>
      </trkpt>
      <trkpt lat="47.53905" lon="-2.86078">
        <ele>44</ele>
        <time>2021-11-13T14:02:12Z</time>
      </trkpt>
      <trkpt lat="47.53912" lon="-2.86138">
        <ele>44</ele>
        <time>2021-11-13T14:02:21Z</time>
      </trkpt>
      <trkpt lat="47.53919" lon="-2.86175">
        <ele>44</ele>
        <time>2021-11-13T14:02:27Z</time>
      </trkpt>
      <trkpt lat="47.53925" lon="-2.86201">
        <ele>44</ele>
        <time>2021-11-13T14:02:31Z</time>
      </trkpt>
      <trkpt lat="47.53935" lon="-2.86232">
        <ele>44</ele>
        <time>2021-11-13T14:02:36Z</time>
      </trkpt>
      <trkpt lat="47.53947" lon="-2.8626">
        <ele>44</ele>
        <time>2021-11-13T14:02:41Z</time>
      </trkpt>
      <trkpt lat="47.53951" lon="-2.86272">
        <ele>44</ele>
        <time>2021-11-13T14:02:43Z</time>
      </trkpt>
      <trkpt lat="47.53953" lon="-2.86276">
        <ele>44</ele>
        <time>2021-11-13T14:02:44Z</time>
      </trkpt>
      <trkpt lat="47.53968" lon="-2.86304">
        <ele>44.6</ele>
        <time>2021-11-13T14:02:50Z</time>
      </trkpt>
      <trkpt lat="47.53973" lon="-2.86313">
        <ele>44.8</ele>
        <time>2021-11-13T14:02:52Z</time>
      </trkpt>
      <trkpt lat="47.54" lon="-2.86349">
        <ele>45</ele>
        <time>2021-11-13T14:03:01Z</time>
      </trkpt>
      <trkpt lat="47.54028" lon="-2.86379">
        <ele>44.8</ele>
        <time>2021-11-13T14:03:10Z</time>
      </trkpt>
      <trkpt lat="47.5405" lon="-2.86399">
        <ele>44.8</ele>
        <time>2021-11-13T14:03:17Z</time>
      </trkpt>
      <trkpt lat="47.54064" lon="-2.86412">
        <ele>44.8</ele>
        <time>2021-11-13T14:03:22Z</time>
      </trkpt>
      <trkpt lat="47.54077" lon="-2.86424">
        <ele>44.6</ele>
        <time>2021-11-13T14:03:27Z</time>
      </trkpt>
      <trkpt lat="47.54082" lon="-2.86428">
        <ele>44.6</ele>
        <time>2021-11-13T14:03:28Z</time>
      </trkpt>
      <trkpt lat="47.5409" lon="-2.86435">
        <ele>44.6</ele>
        <time>2021-11-13T14:03:30Z</time>
      </trkpt>
      <trkpt lat="47.54111" lon="-2.86452">
        <ele>44.6</ele>
        <time>2021-11-13T14:03:35Z</time>
      </trkpt>
      <trkpt lat="47.54145" lon="-2.86479">
        <ele>44.4</ele>
        <time>2021-11-13T14:03:42Z</time>
      </trkpt>
      <trkpt lat="47.54173" lon="-2.86504">
        <ele>44.2</ele>
        <time>2021-11-13T14:03:48Z</time>
      </trkpt>
      <trkpt lat="47.54177" lon="-2.86509">
        <ele>44.2</ele>
        <time>2021-11-13T14:03:49Z</time>
      </trkpt>
      <trkpt lat="47.54188" lon="-2.86521">
        <ele>44.2</ele>
        <time>2021-11-13T14:03:52Z</time>
      </trkpt>
      <trkpt lat="47.54196" lon="-2.86532">
        <ele>44.2</ele>
        <time>2021-11-13T14:03:54Z</time>
      </trkpt>
      <trkpt lat="47.54214" lon="-2.86558">
        <ele>44.4</ele>
        <time>2021-11-13T14:03:59Z</time>
      </trkpt>
      <trkpt lat="47.54216" lon="-2.86563">
        <ele>44.4</ele>
        <time>2021-11-13T14:04:00Z</time>
      </trkpt>
      <trkpt lat="47.54234" lon="-2.86601">
        <ele>44.6</ele>
        <time>2021-11-13T14:04:07Z</time>
      </trkpt>
      <trkpt lat="47.54241" lon="-2.86604">
        <ele>44.6</ele>
        <time>2021-11-13T14:04:09Z</time>
      </trkpt>
      <trkpt lat="47.54247" lon="-2.86606">
        <ele>44.6</ele>
        <time>2021-11-13T14:04:10Z</time>
      </trkpt>
      <trkpt lat="47.54273" lon="-2.86615">
        <ele>44.6</ele>
        <time>2021-11-13T14:04:16Z</time>
      </trkpt>
      <trkpt lat="47.54276" lon="-2.86617">
        <ele>44.6</ele>
        <time>2021-11-13T14:04:17Z</time>
      </trkpt>
      <trkpt lat="47.54288" lon="-2.86634">
        <ele>44.8</ele>
        <time>2021-11-13T14:04:22Z</time>
      </trkpt>
      <trkpt lat="47.54306" lon="-2.86665">
        <ele>44.8</ele>
        <time>2021-11-13T14:04:30Z</time>
      </trkpt>
      <trkpt lat="47.54324" lon="-2.86678">
        <ele>44.8</ele>
        <time>2021-11-13T14:04:36Z</time>
      </trkpt>
      <trkpt lat="47.54346" lon="-2.86686">
        <ele>45</ele>
        <time>2021-11-13T14:04:43Z</time>
      </trkpt>
      <trkpt lat="47.54371" lon="-2.86688">
        <ele>45</ele>
        <time>2021-11-13T14:04:50Z</time>
      </trkpt>
      <trkpt lat="47.54386" lon="-2.86682">
        <ele>45.2</ele>
        <time>2021-11-13T14:04:55Z</time>
      </trkpt>
      <trkpt lat="47.54404" lon="-2.86663">
        <ele>45.4</ele>
        <time>2021-11-13T14:05:00Z</time>
      </trkpt>
      <trkpt lat="47.54408" lon="-2.8666">
        <ele>45.4</ele>
        <time>2021-11-13T14:05:01Z</time>
      </trkpt>
      <trkpt lat="47.54428" lon="-2.86648">
        <ele>45.4</ele>
        <time>2021-11-13T14:05:06Z</time>
      </trkpt>
      <trkpt lat="47.54436" lon="-2.86644">
        <ele>45.4</ele>
        <time>2021-11-13T14:05:08Z</time>
      </trkpt>
      <trkpt lat="47.54459" lon="-2.86636">
        <ele>45.8</ele>
        <time>2021-11-13T14:05:13Z</time>
      </trkpt>
      <trkpt lat="47.54492" lon="-2.86635">
        <ele>46.2</ele>
        <time>2021-11-13T14:05:20Z</time>
      </trkpt>
      <trkpt lat="47.54515" lon="-2.86636">
        <ele>46.4</ele>
        <time>2021-11-13T14:05:25Z</time>
      </trkpt>
      <trkpt lat="47.54528" lon="-2.86636">
        <ele>46.6</ele>
        <time>2021-11-13T14:05:28Z</time>
      </trkpt>
      <trkpt lat="47.54567" lon="-2.86637">
        <ele>47</ele>
        <time>2021-11-13T14:05:37Z</time>
      </trkpt>
      <trkpt lat="47.54597" lon="-2.86639">
        <ele>47</ele>
        <time>2021-11-13T14:05:44Z</time>
      </trkpt>
      <trkpt lat="47.54618" lon="-2.8664">
        <ele>47.2</ele>
        <time>2021-11-13T14:05:49Z</time>
      </trkpt>
      <trkpt lat="47.54626" lon="-2.86639">
        <ele>47.4</ele>
        <time>2021-11-13T14:05:51Z</time>
      </trkpt>
      <trkpt lat="47.5463" lon="-2.86639">
        <ele>47.4</ele>
        <time>2021-11-13T14:05:52Z</time>
      </trkpt>
      <trkpt lat="47.54662" lon="-2.86635">
        <ele>47.8</ele>
        <time>2021-11-13T14:06:00Z</time>
      </trkpt>
      <trkpt lat="47.54688" lon="-2.86634">
        <ele>48</ele>
        <time>2021-11-13T14:06:06Z</time>
      </trkpt>
      <trkpt lat="47.54709" lon="-2.86634">
        <ele>48.2</ele>
        <time>2021-11-13T14:06:10Z</time>
      </trkpt>
      <trkpt lat="47.54723" lon="-2.86633">
        <ele>48.2</ele>
        <time>2021-11-13T14:06:12Z</time>
      </trkpt>
      <trkpt lat="47.54762" lon="-2.86638">
        <ele>48.2</ele>
        <time>2021-11-13T14:06:18Z</time>
      </trkpt>
      <trkpt lat="47.54782" lon="-2.8664">
        <ele>48.2</ele>
        <time>2021-11-13T14:06:21Z</time>
      </trkpt>
      <trkpt lat="47.54795" lon="-2.86638">
        <ele>48.2</ele>
        <time>2021-11-13T14:06:23Z</time>
      </trkpt>
      <trkpt lat="47.54814" lon="-2.8664">
        <ele>48.2</ele>
        <time>2021-11-13T14:06:26Z</time>
      </trkpt>
      <trkpt lat="47.54825" lon="-2.86643">
        <ele>48.2</ele>
        <time>2021-11-13T14:06:28Z</time>
      </trkpt>
      <trkpt lat="47.54849" lon="-2.86657">
        <ele>48.4</ele>
        <time>2021-11-13T14:06:32Z</time>
      </trkpt>
      <trkpt lat="47.54859" lon="-2.86662">
        <ele>48.4</ele>
        <time>2021-11-13T14:06:34Z</time>
      </trkpt>
      <trkpt lat="47.54875" lon="-2.86673">
        <ele>48.6</ele>
        <time>2021-11-13T14:06:37Z</time>
      </trkpt>
      <trkpt lat="47.54889" lon="-2.86679">
        <ele>48.6</ele>
        <time>2021-11-13T14:06:40Z</time>
      </trkpt>
      <trkpt lat="47.54922" lon="-2.86691">
        <ele>48.8</ele>
        <time>2021-11-13T14:06:47Z</time>
      </trkpt>
      <trkpt lat="47.54926" lon="-2.86692">
        <ele>49</ele>
        <time>2021-11-13T14:06:48Z</time>
      </trkpt>
      <trkpt lat="47.54945" lon="-2.86695">
        <ele>49</ele>
        <time>2021-11-13T14:06:52Z</time>
      </trkpt>
      <trkpt lat="47.54978" lon="-2.86704">
        <ele>49</ele>
        <time>2021-11-13T14:06:59Z</time>
      </trkpt>
      <trkpt lat="47.55006" lon="-2.86717">
        <ele>48.8</ele>
        <time>2021-11-13T14:07:05Z</time>
      </trkpt>
      <trkpt lat="47.5501" lon="-2.8672">
        <ele>48.8</ele>
        <time>2021-11-13T14:07:06Z</time>
      </trkpt>
      <trkpt lat="47.55041" lon="-2.86751">
        <ele>48.8</ele>
        <time>2021-11-13T14:07:13Z</time>
      </trkpt>
      <trkpt lat="47.55063" lon="-2.86775">
        <ele>48.8</ele>
        <time>2021-11-13T14:07:18Z</time>
      </trkpt>
      <trkpt lat="47.55071" lon="-2.86786">
        <ele>48.6</ele>
        <time>2021-11-13T14:07:20Z</time>
      </trkpt>
      <trkpt lat="47.55075" lon="-2.86792">
        <ele>48.4</ele>
        <time>2021-11-13T14:07:21Z</time>
      </trkpt>
      <trkpt lat="47.55081" lon="-2.868">
        <ele>48.2</ele>
        <time>2021-11-13T14:07:22Z</time>
      </trkpt>
      <trkpt lat="47.55099" lon="-2.86827">
        <ele>48</ele>
        <time>2021-11-13T14:07:26Z</time>
      </trkpt>
      <trkpt lat="47.55124" lon="-2.86866">
        <ele>47.8</ele>
        <time>2021-11-13T14:07:31Z</time>
      </trkpt>
      <trkpt lat="47.55139" lon="-2.86889">
        <ele>47.6</ele>
        <time>2021-11-13T14:07:34Z</time>
      </trkpt>
      <trkpt lat="47.55152" lon="-2.86912">
        <ele>47.6</ele>
        <time>2021-11-13T14:07:37Z</time>
      </trkpt>
      <trkpt lat="47.55169" lon="-2.86939">
        <ele>47.4</ele>
        <time>2021-11-13T14:07:41Z</time>
      </trkpt>
      <trkpt lat="47.55173" lon="-2.86945">
        <ele>47.4</ele>
        <time>2021-11-13T14:07:42Z</time>
      </trkpt>
      <trkpt lat="47.55178" lon="-2.8695">
        <ele>47.2</ele>
        <time>2021-11-13T14:07:43Z</time>
      </trkpt>
      <trkpt lat="47.55182" lon="-2.86954">
        <ele>47</ele>
        <time>2021-11-13T14:07:44Z</time>
      </trkpt>
      <trkpt lat="47.55201" lon="-2.86969">
        <ele>46.8</ele>
        <time>2021-11-13T14:07:48Z</time>
      </trkpt>
      <trkpt lat="47.55232" lon="-2.87004">
        <ele>47</ele>
        <time>2021-11-13T14:07:56Z</time>
      </trkpt>
      <trkpt lat="47.55256" lon="-2.87038">
        <ele>47.2</ele>
        <time>2021-11-13T14:08:03Z</time>
      </trkpt>
      <trkpt lat="47.5526" lon="-2.8705">
        <ele>47.2</ele>
        <time>2021-11-13T14:08:05Z</time>
      </trkpt>
      <trkpt lat="47.55263" lon="-2.8707">
        <ele>47</ele>
        <time>2021-11-13T14:08:08Z</time>
      </trkpt>
      <trkpt lat="47.55265" lon="-2.87123">
        <ele>47</ele>
        <time>2021-11-13T14:08:16Z</time>
      </trkpt>
      <trkpt lat="47.55265" lon="-2.87128">
        <ele>47</ele>
        <time>2021-11-13T14:08:17Z</time>
      </trkpt>
      <trkpt lat="47.55266" lon="-2.87134">
        <ele>46.8</ele>
        <time>2021-11-13T14:08:18Z</time>
      </trkpt>
      <trkpt lat="47.55267" lon="-2.87155">
        <ele>46.6</ele>
        <time>2021-11-13T14:08:22Z</time>
      </trkpt>
      <trkpt lat="47.55267" lon="-2.872">
        <ele>46.6</ele>
        <time>2021-11-13T14:08:30Z</time>
      </trkpt>
      <trkpt lat="47.55271" lon="-2.87234">
        <ele>46.8</ele>
        <time>2021-11-13T14:08:36Z</time>
      </trkpt>
      <trkpt lat="47.55276" lon="-2.8727">
        <ele>46.8</ele>
        <time>2021-11-13T14:08:42Z</time>
      </trkpt>
      <trkpt lat="47.55283" lon="-2.87315">
        <ele>46.6</ele>
        <time>2021-11-13T14:08:50Z</time>
      </trkpt>
      <trkpt lat="47.55285" lon="-2.87327">
        <ele>46.6</ele>
        <time>2021-11-13T14:08:52Z</time>
      </trkpt>
      <trkpt lat="47.55289" lon="-2.87356">
        <ele>46.4</ele>
        <time>2021-11-13T14:08:57Z</time>
      </trkpt>
      <trkpt lat="47.55293" lon="-2.87379">
        <ele>46.2</ele>
        <time>2021-11-13T14:09:02Z</time>
      </trkpt>
      <trkpt lat="47.55301" lon="-2.87419">
        <ele>45.6</ele>
        <time>2021-11-13T14:09:10Z</time>
      </trkpt>
      <trkpt lat="47.5531" lon="-2.87455">
        <ele>45.6</ele>
        <time>2021-11-13T14:09:18Z</time>
      </trkpt>
      <trkpt lat="47.55311" lon="-2.87475">
        <ele>45.4</ele>
        <time>2021-11-13T14:09:23Z</time>
      </trkpt>
      <trkpt lat="47.55312" lon="-2.87479">
        <ele>45.6</ele>
        <time>2021-11-13T14:09:24Z</time>
      </trkpt>
      <trkpt lat="47.55316" lon="-2.875">
        <ele>45.6</ele>
        <time>2021-11-13T14:09:29Z</time>
      </trkpt>
      <trkpt lat="47.5532" lon="-2.87523">
        <ele>45.8</ele>
        <time>2021-11-13T14:09:35Z</time>
      </trkpt>
      <trkpt lat="47.55321" lon="-2.87531">
        <ele>46</ele>
        <time>2021-11-13T14:09:37Z</time>
      </trkpt>
      <trkpt lat="47.55322" lon="-2.87542">
        <ele>46</ele>
        <time>2021-11-13T14:09:40Z</time>
      </trkpt>
      <trkpt lat="47.55325" lon="-2.87564">
        <ele>46</ele>
        <time>2021-11-13T14:09:45Z</time>
      </trkpt>
      <trkpt lat="47.55326" lon="-2.87586">
        <ele>46</ele>
        <time>2021-11-13T14:09:50Z</time>
      </trkpt>
      <trkpt lat="47.55326" lon="-2.87601">
        <ele>45.8</ele>
        <time>2021-11-13T14:09:54Z</time>
      </trkpt>
      <trkpt lat="47.55324" lon="-2.87603">
        <ele>45.8</ele>
        <time>2021-11-13T14:09:55Z</time>
      </trkpt>
      <trkpt lat="47.55297" lon="-2.87614">
        <ele>45.6</ele>
        <time>2021-11-13T14:10:04Z</time>
      </trkpt>
      <trkpt lat="47.55284" lon="-2.87619">
        <ele>45.2</ele>
        <time>2021-11-13T14:10:09Z</time>
      </trkpt>
      <trkpt lat="47.55279" lon="-2.87628">
        <ele>45.2</ele>
        <time>2021-11-13T14:10:13Z</time>
      </trkpt>
      <trkpt lat="47.55285" lon="-2.87646">
        <ele>45.2</ele>
        <time>2021-11-13T14:10:17Z</time>
      </trkpt>
      <trkpt lat="47.55297" lon="-2.87674">
        <ele>45.4</ele>
        <time>2021-11-13T14:10:23Z</time>
      </trkpt>
      <trkpt lat="47.55309" lon="-2.87708">
        <ele>45.8</ele>
        <time>2021-11-13T14:10:31Z</time>
      </trkpt>
      <trkpt lat="47.55313" lon="-2.87713">
        <ele>46</ele>
        <time>2021-11-13T14:10:33Z</time>
      </trkpt>
      <trkpt lat="47.55316" lon="-2.87712">
        <ele>46</ele>
        <time>2021-11-13T14:10:34Z</time>
      </trkpt>
      <trkpt lat="47.55326" lon="-2.87702">
        <ele>46.2</ele>
        <time>2021-11-13T14:10:39Z</time>
      </trkpt>
      <trkpt lat="47.5533" lon="-2.87699">
        <ele>46.2</ele>
        <time>2021-11-13T14:10:41Z</time>
      </trkpt>
      <trkpt lat="47.55336" lon="-2.877">
        <ele>46.4</ele>
        <time>2021-11-13T14:10:44Z</time>
      </trkpt>
      <trkpt lat="47.55357" lon="-2.87699">
        <ele>46.2</ele>
        <time>2021-11-13T14:10:53Z</time>
      </trkpt>
      <trkpt lat="47.55369" lon="-2.87699">
        <ele>46.2</ele>
        <time>2021-11-13T14:10:58Z</time>
      </trkpt>
      <trkpt lat="47.55383" lon="-2.87695">
        <ele>46</ele>
        <time>2021-11-13T14:11:05Z</time>
      </trkpt>
      <trkpt lat="47.55394" lon="-2.87692">
        <ele>46</ele>
        <time>2021-11-13T14:11:11Z</time>
      </trkpt>
      <trkpt lat="47.55402" lon="-2.87697">
        <ele>46</ele>
        <time>2021-11-13T14:11:15Z</time>
      </trkpt>
      <trkpt lat="47.55404" lon="-2.87696">
        <ele>46</ele>
        <time>2021-11-13T14:11:16Z</time>
      </trkpt>
      <trkpt lat="47.55422" lon="-2.87692">
        <ele>45.4</ele>
        <time>2021-11-13T14:11:22Z</time>
      </trkpt>
      <trkpt lat="47.55434" lon="-2.87691">
        <ele>45.2</ele>
        <time>2021-11-13T14:11:27Z</time>
      </trkpt>
      <trkpt lat="47.55443" lon="-2.87707">
        <ele>45</ele>
        <time>2021-11-13T14:11:32Z</time>
      </trkpt>
      <trkpt lat="47.5546" lon="-2.87741">
        <ele>44.8</ele>
        <time>2021-11-13T14:11:40Z</time>
      </trkpt>
      <trkpt lat="47.55462" lon="-2.87745">
        <ele>44.6</ele>
        <time>2021-11-13T14:11:41Z</time>
      </trkpt>
      <trkpt lat="47.55472" lon="-2.87768">
        <ele>44.2</ele>
        <time>2021-11-13T14:11:46Z</time>
      </trkpt>
      <trkpt lat="47.55489" lon="-2.87788">
        <ele>43.8</ele>
        <time>2021-11-13T14:11:53Z</time>
      </trkpt>
      <trkpt lat="47.55492" lon="-2.87791">
        <ele>43.8</ele>
        <time>2021-11-13T14:11:55Z</time>
      </trkpt>
      <trkpt lat="47.55493" lon="-2.87794">
        <ele>43.6</ele>
        <time>2021-11-13T14:11:57Z</time>
      </trkpt>
      <trkpt lat="47.55505" lon="-2.87806">
        <ele>43.4</ele>
        <time>2021-11-13T14:12:02Z</time>
      </trkpt>
      <trkpt lat="47.5552" lon="-2.87825">
        <ele>43.4</ele>
        <time>2021-11-13T14:12:08Z</time>
      </trkpt>
      <trkpt lat="47.55534" lon="-2.87858">
        <ele>44</ele>
        <time>2021-11-13T14:12:16Z</time>
      </trkpt>
      <trkpt lat="47.55546" lon="-2.87867">
        <ele>44.6</ele>
        <time>2021-11-13T14:12:20Z</time>
      </trkpt>
      <trkpt lat="47.55553" lon="-2.87872">
        <ele>44.8</ele>
        <time>2021-11-13T14:12:22Z</time>
      </trkpt>
      <trkpt lat="47.55578" lon="-2.87882">
        <ele>45</ele>
        <time>2021-11-13T14:12:29Z</time>
      </trkpt>
      <trkpt lat="47.556" lon="-2.87889">
        <ele>45.6</ele>
        <time>2021-11-13T14:12:36Z</time>
      </trkpt>
      <trkpt lat="47.55602" lon="-2.87889">
        <ele>45.6</ele>
        <time>2021-11-13T14:12:37Z</time>
      </trkpt>
      <trkpt lat="47.55607" lon="-2.87888">
        <ele>46</ele>
        <time>2021-11-13T14:12:39Z</time>
      </trkpt>
      <trkpt lat="47.55609" lon="-2.8789">
        <ele>46</ele>
        <time>2021-11-13T14:12:40Z</time>
      </trkpt>
      <trkpt lat="47.55615" lon="-2.87903">
        <ele>45.8</ele>
        <time>2021-11-13T14:12:46Z</time>
      </trkpt>
      <trkpt lat="47.55618" lon="-2.87908">
        <ele>45.4</ele>
        <time>2021-11-13T14:12:49Z</time>
      </trkpt>
      <trkpt lat="47.55622" lon="-2.8791">
        <ele>45.2</ele>
        <time>2021-11-13T14:12:51Z</time>
      </trkpt>
      <trkpt lat="47.55631" lon="-2.87911">
        <ele>44.6</ele>
        <time>2021-11-13T14:12:54Z</time>
      </trkpt>
      <trkpt lat="47.55634" lon="-2.87912">
        <ele>44.4</ele>
        <time>2021-11-13T14:12:55Z</time>
      </trkpt>
      <trkpt lat="47.5565" lon="-2.87918">
        <ele>44</ele>
        <time>2021-11-13T14:13:00Z</time>
      </trkpt>
      <trkpt lat="47.55669" lon="-2.87919">
        <ele>43.8</ele>
        <time>2021-11-13T14:13:06Z</time>
      </trkpt>
      <trkpt lat="47.55681" lon="-2.87915">
        <ele>43.6</ele>
        <time>2021-11-13T14:13:10Z</time>
      </trkpt>
      <trkpt lat="47.55686" lon="-2.87912">
        <ele>43.6</ele>
        <time>2021-11-13T14:13:12Z</time>
      </trkpt>
      <trkpt lat="47.55691" lon="-2.87912">
        <ele>43.6</ele>
        <time>2021-11-13T14:13:14Z</time>
      </trkpt>
      <trkpt lat="47.55692" lon="-2.87915">
        <ele>43.6</ele>
        <time>2021-11-13T14:13:15Z</time>
      </trkpt>
      <trkpt lat="47.55688" lon="-2.8793">
        <ele>43.2</ele>
        <time>2021-11-13T14:13:19Z</time>
      </trkpt>
      <trkpt lat="47.5568" lon="-2.87961">
        <ele>42.6</ele>
        <time>2021-11-13T14:13:27Z</time>
      </trkpt>
      <trkpt lat="47.55679" lon="-2.87966">
        <ele>42.6</ele>
        <time>2021-11-13T14:13:28Z</time>
      </trkpt>
      <trkpt lat="47.55675" lon="-2.87987">
        <ele>42.4</ele>
        <time>2021-11-13T14:13:33Z</time>
      </trkpt>
      <trkpt lat="47.55678" lon="-2.87993">
        <ele>42.2</ele>
        <time>2021-11-13T14:13:35Z</time>
      </trkpt>
      <trkpt lat="47.55681" lon="-2.87994">
        <ele>42.2</ele>
        <time>2021-11-13T14:13:36Z</time>
      </trkpt>
      <trkpt lat="47.55705" lon="-2.87998">
        <ele>41.4</ele>
        <time>2021-11-13T14:13:43Z</time>
      </trkpt>
      <trkpt lat="47.5572" lon="-2.88003">
        <ele>41</ele>
        <time>2021-11-13T14:13:48Z</time>
      </trkpt>
      <trkpt lat="47.55739" lon="-2.88008">
        <ele>40.6</ele>
        <time>2021-11-13T14:13:54Z</time>
      </trkpt>
      <trkpt lat="47.55753" lon="-2.88008">
        <ele>40.4</ele>
        <time>2021-11-13T14:13:58Z</time>
      </trkpt>
      <trkpt lat="47.55764" lon="-2.88005">
        <ele>40.4</ele>
        <time>2021-11-13T14:14:01Z</time>
      </trkpt>
      <trkpt lat="47.55785" lon="-2.87999">
        <ele>40.2</ele>
        <time>2021-11-13T14:14:07Z</time>
      </trkpt>
      <trkpt lat="47.55809" lon="-2.87987">
        <ele>40.2</ele>
        <time>2021-11-13T14:14:14Z</time>
      </trkpt>
      <trkpt lat="47.55834" lon="-2.87975">
        <ele>40.4</ele>
        <time>2021-11-13T14:14:21Z</time>
      </trkpt>
      <trkpt lat="47.55854" lon="-2.87987">
        <ele>40.8</ele>
        <time>2021-11-13T14:14:27Z</time>
      </trkpt>
      <trkpt lat="47.55871" lon="-2.87992">
        <ele>41.2</ele>
        <time>2021-11-13T14:14:32Z</time>
      </trkpt>
      <trkpt lat="47.55877" lon="-2.87989">
        <ele>41.4</ele>
        <time>2021-11-13T14:14:34Z</time>
      </trkpt>
      <trkpt lat="47.55888" lon="-2.8798">
        <ele>41.8</ele>
        <time>2021-11-13T14:14:38Z</time>
      </trkpt>
      <trkpt lat="47.55907" lon="-2.87967">
        <ele>42.2</ele>
        <time>2021-11-13T14:14:45Z</time>
      </trkpt>
      <trkpt lat="47.55913" lon="-2.87963">
        <ele>42.4</ele>
        <time>2021-11-13T14:14:47Z</time>
      </trkpt>
      <trkpt lat="47.5592" lon="-2.87958">
        <ele>42.4</ele>
        <time>2021-11-13T14:14:49Z</time>
      </trkpt>
      <trkpt lat="47.55942" lon="-2.87946">
        <ele>43</ele>
        <time>2021-11-13T14:14:55Z</time>
      </trkpt>
      <trkpt lat="47.55954" lon="-2.87941">
        <ele>43.4</ele>
        <time>2021-11-13T14:14:58Z</time>
      </trkpt>
      <trkpt lat="47.55971" lon="-2.87935">
        <ele>43.6</ele>
        <time>2021-11-13T14:15:02Z</time>
      </trkpt>
      <trkpt lat="47.56001" lon="-2.87922">
        <ele>44.2</ele>
        <time>2021-11-13T14:15:09Z</time>
      </trkpt>
      <trkpt lat="47.56005" lon="-2.87919">
        <ele>44.4</ele>
        <time>2021-11-13T14:15:10Z</time>
      </trkpt>
      <trkpt lat="47.56014" lon="-2.87907">
        <ele>44.8</ele>
        <time>2021-11-13T14:15:13Z</time>
      </trkpt>
      <trkpt lat="47.56026" lon="-2.87881">
        <ele>45.4</ele>
        <time>2021-11-13T14:15:18Z</time>
      </trkpt>
      <trkpt lat="47.56029" lon="-2.87876">
        <ele>45.6</ele>
        <time>2021-11-13T14:15:19Z</time>
      </trkpt>
      <trkpt lat="47.56039" lon="-2.87855">
        <ele>45.8</ele>
        <time>2021-11-13T14:15:24Z</time>
      </trkpt>
      <trkpt lat="47.56045" lon="-2.87838">
        <ele>46</ele>
        <time>2021-11-13T14:15:29Z</time>
      </trkpt>
      <trkpt lat="47.56057" lon="-2.87811">
        <ele>46</ele>
        <time>2021-11-13T14:15:34Z</time>
      </trkpt>
      <trkpt lat="47.56065" lon="-2.87786">
        <ele>46.2</ele>
        <time>2021-11-13T14:15:37Z</time>
      </trkpt>
      <trkpt lat="47.56067" lon="-2.87777">
        <ele>46.2</ele>
        <time>2021-11-13T14:15:38Z</time>
      </trkpt>
      <trkpt lat="47.56084" lon="-2.87723">
        <ele>46.2</ele>
        <time>2021-11-13T14:15:44Z</time>
      </trkpt>
      <trkpt lat="47.56093" lon="-2.87689">
        <ele>46.2</ele>
        <time>2021-11-13T14:15:49Z</time>
      </trkpt>
      <trkpt lat="47.56093" lon="-2.87672">
        <ele>46.2</ele>
        <time>2021-11-13T14:15:53Z</time>
      </trkpt>
      <trkpt lat="47.56088" lon="-2.87683">
        <ele>5.5</ele>
      </trkpt>
      <trkpt lat="47.56067" lon="-2.87779">
        <ele>8.1</ele>
      </trkpt>
      <trkpt lat="47.56057" lon="-2.87804">
        <ele>9.9</ele>
      </trkpt>
      <trkpt lat="47.56039" lon="-2.87855">
        <ele>12.5</ele>
      </trkpt>
      <trkpt lat="47.56049" lon="-2.87886">
        <ele>13.1</ele>
      </trkpt>
      <trkpt lat="47.56049" lon="-2.8789">
        <ele>13.2</ele>
      </trkpt>
      <trkpt lat="47.5605" lon="-2.8789">
        <ele>13.2</ele>
      </trkpt>
      <trkpt lat="47.5605" lon="-2.87895">
        <ele>13.2</ele>
      </trkpt>
      <trkpt lat="47.56056" lon="-2.87896">
        <ele>13</ele>
      </trkpt>
      <trkpt lat="47.56061" lon="-2.87899">
        <ele>12.7</ele>
      </trkpt>
      <trkpt lat="47.56072" lon="-2.8791">
        <ele>12</ele>
      </trkpt>
      <trkpt lat="47.56082" lon="-2.87918">
        <ele>11</ele>
      </trkpt>
      <trkpt lat="47.56092" lon="-2.87921">
        <ele>10.8</ele>
      </trkpt>
      <trkpt lat="47.561" lon="-2.87923">
        <ele>10.8</ele>
      </trkpt>
      <trkpt lat="47.56107" lon="-2.87922">
        <ele>10.8</ele>
      </trkpt>
      <trkpt lat="47.56117" lon="-2.8792">
        <ele>10.7</ele>
      </trkpt>
      <trkpt lat="47.56153" lon="-2.87909">
        <ele>10.6</ele>
      </trkpt>
      <trkpt lat="47.56202" lon="-2.87898">
        <ele>11.6</ele>
      </trkpt>
      <trkpt lat="47.56235" lon="-2.8789">
        <ele>11.9</ele>
      </trkpt>
      <trkpt lat="47.56244" lon="-2.87888">
        <ele>12</ele>
      </trkpt>
      <trkpt lat="47.56254" lon="-2.8789">
        <ele>12.2</ele>
      </trkpt>
      <trkpt lat="47.56261" lon="-2.87894">
        <ele>12.6</ele>
      </trkpt>
      <trkpt lat="47.56279" lon="-2.87913">
        <ele>13.2</ele>
      </trkpt>
      <trkpt lat="47.56295" lon="-2.87931">
        <ele>13.4</ele>
      </trkpt>
      <trkpt lat="47.56301" lon="-2.87943">
        <ele>12.9</ele>
      </trkpt>
      <trkpt lat="47.56305" lon="-2.87952">
        <ele>12.7</ele>
      </trkpt>
      <trkpt lat="47.56306" lon="-2.87962">
        <ele>12.4</ele>
      </trkpt>
      <trkpt lat="47.56307" lon="-2.87971">
        <ele>12</ele>
      </trkpt>
      <trkpt lat="47.56307" lon="-2.87986">
        <ele>11.5</ele>
      </trkpt>
      <trkpt lat="47.56308" lon="-2.88">
        <ele>11.1</ele>
      </trkpt>
      <trkpt lat="47.5631" lon="-2.88016">
        <ele>11.1</ele>
      </trkpt>
      <trkpt lat="47.56311" lon="-2.88025">
        <ele>11</ele>
      </trkpt>
      <trkpt lat="47.56314" lon="-2.88039">
        <ele>10.3</ele>
      </trkpt>
      <trkpt lat="47.56317" lon="-2.88052">
        <ele>9.6</ele>
      </trkpt>
      <trkpt lat="47.5632" lon="-2.8807">
        <ele>8.5</ele>
      </trkpt>
      <trkpt lat="47.56321" lon="-2.88084">
        <ele>7.5</ele>
      </trkpt>
      <trkpt lat="47.56321" lon="-2.88098">
        <ele>5.3</ele>
      </trkpt>
      <trkpt lat="47.56321" lon="-2.88107">
        <ele>4</ele>
      </trkpt>
      <trkpt lat="47.56314" lon="-2.8812">
        <ele>3.9</ele>
      </trkpt>
      <trkpt lat="47.56311" lon="-2.88128">
        <ele>3.8</ele>
      </trkpt>
      <trkpt lat="47.56308" lon="-2.88138">
        <ele>3.2</ele>
      </trkpt>
      <trkpt lat="47.56305" lon="-2.88144">
        <ele>2.8</ele>
      </trkpt>
      <trkpt lat="47.56305" lon="-2.88148">
        <ele>2.7</ele>
      </trkpt>
      <trkpt lat="47.56304" lon="-2.88155">
        <ele>2.5</ele>
      </trkpt>
      <trkpt lat="47.56303" lon="-2.88164">
        <ele>2.2</ele>
      </trkpt>
      <trkpt lat="47.56301" lon="-2.88174">
        <ele>2.2</ele>
      </trkpt>
      <trkpt lat="47.563" lon="-2.88187">
        <ele>2.2</ele>
      </trkpt>
      <trkpt lat="47.563" lon="-2.88199">
        <ele>2.2</ele>
      </trkpt>
      <trkpt lat="47.56298" lon="-2.88213">
        <ele>2.5</ele>
      </trkpt>
      <trkpt lat="47.56297" lon="-2.88224">
        <ele>2.6</ele>
      </trkpt>
      <trkpt lat="47.56297" lon="-2.88235">
        <ele>2.8</ele>
      </trkpt>
      <trkpt lat="47.56295" lon="-2.88244">
        <ele>3.1</ele>
      </trkpt>
      <trkpt lat="47.56296" lon="-2.88252">
        <ele>3</ele>
      </trkpt>
      <trkpt lat="47.56295" lon="-2.88258">
        <ele>3</ele>
      </trkpt>
      <trkpt lat="47.56293" lon="-2.88263">
        <ele>3.1</ele>
      </trkpt>
      <trkpt lat="47.56289" lon="-2.88271">
        <ele>3.5</ele>
      </trkpt>
      <trkpt lat="47.56289" lon="-2.88277">
        <ele>3.4</ele>
      </trkpt>
      <trkpt lat="47.5629" lon="-2.88287">
        <ele>3.2</ele>
      </trkpt>
      <trkpt lat="47.56288" lon="-2.88295">
        <ele>3.5</ele>
      </trkpt>
      <trkpt lat="47.56285" lon="-2.88303">
        <ele>4</ele>
      </trkpt>
      <trkpt lat="47.56284" lon="-2.8831">
        <ele>3.8</ele>
      </trkpt>
      <trkpt lat="47.56283" lon="-2.88315">
        <ele>3.5</ele>
      </trkpt>
      <trkpt lat="47.56281" lon="-2.88319">
        <ele>3.3</ele>
      </trkpt>
      <trkpt lat="47.56278" lon="-2.88322">
        <ele>3.2</ele>
      </trkpt>
      <trkpt lat="47.56274" lon="-2.88321">
        <ele>3.5</ele>
      </trkpt>
      <trkpt lat="47.5627" lon="-2.88318">
        <ele>3.9</ele>
      </trkpt>
      <trkpt lat="47.56244" lon="-2.88332">
        <ele>3.6</ele>
      </trkpt>
      <trkpt lat="47.5623" lon="-2.88336">
        <ele>4.2</ele>
      </trkpt>
      <trkpt lat="47.56221" lon="-2.88333">
        <ele>5</ele>
      </trkpt>
      <trkpt lat="47.56216" lon="-2.88331">
        <ele>5.1</ele>
      </trkpt>
      <trkpt lat="47.56212" lon="-2.88328">
        <ele>5.2</ele>
      </trkpt>
      <trkpt lat="47.56209" lon="-2.88327">
        <ele>5.2</ele>
      </trkpt>
      <trkpt lat="47.56205" lon="-2.8833">
        <ele>5.1</ele>
      </trkpt>
      <trkpt lat="47.562" lon="-2.88338">
        <ele>4.5</ele>
      </trkpt>
      <trkpt lat="47.56191" lon="-2.88347">
        <ele>3.6</ele>
      </trkpt>
      <trkpt lat="47.56184" lon="-2.88351">
        <ele>3.6</ele>
      </trkpt>
      <trkpt lat="47.56175" lon="-2.88365">
        <ele>3.4</ele>
      </trkpt>
      <trkpt lat="47.56173" lon="-2.88369">
        <ele>3.5</ele>
      </trkpt>
      <trkpt lat="47.56169" lon="-2.8838">
        <ele>3.8</ele>
      </trkpt>
      <trkpt lat="47.56168" lon="-2.88386">
        <ele>3.9</ele>
      </trkpt>
      <trkpt lat="47.56167" lon="-2.88394">
        <ele>3.6</ele>
      </trkpt>
      <trkpt lat="47.56166" lon="-2.88399">
        <ele>3.3</ele>
      </trkpt>
      <trkpt lat="47.56163" lon="-2.88403">
        <ele>3</ele>
      </trkpt>
      <trkpt lat="47.56158" lon="-2.88404">
        <ele>2.9</ele>
      </trkpt>
      <trkpt lat="47.56154" lon="-2.88403">
        <ele>3</ele>
      </trkpt>
      <trkpt lat="47.56149" lon="-2.88399">
        <ele>3.3</ele>
      </trkpt>
      <trkpt lat="47.56146" lon="-2.88399">
        <ele>3.3</ele>
      </trkpt>
      <trkpt lat="47.56143" lon="-2.88399">
        <ele>3.3</ele>
      </trkpt>
      <trkpt lat="47.56139" lon="-2.88402">
        <ele>3.1</ele>
      </trkpt>
      <trkpt lat="47.56135" lon="-2.88408">
        <ele>2.7</ele>
      </trkpt>
      <trkpt lat="47.56132" lon="-2.88412">
        <ele>2.5</ele>
      </trkpt>
      <trkpt lat="47.56127" lon="-2.88413">
        <ele>2.6</ele>
      </trkpt>
      <trkpt lat="47.56121" lon="-2.88413">
        <ele>2.7</ele>
      </trkpt>
      <trkpt lat="47.56116" lon="-2.88411">
        <ele>2.9</ele>
      </trkpt>
      <trkpt lat="47.56111" lon="-2.88406">
        <ele>3</ele>
      </trkpt>
      <trkpt lat="47.56107" lon="-2.88394">
        <ele>2.7</ele>
      </trkpt>
      <trkpt lat="47.56107" lon="-2.88382">
        <ele>2.7</ele>
      </trkpt>
      <trkpt lat="47.56108" lon="-2.88373">
        <ele>2.8</ele>
      </trkpt>
      <trkpt lat="47.56107" lon="-2.88368">
        <ele>2.7</ele>
      </trkpt>
      <trkpt lat="47.56103" lon="-2.88361">
        <ele>2.4</ele>
      </trkpt>
      <trkpt lat="47.56096" lon="-2.88348">
        <ele>2.4</ele>
      </trkpt>
      <trkpt lat="47.56091" lon="-2.88335">
        <ele>2.5</ele>
      </trkpt>
      <trkpt lat="47.56075" lon="-2.88317">
        <ele>2.9</ele>
      </trkpt>
      <trkpt lat="47.56064" lon="-2.88306">
        <ele>3.3</ele>
      </trkpt>
      <trkpt lat="47.5605" lon="-2.883">
        <ele>3.2</ele>
      </trkpt>
      <trkpt lat="47.56027" lon="-2.88294">
        <ele>3.8</ele>
      </trkpt>
      <trkpt lat="47.56022" lon="-2.8829">
        <ele>3.7</ele>
      </trkpt>
      <trkpt lat="47.56019" lon="-2.88286">
        <ele>3.8</ele>
      </trkpt>
      <trkpt lat="47.56017" lon="-2.88283">
        <ele>3.8</ele>
      </trkpt>
      <trkpt lat="47.56015" lon="-2.8828">
        <ele>3.9</ele>
      </trkpt>
      <trkpt lat="47.56012" lon="-2.88278">
        <ele>3.8</ele>
      </trkpt>
      <trkpt lat="47.55998" lon="-2.88272">
        <ele>3.7</ele>
      </trkpt>
      <trkpt lat="47.55988" lon="-2.88267">
        <ele>3.9</ele>
      </trkpt>
      <trkpt lat="47.55979" lon="-2.88259">
        <ele>4.7</ele>
      </trkpt>
      <trkpt lat="47.55975" lon="-2.88255">
        <ele>5.2</ele>
      </trkpt>
      <trkpt lat="47.5597" lon="-2.88253">
        <ele>5.4</ele>
      </trkpt>
      <trkpt lat="47.5596" lon="-2.88252">
        <ele>5.2</ele>
      </trkpt>
      <trkpt lat="47.55947" lon="-2.88253">
        <ele>4.7</ele>
      </trkpt>
      <trkpt lat="47.55943" lon="-2.88253">
        <ele>4.6</ele>
      </trkpt>
      <trkpt lat="47.55937" lon="-2.88253">
        <ele>4.6</ele>
      </trkpt>
      <trkpt lat="47.55934" lon="-2.88255">
        <ele>4.3</ele>
      </trkpt>
      <trkpt lat="47.55933" lon="-2.88256">
        <ele>4.1</ele>
      </trkpt>
      <trkpt lat="47.55931" lon="-2.88257">
        <ele>4</ele>
      </trkpt>
      <trkpt lat="47.55928" lon="-2.88257">
        <ele>4</ele>
      </trkpt>
      <trkpt lat="47.55924" lon="-2.88257">
        <ele>4</ele>
      </trkpt>
      <trkpt lat="47.55922" lon="-2.88256">
        <ele>4.1</ele>
      </trkpt>
      <trkpt lat="47.5592" lon="-2.88256">
        <ele>4.1</ele>
      </trkpt>
      <trkpt lat="47.55918" lon="-2.88254">
        <ele>4.4</ele>
      </trkpt>
      <trkpt lat="47.55916" lon="-2.8825">
        <ele>5</ele>
      </trkpt>
      <trkpt lat="47.55912" lon="-2.88248">
        <ele>4.8</ele>
      </trkpt>
      <trkpt lat="47.55909" lon="-2.88246">
        <ele>4.7</ele>
      </trkpt>
      <trkpt lat="47.55905" lon="-2.88242">
        <ele>4.8</ele>
      </trkpt>
      <trkpt lat="47.55904" lon="-2.8824">
        <ele>4.9</ele>
      </trkpt>
      <trkpt lat="47.55902" lon="-2.88238">
        <ele>5.1</ele>
      </trkpt>
      <trkpt lat="47.55897" lon="-2.88234">
        <ele>5.4</ele>
      </trkpt>
      <trkpt lat="47.55894" lon="-2.88234">
        <ele>5.4</ele>
      </trkpt>
      <trkpt lat="47.55888" lon="-2.88236">
        <ele>5.1</ele>
      </trkpt>
      <trkpt lat="47.55885" lon="-2.88238">
        <ele>5</ele>
      </trkpt>
      <trkpt lat="47.55879" lon="-2.8824">
        <ele>5.2</ele>
      </trkpt>
      <trkpt lat="47.5587" lon="-2.88241">
        <ele>5.7</ele>
      </trkpt>
      <trkpt lat="47.55862" lon="-2.88242">
        <ele>6.1</ele>
      </trkpt>
      <trkpt lat="47.55855" lon="-2.88243">
        <ele>6.4</ele>
      </trkpt>
      <trkpt lat="47.5585" lon="-2.88246">
        <ele>6.3</ele>
      </trkpt>
      <trkpt lat="47.55846" lon="-2.88247">
        <ele>6.5</ele>
      </trkpt>
      <trkpt lat="47.55841" lon="-2.88249">
        <ele>6.6</ele>
      </trkpt>
      <trkpt lat="47.55832" lon="-2.88249">
        <ele>7.2</ele>
      </trkpt>
      <trkpt lat="47.55826" lon="-2.88251">
        <ele>7.3</ele>
      </trkpt>
      <trkpt lat="47.55825" lon="-2.88252">
        <ele>7.2</ele>
      </trkpt>
      <trkpt lat="47.55819" lon="-2.88256">
        <ele>6.8</ele>
      </trkpt>
      <trkpt lat="47.55807" lon="-2.88264">
        <ele>6.3</ele>
      </trkpt>
      <trkpt lat="47.55798" lon="-2.88275">
        <ele>5.5</ele>
      </trkpt>
      <trkpt lat="47.5579" lon="-2.8828">
        <ele>5.8</ele>
      </trkpt>
      <trkpt lat="47.5578" lon="-2.88285">
        <ele>5.9</ele>
      </trkpt>
      <trkpt lat="47.55772" lon="-2.8829">
        <ele>4.9</ele>
      </trkpt>
      <trkpt lat="47.55763" lon="-2.88295">
        <ele>3.8</ele>
      </trkpt>
      <trkpt lat="47.55748" lon="-2.88296">
        <ele>3.8</ele>
      </trkpt>
      <trkpt lat="47.55734" lon="-2.88296">
        <ele>4.3</ele>
      </trkpt>
      <trkpt lat="47.55726" lon="-2.88296">
        <ele>4.6</ele>
      </trkpt>
      <trkpt lat="47.55707" lon="-2.88293">
        <ele>4.1</ele>
      </trkpt>
      <trkpt lat="47.55698" lon="-2.88292">
        <ele>3.7</ele>
      </trkpt>
      <trkpt lat="47.55689" lon="-2.88293">
        <ele>3.4</ele>
      </trkpt>
      <trkpt lat="47.55679" lon="-2.883">
        <ele>2.9</ele>
      </trkpt>
      <trkpt lat="47.55672" lon="-2.88312">
        <ele>2.8</ele>
      </trkpt>
      <trkpt lat="47.5567" lon="-2.88316">
        <ele>2.8</ele>
      </trkpt>
      <trkpt lat="47.5567" lon="-2.88328">
        <ele>2.8</ele>
      </trkpt>
      <trkpt lat="47.5567" lon="-2.88375">
        <ele>2.8</ele>
      </trkpt>
      <trkpt lat="47.5567" lon="-2.88379">
        <ele>2.8</ele>
      </trkpt>
      <trkpt lat="47.55669" lon="-2.88383">
        <ele>2.8</ele>
      </trkpt>
      <trkpt lat="47.55669" lon="-2.88391">
        <ele>2.8</ele>
      </trkpt>
      <trkpt lat="47.55671" lon="-2.88395">
        <ele>2.8</ele>
      </trkpt>
      <trkpt lat="47.55682" lon="-2.88402">
        <ele>2.4</ele>
      </trkpt>
      <trkpt lat="47.55687" lon="-2.88406">
        <ele>2.4</ele>
      </trkpt>
      <trkpt lat="47.55696" lon="-2.88413">
        <ele>2.6</ele>
      </trkpt>
      <trkpt lat="47.55702" lon="-2.88418">
        <ele>2.5</ele>
      </trkpt>
      <trkpt lat="47.55709" lon="-2.88425">
        <ele>2.1</ele>
      </trkpt>
      <trkpt lat="47.55713" lon="-2.88431">
        <ele>2</ele>
      </trkpt>
      <trkpt lat="47.55719" lon="-2.88438">
        <ele>1.9</ele>
      </trkpt>
      <trkpt lat="47.55722" lon="-2.88444">
        <ele>2</ele>
      </trkpt>
      <trkpt lat="47.55726" lon="-2.88453">
        <ele>2.4</ele>
      </trkpt>
      <trkpt lat="47.5573" lon="-2.88461">
        <ele>2.6</ele>
      </trkpt>
      <trkpt lat="47.55733" lon="-2.88466">
        <ele>2.6</ele>
      </trkpt>
      <trkpt lat="47.55735" lon="-2.88471">
        <ele>2.6</ele>
      </trkpt>
      <trkpt lat="47.55737" lon="-2.88479">
        <ele>2.5</ele>
      </trkpt>
      <trkpt lat="47.55737" lon="-2.88486">
        <ele>2.6</ele>
      </trkpt>
      <trkpt lat="47.55736" lon="-2.88496">
        <ele>2.9</ele>
      </trkpt>
      <trkpt lat="47.55736" lon="-2.88504">
        <ele>3</ele>
      </trkpt>
      <trkpt lat="47.55735" lon="-2.88512">
        <ele>3.2</ele>
      </trkpt>
      <trkpt lat="47.55736" lon="-2.88521">
        <ele>3</ele>
      </trkpt>
      <trkpt lat="47.55737" lon="-2.88527">
        <ele>2.9</ele>
      </trkpt>
      <trkpt lat="47.55739" lon="-2.88534">
        <ele>2.8</ele>
      </trkpt>
      <trkpt lat="47.5574" lon="-2.88541">
        <ele>2.9</ele>
      </trkpt>
      <trkpt lat="47.5574" lon="-2.88546">
        <ele>3.1</ele>
      </trkpt>
      <trkpt lat="47.5574" lon="-2.88554">
        <ele>3.4</ele>
      </trkpt>
      <trkpt lat="47.5574" lon="-2.88563">
        <ele>3.3</ele>
      </trkpt>
      <trkpt lat="47.55739" lon="-2.88572">
        <ele>3.3</ele>
      </trkpt>
      <trkpt lat="47.55738" lon="-2.88579">
        <ele>3.4</ele>
      </trkpt>
      <trkpt lat="47.55738" lon="-2.8858">
        <ele>3.3</ele>
      </trkpt>
      <trkpt lat="47.55737" lon="-2.88586">
        <ele>3.3</ele>
      </trkpt>
      <trkpt lat="47.55736" lon="-2.88597">
        <ele>3</ele>
      </trkpt>
      <trkpt lat="47.55736" lon="-2.88607">
        <ele>2.7</ele>
      </trkpt>
      <trkpt lat="47.55736" lon="-2.88615">
        <ele>2.5</ele>
      </trkpt>
      <trkpt lat="47.55737" lon="-2.8862">
        <ele>2.4</ele>
      </trkpt>
      <trkpt lat="47.55739" lon="-2.88632">
        <ele>2.2</ele>
      </trkpt>
      <trkpt lat="47.55742" lon="-2.88642">
        <ele>2</ele>
      </trkpt>
      <trkpt lat="47.55747" lon="-2.8866">
        <ele>2.6</ele>
      </trkpt>
      <trkpt lat="47.55748" lon="-2.88667">
        <ele>3</ele>
      </trkpt>
      <trkpt lat="47.5575" lon="-2.88674">
        <ele>3</ele>
      </trkpt>
      <trkpt lat="47.55753" lon="-2.8868">
        <ele>2.9</ele>
      </trkpt>
      <trkpt lat="47.55759" lon="-2.88686">
        <ele>2.8</ele>
      </trkpt>
      <trkpt lat="47.55765" lon="-2.88689">
        <ele>2.8</ele>
      </trkpt>
      <trkpt lat="47.55775" lon="-2.8869">
        <ele>2.7</ele>
      </trkpt>
      <trkpt lat="47.55781" lon="-2.88692">
        <ele>2.6</ele>
      </trkpt>
      <trkpt lat="47.55787" lon="-2.88696">
        <ele>2.4</ele>
      </trkpt>
      <trkpt lat="47.55791" lon="-2.887">
        <ele>2.4</ele>
      </trkpt>
      <trkpt lat="47.55797" lon="-2.88707">
        <ele>2.7</ele>
      </trkpt>
      <trkpt lat="47.55801" lon="-2.88714">
        <ele>3.2</ele>
      </trkpt>
      <trkpt lat="47.55805" lon="-2.88721">
        <ele>3.9</ele>
      </trkpt>
      <trkpt lat="47.5581" lon="-2.88729">
        <ele>3.6</ele>
      </trkpt>
      <trkpt lat="47.55813" lon="-2.88733">
        <ele>3.4</ele>
      </trkpt>
      <trkpt lat="47.5582" lon="-2.88739">
        <ele>3.1</ele>
      </trkpt>
      <trkpt lat="47.55825" lon="-2.88744">
        <ele>3</ele>
      </trkpt>
      <trkpt lat="47.55828" lon="-2.8875">
        <ele>3.2</ele>
      </trkpt>
      <trkpt lat="47.55832" lon="-2.8876">
        <ele>3.8</ele>
      </trkpt>
      <trkpt lat="47.55836" lon="-2.8877">
        <ele>4.3</ele>
      </trkpt>
      <trkpt lat="47.5584" lon="-2.88775">
        <ele>4.4</ele>
      </trkpt>
      <trkpt lat="47.55844" lon="-2.88778">
        <ele>4.2</ele>
      </trkpt>
      <trkpt lat="47.5585" lon="-2.88779">
        <ele>3.9</ele>
      </trkpt>
      <trkpt lat="47.55854" lon="-2.8878">
        <ele>3.6</ele>
      </trkpt>
      <trkpt lat="47.55859" lon="-2.88783">
        <ele>3.5</ele>
      </trkpt>
      <trkpt lat="47.55867" lon="-2.88787">
        <ele>3.2</ele>
      </trkpt>
      <trkpt lat="47.55874" lon="-2.88791">
        <ele>3</ele>
      </trkpt>
      <trkpt lat="47.55876" lon="-2.88795">
        <ele>3.2</ele>
      </trkpt>
      <trkpt lat="47.55879" lon="-2.88803">
        <ele>3.5</ele>
      </trkpt>
      <trkpt lat="47.55883" lon="-2.8881">
        <ele>3.7</ele>
      </trkpt>
      <trkpt lat="47.55888" lon="-2.88815">
        <ele>3.7</ele>
      </trkpt>
      <trkpt lat="47.55894" lon="-2.88818">
        <ele>3.7</ele>
      </trkpt>
      <trkpt lat="47.55901" lon="-2.8882">
        <ele>3.6</ele>
      </trkpt>
      <trkpt lat="47.55908" lon="-2.88821">
        <ele>3.5</ele>
      </trkpt>
      <trkpt lat="47.55915" lon="-2.88826">
        <ele>4</ele>
      </trkpt>
      <trkpt lat="47.55923" lon="-2.88831">
        <ele>4.2</ele>
      </trkpt>
      <trkpt lat="47.55932" lon="-2.88835">
        <ele>4</ele>
      </trkpt>
      <trkpt lat="47.55938" lon="-2.88837">
        <ele>3.7</ele>
      </trkpt>
      <trkpt lat="47.55949" lon="-2.88843">
        <ele>3.7</ele>
      </trkpt>
      <trkpt lat="47.55957" lon="-2.88848">
        <ele>4.1</ele>
      </trkpt>
      <trkpt lat="47.5596" lon="-2.88848">
        <ele>4.1</ele>
      </trkpt>
      <trkpt lat="47.55965" lon="-2.88847">
        <ele>4</ele>
      </trkpt>
      <trkpt lat="47.55967" lon="-2.88845">
        <ele>3.8</ele>
      </trkpt>
      <trkpt lat="47.55972" lon="-2.88843">
        <ele>3.7</ele>
      </trkpt>
      <trkpt lat="47.55975" lon="-2.88844">
        <ele>3.6</ele>
      </trkpt>
      <trkpt lat="47.55978" lon="-2.88845">
        <ele>3.5</ele>
      </trkpt>
      <trkpt lat="47.55982" lon="-2.88852">
        <ele>3.4</ele>
      </trkpt>
      <trkpt lat="47.55986" lon="-2.88858">
        <ele>3</ele>
      </trkpt>
      <trkpt lat="47.55989" lon="-2.88867">
        <ele>2.8</ele>
      </trkpt>
      <trkpt lat="47.55991" lon="-2.88877">
        <ele>2.9</ele>
      </trkpt>
      <trkpt lat="47.55991" lon="-2.88885">
        <ele>3.2</ele>
      </trkpt>
      <trkpt lat="47.5599" lon="-2.88892">
        <ele>3.7</ele>
      </trkpt>
      <trkpt lat="47.55991" lon="-2.88897">
        <ele>4</ele>
      </trkpt>
      <trkpt lat="47.55994" lon="-2.88902">
        <ele>4.1</ele>
      </trkpt>
      <trkpt lat="47.56004" lon="-2.88914">
        <ele>4.2</ele>
      </trkpt>
      <trkpt lat="47.56015" lon="-2.88928">
        <ele>3.7</ele>
      </trkpt>
      <trkpt lat="47.56021" lon="-2.88937">
        <ele>3.8</ele>
      </trkpt>
      <trkpt lat="47.56023" lon="-2.88943">
        <ele>4.2</ele>
      </trkpt>
      <trkpt lat="47.56025" lon="-2.88953">
        <ele>4.5</ele>
      </trkpt>
      <trkpt lat="47.5603" lon="-2.88967">
        <ele>4.6</ele>
      </trkpt>
      <trkpt lat="47.56034" lon="-2.88978">
        <ele>4.4</ele>
      </trkpt>
      <trkpt lat="47.56036" lon="-2.88982">
        <ele>4.3</ele>
      </trkpt>
      <trkpt lat="47.56042" lon="-2.88987">
        <ele>4</ele>
      </trkpt>
      <trkpt lat="47.56052" lon="-2.88994">
        <ele>3.8</ele>
      </trkpt>
      <trkpt lat="47.56062" lon="-2.89003">
        <ele>3.5</ele>
      </trkpt>
      <trkpt lat="47.56068" lon="-2.89008">
        <ele>3.3</ele>
      </trkpt>
      <trkpt lat="47.56074" lon="-2.89013">
        <ele>3.4</ele>
      </trkpt>
      <trkpt lat="47.5608" lon="-2.89018">
        <ele>3.7</ele>
      </trkpt>
      <trkpt lat="47.56086" lon="-2.8902">
        <ele>3.9</ele>
      </trkpt>
      <trkpt lat="47.561" lon="-2.89023">
        <ele>4.3</ele>
      </trkpt>
      <trkpt lat="47.56106" lon="-2.89023">
        <ele>4.3</ele>
      </trkpt>
      <trkpt lat="47.56112" lon="-2.89021">
        <ele>4</ele>
      </trkpt>
      <trkpt lat="47.56118" lon="-2.89019">
        <ele>3.6</ele>
      </trkpt>
      <trkpt lat="47.56124" lon="-2.89021">
        <ele>3.7</ele>
      </trkpt>
      <trkpt lat="47.56131" lon="-2.89019">
        <ele>3.2</ele>
      </trkpt>
      <trkpt lat="47.56136" lon="-2.89019">
        <ele>3.1</ele>
      </trkpt>
      <trkpt lat="47.56138" lon="-2.89022">
        <ele>3.4</ele>
      </trkpt>
      <trkpt lat="47.56139" lon="-2.89032">
        <ele>3.8</ele>
      </trkpt>
      <trkpt lat="47.56139" lon="-2.89039">
        <ele>3.6</ele>
      </trkpt>
      <trkpt lat="47.56139" lon="-2.89046">
        <ele>3.3</ele>
      </trkpt>
      <trkpt lat="47.56139" lon="-2.89053">
        <ele>3.1</ele>
      </trkpt>
      <trkpt lat="47.56138" lon="-2.8906">
        <ele>3.2</ele>
      </trkpt>
      <trkpt lat="47.56137" lon="-2.89065">
        <ele>3.5</ele>
      </trkpt>
      <trkpt lat="47.56138" lon="-2.8907">
        <ele>3.6</ele>
      </trkpt>
      <trkpt lat="47.56141" lon="-2.89075">
        <ele>3.5</ele>
      </trkpt>
      <trkpt lat="47.56145" lon="-2.89082">
        <ele>3.3</ele>
      </trkpt>
      <trkpt lat="47.56145" lon="-2.89087">
        <ele>3.2</ele>
      </trkpt>
      <trkpt lat="47.56144" lon="-2.89088">
        <ele>3.2</ele>
      </trkpt>
      <trkpt lat="47.56138" lon="-2.89089">
        <ele>3.6</ele>
      </trkpt>
      <trkpt lat="47.56133" lon="-2.89092">
        <ele>3.6</ele>
      </trkpt>
      <trkpt lat="47.56127" lon="-2.89096">
        <ele>3.5</ele>
      </trkpt>
      <trkpt lat="47.56122" lon="-2.89099">
        <ele>3.5</ele>
      </trkpt>
      <trkpt lat="47.56117" lon="-2.89101">
        <ele>3.5</ele>
      </trkpt>
      <trkpt lat="47.56112" lon="-2.89103">
        <ele>3.6</ele>
      </trkpt>
      <trkpt lat="47.56109" lon="-2.89106">
        <ele>3.6</ele>
      </trkpt>
      <trkpt lat="47.56101" lon="-2.89109">
        <ele>4.2</ele>
      </trkpt>
      <trkpt lat="47.56096" lon="-2.89115">
        <ele>4.3</ele>
      </trkpt>
      <trkpt lat="47.56093" lon="-2.89121">
        <ele>4</ele>
      </trkpt>
      <trkpt lat="47.56088" lon="-2.89127">
        <ele>3.9</ele>
      </trkpt>
      <trkpt lat="47.56085" lon="-2.89132">
        <ele>3.6</ele>
      </trkpt>
      <trkpt lat="47.56081" lon="-2.89137">
        <ele>3.4</ele>
      </trkpt>
      <trkpt lat="47.56077" lon="-2.8914">
        <ele>3.6</ele>
      </trkpt>
      <trkpt lat="47.56068" lon="-2.89143">
        <ele>4.2</ele>
      </trkpt>
      <trkpt lat="47.56064" lon="-2.89144">
        <ele>4.5</ele>
      </trkpt>
      <trkpt lat="47.5606" lon="-2.89148">
        <ele>4.3</ele>
      </trkpt>
      <trkpt lat="47.56057" lon="-2.89153">
        <ele>3.9</ele>
      </trkpt>
      <trkpt lat="47.56052" lon="-2.89155">
        <ele>3.8</ele>
      </trkpt>
      <trkpt lat="47.56044" lon="-2.89157">
        <ele>3.7</ele>
      </trkpt>
      <trkpt lat="47.56038" lon="-2.89158">
        <ele>3.7</ele>
      </trkpt>
      <trkpt lat="47.56032" lon="-2.89158">
        <ele>3.8</ele>
      </trkpt>
      <trkpt lat="47.56027" lon="-2.89161">
        <ele>3.6</ele>
      </trkpt>
      <trkpt lat="47.56021" lon="-2.89166">
        <ele>3.1</ele>
      </trkpt>
      <trkpt lat="47.56014" lon="-2.89168">
        <ele>2.9</ele>
      </trkpt>
      <trkpt lat="47.56007" lon="-2.89167">
        <ele>3</ele>
      </trkpt>
      <trkpt lat="47.56004" lon="-2.89167">
        <ele>3</ele>
      </trkpt>
      <trkpt lat="47.55995" lon="-2.89163">
        <ele>2.8</ele>
      </trkpt>
      <trkpt lat="47.55991" lon="-2.89158">
        <ele>2.9</ele>
      </trkpt>
      <trkpt lat="47.55986" lon="-2.89149">
        <ele>3.3</ele>
      </trkpt>
      <trkpt lat="47.55982" lon="-2.89143">
        <ele>3.7</ele>
      </trkpt>
      <trkpt lat="47.55977" lon="-2.89139">
        <ele>4</ele>
      </trkpt>
      <trkpt lat="47.5597" lon="-2.89136">
        <ele>3.9</ele>
      </trkpt>
      <trkpt lat="47.55963" lon="-2.89134">
        <ele>3.8</ele>
      </trkpt>
      <trkpt lat="47.55953" lon="-2.89132">
        <ele>3.7</ele>
      </trkpt>
      <trkpt lat="47.55947" lon="-2.89131">
        <ele>3.6</ele>
      </trkpt>
      <trkpt lat="47.55941" lon="-2.89131">
        <ele>3.9</ele>
      </trkpt>
      <trkpt lat="47.55938" lon="-2.89133">
        <ele>4.1</ele>
      </trkpt>
      <trkpt lat="47.55934" lon="-2.89137">
        <ele>4.2</ele>
      </trkpt>
      <trkpt lat="47.5593" lon="-2.8914">
        <ele>4.4</ele>
      </trkpt>
      <trkpt lat="47.55925" lon="-2.89141">
        <ele>4.8</ele>
      </trkpt>
      <trkpt lat="47.5592" lon="-2.89142">
        <ele>5.1</ele>
      </trkpt>
      <trkpt lat="47.55914" lon="-2.89142">
        <ele>5.5</ele>
      </trkpt>
      <trkpt lat="47.5591" lon="-2.8914">
        <ele>6</ele>
      </trkpt>
      <trkpt lat="47.55905" lon="-2.89142">
        <ele>5.9</ele>
      </trkpt>
      <trkpt lat="47.559" lon="-2.89142">
        <ele>6</ele>
      </trkpt>
      <trkpt lat="47.55895" lon="-2.89144">
        <ele>5.9</ele>
      </trkpt>
      <trkpt lat="47.55886" lon="-2.89147">
        <ele>5.5</ele>
      </trkpt>
      <trkpt lat="47.55881" lon="-2.8915">
        <ele>5</ele>
      </trkpt>
      <trkpt lat="47.55874" lon="-2.89154">
        <ele>4.3</ele>
      </trkpt>
      <trkpt lat="47.5587" lon="-2.89157">
        <ele>3.7</ele>
      </trkpt>
      <trkpt lat="47.55868" lon="-2.89156">
        <ele>3.9</ele>
      </trkpt>
      <trkpt lat="47.55866" lon="-2.89153">
        <ele>4.5</ele>
      </trkpt>
      <trkpt lat="47.5586" lon="-2.89147">
        <ele>5.5</ele>
      </trkpt>
      <trkpt lat="47.55852" lon="-2.89143">
        <ele>5.9</ele>
      </trkpt>
      <trkpt lat="47.55836" lon="-2.89138">
        <ele>6.2</ele>
      </trkpt>
      <trkpt lat="47.55831" lon="-2.89137">
        <ele>6</ele>
      </trkpt>
      <trkpt lat="47.55824" lon="-2.89136">
        <ele>5.8</ele>
      </trkpt>
      <trkpt lat="47.55815" lon="-2.89138">
        <ele>5.4</ele>
      </trkpt>
      <trkpt lat="47.55808" lon="-2.8914">
        <ele>4.9</ele>
      </trkpt>
      <trkpt lat="47.558" lon="-2.89142">
        <ele>4.4</ele>
      </trkpt>
      <trkpt lat="47.55793" lon="-2.89148">
        <ele>3.7</ele>
      </trkpt>
      <trkpt lat="47.55786" lon="-2.89155">
        <ele>3.2</ele>
      </trkpt>
      <trkpt lat="47.55781" lon="-2.89162">
        <ele>3</ele>
      </trkpt>
      <trkpt lat="47.55776" lon="-2.89169">
        <ele>2.9</ele>
      </trkpt>
      <trkpt lat="47.55768" lon="-2.89178">
        <ele>3</ele>
      </trkpt>
      <trkpt lat="47.55765" lon="-2.89187">
        <ele>3</ele>
      </trkpt>
      <trkpt lat="47.55761" lon="-2.89198">
        <ele>3.3</ele>
      </trkpt>
      <trkpt lat="47.55759" lon="-2.892">
        <ele>3.4</ele>
      </trkpt>
      <trkpt lat="47.55756" lon="-2.89202">
        <ele>3.7</ele>
      </trkpt>
      <trkpt lat="47.55753" lon="-2.89206">
        <ele>3.8</ele>
      </trkpt>
      <trkpt lat="47.55746" lon="-2.89208">
        <ele>4.2</ele>
      </trkpt>
      <trkpt lat="47.55738" lon="-2.89208">
        <ele>4.4</ele>
      </trkpt>
      <trkpt lat="47.55723" lon="-2.89205">
        <ele>5</ele>
      </trkpt>
      <trkpt lat="47.55711" lon="-2.89204">
        <ele>4.9</ele>
      </trkpt>
      <trkpt lat="47.5569" lon="-2.8921">
        <ele>4.4</ele>
      </trkpt>
      <trkpt lat="47.5566" lon="-2.8922">
        <ele>4</ele>
      </trkpt>
      <trkpt lat="47.55632" lon="-2.89227">
        <ele>3.8</ele>
      </trkpt>
      <trkpt lat="47.55608" lon="-2.89237">
        <ele>3.5</ele>
      </trkpt>
      <trkpt lat="47.556" lon="-2.89245">
        <ele>3.2</ele>
      </trkpt>
      <trkpt lat="47.55579" lon="-2.89257">
        <ele>3.1</ele>
      </trkpt>
      <trkpt lat="47.55558" lon="-2.89268">
        <ele>3.3</ele>
      </trkpt>
      <trkpt lat="47.55532" lon="-2.89285">
        <ele>3.8</ele>
      </trkpt>
      <trkpt lat="47.55491" lon="-2.89326">
        <ele>5.2</ele>
      </trkpt>
      <trkpt lat="47.5546" lon="-2.89361">
        <ele>5.9</ele>
      </trkpt>
      <trkpt lat="47.55435" lon="-2.8939">
        <ele>7.9</ele>
      </trkpt>
      <trkpt lat="47.55399" lon="-2.89432">
        <ele>9.4</ele>
      </trkpt>
      <trkpt lat="47.55392" lon="-2.89438">
        <ele>9.9</ele>
      </trkpt>
      <trkpt lat="47.55385" lon="-2.89446">
        <ele>10.4</ele>
      </trkpt>
      <trkpt lat="47.55366" lon="-2.89478">
        <ele>11.6</ele>
      </trkpt>
      <trkpt lat="47.55357" lon="-2.8949">
        <ele>12.2</ele>
      </trkpt>
      <trkpt lat="47.55363" lon="-2.89492">
        <ele>11.8</ele>
      </trkpt>
      <trkpt lat="47.55366" lon="-2.89492">
        <ele>11.4</ele>
      </trkpt>
      <trkpt lat="47.55385" lon="-2.89492">
        <ele>9.1</ele>
      </trkpt>
      <trkpt lat="47.55389" lon="-2.89489">
        <ele>8.8</ele>
      </trkpt>
      <trkpt lat="47.55392" lon="-2.89487">
        <ele>8.5</ele>
      </trkpt>
      <trkpt lat="47.55395" lon="-2.89485">
        <ele>8.2</ele>
      </trkpt>
      <trkpt lat="47.55408" lon="-2.89486">
        <ele>6.3</ele>
      </trkpt>
      <trkpt lat="47.55419" lon="-2.89487">
        <ele>4.9</ele>
      </trkpt>
      <trkpt lat="47.55422" lon="-2.89488">
        <ele>4.7</ele>
      </trkpt>
      <trkpt lat="47.55442" lon="-2.895">
        <ele>3.2</ele>
      </trkpt>
      <trkpt lat="47.55469" lon="-2.89516">
        <ele>3.1</ele>
      </trkpt>
      <trkpt lat="47.55471" lon="-2.89516">
        <ele>3</ele>
      </trkpt>
      <trkpt lat="47.55472" lon="-2.89513">
        <ele>3</ele>
      </trkpt>
      <trkpt lat="47.55474" lon="-2.89507">
        <ele>2.9</ele>
      </trkpt>
      <trkpt lat="47.55475" lon="-2.89505">
        <ele>2.8</ele>
      </trkpt>
      <trkpt lat="47.55477" lon="-2.89504">
        <ele>2.7</ele>
      </trkpt>
      <trkpt lat="47.55479" lon="-2.89505">
        <ele>2.6</ele>
      </trkpt>
      <trkpt lat="47.55481" lon="-2.89507">
        <ele>2.5</ele>
      </trkpt>
      <trkpt lat="47.55487" lon="-2.89508">
        <ele>2.2</ele>
      </trkpt>
      <trkpt lat="47.55494" lon="-2.8951">
        <ele>2</ele>
      </trkpt>
      <trkpt lat="47.55501" lon="-2.89513">
        <ele>1.9</ele>
      </trkpt>
      <trkpt lat="47.55504" lon="-2.89515">
        <ele>2.1</ele>
      </trkpt>
      <trkpt lat="47.55505" lon="-2.89515">
        <ele>2.1</ele>
      </trkpt>
      <trkpt lat="47.55506" lon="-2.89512">
        <ele>1.9</ele>
      </trkpt>
      <trkpt lat="47.55513" lon="-2.89513">
        <ele>1.9</ele>
      </trkpt>
      <trkpt lat="47.55522" lon="-2.89515">
        <ele>2.1</ele>
      </trkpt>
      <trkpt lat="47.55526" lon="-2.89517">
        <ele>2.2</ele>
      </trkpt>
      <trkpt lat="47.5553" lon="-2.89518">
        <ele>2.2</ele>
      </trkpt>
      <trkpt lat="47.55531" lon="-2.89518">
        <ele>2.2</ele>
      </trkpt>
      <trkpt lat="47.55532" lon="-2.89521">
        <ele>2.4</ele>
      </trkpt>
      <trkpt lat="47.55532" lon="-2.89523">
        <ele>2.5</ele>
      </trkpt>
      <trkpt lat="47.55555" lon="-2.89525">
        <ele>1.9</ele>
      </trkpt>
      <trkpt lat="47.55564" lon="-2.89527">
        <ele>1.7</ele>
      </trkpt>
      <trkpt lat="47.55568" lon="-2.8953">
        <ele>1.7</ele>
      </trkpt>
      <trkpt lat="47.55571" lon="-2.89535">
        <ele>1.8</ele>
      </trkpt>
      <trkpt lat="47.55575" lon="-2.89541">
        <ele>2.1</ele>
      </trkpt>
      <trkpt lat="47.55576" lon="-2.89552">
        <ele>2.8</ele>
      </trkpt>
      <trkpt lat="47.55575" lon="-2.89571">
        <ele>3.6</ele>
      </trkpt>
      <trkpt lat="47.55575" lon="-2.89604">
        <ele>4</ele>
      </trkpt>
      <trkpt lat="47.55575" lon="-2.89607">
        <ele>4</ele>
      </trkpt>
      <trkpt lat="47.55591" lon="-2.89608">
        <ele>4</ele>
      </trkpt>
      <trkpt lat="47.55618" lon="-2.8962">
        <ele>4.2</ele>
      </trkpt>
      <trkpt lat="47.55653" lon="-2.89632">
        <ele>4</ele>
      </trkpt>
      <trkpt lat="47.55618" lon="-2.8962">
        <ele>4.2</ele>
      </trkpt>
      <trkpt lat="47.55591" lon="-2.89608">
        <ele>4</ele>
      </trkpt>
      <trkpt lat="47.55575" lon="-2.89607">
        <ele>4</ele>
      </trkpt>
      <trkpt lat="47.5556" lon="-2.89611">
        <ele>4</ele>
      </trkpt>
      <trkpt lat="47.55482" lon="-2.89638">
        <ele>5.3</ele>
      </trkpt>
      <trkpt lat="47.55441" lon="-2.89654">
        <ele>6</ele>
      </trkpt>
      <trkpt lat="47.55427" lon="-2.89666">
        <ele>6</ele>
      </trkpt>
      <trkpt lat="47.55437" lon="-2.89685">
        <ele>6.5</ele>
      </trkpt>
      <trkpt lat="47.55449" lon="-2.89698">
        <ele>7</ele>
      </trkpt>
      <trkpt lat="47.55517" lon="-2.8977">
        <ele>8.4</ele>
      </trkpt>
      <trkpt lat="47.55556" lon="-2.89809">
        <ele>10</ele>
      </trkpt>
      <trkpt lat="47.5556" lon="-2.89814">
        <ele>10</ele>
      </trkpt>
      <trkpt lat="47.55564" lon="-2.89821">
        <ele>10.2</ele>
      </trkpt>
      <trkpt lat="47.55569" lon="-2.89832">
        <ele>10.5</ele>
      </trkpt>
      <trkpt lat="47.55572" lon="-2.89843">
        <ele>10.7</ele>
      </trkpt>
      <trkpt lat="47.55573" lon="-2.89856">
        <ele>10.9</ele>
      </trkpt>
      <trkpt lat="47.55573" lon="-2.89869">
        <ele>11</ele>
      </trkpt>
      <trkpt lat="47.55573" lon="-2.89879">
        <ele>11</ele>
      </trkpt>
      <trkpt lat="47.55572" lon="-2.89935">
        <ele>12.6</ele>
      </trkpt>
      <trkpt lat="47.55567" lon="-2.90029">
        <ele>13.5</ele>
      </trkpt>
      <trkpt lat="47.55568" lon="-2.90089">
        <ele>14.6</ele>
      </trkpt>
      <trkpt lat="47.55569" lon="-2.90111">
        <ele>15</ele>
      </trkpt>
      <trkpt lat="47.5557" lon="-2.90118">
        <ele>15.1</ele>
      </trkpt>
      <trkpt lat="47.5558" lon="-2.90166">
        <ele>15.9</ele>
      </trkpt>
      <trkpt lat="47.55587" lon="-2.90194">
        <ele>16</ele>
      </trkpt>
      <trkpt lat="47.55595" lon="-2.90213">
        <ele>15.6</ele>
      </trkpt>
      <trkpt lat="47.55607" lon="-2.90238">
        <ele>15.4</ele>
      </trkpt>
      <trkpt lat="47.55618" lon="-2.90262">
        <ele>15.1</ele>
      </trkpt>
      <trkpt lat="47.55634" lon="-2.90306">
        <ele>14.8</ele>
      </trkpt>
      <trkpt lat="47.55642" lon="-2.9035">
        <ele>14</ele>
      </trkpt>
      <trkpt lat="47.55647" lon="-2.90373">
        <ele>14</ele>
      </trkpt>
      <trkpt lat="47.55655" lon="-2.90433">
        <ele>13.7</ele>
      </trkpt>
      <trkpt lat="47.55657" lon="-2.90459">
        <ele>12.8</ele>
      </trkpt>
      <trkpt lat="47.55669" lon="-2.90458">
        <ele>12.4</ele>
      </trkpt>
      <trkpt lat="47.55675" lon="-2.90456">
        <ele>12.3</ele>
      </trkpt>
      <trkpt lat="47.55681" lon="-2.90454">
        <ele>12.1</ele>
      </trkpt>
      <trkpt lat="47.55697" lon="-2.90447">
        <ele>11.8</ele>
      </trkpt>
      <trkpt lat="47.55715" lon="-2.90436">
        <ele>11.3</ele>
      </trkpt>
      <trkpt lat="47.55718" lon="-2.90434">
        <ele>11.2</ele>
      </trkpt>
      <trkpt lat="47.55732" lon="-2.90423">
        <ele>10.3</ele>
      </trkpt>
      <trkpt lat="47.55743" lon="-2.90413">
        <ele>9.7</ele>
      </trkpt>
      <trkpt lat="47.55748" lon="-2.90413">
        <ele>9.4</ele>
      </trkpt>
      <trkpt lat="47.55755" lon="-2.90418">
        <ele>8.8</ele>
      </trkpt>
      <trkpt lat="47.55758" lon="-2.90423">
        <ele>8.7</ele>
      </trkpt>
      <trkpt lat="47.55761" lon="-2.90428">
        <ele>8.6</ele>
      </trkpt>
      <trkpt lat="47.55764" lon="-2.90436">
        <ele>8.5</ele>
      </trkpt>
      <trkpt lat="47.55771" lon="-2.90463">
        <ele>8.9</ele>
      </trkpt>
      <trkpt lat="47.5578" lon="-2.90501">
        <ele>9</ele>
      </trkpt>
      <trkpt lat="47.55784" lon="-2.90515">
        <ele>9.4</ele>
      </trkpt>
      <trkpt lat="47.55792" lon="-2.90532">
        <ele>9.6</ele>
      </trkpt>
      <trkpt lat="47.55812" lon="-2.90578">
        <ele>10.4</ele>
      </trkpt>
      <trkpt lat="47.55834" lon="-2.9062">
        <ele>11.6</ele>
      </trkpt>
      <trkpt lat="47.5584" lon="-2.90627">
        <ele>12.1</ele>
      </trkpt>
      <trkpt lat="47.55845" lon="-2.90631">
        <ele>12.4</ele>
      </trkpt>
      <trkpt lat="47.5585" lon="-2.90629">
        <ele>12.3</ele>
      </trkpt>
      <trkpt lat="47.55855" lon="-2.90628">
        <ele>12.2</ele>
      </trkpt>
      <trkpt lat="47.55859" lon="-2.90628">
        <ele>12.2</ele>
      </trkpt>
      <trkpt lat="47.55868" lon="-2.90626">
        <ele>12.2</ele>
      </trkpt>
      <trkpt lat="47.55877" lon="-2.90624">
        <ele>12.2</ele>
      </trkpt>
      <trkpt lat="47.55874" lon="-2.90615">
        <ele>11.3</ele>
      </trkpt>
      <trkpt lat="47.55875" lon="-2.9061">
        <ele>10.9</ele>
      </trkpt>
      <trkpt lat="47.55884" lon="-2.90556">
        <ele>7.2</ele>
      </trkpt>
      <trkpt lat="47.55889" lon="-2.90526">
        <ele>5</ele>
      </trkpt>
      <trkpt lat="47.55903" lon="-2.90523">
        <ele>4.4</ele>
      </trkpt>
      <trkpt lat="47.55908" lon="-2.90522">
        <ele>4.2</ele>
      </trkpt>
      <trkpt lat="47.55903" lon="-2.90523">
        <ele>4.4</ele>
      </trkpt>
      <trkpt lat="47.55889" lon="-2.90526">
        <ele>5</ele>
      </trkpt>
      <trkpt lat="47.55884" lon="-2.90556">
        <ele>7.2</ele>
      </trkpt>
      <trkpt lat="47.55875" lon="-2.9061">
        <ele>10.9</ele>
      </trkpt>
      <trkpt lat="47.55874" lon="-2.90615">
        <ele>11.3</ele>
      </trkpt>
      <trkpt lat="47.55877" lon="-2.90624">
        <ele>12.2</ele>
      </trkpt>
      <trkpt lat="47.55868" lon="-2.90626">
        <ele>12.2</ele>
      </trkpt>
      <trkpt lat="47.55859" lon="-2.90628">
        <ele>12.2</ele>
      </trkpt>
      <trkpt lat="47.55855" lon="-2.90628">
        <ele>12.2</ele>
      </trkpt>
      <trkpt lat="47.5585" lon="-2.90629">
        <ele>12.3</ele>
      </trkpt>
      <trkpt lat="47.55845" lon="-2.90631">
        <ele>12.4</ele>
      </trkpt>
      <trkpt lat="47.55844" lon="-2.90636">
        <ele>12.8</ele>
      </trkpt>
      <trkpt lat="47.5584" lon="-2.90642">
        <ele>13.1</ele>
      </trkpt>
      <trkpt lat="47.55811" lon="-2.90655">
        <ele>14</ele>
      </trkpt>
      <trkpt lat="47.55782" lon="-2.90661">
        <ele>15.3</ele>
      </trkpt>
      <trkpt lat="47.55757" lon="-2.90666">
        <ele>15.9</ele>
      </trkpt>
      <trkpt lat="47.55741" lon="-2.90675">
        <ele>17.1</ele>
      </trkpt>
      <trkpt lat="47.55723" lon="-2.90681">
        <ele>18</ele>
      </trkpt>
      <trkpt lat="47.55717" lon="-2.90682">
        <ele>18.1</ele>
      </trkpt>
      <trkpt lat="47.55691" lon="-2.90687">
        <ele>18.4</ele>
      </trkpt>
      <trkpt lat="47.55668" lon="-2.90692">
        <ele>18</ele>
      </trkpt>
      <trkpt lat="47.55661" lon="-2.90697">
        <ele>18</ele>
      </trkpt>
      <trkpt lat="47.5566" lon="-2.90712">
        <ele>19.4</ele>
      </trkpt>
      <trkpt lat="47.55659" lon="-2.90728">
        <ele>20.2</ele>
      </trkpt>
      <trkpt lat="47.5566" lon="-2.90743">
        <ele>20.5</ele>
      </trkpt>
      <trkpt lat="47.55662" lon="-2.90757">
        <ele>20.5</ele>
      </trkpt>
      <trkpt lat="47.55657" lon="-2.90762">
        <ele>20</ele>
      </trkpt>
      <trkpt lat="47.55643" lon="-2.90782">
        <ele>19.1</ele>
      </trkpt>
      <trkpt lat="47.55637" lon="-2.90789">
        <ele>18.9</ele>
      </trkpt>
      <trkpt lat="47.55636" lon="-2.90792">
        <ele>18.8</ele>
      </trkpt>
      <trkpt lat="47.55632" lon="-2.90794">
        <ele>18.6</ele>
      </trkpt>
      <trkpt lat="47.55621" lon="-2.90798">
        <ele>18.2</ele>
      </trkpt>
      <trkpt lat="47.55615" lon="-2.908">
        <ele>18</ele>
      </trkpt>
      <trkpt lat="47.55604" lon="-2.90822">
        <ele>17.5</ele>
      </trkpt>
      <trkpt lat="47.55599" lon="-2.90837">
        <ele>17.1</ele>
      </trkpt>
      <trkpt lat="47.55596" lon="-2.90849">
        <ele>16.7</ele>
      </trkpt>
      <trkpt lat="47.55595" lon="-2.90857">
        <ele>16.5</ele>
      </trkpt>
      <trkpt lat="47.55595" lon="-2.90871">
        <ele>16.6</ele>
      </trkpt>
      <trkpt lat="47.55594" lon="-2.90898">
        <ele>16.5</ele>
      </trkpt>
      <trkpt lat="47.55589" lon="-2.90929">
        <ele>15.5</ele>
      </trkpt>
      <trkpt lat="47.55587" lon="-2.90947">
        <ele>14.8</ele>
      </trkpt>
      <trkpt lat="47.55585" lon="-2.9096">
        <ele>14.3</ele>
      </trkpt>
      <trkpt lat="47.55584" lon="-2.90964">
        <ele>14.3</ele>
      </trkpt>
      <trkpt lat="47.55575" lon="-2.91011">
        <ele>13.5</ele>
      </trkpt>
      <trkpt lat="47.55569" lon="-2.91031">
        <ele>13.5</ele>
      </trkpt>
      <trkpt lat="47.55568" lon="-2.91036">
        <ele>13.6</ele>
      </trkpt>
      <trkpt lat="47.55549" lon="-2.91079">
        <ele>14.8</ele>
      </trkpt>
      <trkpt lat="47.55537" lon="-2.91104">
        <ele>15.2</ele>
      </trkpt>
      <trkpt lat="47.5553" lon="-2.91118">
        <ele>16.1</ele>
      </trkpt>
      <trkpt lat="47.55527" lon="-2.91122">
        <ele>16.4</ele>
      </trkpt>
      <trkpt lat="47.55524" lon="-2.91126">
        <ele>16.7</ele>
      </trkpt>
      <trkpt lat="47.55519" lon="-2.91126">
        <ele>16.9</ele>
      </trkpt>
      <trkpt lat="47.55509" lon="-2.91121">
        <ele>17</ele>
      </trkpt>
      <trkpt lat="47.55474" lon="-2.91113">
        <ele>16.2</ele>
      </trkpt>
      <trkpt lat="47.55433" lon="-2.91099">
        <ele>13.3</ele>
      </trkpt>
      <trkpt lat="47.55404" lon="-2.91092">
        <ele>10.6</ele>
      </trkpt>
      <trkpt lat="47.55394" lon="-2.91092">
        <ele>9.7</ele>
      </trkpt>
      <trkpt lat="47.55406" lon="-2.91147">
        <ele>12</ele>
      </trkpt>
      <trkpt lat="47.55421" lon="-2.91206">
        <ele>14.3</ele>
      </trkpt>
      <trkpt lat="47.55431" lon="-2.91244">
        <ele>15.4</ele>
      </trkpt>
      <trkpt lat="47.55435" lon="-2.91257">
        <ele>15.7</ele>
      </trkpt>
      <trkpt lat="47.55452" lon="-2.91309">
        <ele>15.1</ele>
      </trkpt>
      <trkpt lat="47.55466" lon="-2.91343">
        <ele>14.2</ele>
      </trkpt>
      <trkpt lat="47.55481" lon="-2.91367">
        <ele>13.1</ele>
      </trkpt>
      <trkpt lat="47.55495" lon="-2.91381">
        <ele>13.1</ele>
      </trkpt>
      <trkpt lat="47.55501" lon="-2.91385">
        <ele>13.1</ele>
      </trkpt>
      <trkpt lat="47.55506" lon="-2.91388">
        <ele>13</ele>
      </trkpt>
      <trkpt lat="47.55514" lon="-2.91391">
        <ele>13</ele>
      </trkpt>
      <trkpt lat="47.5553" lon="-2.91396">
        <ele>13.4</ele>
      </trkpt>
      <trkpt lat="47.55536" lon="-2.91397">
        <ele>13.7</ele>
      </trkpt>
      <trkpt lat="47.5553" lon="-2.91396">
        <ele>13.4</ele>
      </trkpt>
      <trkpt lat="47.55514" lon="-2.91391">
        <ele>13</ele>
      </trkpt>
      <trkpt lat="47.55506" lon="-2.91388">
        <ele>13</ele>
      </trkpt>
      <trkpt lat="47.55501" lon="-2.91385">
        <ele>13.1</ele>
      </trkpt>
      <trkpt lat="47.55495" lon="-2.91381">
        <ele>13.1</ele>
      </trkpt>
      <trkpt lat="47.55481" lon="-2.91367">
        <ele>13.1</ele>
      </trkpt>
      <trkpt lat="47.55466" lon="-2.91343">
        <ele>14.2</ele>
      </trkpt>
      <trkpt lat="47.55452" lon="-2.91309">
        <ele>15.1</ele>
      </trkpt>
      <trkpt lat="47.55435" lon="-2.91257">
        <ele>15.7</ele>
      </trkpt>
      <trkpt lat="47.55431" lon="-2.91244">
        <ele>15.4</ele>
      </trkpt>
      <trkpt lat="47.55421" lon="-2.91206">
        <ele>14.3</ele>
      </trkpt>
      <trkpt lat="47.55406" lon="-2.91147">
        <ele>12</ele>
      </trkpt>
      <trkpt lat="47.55394" lon="-2.91092">
        <ele>9.7</ele>
      </trkpt>
      <trkpt lat="47.55386" lon="-2.91062">
        <ele>7.6</ele>
      </trkpt>
      <trkpt lat="47.55382" lon="-2.91049">
        <ele>6.6</ele>
      </trkpt>
      <trkpt lat="47.55377" lon="-2.91039">
        <ele>5.7</ele>
      </trkpt>
      <trkpt lat="47.55372" lon="-2.91029">
        <ele>4.9</ele>
      </trkpt>
      <trkpt lat="47.55364" lon="-2.91012">
        <ele>4.5</ele>
      </trkpt>
      <trkpt lat="47.55349" lon="-2.90989">
        <ele>4</ele>
      </trkpt>
      <trkpt lat="47.55346" lon="-2.90985">
        <ele>4</ele>
      </trkpt>
      <trkpt lat="47.5532" lon="-2.90958">
        <ele>3.8</ele>
      </trkpt>
      <trkpt lat="47.55293" lon="-2.90936">
        <ele>3.5</ele>
      </trkpt>
      <trkpt lat="47.55265" lon="-2.90918">
        <ele>4</ele>
      </trkpt>
      <trkpt lat="47.55223" lon="-2.90895">
        <ele>4.2</ele>
      </trkpt>
      <trkpt lat="47.55204" lon="-2.90885">
        <ele>4.6</ele>
      </trkpt>
      <trkpt lat="47.55194" lon="-2.90883">
        <ele>4.4</ele>
      </trkpt>
      <trkpt lat="47.55179" lon="-2.90882">
        <ele>4.2</ele>
      </trkpt>
      <trkpt lat="47.5514" lon="-2.90878">
        <ele>4.6</ele>
      </trkpt>
      <trkpt lat="47.55124" lon="-2.90873">
        <ele>4.2</ele>
      </trkpt>
      <trkpt lat="47.55115" lon="-2.90865">
        <ele>4.7</ele>
      </trkpt>
      <trkpt lat="47.55093" lon="-2.90842">
        <ele>5.6</ele>
      </trkpt>
      <trkpt lat="47.55079" lon="-2.90825">
        <ele>5.8</ele>
      </trkpt>
      <trkpt lat="47.5507" lon="-2.90813">
        <ele>5.5</ele>
      </trkpt>
      <trkpt lat="47.55041" lon="-2.90771">
        <ele>6.6</ele>
      </trkpt>
      <trkpt lat="47.55034" lon="-2.9076">
        <ele>6.4</ele>
      </trkpt>
      <trkpt lat="47.55024" lon="-2.90774">
        <ele>5.7</ele>
      </trkpt>
      <trkpt lat="47.5502" lon="-2.90779">
        <ele>5.3</ele>
      </trkpt>
      <trkpt lat="47.55016" lon="-2.90782">
        <ele>4.8</ele>
      </trkpt>
      <trkpt lat="47.55002" lon="-2.90787">
        <ele>3.8</ele>
      </trkpt>
      <trkpt lat="47.5499" lon="-2.90791">
        <ele>3.5</ele>
      </trkpt>
      <trkpt lat="47.54982" lon="-2.90793">
        <ele>3.5</ele>
      </trkpt>
      <trkpt lat="47.54966" lon="-2.90798">
        <ele>3.8</ele>
      </trkpt>
      <trkpt lat="47.54959" lon="-2.908">
        <ele>4.4</ele>
      </trkpt>
      <trkpt lat="47.54953" lon="-2.90801">
        <ele>5</ele>
      </trkpt>
      <trkpt lat="47.54953" lon="-2.90803">
        <ele>5</ele>
      </trkpt>
      <trkpt lat="47.54948" lon="-2.90828">
        <ele>5.5</ele>
      </trkpt>
      <trkpt lat="47.54945" lon="-2.9084">
        <ele>5.9</ele>
      </trkpt>
      <trkpt lat="47.54942" lon="-2.90846">
        <ele>6</ele>
      </trkpt>
      <trkpt lat="47.54938" lon="-2.90852">
        <ele>6.1</ele>
      </trkpt>
      <trkpt lat="47.54934" lon="-2.90857">
        <ele>6.1</ele>
      </trkpt>
      <trkpt lat="47.54921" lon="-2.90869">
        <ele>5.1</ele>
      </trkpt>
      <trkpt lat="47.54903" lon="-2.90884">
        <ele>4.8</ele>
      </trkpt>
      <trkpt lat="47.54876" lon="-2.90909">
        <ele>4.9</ele>
      </trkpt>
      <trkpt lat="47.5486" lon="-2.90925">
        <ele>5.9</ele>
      </trkpt>
      <trkpt lat="47.54849" lon="-2.90942">
        <ele>5</ele>
      </trkpt>
      <trkpt lat="47.54835" lon="-2.90965">
        <ele>5.5</ele>
      </trkpt>
      <trkpt lat="47.54828" lon="-2.90982">
        <ele>4.8</ele>
      </trkpt>
      <trkpt lat="47.54825" lon="-2.91">
        <ele>4.2</ele>
      </trkpt>
      <trkpt lat="47.54822" lon="-2.91014">
        <ele>4.3</ele>
      </trkpt>
      <trkpt lat="47.54822" lon="-2.91023">
        <ele>4.1</ele>
      </trkpt>
      <trkpt lat="47.54822" lon="-2.91035">
        <ele>4.3</ele>
      </trkpt>
      <trkpt lat="47.54823" lon="-2.91051">
        <ele>4.7</ele>
      </trkpt>
      <trkpt lat="47.54825" lon="-2.91073">
        <ele>5.8</ele>
      </trkpt>
      <trkpt lat="47.54826" lon="-2.9109">
        <ele>6.9</ele>
      </trkpt>
      <trkpt lat="47.54826" lon="-2.91103">
        <ele>7.8</ele>
      </trkpt>
      <trkpt lat="47.54824" lon="-2.91111">
        <ele>8.3</ele>
      </trkpt>
      <trkpt lat="47.5482" lon="-2.91126">
        <ele>8.5</ele>
      </trkpt>
      <trkpt lat="47.54811" lon="-2.91149">
        <ele>9.4</ele>
      </trkpt>
      <trkpt lat="47.54802" lon="-2.91174">
        <ele>11.4</ele>
      </trkpt>
      <trkpt lat="47.54796" lon="-2.91187">
        <ele>12.1</ele>
      </trkpt>
      <trkpt lat="47.54793" lon="-2.91193">
        <ele>12.4</ele>
      </trkpt>
      <trkpt lat="47.54788" lon="-2.91197">
        <ele>12.5</ele>
      </trkpt>
      <trkpt lat="47.54782" lon="-2.912">
        <ele>12.6</ele>
      </trkpt>
      <trkpt lat="47.5477" lon="-2.91206">
        <ele>12.9</ele>
      </trkpt>
      <trkpt lat="47.54767" lon="-2.91208">
        <ele>12.9</ele>
      </trkpt>
      <trkpt lat="47.54763" lon="-2.9121">
        <ele>13</ele>
      </trkpt>
      <trkpt lat="47.54758" lon="-2.91215">
        <ele>13</ele>
      </trkpt>
      <trkpt lat="47.54749" lon="-2.91227">
        <ele>12.7</ele>
      </trkpt>
      <trkpt lat="47.54741" lon="-2.91243">
        <ele>11.8</ele>
      </trkpt>
      <trkpt lat="47.54734" lon="-2.91262">
        <ele>11</ele>
      </trkpt>
      <trkpt lat="47.54729" lon="-2.91289">
        <ele>10.2</ele>
      </trkpt>
      <trkpt lat="47.54718" lon="-2.91333">
        <ele>9</ele>
      </trkpt>
      <trkpt lat="47.54704" lon="-2.91393">
        <ele>8.7</ele>
      </trkpt>
      <trkpt lat="47.54694" lon="-2.91441">
        <ele>9</ele>
      </trkpt>
      <trkpt lat="47.54691" lon="-2.91457">
        <ele>9.1</ele>
      </trkpt>
      <trkpt lat="47.54689" lon="-2.91474">
        <ele>9.2</ele>
      </trkpt>
      <trkpt lat="47.54689" lon="-2.91474">
        <ele>9.2</ele>
      </trkpt>
      <trkpt lat="47.5469" lon="-2.91476">
        <ele>53.6</ele>
        <time>2021-11-13T14:57:57Z</time>
      </trkpt>
      <trkpt lat="47.54706" lon="-2.915">
        <ele>53.4</ele>
        <time>2021-11-13T14:58:03Z</time>
      </trkpt>
      <trkpt lat="47.54728" lon="-2.91524">
        <ele>52.8</ele>
        <time>2021-11-13T14:58:09Z</time>
      </trkpt>
      <trkpt lat="47.54738" lon="-2.91536">
        <ele>52.6</ele>
        <time>2021-11-13T14:58:12Z</time>
      </trkpt>
      <trkpt lat="47.54749" lon="-2.91549">
        <ele>52.2</ele>
        <time>2021-11-13T14:58:16Z</time>
      </trkpt>
      <trkpt lat="47.54758" lon="-2.91559">
        <ele>51.8</ele>
        <time>2021-11-13T14:58:19Z</time>
      </trkpt>
      <trkpt lat="47.54771" lon="-2.91574">
        <ele>51.6</ele>
        <time>2021-11-13T14:58:23Z</time>
      </trkpt>
      <trkpt lat="47.54778" lon="-2.91581">
        <ele>51.6</ele>
        <time>2021-11-13T14:58:25Z</time>
      </trkpt>
      <trkpt lat="47.5479" lon="-2.91591">
        <ele>51.4</ele>
        <time>2021-11-13T14:58:28Z</time>
      </trkpt>
      <trkpt lat="47.54797" lon="-2.91599">
        <ele>51.4</ele>
        <time>2021-11-13T14:58:30Z</time>
      </trkpt>
      <trkpt lat="47.54809" lon="-2.91612">
        <ele>51.4</ele>
        <time>2021-11-13T14:58:33Z</time>
      </trkpt>
      <trkpt lat="47.54813" lon="-2.91617">
        <ele>51.4</ele>
        <time>2021-11-13T14:58:34Z</time>
      </trkpt>
      <trkpt lat="47.54816" lon="-2.91621">
        <ele>51.4</ele>
        <time>2021-11-13T14:58:35Z</time>
      </trkpt>
      <trkpt lat="47.54834" lon="-2.91639">
        <ele>51.4</ele>
        <time>2021-11-13T14:58:40Z</time>
      </trkpt>
      <trkpt lat="47.54865" lon="-2.91676">
        <ele>52</ele>
        <time>2021-11-13T14:58:49Z</time>
      </trkpt>
      <trkpt lat="47.54871" lon="-2.91684">
        <ele>52</ele>
        <time>2021-11-13T14:58:51Z</time>
      </trkpt>
      <trkpt lat="47.54875" lon="-2.91694">
        <ele>52</ele>
        <time>2021-11-13T14:58:53Z</time>
      </trkpt>
      <trkpt lat="47.54875" lon="-2.91699">
        <ele>52.2</ele>
        <time>2021-11-13T14:58:54Z</time>
      </trkpt>
      <trkpt lat="47.5487" lon="-2.91708">
        <ele>52.2</ele>
        <time>2021-11-13T14:58:57Z</time>
      </trkpt>
      <trkpt lat="47.54858" lon="-2.91713">
        <ele>52</ele>
        <time>2021-11-13T14:59:02Z</time>
      </trkpt>
      <trkpt lat="47.54829" lon="-2.91731">
        <ele>52.2</ele>
        <time>2021-11-13T14:59:13Z</time>
      </trkpt>
      <trkpt lat="47.54799" lon="-2.91749">
        <ele>52.6</ele>
        <time>2021-11-13T14:59:24Z</time>
      </trkpt>
      <trkpt lat="47.54774" lon="-2.91764">
        <ele>52.6</ele>
        <time>2021-11-13T14:59:33Z</time>
      </trkpt>
      <trkpt lat="47.54748" lon="-2.91775">
        <ele>52.6</ele>
        <time>2021-11-13T14:59:42Z</time>
      </trkpt>
      <trkpt lat="47.54729" lon="-2.91768">
        <ele>52.6</ele>
        <time>2021-11-13T14:59:48Z</time>
      </trkpt>
      <trkpt lat="47.54713" lon="-2.91743">
        <ele>52.8</ele>
        <time>2021-11-13T14:59:55Z</time>
      </trkpt>
      <trkpt lat="47.54697" lon="-2.91722">
        <ele>52.8</ele>
        <time>2021-11-13T15:00:01Z</time>
      </trkpt>
      <trkpt lat="47.5468" lon="-2.91697">
        <ele>52.8</ele>
        <time>2021-11-13T15:00:07Z</time>
      </trkpt>
      <trkpt lat="47.54674" lon="-2.91666">
        <ele>53</ele>
        <time>2021-11-13T15:00:12Z</time>
      </trkpt>
      <trkpt lat="47.54677" lon="-2.91622">
        <ele>53</ele>
        <time>2021-11-13T15:00:18Z</time>
      </trkpt>
      <trkpt lat="47.54677" lon="-2.91614">
        <ele>53</ele>
        <time>2021-11-13T15:00:19Z</time>
      </trkpt>
      <trkpt lat="47.5468" lon="-2.91579">
        <ele>53</ele>
        <time>2021-11-13T15:00:23Z</time>
      </trkpt>
      <trkpt lat="47.54687" lon="-2.91513">
        <ele>53</ele>
        <time>2021-11-13T15:00:31Z</time>
      </trkpt>
      <trkpt lat="47.54688" lon="-2.91491">
        <ele>52.8</ele>
        <time>2021-11-13T15:00:36Z</time>
      </trkpt>
      <trkpt lat="47.54687" lon="-2.91477">
        <ele>52.6</ele>
        <time>2021-11-13T15:00:41Z</time>
      </trkpt>
      <trkpt lat="47.54685" lon="-2.91474">
        <ele>52.6</ele>
        <time>2021-11-13T15:00:42Z</time>
      </trkpt>
      <trkpt lat="47.54667" lon="-2.91452">
        <ele>52.2</ele>
        <time>2021-11-13T15:00:48Z</time>
      </trkpt>
      <trkpt lat="47.5466" lon="-2.91444">
        <ele>52</ele>
        <time>2021-11-13T15:00:50Z</time>
      </trkpt>
      <trkpt lat="47.54646" lon="-2.91429">
        <ele>51.6</ele>
        <time>2021-11-13T15:00:54Z</time>
      </trkpt>
      <trkpt lat="47.54633" lon="-2.91414">
        <ele>51.4</ele>
        <time>2021-11-13T15:00:58Z</time>
      </trkpt>
      <trkpt lat="47.54627" lon="-2.91404">
        <ele>51.2</ele>
        <time>2021-11-13T15:01:00Z</time>
      </trkpt>
      <trkpt lat="47.54625" lon="-2.91399">
        <ele>51.2</ele>
        <time>2021-11-13T15:01:01Z</time>
      </trkpt>
      <trkpt lat="47.54622" lon="-2.91388">
        <ele>51</ele>
        <time>2021-11-13T15:01:03Z</time>
      </trkpt>
      <trkpt lat="47.54621" lon="-2.91383">
        <ele>50.8</ele>
        <time>2021-11-13T15:01:04Z</time>
      </trkpt>
      <trkpt lat="47.54621" lon="-2.91377">
        <ele>50.8</ele>
        <time>2021-11-13T15:01:05Z</time>
      </trkpt>
      <trkpt lat="47.54622" lon="-2.91372">
        <ele>50.6</ele>
        <time>2021-11-13T15:01:06Z</time>
      </trkpt>
      <trkpt lat="47.5463" lon="-2.91349">
        <ele>50.4</ele>
        <time>2021-11-13T15:01:11Z</time>
      </trkpt>
      <trkpt lat="47.54642" lon="-2.91318">
        <ele>50.2</ele>
        <time>2021-11-13T15:01:18Z</time>
      </trkpt>
      <trkpt lat="47.54652" lon="-2.91287">
        <ele>50</ele>
        <time>2021-11-13T15:01:25Z</time>
      </trkpt>
      <trkpt lat="47.54659" lon="-2.9125">
        <ele>50</ele>
        <time>2021-11-13T15:01:33Z</time>
      </trkpt>
      <trkpt lat="47.54656" lon="-2.91206">
        <ele>50.2</ele>
        <time>2021-11-13T15:01:42Z</time>
      </trkpt>
      <trkpt lat="47.54651" lon="-2.91171">
        <ele>50.2</ele>
        <time>2021-11-13T15:01:49Z</time>
      </trkpt>
      <trkpt lat="47.54645" lon="-2.91137">
        <ele>50.2</ele>
        <time>2021-11-13T15:01:56Z</time>
      </trkpt>
      <trkpt lat="47.54633" lon="-2.91099">
        <ele>50</ele>
        <time>2021-11-13T15:02:03Z</time>
      </trkpt>
      <trkpt lat="47.54623" lon="-2.91086">
        <ele>50</ele>
        <time>2021-11-13T15:02:07Z</time>
      </trkpt>
      <trkpt lat="47.54616" lon="-2.91081">
        <ele>50</ele>
        <time>2021-11-13T15:02:09Z</time>
      </trkpt>
      <trkpt lat="47.54615" lon="-2.91076">
        <ele>50</ele>
        <time>2021-11-13T15:02:10Z</time>
      </trkpt>
      <trkpt lat="47.54614" lon="-2.9105">
        <ele>50</ele>
        <time>2021-11-13T15:02:14Z</time>
      </trkpt>
      <trkpt lat="47.54612" lon="-2.91035">
        <ele>50.2</ele>
        <time>2021-11-13T15:02:16Z</time>
      </trkpt>
      <trkpt lat="47.54608" lon="-2.91021">
        <ele>50.2</ele>
        <time>2021-11-13T15:02:18Z</time>
      </trkpt>
      <trkpt lat="47.54591" lon="-2.90958">
        <ele>50.4</ele>
        <time>2021-11-13T15:02:26Z</time>
      </trkpt>
      <trkpt lat="47.54574" lon="-2.90896">
        <ele>50.4</ele>
        <time>2021-11-13T15:02:33Z</time>
      </trkpt>
      <trkpt lat="47.54566" lon="-2.90857">
        <ele>50.2</ele>
        <time>2021-11-13T15:02:37Z</time>
      </trkpt>
      <trkpt lat="47.54562" lon="-2.90828">
        <ele>50.2</ele>
        <time>2021-11-13T15:02:40Z</time>
      </trkpt>
      <trkpt lat="47.54562" lon="-2.90777">
        <ele>50.4</ele>
        <time>2021-11-13T15:02:45Z</time>
      </trkpt>
      <trkpt lat="47.54564" lon="-2.90706">
        <ele>50.6</ele>
        <time>2021-11-13T15:02:52Z</time>
      </trkpt>
      <trkpt lat="47.54564" lon="-2.90697">
        <ele>50.6</ele>
        <time>2021-11-13T15:02:53Z</time>
      </trkpt>
      <trkpt lat="47.54566" lon="-2.9068">
        <ele>50.4</ele>
        <time>2021-11-13T15:02:55Z</time>
      </trkpt>
      <trkpt lat="47.54575" lon="-2.90659">
        <ele>50.2</ele>
        <time>2021-11-13T15:02:58Z</time>
      </trkpt>
      <trkpt lat="47.54579" lon="-2.90643">
        <ele>50</ele>
        <time>2021-11-13T15:03:00Z</time>
      </trkpt>
      <trkpt lat="47.54596" lon="-2.90576">
        <ele>50</ele>
        <time>2021-11-13T15:03:08Z</time>
      </trkpt>
      <trkpt lat="47.54599" lon="-2.9057">
        <ele>50.2</ele>
        <time>2021-11-13T15:03:09Z</time>
      </trkpt>
      <trkpt lat="47.54603" lon="-2.90564">
        <ele>50.2</ele>
        <time>2021-11-13T15:03:10Z</time>
      </trkpt>
      <trkpt lat="47.54607" lon="-2.90551">
        <ele>50</ele>
        <time>2021-11-13T15:03:12Z</time>
      </trkpt>
      <trkpt lat="47.54609" lon="-2.90543">
        <ele>50</ele>
        <time>2021-11-13T15:03:13Z</time>
      </trkpt>
      <trkpt lat="47.54623" lon="-2.9048">
        <ele>50</ele>
        <time>2021-11-13T15:03:21Z</time>
      </trkpt>
      <trkpt lat="47.54637" lon="-2.90418">
        <ele>50.4</ele>
        <time>2021-11-13T15:03:29Z</time>
      </trkpt>
      <trkpt lat="47.54641" lon="-2.90403">
        <ele>50.4</ele>
        <time>2021-11-13T15:03:31Z</time>
      </trkpt>
      <trkpt lat="47.54651" lon="-2.90384">
        <ele>50.4</ele>
        <time>2021-11-13T15:03:34Z</time>
      </trkpt>
      <trkpt lat="47.5467" lon="-2.90355">
        <ele>50.4</ele>
        <time>2021-11-13T15:03:40Z</time>
      </trkpt>
      <trkpt lat="47.54672" lon="-2.90351">
        <ele>50.4</ele>
        <time>2021-11-13T15:03:41Z</time>
      </trkpt>
      <trkpt lat="47.54671" lon="-2.90333">
        <ele>50.4</ele>
        <time>2021-11-13T15:03:45Z</time>
      </trkpt>
      <trkpt lat="47.54662" lon="-2.90319">
        <ele>50.6</ele>
        <time>2021-11-13T15:03:49Z</time>
      </trkpt>
      <trkpt lat="47.54652" lon="-2.90311">
        <ele>50.6</ele>
        <time>2021-11-13T15:03:53Z</time>
      </trkpt>
      <trkpt lat="47.54651" lon="-2.90307">
        <ele>50.6</ele>
        <time>2021-11-13T15:03:54Z</time>
      </trkpt>
      <trkpt lat="47.54656" lon="-2.90285">
        <ele>50.6</ele>
        <time>2021-11-13T15:03:58Z</time>
      </trkpt>
      <trkpt lat="47.54663" lon="-2.90241">
        <ele>50.2</ele>
        <time>2021-11-13T15:04:04Z</time>
      </trkpt>
      <trkpt lat="47.54671" lon="-2.90185">
        <ele>49.8</ele>
        <time>2021-11-13T15:04:11Z</time>
      </trkpt>
      <trkpt lat="47.54672" lon="-2.90176">
        <ele>49.8</ele>
        <time>2021-11-13T15:04:12Z</time>
      </trkpt>
      <trkpt lat="47.54675" lon="-2.90102">
        <ele>49</ele>
        <time>2021-11-13T15:04:20Z</time>
      </trkpt>
      <trkpt lat="47.54674" lon="-2.90092">
        <ele>49</ele>
        <time>2021-11-13T15:04:21Z</time>
      </trkpt>
      <trkpt lat="47.54671" lon="-2.90024">
        <ele>48.8</ele>
        <time>2021-11-13T15:04:28Z</time>
      </trkpt>
      <trkpt lat="47.54671" lon="-2.90014">
        <ele>48.8</ele>
        <time>2021-11-13T15:04:29Z</time>
      </trkpt>
      <trkpt lat="47.54667" lon="-2.89956">
        <ele>48.2</ele>
        <time>2021-11-13T15:04:35Z</time>
      </trkpt>
      <trkpt lat="47.54662" lon="-2.89868">
        <ele>47.8</ele>
        <time>2021-11-13T15:04:44Z</time>
      </trkpt>
      <trkpt lat="47.54656" lon="-2.8978">
        <ele>47.6</ele>
        <time>2021-11-13T15:04:53Z</time>
      </trkpt>
      <trkpt lat="47.54653" lon="-2.8973">
        <ele>47.6</ele>
        <time>2021-11-13T15:04:59Z</time>
      </trkpt>
      <trkpt lat="47.54653" lon="-2.89724">
        <ele>47.6</ele>
        <time>2021-11-13T15:05:00Z</time>
      </trkpt>
      <trkpt lat="47.54651" lon="-2.89692">
        <ele>47.6</ele>
        <time>2021-11-13T15:05:04Z</time>
      </trkpt>
      <trkpt lat="47.5465" lon="-2.89678">
        <ele>47.6</ele>
        <time>2021-11-13T15:05:06Z</time>
      </trkpt>
      <trkpt lat="47.54645" lon="-2.89666">
        <ele>47.4</ele>
        <time>2021-11-13T15:05:08Z</time>
      </trkpt>
      <trkpt lat="47.54643" lon="-2.89661">
        <ele>47.4</ele>
        <time>2021-11-13T15:05:09Z</time>
      </trkpt>
      <trkpt lat="47.54643" lon="-2.89651">
        <ele>47.4</ele>
        <time>2021-11-13T15:05:11Z</time>
      </trkpt>
      <trkpt lat="47.54643" lon="-2.89646">
        <ele>47.2</ele>
        <time>2021-11-13T15:05:12Z</time>
      </trkpt>
      <trkpt lat="47.54641" lon="-2.89637">
        <ele>47</ele>
        <time>2021-11-13T15:05:14Z</time>
      </trkpt>
      <trkpt lat="47.54639" lon="-2.89633">
        <ele>46.8</ele>
        <time>2021-11-13T15:05:15Z</time>
      </trkpt>
      <trkpt lat="47.5464" lon="-2.89625">
        <ele>46.6</ele>
        <time>2021-11-13T15:05:17Z</time>
      </trkpt>
      <trkpt lat="47.54642" lon="-2.89606">
        <ele>46.4</ele>
        <time>2021-11-13T15:05:21Z</time>
      </trkpt>
      <trkpt lat="47.54641" lon="-2.89594">
        <ele>46</ele>
        <time>2021-11-13T15:05:23Z</time>
      </trkpt>
      <trkpt lat="47.54639" lon="-2.89573">
        <ele>45.8</ele>
        <time>2021-11-13T15:05:26Z</time>
      </trkpt>
      <trkpt lat="47.54637" lon="-2.89552">
        <ele>45.6</ele>
        <time>2021-11-13T15:05:29Z</time>
      </trkpt>
      <trkpt lat="47.54637" lon="-2.89538">
        <ele>45.6</ele>
        <time>2021-11-13T15:05:31Z</time>
      </trkpt>
      <trkpt lat="47.54637" lon="-2.89524">
        <ele>45.4</ele>
        <time>2021-11-13T15:05:33Z</time>
      </trkpt>
      <trkpt lat="47.54634" lon="-2.89448">
        <ele>45.2</ele>
        <time>2021-11-13T15:05:43Z</time>
      </trkpt>
      <trkpt lat="47.5463" lon="-2.89397">
        <ele>45.2</ele>
        <time>2021-11-13T15:05:50Z</time>
      </trkpt>
      <trkpt lat="47.54629" lon="-2.89391">
        <ele>45.2</ele>
        <time>2021-11-13T15:05:51Z</time>
      </trkpt>
      <trkpt lat="47.54627" lon="-2.89377">
        <ele>45.4</ele>
        <time>2021-11-13T15:05:53Z</time>
      </trkpt>
      <trkpt lat="47.54627" lon="-2.89354">
        <ele>45.2</ele>
        <time>2021-11-13T15:05:56Z</time>
      </trkpt>
      <trkpt lat="47.54627" lon="-2.89347">
        <ele>45.2</ele>
        <time>2021-11-13T15:05:57Z</time>
      </trkpt>
      <trkpt lat="47.54625" lon="-2.893">
        <ele>45</ele>
        <time>2021-11-13T15:06:03Z</time>
      </trkpt>
      <trkpt lat="47.54622" lon="-2.89262">
        <ele>45</ele>
        <time>2021-11-13T15:06:08Z</time>
      </trkpt>
      <trkpt lat="47.54621" lon="-2.89254">
        <ele>44.8</ele>
        <time>2021-11-13T15:06:09Z</time>
      </trkpt>
      <trkpt lat="47.5462" lon="-2.89248">
        <ele>45</ele>
        <time>2021-11-13T15:06:10Z</time>
      </trkpt>
      <trkpt lat="47.54615" lon="-2.89233">
        <ele>45</ele>
        <time>2021-11-13T15:06:12Z</time>
      </trkpt>
      <trkpt lat="47.54614" lon="-2.89218">
        <ele>44.8</ele>
        <time>2021-11-13T15:06:14Z</time>
      </trkpt>
      <trkpt lat="47.54611" lon="-2.89172">
        <ele>44.8</ele>
        <time>2021-11-13T15:06:20Z</time>
      </trkpt>
      <trkpt lat="47.5461" lon="-2.89158">
        <ele>44.8</ele>
        <time>2021-11-13T15:06:22Z</time>
      </trkpt>
      <trkpt lat="47.54609" lon="-2.8915">
        <ele>44.8</ele>
        <time>2021-11-13T15:06:23Z</time>
      </trkpt>
      <trkpt lat="47.54607" lon="-2.89121">
        <ele>44.8</ele>
        <time>2021-11-13T15:06:27Z</time>
      </trkpt>
      <trkpt lat="47.54605" lon="-2.89093">
        <ele>45</ele>
        <time>2021-11-13T15:06:31Z</time>
      </trkpt>
      <trkpt lat="47.54602" lon="-2.89083">
        <ele>45</ele>
        <time>2021-11-13T15:06:33Z</time>
      </trkpt>
      <trkpt lat="47.54587" lon="-2.89065">
        <ele>45</ele>
        <time>2021-11-13T15:06:38Z</time>
      </trkpt>
      <trkpt lat="47.54577" lon="-2.89046">
        <ele>45</ele>
        <time>2021-11-13T15:06:43Z</time>
      </trkpt>
      <trkpt lat="47.5458" lon="-2.89029">
        <ele>44.6</ele>
        <time>2021-11-13T15:06:47Z</time>
      </trkpt>
      <trkpt lat="47.54579" lon="-2.89019">
        <ele>44.6</ele>
        <time>2021-11-13T15:06:49Z</time>
      </trkpt>
      <trkpt lat="47.54577" lon="-2.89004">
        <ele>44.6</ele>
        <time>2021-11-13T15:06:52Z</time>
      </trkpt>
      <trkpt lat="47.54578" lon="-2.88989">
        <ele>44.6</ele>
        <time>2021-11-13T15:06:55Z</time>
      </trkpt>
      <trkpt lat="47.5458" lon="-2.88986">
        <ele>44.6</ele>
        <time>2021-11-13T15:06:56Z</time>
      </trkpt>
      <trkpt lat="47.54591" lon="-2.88967">
        <ele>44.4</ele>
        <time>2021-11-13T15:07:00Z</time>
      </trkpt>
      <trkpt lat="47.54592" lon="-2.88961">
        <ele>44.2</ele>
        <time>2021-11-13T15:07:01Z</time>
      </trkpt>
      <trkpt lat="47.54593" lon="-2.88954">
        <ele>44.2</ele>
        <time>2021-11-13T15:07:02Z</time>
      </trkpt>
      <trkpt lat="47.54593" lon="-2.88941">
        <ele>44</ele>
        <time>2021-11-13T15:07:04Z</time>
      </trkpt>
      <trkpt lat="47.54592" lon="-2.88934">
        <ele>44</ele>
        <time>2021-11-13T15:07:05Z</time>
      </trkpt>
      <trkpt lat="47.5459" lon="-2.88927">
        <ele>44</ele>
        <time>2021-11-13T15:07:06Z</time>
      </trkpt>
      <trkpt lat="47.54579" lon="-2.88893">
        <ele>43.6</ele>
        <time>2021-11-13T15:07:11Z</time>
      </trkpt>
      <trkpt lat="47.54569" lon="-2.88857">
        <ele>43.6</ele>
        <time>2021-11-13T15:07:16Z</time>
      </trkpt>
      <trkpt lat="47.54563" lon="-2.88838">
        <ele>43.4</ele>
        <time>2021-11-13T15:07:19Z</time>
      </trkpt>
      <trkpt lat="47.54537" lon="-2.88776">
        <ele>43.4</ele>
        <time>2021-11-13T15:07:28Z</time>
      </trkpt>
      <trkpt lat="47.54513" lon="-2.88724">
        <ele>43.6</ele>
        <time>2021-11-13T15:07:36Z</time>
      </trkpt>
      <trkpt lat="47.54485" lon="-2.88668">
        <ele>44.2</ele>
        <time>2021-11-13T15:07:45Z</time>
      </trkpt>
      <trkpt lat="47.54462" lon="-2.88618">
        <ele>44.6</ele>
        <time>2021-11-13T15:07:53Z</time>
      </trkpt>
      <trkpt lat="47.54436" lon="-2.88564">
        <ele>45</ele>
        <time>2021-11-13T15:08:02Z</time>
      </trkpt>
      <trkpt lat="47.54413" lon="-2.88516">
        <ele>45.6</ele>
        <time>2021-11-13T15:08:10Z</time>
      </trkpt>
      <trkpt lat="47.54395" lon="-2.8848">
        <ele>46</ele>
        <time>2021-11-13T15:08:16Z</time>
      </trkpt>
      <trkpt lat="47.54393" lon="-2.88474">
        <ele>46</ele>
        <time>2021-11-13T15:08:17Z</time>
      </trkpt>
      <trkpt lat="47.5437" lon="-2.88427">
        <ele>46.8</ele>
        <time>2021-11-13T15:08:25Z</time>
      </trkpt>
      <trkpt lat="47.54359" lon="-2.88403">
        <ele>46.8</ele>
        <time>2021-11-13T15:08:29Z</time>
      </trkpt>
      <trkpt lat="47.54344" lon="-2.88373">
        <ele>47.6</ele>
        <time>2021-11-13T15:08:34Z</time>
      </trkpt>
      <trkpt lat="47.54333" lon="-2.8835">
        <ele>48</ele>
        <time>2021-11-13T15:08:38Z</time>
      </trkpt>
      <trkpt lat="47.54311" lon="-2.88304">
        <ele>48.6</ele>
        <time>2021-11-13T15:08:45Z</time>
      </trkpt>
      <trkpt lat="47.54308" lon="-2.88298">
        <ele>48.8</ele>
        <time>2021-11-13T15:08:46Z</time>
      </trkpt>
      <trkpt lat="47.54288" lon="-2.88261">
        <ele>49.4</ele>
        <time>2021-11-13T15:08:52Z</time>
      </trkpt>
      <trkpt lat="47.54279" lon="-2.88243">
        <ele>49.8</ele>
        <time>2021-11-13T15:08:55Z</time>
      </trkpt>
      <trkpt lat="47.54258" lon="-2.88205">
        <ele>50.2</ele>
        <time>2021-11-13T15:09:01Z</time>
      </trkpt>
      <trkpt lat="47.5424" lon="-2.8817">
        <ele>50.8</ele>
        <time>2021-11-13T15:09:06Z</time>
      </trkpt>
      <trkpt lat="47.54229" lon="-2.88149">
        <ele>51</ele>
        <time>2021-11-13T15:09:09Z</time>
      </trkpt>
      <trkpt lat="47.54206" lon="-2.88103">
        <ele>51</ele>
        <time>2021-11-13T15:09:15Z</time>
      </trkpt>
      <trkpt lat="47.54179" lon="-2.88046">
        <ele>51.8</ele>
        <time>2021-11-13T15:09:23Z</time>
      </trkpt>
      <trkpt lat="47.54172" lon="-2.88032">
        <ele>52.2</ele>
        <time>2021-11-13T15:09:25Z</time>
      </trkpt>
      <trkpt lat="47.5415" lon="-2.87992">
        <ele>52.8</ele>
        <time>2021-11-13T15:09:31Z</time>
      </trkpt>
      <trkpt lat="47.54143" lon="-2.87979">
        <ele>53</ele>
        <time>2021-11-13T15:09:33Z</time>
      </trkpt>
      <trkpt lat="47.54123" lon="-2.87945">
        <ele>53.4</ele>
        <time>2021-11-13T15:09:39Z</time>
      </trkpt>
      <trkpt lat="47.54119" lon="-2.8794">
        <ele>53.4</ele>
        <time>2021-11-13T15:09:40Z</time>
      </trkpt>
      <trkpt lat="47.54111" lon="-2.87936">
        <ele>53.4</ele>
        <time>2021-11-13T15:09:42Z</time>
      </trkpt>
      <trkpt lat="47.54102" lon="-2.87935">
        <ele>53.6</ele>
        <time>2021-11-13T15:09:44Z</time>
      </trkpt>
      <trkpt lat="47.54092" lon="-2.87931">
        <ele>53.8</ele>
        <time>2021-11-13T15:09:46Z</time>
      </trkpt>
      <trkpt lat="47.54089" lon="-2.87928">
        <ele>54</ele>
        <time>2021-11-13T15:09:47Z</time>
      </trkpt>
      <trkpt lat="47.54086" lon="-2.87924">
        <ele>54</ele>
        <time>2021-11-13T15:09:48Z</time>
      </trkpt>
      <trkpt lat="47.54079" lon="-2.87916">
        <ele>54.2</ele>
        <time>2021-11-13T15:09:50Z</time>
      </trkpt>
      <trkpt lat="47.54072" lon="-2.87911">
        <ele>54.4</ele>
        <time>2021-11-13T15:09:52Z</time>
      </trkpt>
      <trkpt lat="47.54056" lon="-2.8791">
        <ele>54.4</ele>
        <time>2021-11-13T15:09:56Z</time>
      </trkpt>
      <trkpt lat="47.54052" lon="-2.87912">
        <ele>54.4</ele>
        <time>2021-11-13T15:09:57Z</time>
      </trkpt>
      <trkpt lat="47.54049" lon="-2.87914">
        <ele>54.4</ele>
        <time>2021-11-13T15:09:58Z</time>
      </trkpt>
      <trkpt lat="47.54036" lon="-2.87923">
        <ele>54.6</ele>
        <time>2021-11-13T15:10:02Z</time>
      </trkpt>
      <trkpt lat="47.54027" lon="-2.87928">
        <ele>55</ele>
        <time>2021-11-13T15:10:07Z</time>
      </trkpt>
      <trkpt lat="47.54025" lon="-2.87926">
        <ele>55</ele>
        <time>2021-11-13T15:10:08Z</time>
      </trkpt>
      <trkpt lat="47.54023" lon="-2.87924">
        <ele>55</ele>
        <time>2021-11-13T15:10:09Z</time>
      </trkpt>
      <trkpt lat="47.54022" lon="-2.8792">
        <ele>55</ele>
        <time>2021-11-13T15:10:10Z</time>
      </trkpt>
      <trkpt lat="47.54021" lon="-2.87907">
        <ele>55</ele>
        <time>2021-11-13T15:10:15Z</time>
      </trkpt>
      <trkpt lat="47.54021" lon="-2.87906">
        <ele>55</ele>
        <time>2021-11-13T15:10:16Z</time>
      </trkpt>
      <trkpt lat="47.54022" lon="-2.87895">
        <ele>55</ele>
        <time>2021-11-13T15:10:20Z</time>
      </trkpt>
      <trkpt lat="47.54028" lon="-2.87877">
        <ele>55</ele>
        <time>2021-11-13T15:10:25Z</time>
      </trkpt>
      <trkpt lat="47.54034" lon="-2.87857">
        <ele>55.2</ele>
        <time>2021-11-13T15:10:30Z</time>
      </trkpt>
      <trkpt lat="47.5404" lon="-2.87849">
        <ele>55.2</ele>
        <time>2021-11-13T15:10:33Z</time>
      </trkpt>
      <trkpt lat="47.54042" lon="-2.87842">
        <ele>55.2</ele>
        <time>2021-11-13T15:10:35Z</time>
      </trkpt>
      <trkpt lat="47.54039" lon="-2.87806">
        <ele>55.2</ele>
        <time>2021-11-13T15:10:42Z</time>
      </trkpt>
      <trkpt lat="47.54039" lon="-2.87798">
        <ele>55.2</ele>
        <time>2021-11-13T15:10:44Z</time>
      </trkpt>
      <trkpt lat="47.54035" lon="-2.87787">
        <ele>55.2</ele>
        <time>2021-11-13T15:10:46Z</time>
      </trkpt>
      <trkpt lat="47.54024" lon="-2.87757">
        <ele>55</ele>
        <time>2021-11-13T15:10:51Z</time>
      </trkpt>
      <trkpt lat="47.54014" lon="-2.87724">
        <ele>54.8</ele>
        <time>2021-11-13T15:10:56Z</time>
      </trkpt>
      <trkpt lat="47.54006" lon="-2.87704">
        <ele>54.8</ele>
        <time>2021-11-13T15:10:59Z</time>
      </trkpt>
      <trkpt lat="47.54" lon="-2.87692">
        <ele>54.8</ele>
        <time>2021-11-13T15:11:01Z</time>
      </trkpt>
      <trkpt lat="47.53992" lon="-2.8767">
        <ele>54.8</ele>
        <time>2021-11-13T15:11:04Z</time>
      </trkpt>
      <trkpt lat="47.53988" lon="-2.87658">
        <ele>54.6</ele>
        <time>2021-11-13T15:11:06Z</time>
      </trkpt>
      <trkpt lat="47.53982" lon="-2.87635">
        <ele>54.6</ele>
        <time>2021-11-13T15:11:09Z</time>
      </trkpt>
      <trkpt lat="47.53966" lon="-2.87581">
        <ele>54.4</ele>
        <time>2021-11-13T15:11:16Z</time>
      </trkpt>
      <trkpt lat="47.53964" lon="-2.87574">
        <ele>54.4</ele>
        <time>2021-11-13T15:11:17Z</time>
      </trkpt>
      <trkpt lat="47.53952" lon="-2.87526">
        <ele>54.6</ele>
        <time>2021-11-13T15:11:24Z</time>
      </trkpt>
      <trkpt lat="47.53943" lon="-2.87492">
        <ele>54.6</ele>
        <time>2021-11-13T15:11:29Z</time>
      </trkpt>
      <trkpt lat="47.5394" lon="-2.8748">
        <ele>54.6</ele>
        <time>2021-11-13T15:11:31Z</time>
      </trkpt>
      <trkpt lat="47.53932" lon="-2.8746">
        <ele>54.6</ele>
        <time>2021-11-13T15:11:35Z</time>
      </trkpt>
      <trkpt lat="47.53928" lon="-2.87446">
        <ele>54.6</ele>
        <time>2021-11-13T15:11:37Z</time>
      </trkpt>
      <trkpt lat="47.53927" lon="-2.87434">
        <ele>54.6</ele>
        <time>2021-11-13T15:11:39Z</time>
      </trkpt>
      <trkpt lat="47.53927" lon="-2.87427">
        <ele>54.4</ele>
        <time>2021-11-13T15:11:40Z</time>
      </trkpt>
      <trkpt lat="47.53926" lon="-2.87416">
        <ele>54.4</ele>
        <time>2021-11-13T15:11:42Z</time>
      </trkpt>
      <trkpt lat="47.53923" lon="-2.87413">
        <ele>54.4</ele>
        <time>2021-11-13T15:11:43Z</time>
      </trkpt>
      <trkpt lat="47.539" lon="-2.8741">
        <ele>56.4</ele>
        <time>2021-11-13T15:13:21Z</time>
      </trkpt>
      <trkpt lat="47.53896" lon="-2.87404">
        <ele>56.2</ele>
        <time>2021-11-13T15:13:23Z</time>
      </trkpt>
      <trkpt lat="47.53886" lon="-2.8739">
        <ele>56.2</ele>
        <time>2021-11-13T15:13:27Z</time>
      </trkpt>
      <trkpt lat="47.53872" lon="-2.87367">
        <ele>55.8</ele>
        <time>2021-11-13T15:13:32Z</time>
      </trkpt>
      <trkpt lat="47.53868" lon="-2.87363">
        <ele>55.8</ele>
        <time>2021-11-13T15:13:33Z</time>
      </trkpt>
      <trkpt lat="47.53853" lon="-2.87344">
        <ele>55.4</ele>
        <time>2021-11-13T15:13:37Z</time>
      </trkpt>
      <trkpt lat="47.53824" lon="-2.87298">
        <ele>55.4</ele>
        <time>2021-11-13T15:13:46Z</time>
      </trkpt>
      <trkpt lat="47.53806" lon="-2.87257">
        <ele>55.4</ele>
        <time>2021-11-13T15:13:53Z</time>
      </trkpt>
      <trkpt lat="47.53804" lon="-2.87253">
        <ele>55.4</ele>
        <time>2021-11-13T15:13:54Z</time>
      </trkpt>
      <trkpt lat="47.53784" lon="-2.87201">
        <ele>55.2</ele>
        <time>2021-11-13T15:14:03Z</time>
      </trkpt>
      <trkpt lat="47.53777" lon="-2.87184">
        <ele>55.2</ele>
        <time>2021-11-13T15:14:07Z</time>
      </trkpt>
      <trkpt lat="47.53765" lon="-2.87164">
        <ele>55.4</ele>
        <time>2021-11-13T15:14:13Z</time>
      </trkpt>
      <trkpt lat="47.53754" lon="-2.87139">
        <ele>55.6</ele>
        <time>2021-11-13T15:14:18Z</time>
      </trkpt>
      <trkpt lat="47.53743" lon="-2.87102">
        <ele>55.6</ele>
        <time>2021-11-13T15:14:24Z</time>
      </trkpt>
      <trkpt lat="47.53736" lon="-2.87051">
        <ele>55.6</ele>
        <time>2021-11-13T15:14:30Z</time>
      </trkpt>
      <trkpt lat="47.53738" lon="-2.86983">
        <ele>55.2</ele>
        <time>2021-11-13T15:14:37Z</time>
      </trkpt>
      <trkpt lat="47.53741" lon="-2.86917">
        <ele>55.4</ele>
        <time>2021-11-13T15:14:45Z</time>
      </trkpt>
      <trkpt lat="47.53737" lon="-2.8686">
        <ele>55.6</ele>
        <time>2021-11-13T15:14:52Z</time>
      </trkpt>
      <trkpt lat="47.53726" lon="-2.8681">
        <ele>55.6</ele>
        <time>2021-11-13T15:14:58Z</time>
      </trkpt>
      <trkpt lat="47.5371" lon="-2.86728">
        <ele>55.4</ele>
        <time>2021-11-13T15:15:06Z</time>
      </trkpt>
      <trkpt lat="47.53695" lon="-2.86645">
        <ele>55.4</ele>
        <time>2021-11-13T15:15:13Z</time>
      </trkpt>
      <trkpt lat="47.5368" lon="-2.86563">
        <ele>55.2</ele>
        <time>2021-11-13T15:15:20Z</time>
      </trkpt>
      <trkpt lat="47.53676" lon="-2.86543">
        <ele>55.2</ele>
        <time>2021-11-13T15:15:22Z</time>
      </trkpt>
      <trkpt lat="47.53658" lon="-2.86458">
        <ele>55</ele>
        <time>2021-11-13T15:15:29Z</time>
      </trkpt>
      <trkpt lat="47.53654" lon="-2.86435">
        <ele>55</ele>
        <time>2021-11-13T15:15:31Z</time>
      </trkpt>
      <trkpt lat="47.5364" lon="-2.86364">
        <ele>54.8</ele>
        <time>2021-11-13T15:15:38Z</time>
      </trkpt>
      <trkpt lat="47.53636" lon="-2.86347">
        <ele>54.6</ele>
        <time>2021-11-13T15:15:40Z</time>
      </trkpt>
      <trkpt lat="47.53632" lon="-2.86333">
        <ele>54.6</ele>
        <time>2021-11-13T15:15:42Z</time>
      </trkpt>
      <trkpt lat="47.53631" lon="-2.86326">
        <ele>54.6</ele>
        <time>2021-11-13T15:15:43Z</time>
      </trkpt>
      <trkpt lat="47.5363" lon="-2.86321">
        <ele>54.4</ele>
        <time>2021-11-13T15:15:44Z</time>
      </trkpt>
      <trkpt lat="47.53631" lon="-2.86312">
        <ele>54.4</ele>
        <time>2021-11-13T15:15:46Z</time>
      </trkpt>
      <trkpt lat="47.53638" lon="-2.86313">
        <ele>54.4</ele>
        <time>2021-11-13T15:15:49Z</time>
      </trkpt>
      <trkpt lat="47.53642" lon="-2.86334">
        <ele>54.4</ele>
        <time>2021-11-13T15:15:53Z</time>
      </trkpt>
      <trkpt lat="47.53646" lon="-2.86344">
        <ele>54.2</ele>
        <time>2021-11-13T15:15:55Z</time>
      </trkpt>
      <trkpt lat="47.5365" lon="-2.86346">
        <ele>54.2</ele>
        <time>2021-11-13T15:15:56Z</time>
      </trkpt>
      <trkpt lat="47.53655" lon="-2.86346">
        <ele>54</ele>
        <time>2021-11-13T15:15:58Z</time>
      </trkpt>
      <trkpt lat="47.53657" lon="-2.86345">
        <ele>53.6</ele>
        <time>2021-11-13T15:16:01Z</time>
      </trkpt>
      <trkpt lat="47.53659" lon="-2.86345">
        <ele>53.4</ele>
        <time>2021-11-13T15:16:02Z</time>
      </trkpt>
      <trkpt lat="47.53671" lon="-2.8634">
        <ele>53.4</ele>
        <time>2021-11-13T15:16:04Z</time>
      </trkpt>
      <trkpt lat="47.53675" lon="-2.86339">
        <ele>53.4</ele>
        <time>2021-11-13T15:16:05Z</time>
      </trkpt>
      <trkpt lat="47.53686" lon="-2.86337">
        <ele>53.2</ele>
        <time>2021-11-13T15:16:07Z</time>
      </trkpt>
      <trkpt lat="47.537" lon="-2.86333">
        <ele>53.4</ele>
        <time>2021-11-13T15:16:10Z</time>
      </trkpt>
      <trkpt lat="47.53708" lon="-2.86328">
        <ele>53.2</ele>
        <time>2021-11-13T15:16:12Z</time>
      </trkpt>
      <trkpt lat="47.5371" lon="-2.86323">
        <ele>53.2</ele>
        <time>2021-11-13T15:16:13Z</time>
      </trkpt>
      <trkpt lat="47.53711" lon="-2.86317">
        <ele>53</ele>
        <time>2021-11-13T15:16:14Z</time>
      </trkpt>
      <trkpt lat="47.53709" lon="-2.86304">
        <ele>53</ele>
        <time>2021-11-13T15:16:16Z</time>
      </trkpt>
      <trkpt lat="47.53703" lon="-2.8628">
        <ele>52.8</ele>
        <time>2021-11-13T15:16:20Z</time>
      </trkpt>
      <trkpt lat="47.53703" lon="-2.86273">
        <ele>52.6</ele>
        <time>2021-11-13T15:16:21Z</time>
      </trkpt>
      <trkpt lat="47.53705" lon="-2.86266">
        <ele>52.6</ele>
        <time>2021-11-13T15:16:22Z</time>
      </trkpt>
      <trkpt lat="47.53712" lon="-2.86257">
        <ele>52.4</ele>
        <time>2021-11-13T15:16:24Z</time>
      </trkpt>
      <trkpt lat="47.53717" lon="-2.86254">
        <ele>52.4</ele>
        <time>2021-11-13T15:16:25Z</time>
      </trkpt>
      <trkpt lat="47.53745" lon="-2.86239">
        <ele>52</ele>
        <time>2021-11-13T15:16:30Z</time>
      </trkpt>
      <trkpt lat="47.53775" lon="-2.86219">
        <ele>51.6</ele>
        <time>2021-11-13T15:16:35Z</time>
      </trkpt>
      <trkpt lat="47.5378" lon="-2.86214">
        <ele>51.6</ele>
        <time>2021-11-13T15:16:36Z</time>
      </trkpt>
      <trkpt lat="47.53816" lon="-2.86179">
        <ele>51</ele>
        <time>2021-11-13T15:16:43Z</time>
      </trkpt>
      <trkpt lat="47.53859" lon="-2.86148">
        <ele>50.6</ele>
        <time>2021-11-13T15:16:51Z</time>
      </trkpt>
      <trkpt lat="47.53876" lon="-2.86139">
        <ele>50.4</ele>
        <time>2021-11-13T15:16:54Z</time>
      </trkpt>
      <trkpt lat="47.53892" lon="-2.86135">
        <ele>50</ele>
        <time>2021-11-13T15:16:57Z</time>
      </trkpt>
      <trkpt lat="47.539" lon="-2.86132">
        <ele>49.8</ele>
        <time>2021-11-13T15:16:59Z</time>
      </trkpt>
      <trkpt lat="47.53903" lon="-2.86129">
        <ele>49.8</ele>
        <time>2021-11-13T15:17:00Z</time>
      </trkpt>
      <trkpt lat="47.53905" lon="-2.86123">
        <ele>49.8</ele>
        <time>2021-11-13T15:17:01Z</time>
      </trkpt>
      <trkpt lat="47.53904" lon="-2.86109">
        <ele>49.4</ele>
        <time>2021-11-13T15:17:03Z</time>
      </trkpt>
      <trkpt lat="47.539" lon="-2.86046">
        <ele>49</ele>
        <time>2021-11-13T15:17:11Z</time>
      </trkpt>
      <trkpt lat="47.53901" lon="-2.86004">
        <ele>48.6</ele>
        <time>2021-11-13T15:17:16Z</time>
      </trkpt>
      <trkpt lat="47.53901" lon="-2.85969">
        <ele>48.4</ele>
        <time>2021-11-13T15:17:20Z</time>
      </trkpt>
      <trkpt lat="47.539" lon="-2.85897">
        <ele>48</ele>
        <time>2021-11-13T15:17:28Z</time>
      </trkpt>
      <trkpt lat="47.53902" lon="-2.85836">
        <ele>48</ele>
        <time>2021-11-13T15:17:35Z</time>
      </trkpt>
      <trkpt lat="47.53902" lon="-2.858">
        <ele>47.8</ele>
        <time>2021-11-13T15:17:39Z</time>
      </trkpt>
      <trkpt lat="47.53902" lon="-2.85782">
        <ele>47.8</ele>
        <time>2021-11-13T15:17:41Z</time>
      </trkpt>
      <trkpt lat="47.53902" lon="-2.85723">
        <ele>47.6</ele>
        <time>2021-11-13T15:17:48Z</time>
      </trkpt>
      <trkpt lat="47.53902" lon="-2.85715">
        <ele>47.6</ele>
        <time>2021-11-13T15:17:49Z</time>
      </trkpt>
      <trkpt lat="47.53898" lon="-2.85676">
        <ele>47.4</ele>
        <time>2021-11-13T15:17:54Z</time>
      </trkpt>
      <trkpt lat="47.53896" lon="-2.85669">
        <ele>47.4</ele>
        <time>2021-11-13T15:17:55Z</time>
      </trkpt>
      <trkpt lat="47.53881" lon="-2.85617">
        <ele>47.2</ele>
        <time>2021-11-13T15:18:02Z</time>
      </trkpt>
      <trkpt lat="47.53873" lon="-2.85597">
        <ele>47</ele>
        <time>2021-11-13T15:18:05Z</time>
      </trkpt>
      <trkpt lat="47.53859" lon="-2.85569">
        <ele>46.6</ele>
        <time>2021-11-13T15:18:09Z</time>
      </trkpt>
      <trkpt lat="47.53855" lon="-2.85563">
        <ele>46.6</ele>
        <time>2021-11-13T15:18:10Z</time>
      </trkpt>
      <trkpt lat="47.53832" lon="-2.85532">
        <ele>46.2</ele>
        <time>2021-11-13T15:18:15Z</time>
      </trkpt>
      <trkpt lat="47.53827" lon="-2.85527">
        <ele>46</ele>
        <time>2021-11-13T15:18:16Z</time>
      </trkpt>
      <trkpt lat="47.53798" lon="-2.85504">
        <ele>45.6</ele>
        <time>2021-11-13T15:18:21Z</time>
      </trkpt>
      <trkpt lat="47.5378" lon="-2.8549">
        <ele>45.4</ele>
        <time>2021-11-13T15:18:24Z</time>
      </trkpt>
      <trkpt lat="47.53768" lon="-2.85484">
        <ele>45.2</ele>
        <time>2021-11-13T15:18:26Z</time>
      </trkpt>
      <trkpt lat="47.53763" lon="-2.85482">
        <ele>45.2</ele>
        <time>2021-11-13T15:18:27Z</time>
      </trkpt>
      <trkpt lat="47.53724" lon="-2.85459">
        <ele>44.6</ele>
        <time>2021-11-13T15:18:33Z</time>
      </trkpt>
      <trkpt lat="47.5371" lon="-2.85451">
        <ele>44.6</ele>
        <time>2021-11-13T15:18:35Z</time>
      </trkpt>
      <trkpt lat="47.5368" lon="-2.85427">
        <ele>44.2</ele>
        <time>2021-11-13T15:18:40Z</time>
      </trkpt>
      <trkpt lat="47.5365" lon="-2.85392">
        <ele>44</ele>
        <time>2021-11-13T15:18:46Z</time>
      </trkpt>
      <trkpt lat="47.53647" lon="-2.85386">
        <ele>44</ele>
        <time>2021-11-13T15:18:47Z</time>
      </trkpt>
      <trkpt lat="47.53638" lon="-2.85381">
        <ele>44</ele>
        <time>2021-11-13T15:18:49Z</time>
      </trkpt>
      <trkpt lat="47.53622" lon="-2.85373">
        <ele>44</ele>
        <time>2021-11-13T15:18:52Z</time>
      </trkpt>
      <trkpt lat="47.53612" lon="-2.85365">
        <ele>44</ele>
        <time>2021-11-13T15:18:54Z</time>
      </trkpt>
      <trkpt lat="47.53597" lon="-2.85355">
        <ele>44</ele>
        <time>2021-11-13T15:18:57Z</time>
      </trkpt>
      <trkpt lat="47.53587" lon="-2.8535">
        <ele>43.8</ele>
        <time>2021-11-13T15:18:59Z</time>
      </trkpt>
      <trkpt lat="47.53583" lon="-2.85347">
        <ele>43.8</ele>
        <time>2021-11-13T15:19:00Z</time>
      </trkpt>
      <trkpt lat="47.5357" lon="-2.85334">
        <ele>43.6</ele>
        <time>2021-11-13T15:19:04Z</time>
      </trkpt>
      <trkpt lat="47.53569" lon="-2.85329">
        <ele>43.6</ele>
        <time>2021-11-13T15:19:05Z</time>
      </trkpt>
      <trkpt lat="47.53565" lon="-2.853">
        <ele>43.4</ele>
        <time>2021-11-13T15:19:09Z</time>
      </trkpt>
      <trkpt lat="47.53565" lon="-2.85286">
        <ele>43.4</ele>
        <time>2021-11-13T15:19:11Z</time>
      </trkpt>
      <trkpt lat="47.53563" lon="-2.85268">
        <ele>43.4</ele>
        <time>2021-11-13T15:19:14Z</time>
      </trkpt>
      <trkpt lat="47.53552" lon="-2.85251">
        <ele>43.4</ele>
        <time>2021-11-13T15:19:18Z</time>
      </trkpt>
      <trkpt lat="47.53533" lon="-2.85251">
        <ele>43.4</ele>
        <time>2021-11-13T15:19:22Z</time>
      </trkpt>
      <trkpt lat="47.53525" lon="-2.85248">
        <ele>43.4</ele>
        <time>2021-11-13T15:19:24Z</time>
      </trkpt>
      <trkpt lat="47.53517" lon="-2.85242">
        <ele>43.4</ele>
        <time>2021-11-13T15:19:26Z</time>
      </trkpt>
      <trkpt lat="47.5351" lon="-2.85237">
        <ele>43.4</ele>
        <time>2021-11-13T15:19:28Z</time>
      </trkpt>
      <trkpt lat="47.5349" lon="-2.85226">
        <ele>43.4</ele>
        <time>2021-11-13T15:19:34Z</time>
      </trkpt>
      <trkpt lat="47.53476" lon="-2.85223">
        <ele>43.2</ele>
        <time>2021-11-13T15:19:39Z</time>
      </trkpt>
      <trkpt lat="47.53469" lon="-2.85235">
        <ele>43.4</ele>
        <time>2021-11-13T15:19:43Z</time>
      </trkpt>
      <trkpt lat="47.53461" lon="-2.85259">
        <ele>43.4</ele>
        <time>2021-11-13T15:19:47Z</time>
      </trkpt>
      <trkpt lat="47.53457" lon="-2.8528">
        <ele>43.4</ele>
        <time>2021-11-13T15:19:50Z</time>
      </trkpt>
      <trkpt lat="47.53452" lon="-2.85291">
        <ele>43.4</ele>
        <time>2021-11-13T15:19:52Z</time>
      </trkpt>
      <trkpt lat="47.53443" lon="-2.85295">
        <ele>43.4</ele>
        <time>2021-11-13T15:19:54Z</time>
      </trkpt>
      <trkpt lat="47.53438" lon="-2.85295">
        <ele>43.4</ele>
        <time>2021-11-13T15:19:55Z</time>
      </trkpt>
      <trkpt lat="47.53433" lon="-2.85295">
        <ele>43.4</ele>
        <time>2021-11-13T15:19:56Z</time>
      </trkpt>
      <trkpt lat="47.53424" lon="-2.85291">
        <ele>43.4</ele>
        <time>2021-11-13T15:19:58Z</time>
      </trkpt>
      <trkpt lat="47.5342" lon="-2.85286">
        <ele>43.4</ele>
        <time>2021-11-13T15:19:59Z</time>
      </trkpt>
      <trkpt lat="47.53418" lon="-2.8528">
        <ele>43.2</ele>
        <time>2021-11-13T15:20:00Z</time>
      </trkpt>
      <trkpt lat="47.53405" lon="-2.85245">
        <ele>43.2</ele>
        <time>2021-11-13T15:20:05Z</time>
      </trkpt>
      <trkpt lat="47.53384" lon="-2.85182">
        <ele>43.2</ele>
        <time>2021-11-13T15:20:14Z</time>
      </trkpt>
      <trkpt lat="47.53374" lon="-2.85155">
        <ele>43</ele>
        <time>2021-11-13T15:20:18Z</time>
      </trkpt>
      <trkpt lat="47.53371" lon="-2.8515">
        <ele>43</ele>
        <time>2021-11-13T15:20:19Z</time>
      </trkpt>
      <trkpt lat="47.53363" lon="-2.85141">
        <ele>43</ele>
        <time>2021-11-13T15:20:21Z</time>
      </trkpt>
      <trkpt lat="47.53345" lon="-2.85125">
        <ele>43</ele>
        <time>2021-11-13T15:20:25Z</time>
      </trkpt>
      <trkpt lat="47.53331" lon="-2.85111">
        <ele>43</ele>
        <time>2021-11-13T15:20:28Z</time>
      </trkpt>
      <trkpt lat="47.53325" lon="-2.85102">
        <ele>43.2</ele>
        <time>2021-11-13T15:20:30Z</time>
      </trkpt>
      <trkpt lat="47.53322" lon="-2.85095">
        <ele>43.2</ele>
        <time>2021-11-13T15:20:31Z</time>
      </trkpt>
      <trkpt lat="47.53319" lon="-2.85089">
        <ele>43.2</ele>
        <time>2021-11-13T15:20:32Z</time>
      </trkpt>
      <trkpt lat="47.53313" lon="-2.85069">
        <ele>43.2</ele>
        <time>2021-11-13T15:20:35Z</time>
      </trkpt>
      <trkpt lat="47.53296" lon="-2.85019">
        <ele>43.2</ele>
        <time>2021-11-13T15:20:43Z</time>
      </trkpt>
      <trkpt lat="47.5329" lon="-2.85011">
        <ele>43.4</ele>
        <time>2021-11-13T15:20:45Z</time>
      </trkpt>
      <trkpt lat="47.53286" lon="-2.8501">
        <ele>43.4</ele>
        <time>2021-11-13T15:20:46Z</time>
      </trkpt>
      <trkpt lat="47.53281" lon="-2.85009">
        <ele>43.4</ele>
        <time>2021-11-13T15:20:47Z</time>
      </trkpt>
      <trkpt lat="47.53259" lon="-2.85016">
        <ele>43.8</ele>
        <time>2021-11-13T15:20:52Z</time>
      </trkpt>
      <trkpt lat="47.53255" lon="-2.85021">
        <ele>43.8</ele>
        <time>2021-11-13T15:20:53Z</time>
      </trkpt>
      <trkpt lat="47.53252" lon="-2.85023">
        <ele>43.8</ele>
        <time>2021-11-13T15:20:54Z</time>
      </trkpt>
      <trkpt lat="47.53246" lon="-2.8502">
        <ele>43.8</ele>
        <time>2021-11-13T15:20:56Z</time>
      </trkpt>
      <trkpt lat="47.53242" lon="-2.84995">
        <ele>44</ele>
        <time>2021-11-13T15:21:01Z</time>
      </trkpt>
      <trkpt lat="47.53241" lon="-2.84984">
        <ele>44</ele>
        <time>2021-11-13T15:21:03Z</time>
      </trkpt>
      <trkpt lat="47.53238" lon="-2.84962">
        <ele>44</ele>
        <time>2021-11-13T15:21:06Z</time>
      </trkpt>
      <trkpt lat="47.53234" lon="-2.84942">
        <ele>44</ele>
        <time>2021-11-13T15:21:09Z</time>
      </trkpt>
      <trkpt lat="47.53232" lon="-2.84917">
        <ele>44</ele>
        <time>2021-11-13T15:21:13Z</time>
      </trkpt>
      <trkpt lat="47.53223" lon="-2.84861">
        <ele>43.8</ele>
        <time>2021-11-13T15:21:21Z</time>
      </trkpt>
      <trkpt lat="47.53219" lon="-2.8484">
        <ele>43.8</ele>
        <time>2021-11-13T15:21:24Z</time>
      </trkpt>
      <trkpt lat="47.53215" lon="-2.84812">
        <ele>44</ele>
        <time>2021-11-13T15:21:28Z</time>
      </trkpt>
      <trkpt lat="47.53207" lon="-2.84752">
        <ele>44.2</ele>
        <time>2021-11-13T15:21:36Z</time>
      </trkpt>
      <trkpt lat="47.53201" lon="-2.84714">
        <ele>44.4</ele>
        <time>2021-11-13T15:21:41Z</time>
      </trkpt>
      <trkpt lat="47.53198" lon="-2.84689">
        <ele>44.4</ele>
        <time>2021-11-13T15:21:44Z</time>
      </trkpt>
      <trkpt lat="47.53191" lon="-2.84636">
        <ele>44.8</ele>
        <time>2021-11-13T15:21:51Z</time>
      </trkpt>
      <trkpt lat="47.53181" lon="-2.84572">
        <ele>45.2</ele>
        <time>2021-11-13T15:21:59Z</time>
      </trkpt>
      <trkpt lat="47.53178" lon="-2.84544">
        <ele>45.4</ele>
        <time>2021-11-13T15:22:03Z</time>
      </trkpt>
      <trkpt lat="47.53176" lon="-2.84533">
        <ele>45.6</ele>
        <time>2021-11-13T15:22:05Z</time>
      </trkpt>
      <trkpt lat="47.53174" lon="-2.8451">
        <ele>45.8</ele>
        <time>2021-11-13T15:22:10Z</time>
      </trkpt>
      <trkpt lat="47.53165" lon="-2.84486">
        <ele>45.8</ele>
        <time>2021-11-13T15:22:17Z</time>
      </trkpt>
      <trkpt lat="47.53163" lon="-2.84462">
        <ele>46</ele>
        <time>2021-11-13T15:22:24Z</time>
      </trkpt>
      <trkpt lat="47.53164" lon="-2.84455">
        <ele>46</ele>
        <time>2021-11-13T15:22:29Z</time>
      </trkpt>
      <trkpt lat="47.53167" lon="-2.8444">
        <ele>46</ele>
        <time>2021-11-13T15:22:36Z</time>
      </trkpt>
      <trkpt lat="47.53165" lon="-2.84434">
        <ele>45.6</ele>
        <time>2021-11-13T15:22:39Z</time>
      </trkpt>
      <trkpt lat="47.5316" lon="-2.84432">
        <ele>45.6</ele>
        <time>2021-11-13T15:22:41Z</time>
      </trkpt>
      <trkpt lat="47.53138" lon="-2.84425">
        <ele>45.4</ele>
        <time>2021-11-13T15:22:48Z</time>
      </trkpt>
      <trkpt lat="47.53129" lon="-2.84409">
        <ele>45.4</ele>
        <time>2021-11-13T15:22:52Z</time>
      </trkpt>
      <trkpt lat="47.53124" lon="-2.844">
        <ele>45.4</ele>
        <time>2021-11-13T15:22:54Z</time>
      </trkpt>
      <trkpt lat="47.53117" lon="-2.84385">
        <ele>45.4</ele>
        <time>2021-11-13T15:22:57Z</time>
      </trkpt>
      <trkpt lat="47.53103" lon="-2.84342">
        <ele>45.4</ele>
        <time>2021-11-13T15:23:04Z</time>
      </trkpt>
      <trkpt lat="47.53088" lon="-2.84295">
        <ele>45.6</ele>
        <time>2021-11-13T15:23:11Z</time>
      </trkpt>
      <trkpt lat="47.53069" lon="-2.84245">
        <ele>46</ele>
        <time>2021-11-13T15:23:18Z</time>
      </trkpt>
      <trkpt lat="47.53045" lon="-2.84194">
        <ele>46</ele>
        <time>2021-11-13T15:23:25Z</time>
      </trkpt>
      <trkpt lat="47.53042" lon="-2.84187">
        <ele>46</ele>
        <time>2021-11-13T15:23:26Z</time>
      </trkpt>
      <trkpt lat="47.53022" lon="-2.84142">
        <ele>46.6</ele>
        <time>2021-11-13T15:23:32Z</time>
      </trkpt>
      <trkpt lat="47.52993" lon="-2.84093">
        <ele>47</ele>
        <time>2021-11-13T15:23:39Z</time>
      </trkpt>
      <trkpt lat="47.52977" lon="-2.84069">
        <ele>47.2</ele>
        <time>2021-11-13T15:23:43Z</time>
      </trkpt>
      <trkpt lat="47.52961" lon="-2.84043">
        <ele>47.2</ele>
        <time>2021-11-13T15:23:47Z</time>
      </trkpt>
      <trkpt lat="47.52937" lon="-2.8399">
        <ele>47.4</ele>
        <time>2021-11-13T15:23:55Z</time>
      </trkpt>
      <trkpt lat="47.52925" lon="-2.83953">
        <ele>48</ele>
        <time>2021-11-13T15:24:01Z</time>
      </trkpt>
      <trkpt lat="47.52919" lon="-2.83931">
        <ele>48.2</ele>
        <time>2021-11-13T15:24:06Z</time>
      </trkpt>
      <trkpt lat="47.52904" lon="-2.83915">
        <ele>48.4</ele>
        <time>2021-11-13T15:24:11Z</time>
      </trkpt>
      <trkpt lat="47.52874" lon="-2.83892">
        <ele>48.6</ele>
        <time>2021-11-13T15:24:18Z</time>
      </trkpt>
      <trkpt lat="47.5284" lon="-2.83865">
        <ele>49</ele>
        <time>2021-11-13T15:24:25Z</time>
      </trkpt>
      <trkpt lat="47.52787" lon="-2.83823">
        <ele>49.2</ele>
        <time>2021-11-13T15:24:35Z</time>
      </trkpt>
      <trkpt lat="47.52782" lon="-2.83819">
        <ele>49.4</ele>
        <time>2021-11-13T15:24:36Z</time>
      </trkpt>
      <trkpt lat="47.52733" lon="-2.83778">
        <ele>49.4</ele>
        <time>2021-11-13T15:24:45Z</time>
      </trkpt>
      <trkpt lat="47.5269" lon="-2.83743">
        <ele>49.6</ele>
        <time>2021-11-13T15:24:53Z</time>
      </trkpt>
      <trkpt lat="47.52666" lon="-2.83724">
        <ele>49.6</ele>
        <time>2021-11-13T15:24:58Z</time>
      </trkpt>
      <trkpt lat="47.52623" lon="-2.83688">
        <ele>49.2</ele>
        <time>2021-11-13T15:25:07Z</time>
      </trkpt>
      <trkpt lat="47.52582" lon="-2.83655">
        <ele>48.8</ele>
        <time>2021-11-13T15:25:15Z</time>
      </trkpt>
      <trkpt lat="47.52552" lon="-2.83634">
        <ele>48.8</ele>
        <time>2021-11-13T15:25:21Z</time>
      </trkpt>
      <trkpt lat="47.5251" lon="-2.836">
        <ele>48.6</ele>
        <time>2021-11-13T15:25:29Z</time>
      </trkpt>
      <trkpt lat="47.52495" lon="-2.83588">
        <ele>48.4</ele>
        <time>2021-11-13T15:25:32Z</time>
      </trkpt>
      <trkpt lat="47.52484" lon="-2.83578">
        <ele>48.4</ele>
        <time>2021-11-13T15:25:34Z</time>
      </trkpt>
      <trkpt lat="47.52474" lon="-2.83568">
        <ele>48.4</ele>
        <time>2021-11-13T15:25:36Z</time>
      </trkpt>
      <trkpt lat="47.52459" lon="-2.83554">
        <ele>48.4</ele>
        <time>2021-11-13T15:25:39Z</time>
      </trkpt>
      <trkpt lat="47.52411" lon="-2.83514">
        <ele>48.4</ele>
        <time>2021-11-13T15:25:48Z</time>
      </trkpt>
      <trkpt lat="47.52403" lon="-2.83507">
        <ele>48.2</ele>
        <time>2021-11-13T15:25:51Z</time>
      </trkpt>
      <trkpt lat="47.52401" lon="-2.83507">
        <ele>48.2</ele>
        <time>2021-11-13T15:25:52Z</time>
      </trkpt>
      <trkpt lat="47.52398" lon="-2.83504">
        <ele>48</ele>
        <time>2021-11-13T15:25:54Z</time>
      </trkpt>
      <trkpt lat="47.52393" lon="-2.83492">
        <ele>48.2</ele>
        <time>2021-11-13T15:25:57Z</time>
      </trkpt>
      <trkpt lat="47.52383" lon="-2.83462">
        <ele>48.2</ele>
        <time>2021-11-13T15:26:02Z</time>
      </trkpt>
      <trkpt lat="47.52369" lon="-2.83418">
        <ele>47.8</ele>
        <time>2021-11-13T15:26:08Z</time>
      </trkpt>
      <trkpt lat="47.52354" lon="-2.83387">
        <ele>47.8</ele>
        <time>2021-11-13T15:26:12Z</time>
      </trkpt>
      <trkpt lat="47.52345" lon="-2.83375">
        <ele>47.6</ele>
        <time>2021-11-13T15:26:14Z</time>
      </trkpt>
      <trkpt lat="47.5234" lon="-2.83369">
        <ele>47.6</ele>
        <time>2021-11-13T15:26:15Z</time>
      </trkpt>
      <trkpt lat="47.52332" lon="-2.83357">
        <ele>47.2</ele>
        <time>2021-11-13T15:26:17Z</time>
      </trkpt>
      <trkpt lat="47.52325" lon="-2.83345">
        <ele>47</ele>
        <time>2021-11-13T15:26:19Z</time>
      </trkpt>
      <trkpt lat="47.52315" lon="-2.83318">
        <ele>46.8</ele>
        <time>2021-11-13T15:26:23Z</time>
      </trkpt>
      <trkpt lat="47.52307" lon="-2.83284">
        <ele>46.8</ele>
        <time>2021-11-13T15:26:27Z</time>
      </trkpt>
      <trkpt lat="47.52304" lon="-2.83266">
        <ele>46.8</ele>
        <time>2021-11-13T15:26:29Z</time>
      </trkpt>
      <trkpt lat="47.52303" lon="-2.83258">
        <ele>46.8</ele>
        <time>2021-11-13T15:26:30Z</time>
      </trkpt>
      <trkpt lat="47.523" lon="-2.83224">
        <ele>46.6</ele>
        <time>2021-11-13T15:26:34Z</time>
      </trkpt>
      <trkpt lat="47.52292" lon="-2.83169">
        <ele>46</ele>
        <time>2021-11-13T15:26:41Z</time>
      </trkpt>
      <trkpt lat="47.52291" lon="-2.83153">
        <ele>46</ele>
        <time>2021-11-13T15:26:43Z</time>
      </trkpt>
      <trkpt lat="47.52285" lon="-2.83099">
        <ele>45.6</ele>
        <time>2021-11-13T15:26:50Z</time>
      </trkpt>
      <trkpt lat="47.52279" lon="-2.83057">
        <ele>45.4</ele>
        <time>2021-11-13T15:26:56Z</time>
      </trkpt>
      <trkpt lat="47.52276" lon="-2.83044">
        <ele>45.2</ele>
        <time>2021-11-13T15:26:58Z</time>
      </trkpt>
      <trkpt lat="47.5227" lon="-2.83033">
        <ele>45.2</ele>
        <time>2021-11-13T15:27:00Z</time>
      </trkpt>
      <trkpt lat="47.52264" lon="-2.83024">
        <ele>45</ele>
        <time>2021-11-13T15:27:02Z</time>
      </trkpt>
      <trkpt lat="47.52261" lon="-2.83021">
        <ele>45</ele>
        <time>2021-11-13T15:27:03Z</time>
      </trkpt>
      <trkpt lat="47.52229" lon="-2.8299">
        <ele>45</ele>
        <time>2021-11-13T15:27:12Z</time>
      </trkpt>
      <trkpt lat="47.52199" lon="-2.82961">
        <ele>45.2</ele>
        <time>2021-11-13T15:27:20Z</time>
      </trkpt>
      <trkpt lat="47.52166" lon="-2.82937">
        <ele>45.4</ele>
        <time>2021-11-13T15:27:28Z</time>
      </trkpt>
      <trkpt lat="47.52158" lon="-2.82933">
        <ele>45.4</ele>
        <time>2021-11-13T15:27:30Z</time>
      </trkpt>
      <trkpt lat="47.52143" lon="-2.82925">
        <ele>45.4</ele>
        <time>2021-11-13T15:27:34Z</time>
      </trkpt>
      <trkpt lat="47.52121" lon="-2.82908">
        <ele>46</ele>
        <time>2021-11-13T15:27:41Z</time>
      </trkpt>
      <trkpt lat="47.52113" lon="-2.82897">
        <ele>46.2</ele>
        <time>2021-11-13T15:27:44Z</time>
      </trkpt>
      <trkpt lat="47.52104" lon="-2.82882">
        <ele>46.6</ele>
        <time>2021-11-13T15:27:48Z</time>
      </trkpt>
      <trkpt lat="47.52101" lon="-2.82874">
        <ele>47</ele>
        <time>2021-11-13T15:27:50Z</time>
      </trkpt>
      <trkpt lat="47.52092" lon="-2.82855">
        <ele>47.4</ele>
        <time>2021-11-13T15:27:54Z</time>
      </trkpt>
      <trkpt lat="47.52077" lon="-2.82826">
        <ele>47.6</ele>
        <time>2021-11-13T15:28:00Z</time>
      </trkpt>
      <trkpt lat="47.52058" lon="-2.82782">
        <ele>48</ele>
        <time>2021-11-13T15:28:09Z</time>
      </trkpt>
      <trkpt lat="47.52055" lon="-2.82776">
        <ele>48</ele>
        <time>2021-11-13T15:28:10Z</time>
      </trkpt>
      <trkpt lat="47.52043" lon="-2.82748">
        <ele>48.8</ele>
        <time>2021-11-13T15:28:16Z</time>
      </trkpt>
      <trkpt lat="47.52039" lon="-2.82738">
        <ele>48.8</ele>
        <time>2021-11-13T15:28:18Z</time>
      </trkpt>
      <trkpt lat="47.52031" lon="-2.82713">
        <ele>49.4</ele>
        <time>2021-11-13T15:28:23Z</time>
      </trkpt>
      <trkpt lat="47.52026" lon="-2.82686">
        <ele>49.8</ele>
        <time>2021-11-13T15:28:28Z</time>
      </trkpt>
      <trkpt lat="47.52025" lon="-2.82681">
        <ele>50</ele>
        <time>2021-11-13T15:28:29Z</time>
      </trkpt>
      <trkpt lat="47.5202" lon="-2.82653">
        <ele>50.8</ele>
        <time>2021-11-13T15:28:34Z</time>
      </trkpt>
      <trkpt lat="47.52019" lon="-2.82649">
        <ele>51</ele>
        <time>2021-11-13T15:28:35Z</time>
      </trkpt>
      <trkpt lat="47.52008" lon="-2.82619">
        <ele>51.4</ele>
        <time>2021-11-13T15:28:41Z</time>
      </trkpt>
      <trkpt lat="47.5199" lon="-2.82575">
        <ele>51.6</ele>
        <time>2021-11-13T15:28:50Z</time>
      </trkpt>
      <trkpt lat="47.51978" lon="-2.8254">
        <ele>51.8</ele>
        <time>2021-11-13T15:28:56Z</time>
      </trkpt>
      <trkpt lat="47.51976" lon="-2.82533">
        <ele>51.8</ele>
        <time>2021-11-13T15:28:57Z</time>
      </trkpt>
      <trkpt lat="47.51975" lon="-2.82528">
        <ele>52</ele>
        <time>2021-11-13T15:28:58Z</time>
      </trkpt>
      <trkpt lat="47.51966" lon="-2.8248">
        <ele>52.2</ele>
        <time>2021-11-13T15:29:05Z</time>
      </trkpt>
      <trkpt lat="47.51957" lon="-2.82427">
        <ele>52.8</ele>
        <time>2021-11-13T15:29:12Z</time>
      </trkpt>
      <trkpt lat="47.51956" lon="-2.82421">
        <ele>52.8</ele>
        <time>2021-11-13T15:29:13Z</time>
      </trkpt>
      <trkpt lat="47.51954" lon="-2.82414">
        <ele>53</ele>
        <time>2021-11-13T15:29:14Z</time>
      </trkpt>
      <trkpt lat="47.5195" lon="-2.82384">
        <ele>53.2</ele>
        <time>2021-11-13T15:29:18Z</time>
      </trkpt>
      <trkpt lat="47.51941" lon="-2.82332">
        <ele>53.6</ele>
        <time>2021-11-13T15:29:25Z</time>
      </trkpt>
      <trkpt lat="47.5194" lon="-2.82324">
        <ele>53.8</ele>
        <time>2021-11-13T15:29:26Z</time>
      </trkpt>
      <trkpt lat="47.51928" lon="-2.82259">
        <ele>54.4</ele>
        <time>2021-11-13T15:29:34Z</time>
      </trkpt>
      <trkpt lat="47.5192" lon="-2.82208">
        <ele>54.6</ele>
        <time>2021-11-13T15:29:40Z</time>
      </trkpt>
      <trkpt lat="47.51918" lon="-2.82201">
        <ele>54.6</ele>
        <time>2021-11-13T15:29:41Z</time>
      </trkpt>
      <trkpt lat="47.51915" lon="-2.82181">
        <ele>54.8</ele>
        <time>2021-11-13T15:29:44Z</time>
      </trkpt>
      <trkpt lat="47.51915" lon="-2.82175">
        <ele>55</ele>
        <time>2021-11-13T15:29:45Z</time>
      </trkpt>
      <trkpt lat="47.51916" lon="-2.8217">
        <ele>55</ele>
        <time>2021-11-13T15:29:46Z</time>
      </trkpt>
      <trkpt lat="47.51922" lon="-2.82161">
        <ele>55.2</ele>
        <time>2021-11-13T15:29:48Z</time>
      </trkpt>
      <trkpt lat="47.5193" lon="-2.82157">
        <ele>55.2</ele>
        <time>2021-11-13T15:29:50Z</time>
      </trkpt>
      <trkpt lat="47.51937" lon="-2.82156">
        <ele>55.4</ele>
        <time>2021-11-13T15:29:52Z</time>
      </trkpt>
      <trkpt lat="47.51955" lon="-2.82153">
        <ele>55.4</ele>
        <time>2021-11-13T15:29:57Z</time>
      </trkpt>
      <trkpt lat="47.51967" lon="-2.82151">
        <ele>56</ele>
        <time>2021-11-13T15:30:00Z</time>
      </trkpt>
      <trkpt lat="47.51984" lon="-2.82139">
        <ele>56</ele>
        <time>2021-11-13T15:30:05Z</time>
      </trkpt>
      <trkpt lat="47.52" lon="-2.82112">
        <ele>56.6</ele>
        <time>2021-11-13T15:30:11Z</time>
      </trkpt>
      <trkpt lat="47.52003" lon="-2.82108">
        <ele>56.6</ele>
        <time>2021-11-13T15:30:12Z</time>
      </trkpt>
      <trkpt lat="47.52021" lon="-2.82096">
        <ele>56.8</ele>
        <time>2021-11-13T15:30:17Z</time>
      </trkpt>
      <trkpt lat="47.52044" lon="-2.82076">
        <ele>57.6</ele>
        <time>2021-11-13T15:30:24Z</time>
      </trkpt>
      <trkpt lat="47.52068" lon="-2.8205">
        <ele>58.4</ele>
        <time>2021-11-13T15:30:31Z</time>
      </trkpt>
      <trkpt lat="47.52078" lon="-2.82038">
        <ele>58.6</ele>
        <time>2021-11-13T15:30:34Z</time>
      </trkpt>
      <trkpt lat="47.5209" lon="-2.82021">
        <ele>58.8</ele>
        <time>2021-11-13T15:30:38Z</time>
      </trkpt>
      <trkpt lat="47.52093" lon="-2.82017">
        <ele>58.8</ele>
        <time>2021-11-13T15:30:39Z</time>
      </trkpt>
      <trkpt lat="47.52105" lon="-2.81998">
        <ele>59.2</ele>
        <time>2021-11-13T15:30:43Z</time>
      </trkpt>
      <trkpt lat="47.52112" lon="-2.81989">
        <ele>59.4</ele>
        <time>2021-11-13T15:30:45Z</time>
      </trkpt>
      <trkpt lat="47.52135" lon="-2.81956">
        <ele>59.6</ele>
        <time>2021-11-13T15:30:52Z</time>
      </trkpt>
      <trkpt lat="47.52145" lon="-2.81942">
        <ele>59.8</ele>
        <time>2021-11-13T15:30:55Z</time>
      </trkpt>
      <trkpt lat="47.52156" lon="-2.81926">
        <ele>60</ele>
        <time>2021-11-13T15:30:58Z</time>
      </trkpt>
      <trkpt lat="47.52164" lon="-2.81907">
        <ele>60.2</ele>
        <time>2021-11-13T15:31:01Z</time>
      </trkpt>
      <trkpt lat="47.52166" lon="-2.819">
        <ele>60</ele>
        <time>2021-11-13T15:31:02Z</time>
      </trkpt>
      <trkpt lat="47.52167" lon="-2.81893">
        <ele>60.2</ele>
        <time>2021-11-13T15:31:03Z</time>
      </trkpt>
      <trkpt lat="47.52167" lon="-2.8187">
        <ele>60.4</ele>
        <time>2021-11-13T15:31:06Z</time>
      </trkpt>
      <trkpt lat="47.52166" lon="-2.81863">
        <ele>60.4</ele>
        <time>2021-11-13T15:31:07Z</time>
      </trkpt>
      <trkpt lat="47.52161" lon="-2.8182">
        <ele>61.2</ele>
        <time>2021-11-13T15:31:13Z</time>
      </trkpt>
      <trkpt lat="47.52158" lon="-2.81792">
        <ele>61.6</ele>
        <time>2021-11-13T15:31:17Z</time>
      </trkpt>
      <trkpt lat="47.52153" lon="-2.81751">
        <ele>62</ele>
        <time>2021-11-13T15:31:23Z</time>
      </trkpt>
      <trkpt lat="47.5215" lon="-2.81725">
        <ele>62.4</ele>
        <time>2021-11-13T15:31:27Z</time>
      </trkpt>
      <trkpt lat="47.52149" lon="-2.81711">
        <ele>62.6</ele>
        <time>2021-11-13T15:31:29Z</time>
      </trkpt>
      <trkpt lat="47.52148" lon="-2.81704">
        <ele>62.6</ele>
        <time>2021-11-13T15:31:30Z</time>
      </trkpt>
      <trkpt lat="47.52141" lon="-2.81642">
        <ele>63.4</ele>
        <time>2021-11-13T15:31:39Z</time>
      </trkpt>
      <trkpt lat="47.52137" lon="-2.81613">
        <ele>63.6</ele>
        <time>2021-11-13T15:31:43Z</time>
      </trkpt>
      <trkpt lat="47.52134" lon="-2.8157">
        <ele>64.4</ele>
        <time>2021-11-13T15:31:49Z</time>
      </trkpt>
      <trkpt lat="47.52134" lon="-2.81556">
        <ele>64.6</ele>
        <time>2021-11-13T15:31:51Z</time>
      </trkpt>
      <trkpt lat="47.52135" lon="-2.81548">
        <ele>64.6</ele>
        <time>2021-11-13T15:31:52Z</time>
      </trkpt>
      <trkpt lat="47.52136" lon="-2.81543">
        <ele>64.8</ele>
        <time>2021-11-13T15:31:53Z</time>
      </trkpt>
      <trkpt lat="47.52139" lon="-2.81537">
        <ele>64.8</ele>
        <time>2021-11-13T15:31:54Z</time>
      </trkpt>
      <trkpt lat="47.52143" lon="-2.81531">
        <ele>65</ele>
        <time>2021-11-13T15:31:55Z</time>
      </trkpt>
      <trkpt lat="47.52152" lon="-2.81522">
        <ele>65.2</ele>
        <time>2021-11-13T15:31:57Z</time>
      </trkpt>
      <trkpt lat="47.52156" lon="-2.8152">
        <ele>65.2</ele>
        <time>2021-11-13T15:31:58Z</time>
      </trkpt>
      <trkpt lat="47.52185" lon="-2.81508">
        <ele>65.4</ele>
        <time>2021-11-13T15:32:03Z</time>
      </trkpt>
      <trkpt lat="47.52199" lon="-2.81504">
        <ele>65.6</ele>
        <time>2021-11-13T15:32:05Z</time>
      </trkpt>
      <trkpt lat="47.52245" lon="-2.81488">
        <ele>65.8</ele>
        <time>2021-11-13T15:32:12Z</time>
      </trkpt>
      <trkpt lat="47.52279" lon="-2.81476">
        <ele>66</ele>
        <time>2021-11-13T15:32:17Z</time>
      </trkpt>
      <trkpt lat="47.52289" lon="-2.81464">
        <ele>66</ele>
        <time>2021-11-13T15:32:19Z</time>
      </trkpt>
      <trkpt lat="47.52291" lon="-2.81456">
        <ele>66</ele>
        <time>2021-11-13T15:32:20Z</time>
      </trkpt>
      <trkpt lat="47.52291" lon="-2.81449">
        <ele>66</ele>
        <time>2021-11-13T15:32:21Z</time>
      </trkpt>
      <trkpt lat="47.52289" lon="-2.81425">
        <ele>66</ele>
        <time>2021-11-13T15:32:24Z</time>
      </trkpt>
      <trkpt lat="47.52285" lon="-2.81415">
        <ele>66</ele>
        <time>2021-11-13T15:32:26Z</time>
      </trkpt>
      <trkpt lat="47.52281" lon="-2.8141">
        <ele>66</ele>
        <time>2021-11-13T15:32:27Z</time>
      </trkpt>
      <trkpt lat="47.52277" lon="-2.81406">
        <ele>66</ele>
        <time>2021-11-13T15:32:28Z</time>
      </trkpt>
      <trkpt lat="47.52256" lon="-2.81391">
        <ele>66.2</ele>
        <time>2021-11-13T15:32:33Z</time>
      </trkpt>
      <trkpt lat="47.52234" lon="-2.81376">
        <ele>66.4</ele>
        <time>2021-11-13T15:32:38Z</time>
      </trkpt>
      <trkpt lat="47.52227" lon="-2.81369">
        <ele>66.4</ele>
        <time>2021-11-13T15:32:40Z</time>
      </trkpt>
      <trkpt lat="47.52222" lon="-2.81366">
        <ele>66.4</ele>
        <time>2021-11-13T15:32:41Z</time>
      </trkpt>
      <trkpt lat="47.52202" lon="-2.81353">
        <ele>66.6</ele>
        <time>2021-11-13T15:32:46Z</time>
      </trkpt>
      <trkpt lat="47.52177" lon="-2.81332">
        <ele>67</ele>
        <time>2021-11-13T15:32:53Z</time>
      </trkpt>
      <trkpt lat="47.52168" lon="-2.81323">
        <ele>67.2</ele>
        <time>2021-11-13T15:32:55Z</time>
      </trkpt>
      <trkpt lat="47.52161" lon="-2.81313">
        <ele>67.2</ele>
        <time>2021-11-13T15:32:57Z</time>
      </trkpt>
      <trkpt lat="47.52158" lon="-2.81309">
        <ele>67.2</ele>
        <time>2021-11-13T15:32:58Z</time>
      </trkpt>
      <trkpt lat="47.52155" lon="-2.81304">
        <ele>67.2</ele>
        <time>2021-11-13T15:32:59Z</time>
      </trkpt>
      <trkpt lat="47.52136" lon="-2.81273">
        <ele>67.2</ele>
        <time>2021-11-13T15:33:05Z</time>
      </trkpt>
      <trkpt lat="47.52127" lon="-2.81254">
        <ele>67.6</ele>
        <time>2021-11-13T15:33:09Z</time>
      </trkpt>
      <trkpt lat="47.52121" lon="-2.81239">
        <ele>67.6</ele>
        <time>2021-11-13T15:33:12Z</time>
      </trkpt>
      <trkpt lat="47.52117" lon="-2.81228">
        <ele>68</ele>
        <time>2021-11-13T15:33:14Z</time>
      </trkpt>
      <trkpt lat="47.5211" lon="-2.81201">
        <ele>68.2</ele>
        <time>2021-11-13T15:33:19Z</time>
      </trkpt>
      <trkpt lat="47.52101" lon="-2.81153">
        <ele>68.4</ele>
        <time>2021-11-13T15:33:27Z</time>
      </trkpt>
      <trkpt lat="47.52099" lon="-2.81132">
        <ele>68.6</ele>
        <time>2021-11-13T15:33:30Z</time>
      </trkpt>
      <trkpt lat="47.52097" lon="-2.81112">
        <ele>68.8</ele>
        <time>2021-11-13T15:33:33Z</time>
      </trkpt>
      <trkpt lat="47.52097" lon="-2.81105">
        <ele>68.8</ele>
        <time>2021-11-13T15:33:34Z</time>
      </trkpt>
      <trkpt lat="47.52095" lon="-2.81052">
        <ele>69.2</ele>
        <time>2021-11-13T15:33:41Z</time>
      </trkpt>
      <trkpt lat="47.52094" lon="-2.81003">
        <ele>69.6</ele>
        <time>2021-11-13T15:33:47Z</time>
      </trkpt>
      <trkpt lat="47.52094" lon="-2.80922">
        <ele>70.2</ele>
        <time>2021-11-13T15:33:56Z</time>
      </trkpt>
      <trkpt lat="47.52096" lon="-2.80865">
        <ele>70.6</ele>
        <time>2021-11-13T15:34:02Z</time>
      </trkpt>
      <trkpt lat="47.52097" lon="-2.80838">
        <ele>70.8</ele>
        <time>2021-11-13T15:34:05Z</time>
      </trkpt>
      <trkpt lat="47.52096" lon="-2.80758">
        <ele>71.2</ele>
        <time>2021-11-13T15:34:13Z</time>
      </trkpt>
      <trkpt lat="47.52096" lon="-2.80712">
        <ele>71.6</ele>
        <time>2021-11-13T15:34:18Z</time>
      </trkpt>
      <trkpt lat="47.52097" lon="-2.80692">
        <ele>71.6</ele>
        <time>2021-11-13T15:34:20Z</time>
      </trkpt>
      <trkpt lat="47.52104" lon="-2.80635">
        <ele>72</ele>
        <time>2021-11-13T15:34:27Z</time>
      </trkpt>
      <trkpt lat="47.52117" lon="-2.80592">
        <ele>72.6</ele>
        <time>2021-11-13T15:34:33Z</time>
      </trkpt>
      <trkpt lat="47.5212" lon="-2.80577">
        <ele>72.6</ele>
        <time>2021-11-13T15:34:35Z</time>
      </trkpt>
      <trkpt lat="47.52127" lon="-2.80538">
        <ele>72.6</ele>
        <time>2021-11-13T15:34:40Z</time>
      </trkpt>
      <trkpt lat="47.52133" lon="-2.80495">
        <ele>72.6</ele>
        <time>2021-11-13T15:34:46Z</time>
      </trkpt>
      <trkpt lat="47.52134" lon="-2.80486">
        <ele>72.6</ele>
        <time>2021-11-13T15:34:47Z</time>
      </trkpt>
      <trkpt lat="47.52136" lon="-2.80473">
        <ele>72.6</ele>
        <time>2021-11-13T15:34:49Z</time>
      </trkpt>
      <trkpt lat="47.5214" lon="-2.80451">
        <ele>73</ele>
        <time>2021-11-13T15:34:52Z</time>
      </trkpt>
      <trkpt lat="47.52151" lon="-2.80387">
        <ele>73.2</ele>
        <time>2021-11-13T15:35:00Z</time>
      </trkpt>
      <trkpt lat="47.52156" lon="-2.80336">
        <ele>73.6</ele>
        <time>2021-11-13T15:35:06Z</time>
      </trkpt>
      <trkpt lat="47.52156" lon="-2.80327">
        <ele>73.6</ele>
        <time>2021-11-13T15:35:07Z</time>
      </trkpt>
      <trkpt lat="47.52156" lon="-2.80302">
        <ele>73.6</ele>
        <time>2021-11-13T15:35:10Z</time>
      </trkpt>
      <trkpt lat="47.52158" lon="-2.80286">
        <ele>73.6</ele>
        <time>2021-11-13T15:35:12Z</time>
      </trkpt>
      <trkpt lat="47.52157" lon="-2.80225">
        <ele>73.6</ele>
        <time>2021-11-13T15:35:19Z</time>
      </trkpt>
      <trkpt lat="47.52156" lon="-2.80217">
        <ele>73.6</ele>
        <time>2021-11-13T15:35:20Z</time>
      </trkpt>
      <trkpt lat="47.52155" lon="-2.80191">
        <ele>73.8</ele>
        <time>2021-11-13T15:35:23Z</time>
      </trkpt>
      <trkpt lat="47.52156" lon="-2.80142">
        <ele>73.8</ele>
        <time>2021-11-13T15:35:29Z</time>
      </trkpt>
      <trkpt lat="47.5216" lon="-2.80057">
        <ele>74</ele>
        <time>2021-11-13T15:35:39Z</time>
      </trkpt>
      <trkpt lat="47.52159" lon="-2.80039">
        <ele>74</ele>
        <time>2021-11-13T15:35:41Z</time>
      </trkpt>
      <trkpt lat="47.52153" lon="-2.79987">
        <ele>74</ele>
        <time>2021-11-13T15:35:47Z</time>
      </trkpt>
      <trkpt lat="47.52148" lon="-2.79943">
        <ele>74.4</ele>
        <time>2021-11-13T15:35:52Z</time>
      </trkpt>
      <trkpt lat="47.52145" lon="-2.79916">
        <ele>74.4</ele>
        <time>2021-11-13T15:35:55Z</time>
      </trkpt>
      <trkpt lat="47.52142" lon="-2.79879">
        <ele>74</ele>
        <time>2021-11-13T15:35:59Z</time>
      </trkpt>
      <trkpt lat="47.52141" lon="-2.7986">
        <ele>73.8</ele>
        <time>2021-11-13T15:36:01Z</time>
      </trkpt>
      <trkpt lat="47.52141" lon="-2.79851">
        <ele>73.8</ele>
        <time>2021-11-13T15:36:02Z</time>
      </trkpt>
      <trkpt lat="47.52139" lon="-2.79821">
        <ele>73.8</ele>
        <time>2021-11-13T15:36:05Z</time>
      </trkpt>
      <trkpt lat="47.52135" lon="-2.79793">
        <ele>73.6</ele>
        <time>2021-11-13T15:36:08Z</time>
      </trkpt>
      <trkpt lat="47.52131" lon="-2.79765">
        <ele>73.4</ele>
        <time>2021-11-13T15:36:11Z</time>
      </trkpt>
      <trkpt lat="47.52129" lon="-2.79736">
        <ele>73.2</ele>
        <time>2021-11-13T15:36:14Z</time>
      </trkpt>
      <trkpt lat="47.52131" lon="-2.79718">
        <ele>73.2</ele>
        <time>2021-11-13T15:36:16Z</time>
      </trkpt>
      <trkpt lat="47.52133" lon="-2.79704">
        <ele>73.2</ele>
        <time>2021-11-13T15:36:18Z</time>
      </trkpt>
      <trkpt lat="47.52141" lon="-2.79677">
        <ele>73</ele>
        <time>2021-11-13T15:36:23Z</time>
      </trkpt>
      <trkpt lat="47.52165" lon="-2.79659">
        <ele>73</ele>
        <time>2021-11-13T15:36:28Z</time>
      </trkpt>
      <trkpt lat="47.52196" lon="-2.79632">
        <ele>72.6</ele>
        <time>2021-11-13T15:36:34Z</time>
      </trkpt>
      <trkpt lat="47.52202" lon="-2.79627">
        <ele>72.6</ele>
        <time>2021-11-13T15:36:35Z</time>
      </trkpt>
      <trkpt lat="47.52239" lon="-2.79587">
        <ele>72.4</ele>
        <time>2021-11-13T15:36:42Z</time>
      </trkpt>
      <trkpt lat="47.52285" lon="-2.79536">
        <ele>72</ele>
        <time>2021-11-13T15:36:50Z</time>
      </trkpt>
      <trkpt lat="47.52333" lon="-2.79475">
        <ele>71.8</ele>
        <time>2021-11-13T15:36:58Z</time>
      </trkpt>
      <trkpt lat="47.52338" lon="-2.79468">
        <ele>71.8</ele>
        <time>2021-11-13T15:36:59Z</time>
      </trkpt>
      <trkpt lat="47.52348" lon="-2.79455">
        <ele>71.8</ele>
        <time>2021-11-13T15:37:01Z</time>
      </trkpt>
      <trkpt lat="47.52351" lon="-2.79451">
        <ele>71.8</ele>
        <time>2021-11-13T15:37:02Z</time>
      </trkpt>
      <trkpt lat="47.52353" lon="-2.79446">
        <ele>71.6</ele>
        <time>2021-11-13T15:37:03Z</time>
      </trkpt>
      <trkpt lat="47.52352" lon="-2.79437">
        <ele>71.4</ele>
        <time>2021-11-13T15:37:05Z</time>
      </trkpt>
      <trkpt lat="47.5235" lon="-2.79432">
        <ele>71.2</ele>
        <time>2021-11-13T15:37:06Z</time>
      </trkpt>
      <trkpt lat="47.52337" lon="-2.79425">
        <ele>70.8</ele>
        <time>2021-11-13T15:37:10Z</time>
      </trkpt>
      <trkpt lat="47.5233" lon="-2.7942">
        <ele>70.8</ele>
        <time>2021-11-13T15:37:12Z</time>
      </trkpt>
      <trkpt lat="47.52328" lon="-2.79415">
        <ele>70.6</ele>
        <time>2021-11-13T15:37:13Z</time>
      </trkpt>
      <trkpt lat="47.52325" lon="-2.79411">
        <ele>70.6</ele>
        <time>2021-11-13T15:37:14Z</time>
      </trkpt>
      <trkpt lat="47.52312" lon="-2.79394">
        <ele>70.2</ele>
        <time>2021-11-13T15:37:18Z</time>
      </trkpt>
      <trkpt lat="47.52309" lon="-2.79389">
        <ele>70.2</ele>
        <time>2021-11-13T15:37:19Z</time>
      </trkpt>
      <trkpt lat="47.52307" lon="-2.79383">
        <ele>70</ele>
        <time>2021-11-13T15:37:20Z</time>
      </trkpt>
      <trkpt lat="47.52301" lon="-2.79367">
        <ele>69.8</ele>
        <time>2021-11-13T15:37:23Z</time>
      </trkpt>
      <trkpt lat="47.52295" lon="-2.79355">
        <ele>69.6</ele>
        <time>2021-11-13T15:37:25Z</time>
      </trkpt>
      <trkpt lat="47.52282" lon="-2.79323">
        <ele>69.2</ele>
        <time>2021-11-13T15:37:31Z</time>
      </trkpt>
      <trkpt lat="47.52266" lon="-2.7929">
        <ele>68.8</ele>
        <time>2021-11-13T15:37:37Z</time>
      </trkpt>
      <trkpt lat="47.52263" lon="-2.79285">
        <ele>68.8</ele>
        <time>2021-11-13T15:37:38Z</time>
      </trkpt>
      <trkpt lat="47.52261" lon="-2.7928">
        <ele>68.8</ele>
        <time>2021-11-13T15:37:39Z</time>
      </trkpt>
      <trkpt lat="47.52261" lon="-2.79271">
        <ele>68.6</ele>
        <time>2021-11-13T15:37:41Z</time>
      </trkpt>
      <trkpt lat="47.52272" lon="-2.7926">
        <ele>68.2</ele>
        <time>2021-11-13T15:37:44Z</time>
      </trkpt>
      <trkpt lat="47.52276" lon="-2.79256">
        <ele>68.2</ele>
        <time>2021-11-13T15:37:45Z</time>
      </trkpt>
      <trkpt lat="47.52284" lon="-2.79249">
        <ele>68.2</ele>
        <time>2021-11-13T15:37:47Z</time>
      </trkpt>
      <trkpt lat="47.5229" lon="-2.79238">
        <ele>67.8</ele>
        <time>2021-11-13T15:37:49Z</time>
      </trkpt>
      <trkpt lat="47.5229" lon="-2.79225">
        <ele>67.8</ele>
        <time>2021-11-13T15:37:51Z</time>
      </trkpt>
      <trkpt lat="47.52289" lon="-2.79213">
        <ele>67.6</ele>
        <time>2021-11-13T15:37:53Z</time>
      </trkpt>
      <trkpt lat="47.52289" lon="-2.792">
        <ele>67.4</ele>
        <time>2021-11-13T15:37:55Z</time>
      </trkpt>
      <trkpt lat="47.52289" lon="-2.79166">
        <ele>67.2</ele>
        <time>2021-11-13T15:38:00Z</time>
      </trkpt>
      <trkpt lat="47.52289" lon="-2.79153">
        <ele>67.2</ele>
        <time>2021-11-13T15:38:02Z</time>
      </trkpt>
      <trkpt lat="47.52289" lon="-2.79136">
        <ele>67</ele>
        <time>2021-11-13T15:38:05Z</time>
      </trkpt>
      <trkpt lat="47.52289" lon="-2.7913">
        <ele>67</ele>
        <time>2021-11-13T15:38:06Z</time>
      </trkpt>
      <trkpt lat="47.52292" lon="-2.79109">
        <ele>66.8</ele>
        <time>2021-11-13T15:38:10Z</time>
      </trkpt>
      <trkpt lat="47.523" lon="-2.79091">
        <ele>66.8</ele>
        <time>2021-11-13T15:38:14Z</time>
      </trkpt>
      <trkpt lat="47.52314" lon="-2.79063">
        <ele>66.8</ele>
        <time>2021-11-13T15:38:21Z</time>
      </trkpt>
      <trkpt lat="47.52322" lon="-2.79036">
        <ele>67</ele>
        <time>2021-11-13T15:38:28Z</time>
      </trkpt>
      <trkpt lat="47.52333" lon="-2.79002">
        <ele>67.2</ele>
        <time>2021-11-13T15:38:34Z</time>
      </trkpt>
      <trkpt lat="47.52336" lon="-2.78999">
        <ele>67.2</ele>
        <time>2021-11-13T15:38:35Z</time>
      </trkpt>
      <trkpt lat="47.52355" lon="-2.78987">
        <ele>67.4</ele>
        <time>2021-11-13T15:38:42Z</time>
      </trkpt>
      <trkpt lat="47.52357" lon="-2.78986">
        <ele>67.4</ele>
        <time>2021-11-13T15:38:43Z</time>
      </trkpt>
      <trkpt lat="47.5236" lon="-2.78987">
        <ele>67.4</ele>
        <time>2021-11-13T15:38:45Z</time>
      </trkpt>
      <trkpt lat="47.52361" lon="-2.78987">
        <ele>67.6</ele>
        <time>2021-11-13T15:38:46Z</time>
      </trkpt>
      <trkpt lat="47.52363" lon="-2.78988">
        <ele>67.6</ele>
        <time>2021-11-13T15:38:47Z</time>
      </trkpt>
      <trkpt lat="47.52365" lon="-2.78981">
        <ele>67.6</ele>
        <time>2021-11-13T15:38:50Z</time>
      </trkpt>
      <trkpt lat="47.52372" lon="-2.78957">
        <ele>67.6</ele>
        <time>2021-11-13T15:38:55Z</time>
      </trkpt>
      <trkpt lat="47.52387" lon="-2.78929">
        <ele>67.4</ele>
        <time>2021-11-13T15:39:01Z</time>
      </trkpt>
      <trkpt lat="47.52408" lon="-2.78898">
        <ele>67.4</ele>
        <time>2021-11-13T15:39:08Z</time>
      </trkpt>
      <trkpt lat="47.52413" lon="-2.78888">
        <ele>67.4</ele>
        <time>2021-11-13T15:39:10Z</time>
      </trkpt>
      <trkpt lat="47.52417" lon="-2.78878">
        <ele>67.4</ele>
        <time>2021-11-13T15:39:12Z</time>
      </trkpt>
      <trkpt lat="47.52419" lon="-2.78859">
        <ele>67.4</ele>
        <time>2021-11-13T15:39:15Z</time>
      </trkpt>
      <trkpt lat="47.52419" lon="-2.78846">
        <ele>67.4</ele>
        <time>2021-11-13T15:39:17Z</time>
      </trkpt>
      <trkpt lat="47.52419" lon="-2.78831">
        <ele>67.6</ele>
        <time>2021-11-13T15:39:20Z</time>
      </trkpt>
      <trkpt lat="47.52419" lon="-2.78821">
        <ele>67.6</ele>
        <time>2021-11-13T15:39:22Z</time>
      </trkpt>
      <trkpt lat="47.52429" lon="-2.78768">
        <ele>67.6</ele>
        <time>2021-11-13T15:39:32Z</time>
      </trkpt>
      <trkpt lat="47.5244" lon="-2.78736">
        <ele>68</ele>
        <time>2021-11-13T15:39:39Z</time>
      </trkpt>
      <trkpt lat="47.52447" lon="-2.78703">
        <ele>68.2</ele>
        <time>2021-11-13T15:39:46Z</time>
      </trkpt>
      <trkpt lat="47.52448" lon="-2.7866">
        <ele>68.4</ele>
        <time>2021-11-13T15:39:54Z</time>
      </trkpt>
      <trkpt lat="47.52451" lon="-2.78618">
        <ele>68.4</ele>
        <time>2021-11-13T15:40:01Z</time>
      </trkpt>
      <trkpt lat="47.52457" lon="-2.78559">
        <ele>68.8</ele>
        <time>2021-11-13T15:40:10Z</time>
      </trkpt>
      <trkpt lat="47.52466" lon="-2.7851">
        <ele>68.8</ele>
        <time>2021-11-13T15:40:17Z</time>
      </trkpt>
      <trkpt lat="47.52467" lon="-2.78503">
        <ele>69</ele>
        <time>2021-11-13T15:40:18Z</time>
      </trkpt>
      <trkpt lat="47.52474" lon="-2.78474">
        <ele>69</ele>
        <time>2021-11-13T15:40:22Z</time>
      </trkpt>
      <trkpt lat="47.52483" lon="-2.78449">
        <ele>69.2</ele>
        <time>2021-11-13T15:40:26Z</time>
      </trkpt>
      <trkpt lat="47.52493" lon="-2.78431">
        <ele>69.2</ele>
        <time>2021-11-13T15:40:29Z</time>
      </trkpt>
      <trkpt lat="47.52518" lon="-2.7839">
        <ele>70</ele>
        <time>2021-11-13T15:40:37Z</time>
      </trkpt>
      <trkpt lat="47.52542" lon="-2.78361">
        <ele>70.2</ele>
        <time>2021-11-13T15:40:43Z</time>
      </trkpt>
      <trkpt lat="47.52546" lon="-2.78356">
        <ele>70.2</ele>
        <time>2021-11-13T15:40:44Z</time>
      </trkpt>
      <trkpt lat="47.52549" lon="-2.78351">
        <ele>70.2</ele>
        <time>2021-11-13T15:40:45Z</time>
      </trkpt>
      <trkpt lat="47.52558" lon="-2.78332">
        <ele>70.2</ele>
        <time>2021-11-13T15:40:48Z</time>
      </trkpt>
      <trkpt lat="47.52562" lon="-2.78318">
        <ele>70.2</ele>
        <time>2021-11-13T15:40:50Z</time>
      </trkpt>
      <trkpt lat="47.52563" lon="-2.78306">
        <ele>70.2</ele>
        <time>2021-11-13T15:40:52Z</time>
      </trkpt>
      <trkpt lat="47.52562" lon="-2.78297">
        <ele>70.4</ele>
        <time>2021-11-13T15:40:53Z</time>
      </trkpt>
      <trkpt lat="47.5256" lon="-2.78283">
        <ele>70.4</ele>
        <time>2021-11-13T15:40:55Z</time>
      </trkpt>
      <trkpt lat="47.52555" lon="-2.78218">
        <ele>70.6</ele>
        <time>2021-11-13T15:41:04Z</time>
      </trkpt>
      <trkpt lat="47.52552" lon="-2.78144">
        <ele>71.2</ele>
        <time>2021-11-13T15:41:14Z</time>
      </trkpt>
      <trkpt lat="47.52552" lon="-2.78137">
        <ele>71.4</ele>
        <time>2021-11-13T15:41:16Z</time>
      </trkpt>
      <trkpt lat="47.52549" lon="-2.78079">
        <ele>71.4</ele>
        <time>2021-11-13T15:41:23Z</time>
      </trkpt>
      <trkpt lat="47.52548" lon="-2.78063">
        <ele>71.4</ele>
        <time>2021-11-13T15:41:25Z</time>
      </trkpt>
      <trkpt lat="47.52548" lon="-2.78036">
        <ele>71.4</ele>
        <time>2021-11-13T15:41:29Z</time>
      </trkpt>
      <trkpt lat="47.52545" lon="-2.77962">
        <ele>71.8</ele>
        <time>2021-11-13T15:41:39Z</time>
      </trkpt>
      <trkpt lat="47.52545" lon="-2.77918">
        <ele>72.2</ele>
        <time>2021-11-13T15:41:45Z</time>
      </trkpt>
      <trkpt lat="47.52545" lon="-2.77909">
        <ele>72.2</ele>
        <time>2021-11-13T15:41:46Z</time>
      </trkpt>
      <trkpt lat="47.52544" lon="-2.77858">
        <ele>72.4</ele>
        <time>2021-11-13T15:41:53Z</time>
      </trkpt>
      <trkpt lat="47.5254" lon="-2.77802">
        <ele>72.4</ele>
        <time>2021-11-13T15:42:00Z</time>
      </trkpt>
      <trkpt lat="47.5254" lon="-2.77792">
        <ele>72.4</ele>
        <time>2021-11-13T15:42:01Z</time>
      </trkpt>
      <trkpt lat="47.5254" lon="-2.77762">
        <ele>72.4</ele>
        <time>2021-11-13T15:42:06Z</time>
      </trkpt>
      <trkpt lat="47.52542" lon="-2.77744">
        <ele>72.4</ele>
        <time>2021-11-13T15:42:07Z</time>
      </trkpt>
      <trkpt lat="47.52547" lon="-2.77709">
        <ele>72.6</ele>
        <time>2021-11-13T15:42:11Z</time>
      </trkpt>
      <trkpt lat="47.52561" lon="-2.77633">
        <ele>72.8</ele>
        <time>2021-11-13T15:42:19Z</time>
      </trkpt>
      <trkpt lat="47.52575" lon="-2.77552">
        <ele>72.6</ele>
        <time>2021-11-13T15:42:26Z</time>
      </trkpt>
      <trkpt lat="47.52588" lon="-2.77469">
        <ele>72.4</ele>
        <time>2021-11-13T15:42:33Z</time>
      </trkpt>
      <trkpt lat="47.5259" lon="-2.77458">
        <ele>72.4</ele>
        <time>2021-11-13T15:42:34Z</time>
      </trkpt>
      <trkpt lat="47.52602" lon="-2.77372">
        <ele>72</ele>
        <time>2021-11-13T15:42:42Z</time>
      </trkpt>
      <trkpt lat="47.52611" lon="-2.77318">
        <ele>71.8</ele>
        <time>2021-11-13T15:42:48Z</time>
      </trkpt>
      <trkpt lat="47.52614" lon="-2.773">
        <ele>71.6</ele>
        <time>2021-11-13T15:42:52Z</time>
      </trkpt>
      <trkpt lat="47.5261" lon="-2.77282">
        <ele>71.4</ele>
        <time>2021-11-13T15:42:56Z</time>
      </trkpt>
      <trkpt lat="47.52615" lon="-2.77266">
        <ele>71.4</ele>
        <time>2021-11-13T15:43:00Z</time>
      </trkpt>
      <trkpt lat="47.52617" lon="-2.77259">
        <ele>71.2</ele>
        <time>2021-11-13T15:43:01Z</time>
      </trkpt>
      <trkpt lat="47.52623" lon="-2.7724">
        <ele>71</ele>
        <time>2021-11-13T15:43:03Z</time>
      </trkpt>
      <trkpt lat="47.52628" lon="-2.77224">
        <ele>70.8</ele>
        <time>2021-11-13T15:43:05Z</time>
      </trkpt>
      <trkpt lat="47.52638" lon="-2.77179">
        <ele>70.4</ele>
        <time>2021-11-13T15:43:11Z</time>
      </trkpt>
      <trkpt lat="47.52647" lon="-2.77129">
        <ele>70.2</ele>
        <time>2021-11-13T15:43:18Z</time>
      </trkpt>
      <trkpt lat="47.52651" lon="-2.77113">
        <ele>70</ele>
        <time>2021-11-13T15:43:20Z</time>
      </trkpt>
      <trkpt lat="47.52658" lon="-2.77092">
        <ele>69.6</ele>
        <time>2021-11-13T15:43:23Z</time>
      </trkpt>
      <trkpt lat="47.52659" lon="-2.77083">
        <ele>69.6</ele>
        <time>2021-11-13T15:43:24Z</time>
      </trkpt>
      <trkpt lat="47.52667" lon="-2.77039">
        <ele>69.4</ele>
        <time>2021-11-13T15:43:31Z</time>
      </trkpt>
      <trkpt lat="47.52668" lon="-2.77033">
        <ele>69.4</ele>
        <time>2021-11-13T15:43:32Z</time>
      </trkpt>
      <trkpt lat="47.52668" lon="-2.7702">
        <ele>69.4</ele>
        <time>2021-11-13T15:43:34Z</time>
      </trkpt>
      <trkpt lat="47.52668" lon="-2.77014">
        <ele>69.4</ele>
        <time>2021-11-13T15:43:35Z</time>
      </trkpt>
      <trkpt lat="47.52661" lon="-2.76978">
        <ele>69</ele>
        <time>2021-11-13T15:43:42Z</time>
      </trkpt>
      <trkpt lat="47.5266" lon="-2.76969">
        <ele>68.8</ele>
        <time>2021-11-13T15:43:44Z</time>
      </trkpt>
      <trkpt lat="47.52659" lon="-2.7696">
        <ele>68.8</ele>
        <time>2021-11-13T15:43:46Z</time>
      </trkpt>
      <trkpt lat="47.52657" lon="-2.76955">
        <ele>68.8</ele>
        <time>2021-11-13T15:43:47Z</time>
      </trkpt>
      <trkpt lat="47.52656" lon="-2.76931">
        <ele>68.4</ele>
        <time>2021-11-13T15:43:52Z</time>
      </trkpt>
      <trkpt lat="47.52656" lon="-2.76911">
        <ele>68.2</ele>
        <time>2021-11-13T15:43:56Z</time>
      </trkpt>
      <trkpt lat="47.52654" lon="-2.76908">
        <ele>68.2</ele>
        <time>2021-11-13T15:43:57Z</time>
      </trkpt>
      <trkpt lat="47.52639" lon="-2.76895">
        <ele>67.8</ele>
        <time>2021-11-13T15:44:02Z</time>
      </trkpt>
      <trkpt lat="47.52636" lon="-2.76881">
        <ele>67.4</ele>
        <time>2021-11-13T15:44:05Z</time>
      </trkpt>
      <trkpt lat="47.52639" lon="-2.76854">
        <ele>67.2</ele>
        <time>2021-11-13T15:44:10Z</time>
      </trkpt>
      <trkpt lat="47.52639" lon="-2.76849">
        <ele>67.2</ele>
        <time>2021-11-13T15:44:11Z</time>
      </trkpt>
      <trkpt lat="47.52635" lon="-2.76837">
        <ele>66.8</ele>
        <time>2021-11-13T15:44:14Z</time>
      </trkpt>
      <trkpt lat="47.52633" lon="-2.76834">
        <ele>66.8</ele>
        <time>2021-11-13T15:44:15Z</time>
      </trkpt>
      <trkpt lat="47.52632" lon="-2.76832">
        <ele>66.8</ele>
        <time>2021-11-13T15:44:16Z</time>
      </trkpt>
      <trkpt lat="47.52628" lon="-2.7683">
        <ele>66.6</ele>
        <time>2021-11-13T15:44:18Z</time>
      </trkpt>
      <trkpt lat="47.52627" lon="-2.76831">
        <ele>66.2</ele>
        <time>2021-11-13T15:44:22Z</time>
      </trkpt>
      <trkpt lat="47.52624" lon="-2.7683">
        <ele>65.8</ele>
        <time>2021-11-13T15:44:27Z</time>
      </trkpt>
      <trkpt lat="47.52624" lon="-2.7683">
        <ele>65.8</ele>
        <time>2021-11-13T15:44:28Z</time>
      </trkpt>
    </trkseg>
  </trk>
</gpx>